<?xml version="1.0" encoding="UTF-8" standalone="no" ?>
<gpx xmlns="http://www.topografix.com/GPX/1/1" xmlns:xsi="http://www.w3.org/2001/XMLSchema-instance" xsi:schemaLocation="http://www.topografix.com/GPX/1/1 http://www.topografix.com/GPX/1/1/gpx.xsd" version="1.1" creator="VisuGPX - https://www.visugpx.com">
  <metadata>
    <name>05 - La Bâtie Neuve : 3 circuits</name>
    <desc><![CDATA[Cet itinéraire fait partie de la collection de EquiLiberté : www.equiliberte.org Circuit NON ACCESSIBLE aux attelages
]]></desc>
  </metadata>
  <trk>
    <name><![CDATA[05 - La BâtieNeuve sud : Vière]]></name>
    <extensions>
      <line xmlns="http://www.topografix.com/GPX/gpx_style/0/2">
        <color>FF0000</color>
        <width>4</width>
      </line>
    </extensions>
    <trkseg>
      <trkpt lat="44.57436" lon="6.21435">
        <ele>980.79998779297</ele>
        <time>2016-07-13T07:37:39.000Z</time>
      </trkpt>
      <trkpt lat="44.57437" lon="6.21429">
        <ele>980.79998779297</ele>
        <time>2016-07-13T07:37:43.000Z</time>
      </trkpt>
      <trkpt lat="44.57438" lon="6.21415">
        <ele>980.40002441406</ele>
        <time>2016-07-13T07:37:52.000Z</time>
      </trkpt>
      <trkpt lat="44.57449" lon="6.21395">
        <ele>982.40002441406</ele>
        <time>2016-07-13T07:38:06.000Z</time>
      </trkpt>
      <trkpt lat="44.57456" lon="6.2137">
        <ele>984.59997558594</ele>
        <time>2016-07-13T07:38:23.000Z</time>
      </trkpt>
      <trkpt lat="44.57457" lon="6.21352">
        <ele>984.79998779297</ele>
        <time>2016-07-13T07:38:34.000Z</time>
      </trkpt>
      <trkpt lat="44.57453" lon="6.21333">
        <ele>983</ele>
        <time>2016-07-13T07:38:47.000Z</time>
      </trkpt>
      <trkpt lat="44.57449" lon="6.21318">
        <ele>981.59997558594</ele>
        <time>2016-07-13T07:38:57.000Z</time>
      </trkpt>
      <trkpt lat="44.57445" lon="6.21303">
        <ele>980.20001220703</ele>
        <time>2016-07-13T07:39:07.000Z</time>
      </trkpt>
      <trkpt lat="44.57442" lon="6.21288">
        <ele>979.40002441406</ele>
        <time>2016-07-13T07:39:16.000Z</time>
      </trkpt>
      <trkpt lat="44.57439" lon="6.21274">
        <ele>978.40002441406</ele>
        <time>2016-07-13T07:39:25.000Z</time>
      </trkpt>
      <trkpt lat="44.57434" lon="6.21259">
        <ele>977</ele>
        <time>2016-07-13T07:39:34.000Z</time>
      </trkpt>
      <trkpt lat="44.57433" lon="6.21247">
        <ele>976.79998779297</ele>
        <time>2016-07-13T07:39:42.000Z</time>
      </trkpt>
      <trkpt lat="44.57432" lon="6.21231">
        <ele>976.20001220703</ele>
        <time>2016-07-13T07:39:52.000Z</time>
      </trkpt>
      <trkpt lat="44.57432" lon="6.21218">
        <ele>975.40002441406</ele>
        <time>2016-07-13T07:40:00.000Z</time>
      </trkpt>
      <trkpt lat="44.57432" lon="6.21203">
        <ele>975</ele>
        <time>2016-07-13T07:40:09.000Z</time>
      </trkpt>
      <trkpt lat="44.57431" lon="6.21201">
        <ele>975</ele>
        <time>2016-07-13T07:40:10.000Z</time>
      </trkpt>
      <trkpt lat="44.57429" lon="6.21189">
        <ele>974.20001220703</ele>
        <time>2016-07-13T07:40:18.000Z</time>
      </trkpt>
      <trkpt lat="44.57425" lon="6.21172">
        <ele>973.20001220703</ele>
        <time>2016-07-13T07:40:27.000Z</time>
      </trkpt>
      <trkpt lat="44.57424" lon="6.21161">
        <ele>973</ele>
        <time>2016-07-13T07:40:33.000Z</time>
      </trkpt>
      <trkpt lat="44.57421" lon="6.21143">
        <ele>972</ele>
        <time>2016-07-13T07:40:42.000Z</time>
      </trkpt>
      <trkpt lat="44.57413" lon="6.21127">
        <ele>969.59997558594</ele>
        <time>2016-07-13T07:40:52.000Z</time>
      </trkpt>
      <trkpt lat="44.57412" lon="6.21126">
        <ele>969.20001220703</ele>
        <time>2016-07-13T07:40:53.000Z</time>
      </trkpt>
      <trkpt lat="44.57408" lon="6.21131">
        <ele>967.79998779297</ele>
        <time>2016-07-13T07:40:59.000Z</time>
      </trkpt>
      <trkpt lat="44.57407" lon="6.21136">
        <ele>967.59997558594</ele>
        <time>2016-07-13T07:41:02.000Z</time>
      </trkpt>
      <trkpt lat="44.5741" lon="6.21151">
        <ele>968.59997558594</ele>
        <time>2016-07-13T07:41:11.000Z</time>
      </trkpt>
      <trkpt lat="44.5741" lon="6.21159">
        <ele>968.59997558594</ele>
        <time>2016-07-13T07:41:17.000Z</time>
      </trkpt>
      <trkpt lat="44.5741" lon="6.21161">
        <ele>968.59997558594</ele>
        <time>2016-07-13T07:41:18.000Z</time>
      </trkpt>
      <trkpt lat="44.5741" lon="6.2117">
        <ele>968.40002441406</ele>
        <time>2016-07-13T07:41:23.000Z</time>
      </trkpt>
      <trkpt lat="44.5741" lon="6.21173">
        <ele>968.40002441406</ele>
        <time>2016-07-13T07:41:24.000Z</time>
      </trkpt>
      <trkpt lat="44.57409" lon="6.21183">
        <ele>968</ele>
        <time>2016-07-13T07:41:30.000Z</time>
      </trkpt>
      <trkpt lat="44.57408" lon="6.21191">
        <ele>967.79998779297</ele>
        <time>2016-07-13T07:41:35.000Z</time>
      </trkpt>
      <trkpt lat="44.57406" lon="6.21196">
        <ele>967.59997558594</ele>
        <time>2016-07-13T07:41:38.000Z</time>
      </trkpt>
      <trkpt lat="44.57406" lon="6.212">
        <ele>967.79998779297</ele>
        <time>2016-07-13T07:41:40.000Z</time>
      </trkpt>
      <trkpt lat="44.57401" lon="6.21214">
        <ele>967.59997558594</ele>
        <time>2016-07-13T07:41:48.000Z</time>
      </trkpt>
      <trkpt lat="44.57401" lon="6.21217">
        <ele>967.59997558594</ele>
        <time>2016-07-13T07:41:51.000Z</time>
      </trkpt>
      <trkpt lat="44.57399" lon="6.21222">
        <ele>967.40002441406</ele>
        <time>2016-07-13T07:41:55.000Z</time>
      </trkpt>
      <trkpt lat="44.57398" lon="6.21224">
        <ele>967.20001220703</ele>
        <time>2016-07-13T07:41:57.000Z</time>
      </trkpt>
      <trkpt lat="44.57395" lon="6.2123">
        <ele>966.79998779297</ele>
        <time>2016-07-13T07:42:01.000Z</time>
      </trkpt>
      <trkpt lat="44.57389" lon="6.21242">
        <ele>965.59997558594</ele>
        <time>2016-07-13T07:42:09.000Z</time>
      </trkpt>
      <trkpt lat="44.57385" lon="6.21253">
        <ele>964.59997558594</ele>
        <time>2016-07-13T07:42:16.000Z</time>
      </trkpt>
      <trkpt lat="44.57384" lon="6.21255">
        <ele>964.59997558594</ele>
        <time>2016-07-13T07:42:17.000Z</time>
      </trkpt>
      <trkpt lat="44.57381" lon="6.21265">
        <ele>964</ele>
        <time>2016-07-13T07:42:22.000Z</time>
      </trkpt>
      <trkpt lat="44.57379" lon="6.21268">
        <ele>963.59997558594</ele>
        <time>2016-07-13T07:42:24.000Z</time>
      </trkpt>
      <trkpt lat="44.57374" lon="6.21278">
        <ele>962.79998779297</ele>
        <time>2016-07-13T07:42:30.000Z</time>
      </trkpt>
      <trkpt lat="44.57372" lon="6.21282">
        <ele>962.40002441406</ele>
        <time>2016-07-13T07:42:33.000Z</time>
      </trkpt>
      <trkpt lat="44.57371" lon="6.21286">
        <ele>962.20001220703</ele>
        <time>2016-07-13T07:42:35.000Z</time>
      </trkpt>
      <trkpt lat="44.5737" lon="6.21289">
        <ele>961.79998779297</ele>
        <time>2016-07-13T07:42:37.000Z</time>
      </trkpt>
      <trkpt lat="44.57367" lon="6.21299">
        <ele>961.40002441406</ele>
        <time>2016-07-13T07:42:43.000Z</time>
      </trkpt>
      <trkpt lat="44.57367" lon="6.21304">
        <ele>961.40002441406</ele>
        <time>2016-07-13T07:42:45.000Z</time>
      </trkpt>
      <trkpt lat="44.57364" lon="6.21313">
        <ele>961</ele>
        <time>2016-07-13T07:42:51.000Z</time>
      </trkpt>
      <trkpt lat="44.57364" lon="6.21315">
        <ele>960.59997558594</ele>
        <time>2016-07-13T07:42:52.000Z</time>
      </trkpt>
      <trkpt lat="44.57362" lon="6.21321">
        <ele>959.79998779297</ele>
        <time>2016-07-13T07:42:56.000Z</time>
      </trkpt>
      <trkpt lat="44.5736" lon="6.21324">
        <ele>959.40002441406</ele>
        <time>2016-07-13T07:42:58.000Z</time>
      </trkpt>
      <trkpt lat="44.57354" lon="6.21337">
        <ele>957.20001220703</ele>
        <time>2016-07-13T07:43:06.000Z</time>
      </trkpt>
      <trkpt lat="44.57347" lon="6.21352">
        <ele>954.79998779297</ele>
        <time>2016-07-13T07:43:15.000Z</time>
      </trkpt>
      <trkpt lat="44.57341" lon="6.21365">
        <ele>952.59997558594</ele>
        <time>2016-07-13T07:43:23.000Z</time>
      </trkpt>
      <trkpt lat="44.5734" lon="6.21366">
        <ele>952.40002441406</ele>
        <time>2016-07-13T07:43:30.000Z</time>
      </trkpt>
      <trkpt lat="44.57338" lon="6.21371">
        <ele>951.59997558594</ele>
        <time>2016-07-13T07:43:35.000Z</time>
      </trkpt>
      <trkpt lat="44.57334" lon="6.21379">
        <ele>950.40002441406</ele>
        <time>2016-07-13T07:43:38.000Z</time>
      </trkpt>
      <trkpt lat="44.57325" lon="6.21401">
        <ele>948</ele>
        <time>2016-07-13T07:43:50.000Z</time>
      </trkpt>
      <trkpt lat="44.5732" lon="6.21415">
        <ele>947</ele>
        <time>2016-07-13T07:43:58.000Z</time>
      </trkpt>
      <trkpt lat="44.57317" lon="6.21427">
        <ele>946.40002441406</ele>
        <time>2016-07-13T07:44:06.000Z</time>
      </trkpt>
      <trkpt lat="44.57312" lon="6.21447">
        <ele>945.40002441406</ele>
        <time>2016-07-13T07:44:18.000Z</time>
      </trkpt>
      <trkpt lat="44.57311" lon="6.21456">
        <ele>945.20001220703</ele>
        <time>2016-07-13T07:44:25.000Z</time>
      </trkpt>
      <trkpt lat="44.57309" lon="6.2147">
        <ele>945.20001220703</ele>
        <time>2016-07-13T07:44:35.000Z</time>
      </trkpt>
      <trkpt lat="44.57307" lon="6.21483">
        <ele>944.79998779297</ele>
        <time>2016-07-13T07:44:43.000Z</time>
      </trkpt>
      <trkpt lat="44.57305" lon="6.21496">
        <ele>944</ele>
        <time>2016-07-13T07:44:51.000Z</time>
      </trkpt>
      <trkpt lat="44.57301" lon="6.21511">
        <ele>943.40002441406</ele>
        <time>2016-07-13T07:45:00.000Z</time>
      </trkpt>
      <trkpt lat="44.57296" lon="6.21531">
        <ele>942.40002441406</ele>
        <time>2016-07-13T07:45:12.000Z</time>
      </trkpt>
      <trkpt lat="44.57292" lon="6.21547">
        <ele>941.79998779297</ele>
        <time>2016-07-13T07:45:22.000Z</time>
      </trkpt>
      <trkpt lat="44.57288" lon="6.21561">
        <ele>941</ele>
        <time>2016-07-13T07:45:31.000Z</time>
      </trkpt>
      <trkpt lat="44.57286" lon="6.21573">
        <ele>941</ele>
        <time>2016-07-13T07:45:39.000Z</time>
      </trkpt>
      <trkpt lat="44.57282" lon="6.21587">
        <ele>941</ele>
        <time>2016-07-13T07:45:47.000Z</time>
      </trkpt>
      <trkpt lat="44.57278" lon="6.21599">
        <ele>941</ele>
        <time>2016-07-13T07:45:55.000Z</time>
      </trkpt>
      <trkpt lat="44.5726" lon="6.21636">
        <ele>939.40002441406</ele>
        <time>2016-07-13T07:46:20.000Z</time>
      </trkpt>
      <trkpt lat="44.57254" lon="6.21649">
        <ele>939.20001220703</ele>
        <time>2016-07-13T07:46:29.000Z</time>
      </trkpt>
      <trkpt lat="44.57247" lon="6.21666">
        <ele>938.59997558594</ele>
        <time>2016-07-13T07:46:40.000Z</time>
      </trkpt>
      <trkpt lat="44.57241" lon="6.21684">
        <ele>938</ele>
        <time>2016-07-13T07:46:51.000Z</time>
      </trkpt>
      <trkpt lat="44.57235" lon="6.21697">
        <ele>937</ele>
        <time>2016-07-13T07:46:59.000Z</time>
      </trkpt>
      <trkpt lat="44.57227" lon="6.21712">
        <ele>935.40002441406</ele>
        <time>2016-07-13T07:47:09.000Z</time>
      </trkpt>
      <trkpt lat="44.57218" lon="6.21727">
        <ele>933.59997558594</ele>
        <time>2016-07-13T07:47:19.000Z</time>
      </trkpt>
      <trkpt lat="44.57211" lon="6.21738">
        <ele>932</ele>
        <time>2016-07-13T07:47:27.000Z</time>
      </trkpt>
      <trkpt lat="44.57203" lon="6.21752">
        <ele>930.59997558594</ele>
        <time>2016-07-13T07:47:40.000Z</time>
      </trkpt>
      <trkpt lat="44.57196" lon="6.21765">
        <ele>929.40002441406</ele>
        <time>2016-07-13T07:47:48.000Z</time>
      </trkpt>
      <trkpt lat="44.5719" lon="6.21781">
        <ele>928.59997558594</ele>
        <time>2016-07-13T07:47:57.000Z</time>
      </trkpt>
      <trkpt lat="44.57186" lon="6.21793">
        <ele>928.20001220703</ele>
        <time>2016-07-13T07:48:03.000Z</time>
      </trkpt>
      <trkpt lat="44.57183" lon="6.21806">
        <ele>928.40002441406</ele>
        <time>2016-07-13T07:48:11.000Z</time>
      </trkpt>
      <trkpt lat="44.57177" lon="6.21823">
        <ele>928.59997558594</ele>
        <time>2016-07-13T07:48:21.000Z</time>
      </trkpt>
      <trkpt lat="44.57174" lon="6.21836">
        <ele>928.59997558594</ele>
        <time>2016-07-13T07:48:28.000Z</time>
      </trkpt>
      <trkpt lat="44.57168" lon="6.21853">
        <ele>928.59997558594</ele>
        <time>2016-07-13T07:48:37.000Z</time>
      </trkpt>
      <trkpt lat="44.57164" lon="6.21868">
        <ele>928.79998779297</ele>
        <time>2016-07-13T07:48:45.000Z</time>
      </trkpt>
      <trkpt lat="44.57159" lon="6.21886">
        <ele>929.40002441406</ele>
        <time>2016-07-13T07:48:54.000Z</time>
      </trkpt>
      <trkpt lat="44.57156" lon="6.21896">
        <ele>929.59997558594</ele>
        <time>2016-07-13T07:49:00.000Z</time>
      </trkpt>
      <trkpt lat="44.57144" lon="6.2192">
        <ele>929.59997558594</ele>
        <time>2016-07-13T07:49:16.000Z</time>
      </trkpt>
      <trkpt lat="44.57136" lon="6.21931">
        <ele>928.79998779297</ele>
        <time>2016-07-13T07:49:24.000Z</time>
      </trkpt>
      <trkpt lat="44.57135" lon="6.21932">
        <ele>928.79998779297</ele>
        <time>2016-07-13T07:49:25.000Z</time>
      </trkpt>
      <trkpt lat="44.57131" lon="6.2194">
        <ele>928.20001220703</ele>
        <time>2016-07-13T07:49:31.000Z</time>
      </trkpt>
      <trkpt lat="44.57128" lon="6.2195">
        <ele>928</ele>
        <time>2016-07-13T07:49:37.000Z</time>
      </trkpt>
      <trkpt lat="44.57127" lon="6.21953">
        <ele>927.79998779297</ele>
        <time>2016-07-13T07:49:39.000Z</time>
      </trkpt>
      <trkpt lat="44.57126" lon="6.21955">
        <ele>927.79998779297</ele>
        <time>2016-07-13T07:49:40.000Z</time>
      </trkpt>
      <trkpt lat="44.57121" lon="6.21963">
        <ele>927.20001220703</ele>
        <time>2016-07-13T07:49:46.000Z</time>
      </trkpt>
      <trkpt lat="44.57113" lon="6.21965">
        <ele>926.40002441406</ele>
        <time>2016-07-13T07:49:52.000Z</time>
      </trkpt>
      <trkpt lat="44.57109" lon="6.21969">
        <ele>926</ele>
        <time>2016-07-13T07:49:58.000Z</time>
      </trkpt>
      <trkpt lat="44.57104" lon="6.2195">
        <ele>925.20001220703</ele>
        <time>2016-07-13T07:50:20.000Z</time>
      </trkpt>
      <trkpt lat="44.57099" lon="6.21937">
        <ele>924.40002441406</ele>
        <time>2016-07-13T07:50:28.000Z</time>
      </trkpt>
      <trkpt lat="44.5709" lon="6.21925">
        <ele>923.40002441406</ele>
        <time>2016-07-13T07:50:37.000Z</time>
      </trkpt>
      <trkpt lat="44.57082" lon="6.21915">
        <ele>922.40002441406</ele>
        <time>2016-07-13T07:50:45.000Z</time>
      </trkpt>
      <trkpt lat="44.57071" lon="6.21904">
        <ele>921</ele>
        <time>2016-07-13T07:50:55.000Z</time>
      </trkpt>
      <trkpt lat="44.57035" lon="6.21896">
        <ele>917</ele>
        <time>2016-07-13T07:51:22.000Z</time>
      </trkpt>
      <trkpt lat="44.5703" lon="6.21892">
        <ele>916.40002441406</ele>
        <time>2016-07-13T07:51:26.000Z</time>
      </trkpt>
      <trkpt lat="44.57022" lon="6.2188">
        <ele>915.40002441406</ele>
        <time>2016-07-13T07:51:35.000Z</time>
      </trkpt>
      <trkpt lat="44.57018" lon="6.21867">
        <ele>914.40002441406</ele>
        <time>2016-07-13T07:51:42.000Z</time>
      </trkpt>
      <trkpt lat="44.57016" lon="6.21853">
        <ele>913.59997558594</ele>
        <time>2016-07-13T07:51:49.000Z</time>
      </trkpt>
      <trkpt lat="44.57011" lon="6.21841">
        <ele>912.59997558594</ele>
        <time>2016-07-13T07:51:57.000Z</time>
      </trkpt>
      <trkpt lat="44.57002" lon="6.2183">
        <ele>911.40002441406</ele>
        <time>2016-07-13T07:52:07.000Z</time>
      </trkpt>
      <trkpt lat="44.56988" lon="6.21823">
        <ele>910.20001220703</ele>
        <time>2016-07-13T07:52:18.000Z</time>
      </trkpt>
      <trkpt lat="44.56979" lon="6.21815">
        <ele>909.20001220703</ele>
        <time>2016-07-13T07:52:26.000Z</time>
      </trkpt>
      <trkpt lat="44.56977" lon="6.21813">
        <ele>909</ele>
        <time>2016-07-13T07:52:28.000Z</time>
      </trkpt>
      <trkpt lat="44.56973" lon="6.21808">
        <ele>908.40002441406</ele>
        <time>2016-07-13T07:52:33.000Z</time>
      </trkpt>
      <trkpt lat="44.56969" lon="6.21806">
        <ele>908</ele>
        <time>2016-07-13T07:52:38.000Z</time>
      </trkpt>
      <trkpt lat="44.56966" lon="6.21806">
        <ele>907.79998779297</ele>
        <time>2016-07-13T07:52:40.000Z</time>
      </trkpt>
      <trkpt lat="44.56958" lon="6.21811">
        <ele>907.40002441406</ele>
        <time>2016-07-13T07:52:46.000Z</time>
      </trkpt>
      <trkpt lat="44.56953" lon="6.21817">
        <ele>907.20001220703</ele>
        <time>2016-07-13T07:52:51.000Z</time>
      </trkpt>
      <trkpt lat="44.56946" lon="6.21824">
        <ele>906.79998779297</ele>
        <time>2016-07-13T07:52:57.000Z</time>
      </trkpt>
      <trkpt lat="44.56942" lon="6.21829">
        <ele>906.59997558594</ele>
        <time>2016-07-13T07:53:01.000Z</time>
      </trkpt>
      <trkpt lat="44.56932" lon="6.21851">
        <ele>906.20001220703</ele>
        <time>2016-07-13T07:53:14.000Z</time>
      </trkpt>
      <trkpt lat="44.56927" lon="6.21863">
        <ele>906</ele>
        <time>2016-07-13T07:53:21.000Z</time>
      </trkpt>
      <trkpt lat="44.56922" lon="6.21879">
        <ele>906</ele>
        <time>2016-07-13T07:53:30.000Z</time>
      </trkpt>
      <trkpt lat="44.56916" lon="6.2189">
        <ele>906.20001220703</ele>
        <time>2016-07-13T07:53:39.000Z</time>
      </trkpt>
      <trkpt lat="44.56916" lon="6.21891">
        <ele>906.20001220703</ele>
        <time>2016-07-13T07:53:40.000Z</time>
      </trkpt>
      <trkpt lat="44.56913" lon="6.21899">
        <ele>906.40002441406</ele>
        <time>2016-07-13T07:53:45.000Z</time>
      </trkpt>
      <trkpt lat="44.56906" lon="6.21918">
        <ele>906.79998779297</ele>
        <time>2016-07-13T07:53:55.000Z</time>
      </trkpt>
      <trkpt lat="44.56896" lon="6.21929">
        <ele>906.59997558594</ele>
        <time>2016-07-13T07:54:08.000Z</time>
      </trkpt>
      <trkpt lat="44.56895" lon="6.21926">
        <ele>906.40002441406</ele>
        <time>2016-07-13T07:54:23.000Z</time>
      </trkpt>
      <trkpt lat="44.56887" lon="6.21919">
        <ele>905.40002441406</ele>
        <time>2016-07-13T07:54:31.000Z</time>
      </trkpt>
      <trkpt lat="44.56885" lon="6.21916">
        <ele>905.20001220703</ele>
        <time>2016-07-13T07:54:37.000Z</time>
      </trkpt>
      <trkpt lat="44.56889" lon="6.21918">
        <ele>905.59997558594</ele>
        <time>2016-07-13T07:54:48.000Z</time>
      </trkpt>
      <trkpt lat="44.56893" lon="6.21924">
        <ele>906.20001220703</ele>
        <time>2016-07-13T07:54:53.000Z</time>
      </trkpt>
      <trkpt lat="44.56891" lon="6.21933">
        <ele>906.20001220703</ele>
        <time>2016-07-13T07:54:58.000Z</time>
      </trkpt>
      <trkpt lat="44.56882" lon="6.21944">
        <ele>906</ele>
        <time>2016-07-13T07:55:07.000Z</time>
      </trkpt>
      <trkpt lat="44.56868" lon="6.21963">
        <ele>905.40002441406</ele>
        <time>2016-07-13T07:55:20.000Z</time>
      </trkpt>
      <trkpt lat="44.56863" lon="6.21974">
        <ele>905.40002441406</ele>
        <time>2016-07-13T07:55:27.000Z</time>
      </trkpt>
      <trkpt lat="44.56855" lon="6.21988">
        <ele>905</ele>
        <time>2016-07-13T07:55:37.000Z</time>
      </trkpt>
      <trkpt lat="44.56849" lon="6.22">
        <ele>904.79998779297</ele>
        <time>2016-07-13T07:55:45.000Z</time>
      </trkpt>
      <trkpt lat="44.56843" lon="6.2201">
        <ele>904.59997558594</ele>
        <time>2016-07-13T07:55:52.000Z</time>
      </trkpt>
      <trkpt lat="44.56836" lon="6.22022">
        <ele>904.20001220703</ele>
        <time>2016-07-13T07:56:00.000Z</time>
      </trkpt>
      <trkpt lat="44.56837" lon="6.22022">
        <ele>904.20001220703</ele>
        <time>2016-07-13T07:56:06.000Z</time>
      </trkpt>
      <trkpt lat="44.56833" lon="6.22027">
        <ele>904</ele>
        <time>2016-07-13T07:56:15.000Z</time>
      </trkpt>
      <trkpt lat="44.56825" lon="6.22036">
        <ele>903.59997558594</ele>
        <time>2016-07-13T07:56:22.000Z</time>
      </trkpt>
      <trkpt lat="44.56815" lon="6.22042">
        <ele>903</ele>
        <time>2016-07-13T07:56:30.000Z</time>
      </trkpt>
      <trkpt lat="44.56807" lon="6.2205">
        <ele>902.59997558594</ele>
        <time>2016-07-13T07:56:37.000Z</time>
      </trkpt>
      <trkpt lat="44.56799" lon="6.22055">
        <ele>902</ele>
        <time>2016-07-13T07:56:43.000Z</time>
      </trkpt>
      <trkpt lat="44.56791" lon="6.22055">
        <ele>901.40002441406</ele>
        <time>2016-07-13T07:56:49.000Z</time>
      </trkpt>
      <trkpt lat="44.5679" lon="6.22054">
        <ele>901.20001220703</ele>
        <time>2016-07-13T07:56:50.000Z</time>
      </trkpt>
      <trkpt lat="44.5679" lon="6.22053">
        <ele>901.20001220703</ele>
        <time>2016-07-13T07:56:55.000Z</time>
      </trkpt>
      <trkpt lat="44.56791" lon="6.22051">
        <ele>901</ele>
        <time>2016-07-13T07:56:58.000Z</time>
      </trkpt>
      <trkpt lat="44.56792" lon="6.22052">
        <ele>901.20001220703</ele>
        <time>2016-07-13T07:56:59.000Z</time>
      </trkpt>
      <trkpt lat="44.56789" lon="6.22065">
        <ele>901.40002441406</ele>
        <time>2016-07-13T07:57:08.000Z</time>
      </trkpt>
      <trkpt lat="44.56778" lon="6.22077">
        <ele>900.59997558594</ele>
        <time>2016-07-13T07:57:18.000Z</time>
      </trkpt>
      <trkpt lat="44.56771" lon="6.22083">
        <ele>900</ele>
        <time>2016-07-13T07:57:24.000Z</time>
      </trkpt>
      <trkpt lat="44.56763" lon="6.22088">
        <ele>899.20001220703</ele>
        <time>2016-07-13T07:57:30.000Z</time>
      </trkpt>
      <trkpt lat="44.56753" lon="6.22094">
        <ele>898.40002441406</ele>
        <time>2016-07-13T07:57:37.000Z</time>
      </trkpt>
      <trkpt lat="44.56742" lon="6.22099">
        <ele>897.40002441406</ele>
        <time>2016-07-13T07:57:45.000Z</time>
      </trkpt>
      <trkpt lat="44.56734" lon="6.22096">
        <ele>896.40002441406</ele>
        <time>2016-07-13T07:57:51.000Z</time>
      </trkpt>
      <trkpt lat="44.56727" lon="6.22093">
        <ele>895.59997558594</ele>
        <time>2016-07-13T07:57:57.000Z</time>
      </trkpt>
      <trkpt lat="44.56725" lon="6.22092">
        <ele>895.40002441406</ele>
        <time>2016-07-13T07:57:59.000Z</time>
      </trkpt>
      <trkpt lat="44.56712" lon="6.22083">
        <ele>894</ele>
        <time>2016-07-13T07:58:09.000Z</time>
      </trkpt>
      <trkpt lat="44.567" lon="6.22072">
        <ele>892.40002441406</ele>
        <time>2016-07-13T07:58:20.000Z</time>
      </trkpt>
      <trkpt lat="44.56692" lon="6.22065">
        <ele>891.40002441406</ele>
        <time>2016-07-13T07:58:27.000Z</time>
      </trkpt>
      <trkpt lat="44.56682" lon="6.22057">
        <ele>890.40002441406</ele>
        <time>2016-07-13T07:58:35.000Z</time>
      </trkpt>
      <trkpt lat="44.56672" lon="6.22048">
        <ele>889.59997558594</ele>
        <time>2016-07-13T07:58:43.000Z</time>
      </trkpt>
      <trkpt lat="44.56663" lon="6.22042">
        <ele>888.79998779297</ele>
        <time>2016-07-13T07:58:50.000Z</time>
      </trkpt>
      <trkpt lat="44.56655" lon="6.22036">
        <ele>888</ele>
        <time>2016-07-13T07:58:56.000Z</time>
      </trkpt>
      <trkpt lat="44.56644" lon="6.2203">
        <ele>887</ele>
        <time>2016-07-13T07:59:05.000Z</time>
      </trkpt>
      <trkpt lat="44.56623" lon="6.22021">
        <ele>885.40002441406</ele>
        <time>2016-07-13T07:59:20.000Z</time>
      </trkpt>
      <trkpt lat="44.56613" lon="6.2202">
        <ele>884.59997558594</ele>
        <time>2016-07-13T07:59:27.000Z</time>
      </trkpt>
      <trkpt lat="44.56605" lon="6.22019">
        <ele>884</ele>
        <time>2016-07-13T07:59:32.000Z</time>
      </trkpt>
      <trkpt lat="44.56595" lon="6.22017">
        <ele>883.40002441406</ele>
        <time>2016-07-13T07:59:39.000Z</time>
      </trkpt>
      <trkpt lat="44.56588" lon="6.22015">
        <ele>882.79998779297</ele>
        <time>2016-07-13T07:59:44.000Z</time>
      </trkpt>
      <trkpt lat="44.56581" lon="6.22014">
        <ele>882.20001220703</ele>
        <time>2016-07-13T07:59:49.000Z</time>
      </trkpt>
      <trkpt lat="44.56571" lon="6.22012">
        <ele>881.40002441406</ele>
        <time>2016-07-13T07:59:56.000Z</time>
      </trkpt>
      <trkpt lat="44.56563" lon="6.22009">
        <ele>880.79998779297</ele>
        <time>2016-07-13T08:00:02.000Z</time>
      </trkpt>
      <trkpt lat="44.56553" lon="6.22008">
        <ele>880</ele>
        <time>2016-07-13T08:00:09.000Z</time>
      </trkpt>
      <trkpt lat="44.56542" lon="6.22007">
        <ele>879.20001220703</ele>
        <time>2016-07-13T08:00:17.000Z</time>
      </trkpt>
      <trkpt lat="44.56531" lon="6.22005">
        <ele>878.40002441406</ele>
        <time>2016-07-13T08:00:25.000Z</time>
      </trkpt>
      <trkpt lat="44.56522" lon="6.22003">
        <ele>877.59997558594</ele>
        <time>2016-07-13T08:00:32.000Z</time>
      </trkpt>
      <trkpt lat="44.56512" lon="6.22003">
        <ele>877</ele>
        <time>2016-07-13T08:00:39.000Z</time>
      </trkpt>
      <trkpt lat="44.56502" lon="6.22003">
        <ele>876.20001220703</ele>
        <time>2016-07-13T08:00:46.000Z</time>
      </trkpt>
      <trkpt lat="44.56498" lon="6.21998">
        <ele>875.79998779297</ele>
        <time>2016-07-13T08:00:50.000Z</time>
      </trkpt>
      <trkpt lat="44.56489" lon="6.21995">
        <ele>875.20001220703</ele>
        <time>2016-07-13T08:00:57.000Z</time>
      </trkpt>
      <trkpt lat="44.56482" lon="6.21987">
        <ele>874.40002441406</ele>
        <time>2016-07-13T08:01:04.000Z</time>
      </trkpt>
      <trkpt lat="44.56481" lon="6.21985">
        <ele>874.40002441406</ele>
        <time>2016-07-13T08:01:05.000Z</time>
      </trkpt>
      <trkpt lat="44.56473" lon="6.21983">
        <ele>873.79998779297</ele>
        <time>2016-07-13T08:01:11.000Z</time>
      </trkpt>
      <trkpt lat="44.56461" lon="6.21982">
        <ele>872.79998779297</ele>
        <time>2016-07-13T08:01:20.000Z</time>
      </trkpt>
      <trkpt lat="44.56451" lon="6.21982">
        <ele>872</ele>
        <time>2016-07-13T08:01:27.000Z</time>
      </trkpt>
      <trkpt lat="44.56441" lon="6.21983">
        <ele>872</ele>
        <time>2016-07-13T08:01:34.000Z</time>
      </trkpt>
      <trkpt lat="44.56438" lon="6.21984">
        <ele>872</ele>
        <time>2016-07-13T08:01:36.000Z</time>
      </trkpt>
      <trkpt lat="44.56434" lon="6.21987">
        <ele>872</ele>
        <time>2016-07-13T08:01:40.000Z</time>
      </trkpt>
      <trkpt lat="44.56433" lon="6.21988">
        <ele>872</ele>
        <time>2016-07-13T08:01:41.000Z</time>
      </trkpt>
      <trkpt lat="44.56425" lon="6.21993">
        <ele>872</ele>
        <time>2016-07-13T08:01:48.000Z</time>
      </trkpt>
      <trkpt lat="44.56424" lon="6.21997">
        <ele>872.20001220703</ele>
        <time>2016-07-13T08:01:51.000Z</time>
      </trkpt>
      <trkpt lat="44.56423" lon="6.22">
        <ele>872.20001220703</ele>
        <time>2016-07-13T08:01:53.000Z</time>
      </trkpt>
      <trkpt lat="44.56424" lon="6.21999">
        <ele>872.20001220703</ele>
        <time>2016-07-13T08:01:56.000Z</time>
      </trkpt>
      <trkpt lat="44.56425" lon="6.22">
        <ele>872.20001220703</ele>
        <time>2016-07-13T08:02:02.000Z</time>
      </trkpt>
      <trkpt lat="44.56424" lon="6.22001">
        <ele>872.20001220703</ele>
        <time>2016-07-13T08:02:16.000Z</time>
      </trkpt>
      <trkpt lat="44.56423" lon="6.21997">
        <ele>872.20001220703</ele>
        <time>2016-07-13T08:02:47.000Z</time>
      </trkpt>
      <trkpt lat="44.56422" lon="6.21996">
        <ele>872</ele>
        <time>2016-07-13T08:03:20.000Z</time>
      </trkpt>
      <trkpt lat="44.56424" lon="6.21995">
        <ele>872</ele>
        <time>2016-07-13T08:03:47.000Z</time>
      </trkpt>
      <trkpt lat="44.56424" lon="6.21996">
        <ele>872.20001220703</ele>
        <time>2016-07-13T08:03:52.000Z</time>
      </trkpt>
      <trkpt lat="44.56424" lon="6.21997">
        <ele>872.20001220703</ele>
        <time>2016-07-13T08:03:56.000Z</time>
      </trkpt>
      <trkpt lat="44.56424" lon="6.21998">
        <ele>872.20001220703</ele>
        <time>2016-07-13T08:04:05.000Z</time>
      </trkpt>
      <trkpt lat="44.56423" lon="6.22006">
        <ele>872.40002441406</ele>
        <time>2016-07-13T08:04:09.000Z</time>
      </trkpt>
      <trkpt lat="44.56421" lon="6.22022">
        <ele>872.59997558594</ele>
        <time>2016-07-13T08:04:18.000Z</time>
      </trkpt>
      <trkpt lat="44.56422" lon="6.22033">
        <ele>873</ele>
        <time>2016-07-13T08:04:24.000Z</time>
      </trkpt>
      <trkpt lat="44.56422" lon="6.22038">
        <ele>873</ele>
        <time>2016-07-13T08:04:27.000Z</time>
      </trkpt>
      <trkpt lat="44.56418" lon="6.22044">
        <ele>872.79998779297</ele>
        <time>2016-07-13T08:04:31.000Z</time>
      </trkpt>
      <trkpt lat="44.56411" lon="6.22056">
        <ele>872.59997558594</ele>
        <time>2016-07-13T08:04:39.000Z</time>
      </trkpt>
      <trkpt lat="44.56406" lon="6.22067">
        <ele>872.59997558594</ele>
        <time>2016-07-13T08:04:45.000Z</time>
      </trkpt>
      <trkpt lat="44.564" lon="6.22084">
        <ele>873.20001220703</ele>
        <time>2016-07-13T08:04:54.000Z</time>
      </trkpt>
      <trkpt lat="44.56396" lon="6.221">
        <ele>873.79998779297</ele>
        <time>2016-07-13T08:05:02.000Z</time>
      </trkpt>
      <trkpt lat="44.56391" lon="6.22114">
        <ele>874</ele>
        <time>2016-07-13T08:05:10.000Z</time>
      </trkpt>
      <trkpt lat="44.56389" lon="6.22115">
        <ele>873.79998779297</ele>
        <time>2016-07-13T08:05:12.000Z</time>
      </trkpt>
      <trkpt lat="44.56384" lon="6.22109">
        <ele>873.59997558594</ele>
        <time>2016-07-13T08:05:16.000Z</time>
      </trkpt>
      <trkpt lat="44.5638" lon="6.22095">
        <ele>872.79998779297</ele>
        <time>2016-07-13T08:05:24.000Z</time>
      </trkpt>
      <trkpt lat="44.56376" lon="6.22081">
        <ele>872</ele>
        <time>2016-07-13T08:05:31.000Z</time>
      </trkpt>
      <trkpt lat="44.56374" lon="6.22068">
        <ele>871.59997558594</ele>
        <time>2016-07-13T08:05:38.000Z</time>
      </trkpt>
      <trkpt lat="44.56374" lon="6.22052">
        <ele>871.20001220703</ele>
        <time>2016-07-13T08:05:46.000Z</time>
      </trkpt>
      <trkpt lat="44.56372" lon="6.22026">
        <ele>871.20001220703</ele>
        <time>2016-07-13T08:05:59.000Z</time>
      </trkpt>
      <trkpt lat="44.5637" lon="6.21999">
        <ele>871</ele>
        <time>2016-07-13T08:06:12.000Z</time>
      </trkpt>
      <trkpt lat="44.56367" lon="6.21977">
        <ele>871</ele>
        <time>2016-07-13T08:06:22.000Z</time>
      </trkpt>
      <trkpt lat="44.56363" lon="6.21959">
        <ele>870.59997558594</ele>
        <time>2016-07-13T08:06:31.000Z</time>
      </trkpt>
      <trkpt lat="44.5636" lon="6.2195">
        <ele>870.20001220703</ele>
        <time>2016-07-13T08:06:36.000Z</time>
      </trkpt>
      <trkpt lat="44.56353" lon="6.21939">
        <ele>869.59997558594</ele>
        <time>2016-07-13T08:06:43.000Z</time>
      </trkpt>
      <trkpt lat="44.5634" lon="6.21925">
        <ele>868.40002441406</ele>
        <time>2016-07-13T08:06:53.000Z</time>
      </trkpt>
      <trkpt lat="44.56333" lon="6.21911">
        <ele>867.59997558594</ele>
        <time>2016-07-13T08:07:01.000Z</time>
      </trkpt>
      <trkpt lat="44.56328" lon="6.21886">
        <ele>867.20001220703</ele>
        <time>2016-07-13T08:07:13.000Z</time>
      </trkpt>
      <trkpt lat="44.56324" lon="6.21865">
        <ele>867.20001220703</ele>
        <time>2016-07-13T08:07:23.000Z</time>
      </trkpt>
      <trkpt lat="44.56322" lon="6.21852">
        <ele>867.20001220703</ele>
        <time>2016-07-13T08:07:30.000Z</time>
      </trkpt>
      <trkpt lat="44.56317" lon="6.21833">
        <ele>866.20001220703</ele>
        <time>2016-07-13T08:07:39.000Z</time>
      </trkpt>
      <trkpt lat="44.56313" lon="6.21817">
        <ele>865.20001220703</ele>
        <time>2016-07-13T08:07:47.000Z</time>
      </trkpt>
      <trkpt lat="44.56309" lon="6.21795">
        <ele>864</ele>
        <time>2016-07-13T08:07:57.000Z</time>
      </trkpt>
      <trkpt lat="44.56308" lon="6.21778">
        <ele>863.20001220703</ele>
        <time>2016-07-13T08:08:05.000Z</time>
      </trkpt>
      <trkpt lat="44.56305" lon="6.2176">
        <ele>862.20001220703</ele>
        <time>2016-07-13T08:08:14.000Z</time>
      </trkpt>
      <trkpt lat="44.56303" lon="6.21739">
        <ele>861.20001220703</ele>
        <time>2016-07-13T08:08:24.000Z</time>
      </trkpt>
      <trkpt lat="44.56301" lon="6.21716">
        <ele>860</ele>
        <time>2016-07-13T08:08:35.000Z</time>
      </trkpt>
      <trkpt lat="44.56301" lon="6.217">
        <ele>859.20001220703</ele>
        <time>2016-07-13T08:08:43.000Z</time>
      </trkpt>
      <trkpt lat="44.56301" lon="6.2168">
        <ele>858.20001220703</ele>
        <time>2016-07-13T08:08:52.000Z</time>
      </trkpt>
      <trkpt lat="44.56301" lon="6.21678">
        <ele>858.20001220703</ele>
        <time>2016-07-13T08:08:53.000Z</time>
      </trkpt>
      <trkpt lat="44.56302" lon="6.21673">
        <ele>858</ele>
        <time>2016-07-13T08:08:59.000Z</time>
      </trkpt>
      <trkpt lat="44.56303" lon="6.21664">
        <ele>857.59997558594</ele>
        <time>2016-07-13T08:09:05.000Z</time>
      </trkpt>
      <trkpt lat="44.56302" lon="6.21652">
        <ele>857</ele>
        <time>2016-07-13T08:09:11.000Z</time>
      </trkpt>
      <trkpt lat="44.56299" lon="6.2163">
        <ele>856</ele>
        <time>2016-07-13T08:09:21.000Z</time>
      </trkpt>
      <trkpt lat="44.56296" lon="6.21614">
        <ele>855.20001220703</ele>
        <time>2016-07-13T08:09:29.000Z</time>
      </trkpt>
      <trkpt lat="44.5629" lon="6.21601">
        <ele>854.59997558594</ele>
        <time>2016-07-13T08:09:36.000Z</time>
      </trkpt>
      <trkpt lat="44.56286" lon="6.21589">
        <ele>854</ele>
        <time>2016-07-13T08:09:42.000Z</time>
      </trkpt>
      <trkpt lat="44.5628" lon="6.21575">
        <ele>852.79998779297</ele>
        <time>2016-07-13T08:09:50.000Z</time>
      </trkpt>
      <trkpt lat="44.56274" lon="6.21558">
        <ele>851.59997558594</ele>
        <time>2016-07-13T08:09:59.000Z</time>
      </trkpt>
      <trkpt lat="44.56264" lon="6.21543">
        <ele>850.20001220703</ele>
        <time>2016-07-13T08:10:09.000Z</time>
      </trkpt>
      <trkpt lat="44.56255" lon="6.21532">
        <ele>848.79998779297</ele>
        <time>2016-07-13T08:10:18.000Z</time>
      </trkpt>
      <trkpt lat="44.56247" lon="6.21519">
        <ele>847.59997558594</ele>
        <time>2016-07-13T08:10:26.000Z</time>
      </trkpt>
      <trkpt lat="44.56243" lon="6.21505">
        <ele>847</ele>
        <time>2016-07-13T08:10:33.000Z</time>
      </trkpt>
      <trkpt lat="44.56237" lon="6.21484">
        <ele>846.20001220703</ele>
        <time>2016-07-13T08:10:43.000Z</time>
      </trkpt>
      <trkpt lat="44.56229" lon="6.21475">
        <ele>845</ele>
        <time>2016-07-13T08:10:50.000Z</time>
      </trkpt>
      <trkpt lat="44.56222" lon="6.21465">
        <ele>843.79998779297</ele>
        <time>2016-07-13T08:10:56.000Z</time>
      </trkpt>
      <trkpt lat="44.56219" lon="6.21454">
        <ele>843.20001220703</ele>
        <time>2016-07-13T08:11:02.000Z</time>
      </trkpt>
      <trkpt lat="44.56213" lon="6.2144">
        <ele>842.20001220703</ele>
        <time>2016-07-13T08:11:10.000Z</time>
      </trkpt>
      <trkpt lat="44.56203" lon="6.21425">
        <ele>840.59997558594</ele>
        <time>2016-07-13T08:11:19.000Z</time>
      </trkpt>
      <trkpt lat="44.56199" lon="6.21415">
        <ele>840</ele>
        <time>2016-07-13T08:11:24.000Z</time>
      </trkpt>
      <trkpt lat="44.56192" lon="6.21403">
        <ele>839.20001220703</ele>
        <time>2016-07-13T08:11:31.000Z</time>
      </trkpt>
      <trkpt lat="44.5619" lon="6.21391">
        <ele>838.79998779297</ele>
        <time>2016-07-13T08:11:37.000Z</time>
      </trkpt>
      <trkpt lat="44.56185" lon="6.21377">
        <ele>838.20001220703</ele>
        <time>2016-07-13T08:11:44.000Z</time>
      </trkpt>
      <trkpt lat="44.56173" lon="6.21367">
        <ele>837</ele>
        <time>2016-07-13T08:11:53.000Z</time>
      </trkpt>
      <trkpt lat="44.56147" lon="6.21354">
        <ele>834.20001220703</ele>
        <time>2016-07-13T08:12:12.000Z</time>
      </trkpt>
      <trkpt lat="44.56145" lon="6.21341">
        <ele>834</ele>
        <time>2016-07-13T08:12:18.000Z</time>
      </trkpt>
      <trkpt lat="44.56149" lon="6.21323">
        <ele>834.20001220703</ele>
        <time>2016-07-13T08:12:27.000Z</time>
      </trkpt>
      <trkpt lat="44.56152" lon="6.21304">
        <ele>834.40002441406</ele>
        <time>2016-07-13T08:12:36.000Z</time>
      </trkpt>
      <trkpt lat="44.56157" lon="6.21286">
        <ele>835</ele>
        <time>2016-07-13T08:12:45.000Z</time>
      </trkpt>
      <trkpt lat="44.56161" lon="6.21267">
        <ele>835.59997558594</ele>
        <time>2016-07-13T08:12:54.000Z</time>
      </trkpt>
      <trkpt lat="44.56161" lon="6.21265">
        <ele>835.59997558594</ele>
        <time>2016-07-13T08:12:55.000Z</time>
      </trkpt>
      <trkpt lat="44.56163" lon="6.21264">
        <ele>835.79998779297</ele>
        <time>2016-07-13T08:12:59.000Z</time>
      </trkpt>
      <trkpt lat="44.56159" lon="6.21258">
        <ele>835.40002441406</ele>
        <time>2016-07-13T08:13:12.000Z</time>
      </trkpt>
      <trkpt lat="44.56153" lon="6.21243">
        <ele>835</ele>
        <time>2016-07-13T08:13:20.000Z</time>
      </trkpt>
      <trkpt lat="44.56146" lon="6.21222">
        <ele>834.40002441406</ele>
        <time>2016-07-13T08:13:30.000Z</time>
      </trkpt>
      <trkpt lat="44.56138" lon="6.212">
        <ele>834</ele>
        <time>2016-07-13T08:13:41.000Z</time>
      </trkpt>
      <trkpt lat="44.56132" lon="6.21186">
        <ele>833.59997558594</ele>
        <time>2016-07-13T08:13:48.000Z</time>
      </trkpt>
      <trkpt lat="44.56128" lon="6.21177">
        <ele>833.40002441406</ele>
        <time>2016-07-13T08:13:53.000Z</time>
      </trkpt>
      <trkpt lat="44.56128" lon="6.21175">
        <ele>833.59997558594</ele>
        <time>2016-07-13T08:13:54.000Z</time>
      </trkpt>
      <trkpt lat="44.5613" lon="6.2117">
        <ele>833.79998779297</ele>
        <time>2016-07-13T08:13:57.000Z</time>
      </trkpt>
      <trkpt lat="44.56143" lon="6.21151">
        <ele>834.59997558594</ele>
        <time>2016-07-13T08:14:09.000Z</time>
      </trkpt>
      <trkpt lat="44.56144" lon="6.2115">
        <ele>834.59997558594</ele>
        <time>2016-07-13T08:14:10.000Z</time>
      </trkpt>
      <trkpt lat="44.5615" lon="6.21138">
        <ele>835</ele>
        <time>2016-07-13T08:14:19.000Z</time>
      </trkpt>
      <trkpt lat="44.56147" lon="6.21126">
        <ele>834.79998779297</ele>
        <time>2016-07-13T08:14:30.000Z</time>
      </trkpt>
      <trkpt lat="44.56143" lon="6.21125">
        <ele>834.59997558594</ele>
        <time>2016-07-13T08:14:35.000Z</time>
      </trkpt>
      <trkpt lat="44.56134" lon="6.21125">
        <ele>834</ele>
        <time>2016-07-13T08:14:42.000Z</time>
      </trkpt>
      <trkpt lat="44.56125" lon="6.21121">
        <ele>833.40002441406</ele>
        <time>2016-07-13T08:14:50.000Z</time>
      </trkpt>
      <trkpt lat="44.56117" lon="6.21115">
        <ele>833</ele>
        <time>2016-07-13T08:14:57.000Z</time>
      </trkpt>
      <trkpt lat="44.56104" lon="6.21114">
        <ele>832.40002441406</ele>
        <time>2016-07-13T08:15:14.000Z</time>
      </trkpt>
      <trkpt lat="44.56099" lon="6.21114">
        <ele>832.20001220703</ele>
        <time>2016-07-13T08:15:16.000Z</time>
      </trkpt>
      <trkpt lat="44.56095" lon="6.21112">
        <ele>832</ele>
        <time>2016-07-13T08:15:23.000Z</time>
      </trkpt>
      <trkpt lat="44.56087" lon="6.21111">
        <ele>831.59997558594</ele>
        <time>2016-07-13T08:15:31.000Z</time>
      </trkpt>
      <trkpt lat="44.56073" lon="6.21112">
        <ele>830.79998779297</ele>
        <time>2016-07-13T08:15:40.000Z</time>
      </trkpt>
      <trkpt lat="44.56059" lon="6.21112">
        <ele>830.20001220703</ele>
        <time>2016-07-13T08:15:49.000Z</time>
      </trkpt>
      <trkpt lat="44.56045" lon="6.21114">
        <ele>829.59997558594</ele>
        <time>2016-07-13T08:15:58.000Z</time>
      </trkpt>
      <trkpt lat="44.56033" lon="6.21114">
        <ele>829</ele>
        <time>2016-07-13T08:16:06.000Z</time>
      </trkpt>
      <trkpt lat="44.56015" lon="6.21111">
        <ele>827.79998779297</ele>
        <time>2016-07-13T08:16:18.000Z</time>
      </trkpt>
      <trkpt lat="44.56003" lon="6.21106">
        <ele>827</ele>
        <time>2016-07-13T08:16:26.000Z</time>
      </trkpt>
      <trkpt lat="44.55992" lon="6.2111">
        <ele>826.59997558594</ele>
        <time>2016-07-13T08:16:34.000Z</time>
      </trkpt>
      <trkpt lat="44.55982" lon="6.21112">
        <ele>826</ele>
        <time>2016-07-13T08:16:41.000Z</time>
      </trkpt>
      <trkpt lat="44.55971" lon="6.21119">
        <ele>825.59997558594</ele>
        <time>2016-07-13T08:16:49.000Z</time>
      </trkpt>
      <trkpt lat="44.55958" lon="6.21119">
        <ele>825</ele>
        <time>2016-07-13T08:16:57.000Z</time>
      </trkpt>
      <trkpt lat="44.55948" lon="6.21115">
        <ele>824.40002441406</ele>
        <time>2016-07-13T08:17:04.000Z</time>
      </trkpt>
      <trkpt lat="44.55931" lon="6.21106">
        <ele>823.40002441406</ele>
        <time>2016-07-13T08:17:16.000Z</time>
      </trkpt>
      <trkpt lat="44.55921" lon="6.21101">
        <ele>822.59997558594</ele>
        <time>2016-07-13T08:17:23.000Z</time>
      </trkpt>
      <trkpt lat="44.55907" lon="6.21099">
        <ele>821.79998779297</ele>
        <time>2016-07-13T08:17:32.000Z</time>
      </trkpt>
      <trkpt lat="44.5589" lon="6.21098">
        <ele>821</ele>
        <time>2016-07-13T08:17:43.000Z</time>
      </trkpt>
      <trkpt lat="44.55879" lon="6.21096">
        <ele>820.40002441406</ele>
        <time>2016-07-13T08:17:50.000Z</time>
      </trkpt>
      <trkpt lat="44.55864" lon="6.21092">
        <ele>819.59997558594</ele>
        <time>2016-07-13T08:18:00.000Z</time>
      </trkpt>
      <trkpt lat="44.55832" lon="6.21071">
        <ele>818</ele>
        <time>2016-07-13T08:18:22.000Z</time>
      </trkpt>
      <trkpt lat="44.55826" lon="6.21064">
        <ele>817.59997558594</ele>
        <time>2016-07-13T08:18:28.000Z</time>
      </trkpt>
      <trkpt lat="44.55818" lon="6.21054">
        <ele>817</ele>
        <time>2016-07-13T08:18:34.000Z</time>
      </trkpt>
      <trkpt lat="44.55806" lon="6.21041">
        <ele>816</ele>
        <time>2016-07-13T08:18:43.000Z</time>
      </trkpt>
      <trkpt lat="44.55796" lon="6.21041">
        <ele>815.59997558594</ele>
        <time>2016-07-13T08:18:49.000Z</time>
      </trkpt>
      <trkpt lat="44.55782" lon="6.21039">
        <ele>815</ele>
        <time>2016-07-13T08:18:58.000Z</time>
      </trkpt>
      <trkpt lat="44.55751" lon="6.21024">
        <ele>813</ele>
        <time>2016-07-13T08:19:19.000Z</time>
      </trkpt>
      <trkpt lat="44.55735" lon="6.21013">
        <ele>811.79998779297</ele>
        <time>2016-07-13T08:19:30.000Z</time>
      </trkpt>
      <trkpt lat="44.55729" lon="6.20998">
        <ele>811</ele>
        <time>2016-07-13T08:19:38.000Z</time>
      </trkpt>
      <trkpt lat="44.55724" lon="6.20986">
        <ele>810.40002441406</ele>
        <time>2016-07-13T08:19:45.000Z</time>
      </trkpt>
      <trkpt lat="44.55713" lon="6.20975">
        <ele>809.59997558594</ele>
        <time>2016-07-13T08:19:54.000Z</time>
      </trkpt>
      <trkpt lat="44.55703" lon="6.2096">
        <ele>809.59997558594</ele>
        <time>2016-07-13T08:20:03.000Z</time>
      </trkpt>
      <trkpt lat="44.55691" lon="6.20932">
        <ele>809.79998779297</ele>
        <time>2016-07-13T08:20:19.000Z</time>
      </trkpt>
      <trkpt lat="44.5569" lon="6.20917">
        <ele>810.20001220703</ele>
        <time>2016-07-13T08:20:26.000Z</time>
      </trkpt>
      <trkpt lat="44.55689" lon="6.209">
        <ele>810.59997558594</ele>
        <time>2016-07-13T08:20:34.000Z</time>
      </trkpt>
      <trkpt lat="44.55685" lon="6.20883">
        <ele>810.59997558594</ele>
        <time>2016-07-13T08:20:42.000Z</time>
      </trkpt>
      <trkpt lat="44.55681" lon="6.20864">
        <ele>810.40002441406</ele>
        <time>2016-07-13T08:20:51.000Z</time>
      </trkpt>
      <trkpt lat="44.55674" lon="6.20841">
        <ele>810</ele>
        <time>2016-07-13T08:21:02.000Z</time>
      </trkpt>
      <trkpt lat="44.55665" lon="6.20828">
        <ele>809.79998779297</ele>
        <time>2016-07-13T08:21:10.000Z</time>
      </trkpt>
      <trkpt lat="44.55648" lon="6.20812">
        <ele>809.40002441406</ele>
        <time>2016-07-13T08:21:23.000Z</time>
      </trkpt>
      <trkpt lat="44.55633" lon="6.208">
        <ele>808.40002441406</ele>
        <time>2016-07-13T08:21:34.000Z</time>
      </trkpt>
      <trkpt lat="44.5562" lon="6.20787">
        <ele>807.59997558594</ele>
        <time>2016-07-13T08:21:44.000Z</time>
      </trkpt>
      <trkpt lat="44.55609" lon="6.20773">
        <ele>806.40002441406</ele>
        <time>2016-07-13T08:21:53.000Z</time>
      </trkpt>
      <trkpt lat="44.55592" lon="6.20761">
        <ele>805.40002441406</ele>
        <time>2016-07-13T08:22:05.000Z</time>
      </trkpt>
      <trkpt lat="44.55577" lon="6.20747">
        <ele>804.20001220703</ele>
        <time>2016-07-13T08:22:17.000Z</time>
      </trkpt>
      <trkpt lat="44.55566" lon="6.2074">
        <ele>803.40002441406</ele>
        <time>2016-07-13T08:22:25.000Z</time>
      </trkpt>
      <trkpt lat="44.55552" lon="6.20733">
        <ele>802.59997558594</ele>
        <time>2016-07-13T08:22:34.000Z</time>
      </trkpt>
      <trkpt lat="44.55537" lon="6.20726">
        <ele>802</ele>
        <time>2016-07-13T08:22:44.000Z</time>
      </trkpt>
      <trkpt lat="44.55526" lon="6.20717">
        <ele>801.40002441406</ele>
        <time>2016-07-13T08:22:53.000Z</time>
      </trkpt>
      <trkpt lat="44.55504" lon="6.20699">
        <ele>800.20001220703</ele>
        <time>2016-07-13T08:23:10.000Z</time>
      </trkpt>
      <trkpt lat="44.55493" lon="6.20686">
        <ele>799.40002441406</ele>
        <time>2016-07-13T08:23:19.000Z</time>
      </trkpt>
      <trkpt lat="44.55481" lon="6.20676">
        <ele>798.79998779297</ele>
        <time>2016-07-13T08:23:28.000Z</time>
      </trkpt>
      <trkpt lat="44.55468" lon="6.20672">
        <ele>798</ele>
        <time>2016-07-13T08:23:36.000Z</time>
      </trkpt>
      <trkpt lat="44.55452" lon="6.20669">
        <ele>797</ele>
        <time>2016-07-13T08:23:46.000Z</time>
      </trkpt>
      <trkpt lat="44.55439" lon="6.20668">
        <ele>796.20001220703</ele>
        <time>2016-07-13T08:23:54.000Z</time>
      </trkpt>
      <trkpt lat="44.55437" lon="6.20668">
        <ele>796.20001220703</ele>
        <time>2016-07-13T08:23:55.000Z</time>
      </trkpt>
      <trkpt lat="44.55429" lon="6.20672">
        <ele>795.59997558594</ele>
        <time>2016-07-13T08:24:01.000Z</time>
      </trkpt>
      <trkpt lat="44.55407" lon="6.20668">
        <ele>794.40002441406</ele>
        <time>2016-07-13T08:24:14.000Z</time>
      </trkpt>
      <trkpt lat="44.55397" lon="6.20665">
        <ele>793.79998779297</ele>
        <time>2016-07-13T08:24:21.000Z</time>
      </trkpt>
      <trkpt lat="44.55383" lon="6.20662">
        <ele>793</ele>
        <time>2016-07-13T08:24:30.000Z</time>
      </trkpt>
      <trkpt lat="44.55367" lon="6.20657">
        <ele>792.40002441406</ele>
        <time>2016-07-13T08:24:40.000Z</time>
      </trkpt>
      <trkpt lat="44.55356" lon="6.20654">
        <ele>792.20001220703</ele>
        <time>2016-07-13T08:24:49.000Z</time>
      </trkpt>
      <trkpt lat="44.55351" lon="6.20652">
        <ele>792</ele>
        <time>2016-07-13T08:25:01.000Z</time>
      </trkpt>
      <trkpt lat="44.55331" lon="6.20652">
        <ele>791.79998779297</ele>
        <time>2016-07-13T08:25:14.000Z</time>
      </trkpt>
      <trkpt lat="44.55325" lon="6.20653">
        <ele>791.79998779297</ele>
        <time>2016-07-13T08:25:18.000Z</time>
      </trkpt>
      <trkpt lat="44.5531" lon="6.20655">
        <ele>791.59997558594</ele>
        <time>2016-07-13T08:25:27.000Z</time>
      </trkpt>
      <trkpt lat="44.55298" lon="6.20656">
        <ele>791.59997558594</ele>
        <time>2016-07-13T08:25:34.000Z</time>
      </trkpt>
      <trkpt lat="44.55282" lon="6.20658">
        <ele>791</ele>
        <time>2016-07-13T08:25:44.000Z</time>
      </trkpt>
      <trkpt lat="44.55271" lon="6.20665">
        <ele>790.79998779297</ele>
        <time>2016-07-13T08:25:51.000Z</time>
      </trkpt>
      <trkpt lat="44.55263" lon="6.20677">
        <ele>790.59997558594</ele>
        <time>2016-07-13T08:25:59.000Z</time>
      </trkpt>
      <trkpt lat="44.55258" lon="6.20681">
        <ele>790.40002441406</ele>
        <time>2016-07-13T08:26:04.000Z</time>
      </trkpt>
      <trkpt lat="44.5525" lon="6.20687">
        <ele>790.20001220703</ele>
        <time>2016-07-13T08:26:11.000Z</time>
      </trkpt>
      <trkpt lat="44.55237" lon="6.20693">
        <ele>789.79998779297</ele>
        <time>2016-07-13T08:26:20.000Z</time>
      </trkpt>
      <trkpt lat="44.55227" lon="6.20693">
        <ele>789.59997558594</ele>
        <time>2016-07-13T08:26:26.000Z</time>
      </trkpt>
      <trkpt lat="44.55214" lon="6.20696">
        <ele>789</ele>
        <time>2016-07-13T08:26:34.000Z</time>
      </trkpt>
      <trkpt lat="44.55203" lon="6.20703">
        <ele>788.79998779297</ele>
        <time>2016-07-13T08:26:42.000Z</time>
      </trkpt>
      <trkpt lat="44.55193" lon="6.20709">
        <ele>788.40002441406</ele>
        <time>2016-07-13T08:26:49.000Z</time>
      </trkpt>
      <trkpt lat="44.55184" lon="6.20713">
        <ele>788.20001220703</ele>
        <time>2016-07-13T08:26:55.000Z</time>
      </trkpt>
      <trkpt lat="44.55172" lon="6.20714">
        <ele>787.79998779297</ele>
        <time>2016-07-13T08:27:02.000Z</time>
      </trkpt>
      <trkpt lat="44.5517" lon="6.20714">
        <ele>787.79998779297</ele>
        <time>2016-07-13T08:27:07.000Z</time>
      </trkpt>
      <trkpt lat="44.55163" lon="6.20716">
        <ele>787.40002441406</ele>
        <time>2016-07-13T08:27:15.000Z</time>
      </trkpt>
      <trkpt lat="44.55146" lon="6.20721">
        <ele>787</ele>
        <time>2016-07-13T08:27:26.000Z</time>
      </trkpt>
      <trkpt lat="44.55134" lon="6.20723">
        <ele>786.59997558594</ele>
        <time>2016-07-13T08:27:34.000Z</time>
      </trkpt>
      <trkpt lat="44.55121" lon="6.20733">
        <ele>786.20001220703</ele>
        <time>2016-07-13T08:27:43.000Z</time>
      </trkpt>
      <trkpt lat="44.55109" lon="6.2074">
        <ele>785.59997558594</ele>
        <time>2016-07-13T08:27:51.000Z</time>
      </trkpt>
      <trkpt lat="44.55088" lon="6.2076">
        <ele>784.59997558594</ele>
        <time>2016-07-13T08:28:07.000Z</time>
      </trkpt>
      <trkpt lat="44.55077" lon="6.20776">
        <ele>784.20001220703</ele>
        <time>2016-07-13T08:28:17.000Z</time>
      </trkpt>
      <trkpt lat="44.55068" lon="6.20785">
        <ele>783.79998779297</ele>
        <time>2016-07-13T08:28:24.000Z</time>
      </trkpt>
      <trkpt lat="44.55054" lon="6.20792">
        <ele>783.40002441406</ele>
        <time>2016-07-13T08:28:34.000Z</time>
      </trkpt>
      <trkpt lat="44.55039" lon="6.20796">
        <ele>783</ele>
        <time>2016-07-13T08:28:43.000Z</time>
      </trkpt>
      <trkpt lat="44.55026" lon="6.20804">
        <ele>782.59997558594</ele>
        <time>2016-07-13T08:28:52.000Z</time>
      </trkpt>
      <trkpt lat="44.55014" lon="6.20812">
        <ele>782.59997558594</ele>
        <time>2016-07-13T08:29:01.000Z</time>
      </trkpt>
      <trkpt lat="44.55004" lon="6.20822">
        <ele>782.20001220703</ele>
        <time>2016-07-13T08:29:09.000Z</time>
      </trkpt>
      <trkpt lat="44.54993" lon="6.20835">
        <ele>781.79998779297</ele>
        <time>2016-07-13T08:29:18.000Z</time>
      </trkpt>
      <trkpt lat="44.5498" lon="6.20842">
        <ele>781.40002441406</ele>
        <time>2016-07-13T08:29:27.000Z</time>
      </trkpt>
      <trkpt lat="44.54966" lon="6.20845">
        <ele>781.20001220703</ele>
        <time>2016-07-13T08:29:36.000Z</time>
      </trkpt>
      <trkpt lat="44.54948" lon="6.20845">
        <ele>780.79998779297</ele>
        <time>2016-07-13T08:29:47.000Z</time>
      </trkpt>
      <trkpt lat="44.54912" lon="6.2085">
        <ele>779.20001220703</ele>
        <time>2016-07-13T08:30:10.000Z</time>
      </trkpt>
      <trkpt lat="44.54897" lon="6.20859">
        <ele>778.59997558594</ele>
        <time>2016-07-13T08:30:20.000Z</time>
      </trkpt>
      <trkpt lat="44.54882" lon="6.20865">
        <ele>778.20001220703</ele>
        <time>2016-07-13T08:30:29.000Z</time>
      </trkpt>
      <trkpt lat="44.54871" lon="6.20865">
        <ele>777.79998779297</ele>
        <time>2016-07-13T08:30:36.000Z</time>
      </trkpt>
      <trkpt lat="44.54861" lon="6.20862">
        <ele>777.40002441406</ele>
        <time>2016-07-13T08:30:43.000Z</time>
      </trkpt>
      <trkpt lat="44.54847" lon="6.20856">
        <ele>777</ele>
        <time>2016-07-13T08:30:52.000Z</time>
      </trkpt>
      <trkpt lat="44.54837" lon="6.20854">
        <ele>776.79998779297</ele>
        <time>2016-07-13T08:30:58.000Z</time>
      </trkpt>
      <trkpt lat="44.54823" lon="6.20857">
        <ele>776.59997558594</ele>
        <time>2016-07-13T08:31:07.000Z</time>
      </trkpt>
      <trkpt lat="44.54805" lon="6.2086">
        <ele>776.40002441406</ele>
        <time>2016-07-13T08:31:18.000Z</time>
      </trkpt>
      <trkpt lat="44.5479" lon="6.20866">
        <ele>776.40002441406</ele>
        <time>2016-07-13T08:31:28.000Z</time>
      </trkpt>
      <trkpt lat="44.54772" lon="6.20874">
        <ele>776.40002441406</ele>
        <time>2016-07-13T08:31:39.000Z</time>
      </trkpt>
      <trkpt lat="44.54759" lon="6.20883">
        <ele>776.40002441406</ele>
        <time>2016-07-13T08:31:48.000Z</time>
      </trkpt>
      <trkpt lat="44.54749" lon="6.20892">
        <ele>776.59997558594</ele>
        <time>2016-07-13T08:31:56.000Z</time>
      </trkpt>
      <trkpt lat="44.54739" lon="6.20895">
        <ele>776.40002441406</ele>
        <time>2016-07-13T08:32:02.000Z</time>
      </trkpt>
      <trkpt lat="44.54737" lon="6.20894">
        <ele>776.40002441406</ele>
        <time>2016-07-13T08:32:03.000Z</time>
      </trkpt>
      <trkpt lat="44.54726" lon="6.20894">
        <ele>776.20001220703</ele>
        <time>2016-07-13T08:32:11.000Z</time>
      </trkpt>
      <trkpt lat="44.54713" lon="6.20892">
        <ele>776</ele>
        <time>2016-07-13T08:32:19.000Z</time>
      </trkpt>
      <trkpt lat="44.54694" lon="6.20885">
        <ele>775.79998779297</ele>
        <time>2016-07-13T08:32:31.000Z</time>
      </trkpt>
      <trkpt lat="44.54676" lon="6.20884">
        <ele>775.59997558594</ele>
        <time>2016-07-13T08:32:42.000Z</time>
      </trkpt>
      <trkpt lat="44.54659" lon="6.2089">
        <ele>775.40002441406</ele>
        <time>2016-07-13T08:32:53.000Z</time>
      </trkpt>
      <trkpt lat="44.54648" lon="6.20893">
        <ele>775.40002441406</ele>
        <time>2016-07-13T08:33:01.000Z</time>
      </trkpt>
      <trkpt lat="44.54638" lon="6.20893">
        <ele>775.20001220703</ele>
        <time>2016-07-13T08:33:07.000Z</time>
      </trkpt>
      <trkpt lat="44.54624" lon="6.20893">
        <ele>775</ele>
        <time>2016-07-13T08:33:16.000Z</time>
      </trkpt>
      <trkpt lat="44.54612" lon="6.20894">
        <ele>775.59997558594</ele>
        <time>2016-07-13T08:33:23.000Z</time>
      </trkpt>
      <trkpt lat="44.54599" lon="6.20895">
        <ele>777.20001220703</ele>
        <time>2016-07-13T08:33:31.000Z</time>
      </trkpt>
      <trkpt lat="44.54587" lon="6.20895">
        <ele>778.59997558594</ele>
        <time>2016-07-13T08:33:39.000Z</time>
      </trkpt>
      <trkpt lat="44.54582" lon="6.20895">
        <ele>779.20001220703</ele>
        <time>2016-07-13T08:33:42.000Z</time>
      </trkpt>
      <trkpt lat="44.5457" lon="6.20898">
        <ele>780.79998779297</ele>
        <time>2016-07-13T08:33:50.000Z</time>
      </trkpt>
      <trkpt lat="44.54562" lon="6.20901">
        <ele>781.79998779297</ele>
        <time>2016-07-13T08:33:55.000Z</time>
      </trkpt>
      <trkpt lat="44.54556" lon="6.20906">
        <ele>782.79998779297</ele>
        <time>2016-07-13T08:34:02.000Z</time>
      </trkpt>
      <trkpt lat="44.54551" lon="6.20906">
        <ele>783.40002441406</ele>
        <time>2016-07-13T08:34:08.000Z</time>
      </trkpt>
      <trkpt lat="44.54541" lon="6.20907">
        <ele>785.20001220703</ele>
        <time>2016-07-13T08:34:14.000Z</time>
      </trkpt>
      <trkpt lat="44.54531" lon="6.20909">
        <ele>788</ele>
        <time>2016-07-13T08:34:20.000Z</time>
      </trkpt>
      <trkpt lat="44.54521" lon="6.20907">
        <ele>789.40002441406</ele>
        <time>2016-07-13T08:34:26.000Z</time>
      </trkpt>
      <trkpt lat="44.54509" lon="6.20901">
        <ele>790.59997558594</ele>
        <time>2016-07-13T08:34:34.000Z</time>
      </trkpt>
      <trkpt lat="44.54507" lon="6.20899">
        <ele>790.79998779297</ele>
        <time>2016-07-13T08:34:39.000Z</time>
      </trkpt>
      <trkpt lat="44.54505" lon="6.20897">
        <ele>790.79998779297</ele>
        <time>2016-07-13T08:34:57.000Z</time>
      </trkpt>
      <trkpt lat="44.54506" lon="6.20902">
        <ele>791.59997558594</ele>
        <time>2016-07-13T08:35:07.000Z</time>
      </trkpt>
      <trkpt lat="44.54513" lon="6.20907">
        <ele>791.20001220703</ele>
        <time>2016-07-13T08:35:13.000Z</time>
      </trkpt>
      <trkpt lat="44.54525" lon="6.20914">
        <ele>789.79998779297</ele>
        <time>2016-07-13T08:35:22.000Z</time>
      </trkpt>
      <trkpt lat="44.54533" lon="6.20922">
        <ele>789.59997558594</ele>
        <time>2016-07-13T08:35:30.000Z</time>
      </trkpt>
      <trkpt lat="44.54541" lon="6.20933">
        <ele>789.59997558594</ele>
        <time>2016-07-13T08:35:38.000Z</time>
      </trkpt>
      <trkpt lat="44.54547" lon="6.20947">
        <ele>790.40002441406</ele>
        <time>2016-07-13T08:35:46.000Z</time>
      </trkpt>
      <trkpt lat="44.54547" lon="6.20949">
        <ele>790.79998779297</ele>
        <time>2016-07-13T08:35:47.000Z</time>
      </trkpt>
      <trkpt lat="44.54542" lon="6.20955">
        <ele>793</ele>
        <time>2016-07-13T08:35:52.000Z</time>
      </trkpt>
      <trkpt lat="44.54533" lon="6.20954">
        <ele>795</ele>
        <time>2016-07-13T08:36:00.000Z</time>
      </trkpt>
      <trkpt lat="44.54525" lon="6.20951">
        <ele>796</ele>
        <time>2016-07-13T08:36:06.000Z</time>
      </trkpt>
      <trkpt lat="44.54517" lon="6.20956">
        <ele>798.59997558594</ele>
        <time>2016-07-13T08:36:13.000Z</time>
      </trkpt>
      <trkpt lat="44.54515" lon="6.20959">
        <ele>799.40002441406</ele>
        <time>2016-07-13T08:36:15.000Z</time>
      </trkpt>
      <trkpt lat="44.54514" lon="6.20971">
        <ele>801.40002441406</ele>
        <time>2016-07-13T08:36:22.000Z</time>
      </trkpt>
      <trkpt lat="44.54517" lon="6.2098">
        <ele>802.40002441406</ele>
        <time>2016-07-13T08:36:28.000Z</time>
      </trkpt>
      <trkpt lat="44.54518" lon="6.20988">
        <ele>803.40002441406</ele>
        <time>2016-07-13T08:36:32.000Z</time>
      </trkpt>
      <trkpt lat="44.5452" lon="6.21003">
        <ele>805.79998779297</ele>
        <time>2016-07-13T08:36:40.000Z</time>
      </trkpt>
      <trkpt lat="44.54522" lon="6.21019">
        <ele>808</ele>
        <time>2016-07-13T08:36:48.000Z</time>
      </trkpt>
      <trkpt lat="44.54522" lon="6.21034">
        <ele>810.40002441406</ele>
        <time>2016-07-13T08:36:56.000Z</time>
      </trkpt>
      <trkpt lat="44.54525" lon="6.21055">
        <ele>813</ele>
        <time>2016-07-13T08:37:07.000Z</time>
      </trkpt>
      <trkpt lat="44.54527" lon="6.2107">
        <ele>814.20001220703</ele>
        <time>2016-07-13T08:37:16.000Z</time>
      </trkpt>
      <trkpt lat="44.54527" lon="6.21071">
        <ele>814.40002441406</ele>
        <time>2016-07-13T08:37:17.000Z</time>
      </trkpt>
      <trkpt lat="44.54528" lon="6.21083">
        <ele>816.20001220703</ele>
        <time>2016-07-13T08:37:23.000Z</time>
      </trkpt>
      <trkpt lat="44.54529" lon="6.21085">
        <ele>816.59997558594</ele>
        <time>2016-07-13T08:37:24.000Z</time>
      </trkpt>
      <trkpt lat="44.54534" lon="6.21096">
        <ele>818.20001220703</ele>
        <time>2016-07-13T08:37:31.000Z</time>
      </trkpt>
      <trkpt lat="44.54535" lon="6.21097">
        <ele>818.40002441406</ele>
        <time>2016-07-13T08:37:32.000Z</time>
      </trkpt>
      <trkpt lat="44.54539" lon="6.21109">
        <ele>818.79998779297</ele>
        <time>2016-07-13T08:37:39.000Z</time>
      </trkpt>
      <trkpt lat="44.54544" lon="6.21122">
        <ele>819</ele>
        <time>2016-07-13T08:37:46.000Z</time>
      </trkpt>
      <trkpt lat="44.54548" lon="6.21138">
        <ele>820.40002441406</ele>
        <time>2016-07-13T08:37:54.000Z</time>
      </trkpt>
      <trkpt lat="44.54553" lon="6.21152">
        <ele>820.59997558594</ele>
        <time>2016-07-13T08:38:02.000Z</time>
      </trkpt>
      <trkpt lat="44.54559" lon="6.21179">
        <ele>822.40002441406</ele>
        <time>2016-07-13T08:38:18.000Z</time>
      </trkpt>
      <trkpt lat="44.54561" lon="6.2119">
        <ele>823.40002441406</ele>
        <time>2016-07-13T08:38:24.000Z</time>
      </trkpt>
      <trkpt lat="44.54561" lon="6.21193">
        <ele>823.79998779297</ele>
        <time>2016-07-13T08:38:26.000Z</time>
      </trkpt>
      <trkpt lat="44.54561" lon="6.21201">
        <ele>824.79998779297</ele>
        <time>2016-07-13T08:38:30.000Z</time>
      </trkpt>
      <trkpt lat="44.54562" lon="6.21211">
        <ele>826</ele>
        <time>2016-07-13T08:38:36.000Z</time>
      </trkpt>
      <trkpt lat="44.54565" lon="6.21217">
        <ele>825.79998779297</ele>
        <time>2016-07-13T08:38:40.000Z</time>
      </trkpt>
      <trkpt lat="44.54569" lon="6.21221">
        <ele>825.20001220703</ele>
        <time>2016-07-13T08:38:43.000Z</time>
      </trkpt>
      <trkpt lat="44.54573" lon="6.21229">
        <ele>825</ele>
        <time>2016-07-13T08:38:49.000Z</time>
      </trkpt>
      <trkpt lat="44.54578" lon="6.21244">
        <ele>826.20001220703</ele>
        <time>2016-07-13T08:38:57.000Z</time>
      </trkpt>
      <trkpt lat="44.54578" lon="6.21248">
        <ele>826.59997558594</ele>
        <time>2016-07-13T08:38:59.000Z</time>
      </trkpt>
      <trkpt lat="44.54577" lon="6.21257">
        <ele>828.59997558594</ele>
        <time>2016-07-13T08:39:04.000Z</time>
      </trkpt>
      <trkpt lat="44.54576" lon="6.21271">
        <ele>831.59997558594</ele>
        <time>2016-07-13T08:39:12.000Z</time>
      </trkpt>
      <trkpt lat="44.54575" lon="6.21283">
        <ele>834.20001220703</ele>
        <time>2016-07-13T08:39:27.000Z</time>
      </trkpt>
      <trkpt lat="44.54579" lon="6.21292">
        <ele>834.79998779297</ele>
        <time>2016-07-13T08:39:32.000Z</time>
      </trkpt>
      <trkpt lat="44.5458" lon="6.21293">
        <ele>834.79998779297</ele>
        <time>2016-07-13T08:39:33.000Z</time>
      </trkpt>
      <trkpt lat="44.54583" lon="6.21303">
        <ele>835.59997558594</ele>
        <time>2016-07-13T08:39:38.000Z</time>
      </trkpt>
      <trkpt lat="44.54584" lon="6.21307">
        <ele>836</ele>
        <time>2016-07-13T08:39:40.000Z</time>
      </trkpt>
      <trkpt lat="44.54586" lon="6.21313">
        <ele>836.59997558594</ele>
        <time>2016-07-13T08:39:43.000Z</time>
      </trkpt>
      <trkpt lat="44.54591" lon="6.21326">
        <ele>836.59997558594</ele>
        <time>2016-07-13T08:39:50.000Z</time>
      </trkpt>
      <trkpt lat="44.54591" lon="6.21328">
        <ele>836.79998779297</ele>
        <time>2016-07-13T08:39:51.000Z</time>
      </trkpt>
      <trkpt lat="44.54591" lon="6.2133">
        <ele>837</ele>
        <time>2016-07-13T08:39:52.000Z</time>
      </trkpt>
      <trkpt lat="44.54592" lon="6.21343">
        <ele>838.40002441406</ele>
        <time>2016-07-13T08:39:58.000Z</time>
      </trkpt>
      <trkpt lat="44.54595" lon="6.2135">
        <ele>838.40002441406</ele>
        <time>2016-07-13T08:40:02.000Z</time>
      </trkpt>
      <trkpt lat="44.546" lon="6.2136">
        <ele>838.40002441406</ele>
        <time>2016-07-13T08:40:08.000Z</time>
      </trkpt>
      <trkpt lat="44.546" lon="6.21362">
        <ele>838.59997558594</ele>
        <time>2016-07-13T08:40:09.000Z</time>
      </trkpt>
      <trkpt lat="44.546" lon="6.21374">
        <ele>840</ele>
        <time>2016-07-13T08:40:15.000Z</time>
      </trkpt>
      <trkpt lat="44.54602" lon="6.21386">
        <ele>841.40002441406</ele>
        <time>2016-07-13T08:40:21.000Z</time>
      </trkpt>
      <trkpt lat="44.54602" lon="6.21389">
        <ele>841.79998779297</ele>
        <time>2016-07-13T08:40:22.000Z</time>
      </trkpt>
      <trkpt lat="44.54603" lon="6.21398">
        <ele>842.59997558594</ele>
        <time>2016-07-13T08:40:27.000Z</time>
      </trkpt>
      <trkpt lat="44.54603" lon="6.214">
        <ele>842.79998779297</ele>
        <time>2016-07-13T08:40:28.000Z</time>
      </trkpt>
      <trkpt lat="44.54604" lon="6.21415">
        <ele>844.20001220703</ele>
        <time>2016-07-13T08:40:35.000Z</time>
      </trkpt>
      <trkpt lat="44.54604" lon="6.21432">
        <ele>846</ele>
        <time>2016-07-13T08:40:43.000Z</time>
      </trkpt>
      <trkpt lat="44.5461" lon="6.21447">
        <ele>845.59997558594</ele>
        <time>2016-07-13T08:40:51.000Z</time>
      </trkpt>
      <trkpt lat="44.5461" lon="6.21459">
        <ele>846.59997558594</ele>
        <time>2016-07-13T08:40:57.000Z</time>
      </trkpt>
      <trkpt lat="44.54611" lon="6.2147">
        <ele>847.40002441406</ele>
        <time>2016-07-13T08:41:04.000Z</time>
      </trkpt>
      <trkpt lat="44.54612" lon="6.21472">
        <ele>847.59997558594</ele>
        <time>2016-07-13T08:41:05.000Z</time>
      </trkpt>
      <trkpt lat="44.54617" lon="6.21489">
        <ele>847.40002441406</ele>
        <time>2016-07-13T08:41:13.000Z</time>
      </trkpt>
      <trkpt lat="44.54619" lon="6.21503">
        <ele>848.40002441406</ele>
        <time>2016-07-13T08:41:20.000Z</time>
      </trkpt>
      <trkpt lat="44.54617" lon="6.21514">
        <ele>850.20001220703</ele>
        <time>2016-07-13T08:41:26.000Z</time>
      </trkpt>
      <trkpt lat="44.54619" lon="6.21528">
        <ele>851.59997558594</ele>
        <time>2016-07-13T08:41:33.000Z</time>
      </trkpt>
      <trkpt lat="44.54622" lon="6.21541">
        <ele>852</ele>
        <time>2016-07-13T08:41:40.000Z</time>
      </trkpt>
      <trkpt lat="44.54624" lon="6.21558">
        <ele>853.59997558594</ele>
        <time>2016-07-13T08:41:48.000Z</time>
      </trkpt>
      <trkpt lat="44.54624" lon="6.21562">
        <ele>854</ele>
        <time>2016-07-13T08:41:50.000Z</time>
      </trkpt>
      <trkpt lat="44.54626" lon="6.21577">
        <ele>855.20001220703</ele>
        <time>2016-07-13T08:41:58.000Z</time>
      </trkpt>
      <trkpt lat="44.54628" lon="6.21598">
        <ele>857.20001220703</ele>
        <time>2016-07-13T08:42:08.000Z</time>
      </trkpt>
      <trkpt lat="44.54628" lon="6.2162">
        <ele>860.20001220703</ele>
        <time>2016-07-13T08:42:19.000Z</time>
      </trkpt>
      <trkpt lat="44.54631" lon="6.21638">
        <ele>861.59997558594</ele>
        <time>2016-07-13T08:42:28.000Z</time>
      </trkpt>
      <trkpt lat="44.54633" lon="6.21646">
        <ele>862</ele>
        <time>2016-07-13T08:42:34.000Z</time>
      </trkpt>
      <trkpt lat="44.54636" lon="6.2166">
        <ele>863.59997558594</ele>
        <time>2016-07-13T08:42:42.000Z</time>
      </trkpt>
      <trkpt lat="44.54636" lon="6.21673">
        <ele>865.40002441406</ele>
        <time>2016-07-13T08:42:49.000Z</time>
      </trkpt>
      <trkpt lat="44.54641" lon="6.21691">
        <ele>866.20001220703</ele>
        <time>2016-07-13T08:42:58.000Z</time>
      </trkpt>
      <trkpt lat="44.54645" lon="6.217">
        <ele>866.40002441406</ele>
        <time>2016-07-13T08:43:03.000Z</time>
      </trkpt>
      <trkpt lat="44.5465" lon="6.21707">
        <ele>865.79998779297</ele>
        <time>2016-07-13T08:43:08.000Z</time>
      </trkpt>
      <trkpt lat="44.54655" lon="6.21726">
        <ele>866.79998779297</ele>
        <time>2016-07-13T08:43:18.000Z</time>
      </trkpt>
      <trkpt lat="44.54655" lon="6.21739">
        <ele>869</ele>
        <time>2016-07-13T08:43:25.000Z</time>
      </trkpt>
      <trkpt lat="44.54656" lon="6.21756">
        <ele>871.59997558594</ele>
        <time>2016-07-13T08:43:33.000Z</time>
      </trkpt>
      <trkpt lat="44.54663" lon="6.21771">
        <ele>872.59997558594</ele>
        <time>2016-07-13T08:43:42.000Z</time>
      </trkpt>
      <trkpt lat="44.54667" lon="6.21782">
        <ele>873.20001220703</ele>
        <time>2016-07-13T08:43:49.000Z</time>
      </trkpt>
      <trkpt lat="44.54669" lon="6.21795">
        <ele>873.79998779297</ele>
        <time>2016-07-13T08:43:56.000Z</time>
      </trkpt>
      <trkpt lat="44.54674" lon="6.21807">
        <ele>874</ele>
        <time>2016-07-13T08:44:04.000Z</time>
      </trkpt>
      <trkpt lat="44.54676" lon="6.21816">
        <ele>874.79998779297</ele>
        <time>2016-07-13T08:44:09.000Z</time>
      </trkpt>
      <trkpt lat="44.54677" lon="6.21819">
        <ele>875</ele>
        <time>2016-07-13T08:44:11.000Z</time>
      </trkpt>
      <trkpt lat="44.54679" lon="6.21826">
        <ele>875.79998779297</ele>
        <time>2016-07-13T08:44:15.000Z</time>
      </trkpt>
      <trkpt lat="44.54688" lon="6.21841">
        <ele>876.79998779297</ele>
        <time>2016-07-13T08:44:25.000Z</time>
      </trkpt>
      <trkpt lat="44.54696" lon="6.21858">
        <ele>878</ele>
        <time>2016-07-13T08:44:35.000Z</time>
      </trkpt>
      <trkpt lat="44.54702" lon="6.21874">
        <ele>879.20001220703</ele>
        <time>2016-07-13T08:44:45.000Z</time>
      </trkpt>
      <trkpt lat="44.54706" lon="6.21889">
        <ele>880.79998779297</ele>
        <time>2016-07-13T08:44:54.000Z</time>
      </trkpt>
      <trkpt lat="44.54708" lon="6.21897">
        <ele>881.20001220703</ele>
        <time>2016-07-13T08:44:58.000Z</time>
      </trkpt>
      <trkpt lat="44.5471" lon="6.21905">
        <ele>881.20001220703</ele>
        <time>2016-07-13T08:45:03.000Z</time>
      </trkpt>
      <trkpt lat="44.5471" lon="6.21922">
        <ele>882.20001220703</ele>
        <time>2016-07-13T08:45:12.000Z</time>
      </trkpt>
      <trkpt lat="44.54708" lon="6.21935">
        <ele>883</ele>
        <time>2016-07-13T08:45:19.000Z</time>
      </trkpt>
      <trkpt lat="44.54707" lon="6.21952">
        <ele>884.20001220703</ele>
        <time>2016-07-13T08:45:28.000Z</time>
      </trkpt>
      <trkpt lat="44.54707" lon="6.21953">
        <ele>884.20001220703</ele>
        <time>2016-07-13T08:45:29.000Z</time>
      </trkpt>
      <trkpt lat="44.54704" lon="6.21966">
        <ele>885.40002441406</ele>
        <time>2016-07-13T08:45:37.000Z</time>
      </trkpt>
      <trkpt lat="44.54704" lon="6.21967">
        <ele>885.59997558594</ele>
        <time>2016-07-13T08:45:38.000Z</time>
      </trkpt>
      <trkpt lat="44.54702" lon="6.21973">
        <ele>886.40002441406</ele>
        <time>2016-07-13T08:45:42.000Z</time>
      </trkpt>
      <trkpt lat="44.54699" lon="6.21978">
        <ele>886.79998779297</ele>
        <time>2016-07-13T08:45:46.000Z</time>
      </trkpt>
      <trkpt lat="44.54693" lon="6.21988">
        <ele>886.59997558594</ele>
        <time>2016-07-13T08:45:53.000Z</time>
      </trkpt>
      <trkpt lat="44.54686" lon="6.21999">
        <ele>886.20001220703</ele>
        <time>2016-07-13T08:46:01.000Z</time>
      </trkpt>
      <trkpt lat="44.54682" lon="6.22003">
        <ele>885.79998779297</ele>
        <time>2016-07-13T08:46:05.000Z</time>
      </trkpt>
      <trkpt lat="44.5468" lon="6.22006">
        <ele>885.79998779297</ele>
        <time>2016-07-13T08:46:08.000Z</time>
      </trkpt>
      <trkpt lat="44.54678" lon="6.22009">
        <ele>885.59997558594</ele>
        <time>2016-07-13T08:46:18.000Z</time>
      </trkpt>
      <trkpt lat="44.54674" lon="6.22018">
        <ele>885.40002441406</ele>
        <time>2016-07-13T08:46:31.000Z</time>
      </trkpt>
      <trkpt lat="44.54669" lon="6.22029">
        <ele>885</ele>
        <time>2016-07-13T08:46:38.000Z</time>
      </trkpt>
      <trkpt lat="44.54658" lon="6.22046">
        <ele>885.40002441406</ele>
        <time>2016-07-13T08:46:49.000Z</time>
      </trkpt>
      <trkpt lat="44.5465" lon="6.22059">
        <ele>885.59997558594</ele>
        <time>2016-07-13T08:46:58.000Z</time>
      </trkpt>
      <trkpt lat="44.54641" lon="6.22069">
        <ele>884.59997558594</ele>
        <time>2016-07-13T08:47:07.000Z</time>
      </trkpt>
      <trkpt lat="44.5463" lon="6.2207">
        <ele>884.40002441406</ele>
        <time>2016-07-13T08:47:15.000Z</time>
      </trkpt>
      <trkpt lat="44.54625" lon="6.22069">
        <ele>884.40002441406</ele>
        <time>2016-07-13T08:47:18.000Z</time>
      </trkpt>
      <trkpt lat="44.54616" lon="6.22071">
        <ele>885.20001220703</ele>
        <time>2016-07-13T08:47:25.000Z</time>
      </trkpt>
      <trkpt lat="44.54603" lon="6.22078">
        <ele>884.40002441406</ele>
        <time>2016-07-13T08:47:34.000Z</time>
      </trkpt>
      <trkpt lat="44.54594" lon="6.22086">
        <ele>883.79998779297</ele>
        <time>2016-07-13T08:47:42.000Z</time>
      </trkpt>
      <trkpt lat="44.54586" lon="6.22097">
        <ele>883.59997558594</ele>
        <time>2016-07-13T08:47:49.000Z</time>
      </trkpt>
      <trkpt lat="44.54575" lon="6.2211">
        <ele>883.79998779297</ele>
        <time>2016-07-13T08:47:59.000Z</time>
      </trkpt>
      <trkpt lat="44.54563" lon="6.22131">
        <ele>887</ele>
        <time>2016-07-13T08:48:12.000Z</time>
      </trkpt>
      <trkpt lat="44.54555" lon="6.2214">
        <ele>888.59997558594</ele>
        <time>2016-07-13T08:48:19.000Z</time>
      </trkpt>
      <trkpt lat="44.54545" lon="6.22148">
        <ele>889.79998779297</ele>
        <time>2016-07-13T08:48:27.000Z</time>
      </trkpt>
      <trkpt lat="44.54532" lon="6.22159">
        <ele>892.20001220703</ele>
        <time>2016-07-13T08:48:37.000Z</time>
      </trkpt>
      <trkpt lat="44.54522" lon="6.22175">
        <ele>895.20001220703</ele>
        <time>2016-07-13T08:48:47.000Z</time>
      </trkpt>
      <trkpt lat="44.54515" lon="6.22195">
        <ele>898.59997558594</ele>
        <time>2016-07-13T08:48:57.000Z</time>
      </trkpt>
      <trkpt lat="44.54507" lon="6.22211">
        <ele>901</ele>
        <time>2016-07-13T08:49:07.000Z</time>
      </trkpt>
      <trkpt lat="44.54496" lon="6.22223">
        <ele>902</ele>
        <time>2016-07-13T08:49:17.000Z</time>
      </trkpt>
      <trkpt lat="44.54481" lon="6.22232">
        <ele>902.59997558594</ele>
        <time>2016-07-13T08:49:27.000Z</time>
      </trkpt>
      <trkpt lat="44.54466" lon="6.22236">
        <ele>902.79998779297</ele>
        <time>2016-07-13T08:49:38.000Z</time>
      </trkpt>
      <trkpt lat="44.54454" lon="6.22238">
        <ele>903</ele>
        <time>2016-07-13T08:49:47.000Z</time>
      </trkpt>
      <trkpt lat="44.54444" lon="6.22238">
        <ele>902.59997558594</ele>
        <time>2016-07-13T08:49:54.000Z</time>
      </trkpt>
      <trkpt lat="44.54432" lon="6.22241">
        <ele>901.79998779297</ele>
        <time>2016-07-13T08:50:03.000Z</time>
      </trkpt>
      <trkpt lat="44.54423" lon="6.22247">
        <ele>901.59997558594</ele>
        <time>2016-07-13T08:50:11.000Z</time>
      </trkpt>
      <trkpt lat="44.54419" lon="6.22242">
        <ele>900.79998779297</ele>
        <time>2016-07-13T08:50:16.000Z</time>
      </trkpt>
      <trkpt lat="44.54416" lon="6.22241">
        <ele>900.40002441406</ele>
        <time>2016-07-13T08:50:25.000Z</time>
      </trkpt>
      <trkpt lat="44.54414" lon="6.22239">
        <ele>900</ele>
        <time>2016-07-13T08:50:27.000Z</time>
      </trkpt>
      <trkpt lat="44.54402" lon="6.22242">
        <ele>899.40002441406</ele>
        <time>2016-07-13T08:50:37.000Z</time>
      </trkpt>
      <trkpt lat="44.54391" lon="6.22253">
        <ele>899.59997558594</ele>
        <time>2016-07-13T08:50:48.000Z</time>
      </trkpt>
      <trkpt lat="44.54384" lon="6.22266">
        <ele>901.20001220703</ele>
        <time>2016-07-13T08:50:56.000Z</time>
      </trkpt>
      <trkpt lat="44.54375" lon="6.22279">
        <ele>902.59997558594</ele>
        <time>2016-07-13T08:51:05.000Z</time>
      </trkpt>
      <trkpt lat="44.54368" lon="6.22296">
        <ele>904.79998779297</ele>
        <time>2016-07-13T08:51:15.000Z</time>
      </trkpt>
      <trkpt lat="44.54364" lon="6.22299">
        <ele>905.20001220703</ele>
        <time>2016-07-13T08:51:18.000Z</time>
      </trkpt>
      <trkpt lat="44.54358" lon="6.22295">
        <ele>904.79998779297</ele>
        <time>2016-07-13T08:51:23.000Z</time>
      </trkpt>
      <trkpt lat="44.54347" lon="6.22286">
        <ele>903.79998779297</ele>
        <time>2016-07-13T08:51:32.000Z</time>
      </trkpt>
      <trkpt lat="44.54339" lon="6.2228">
        <ele>903</ele>
        <time>2016-07-13T08:51:41.000Z</time>
      </trkpt>
      <trkpt lat="44.54333" lon="6.22279">
        <ele>903</ele>
        <time>2016-07-13T08:52:12.000Z</time>
      </trkpt>
      <trkpt lat="44.54322" lon="6.22276">
        <ele>902.79998779297</ele>
        <time>2016-07-13T08:52:21.000Z</time>
      </trkpt>
      <trkpt lat="44.54317" lon="6.22277">
        <ele>903</ele>
        <time>2016-07-13T08:52:27.000Z</time>
      </trkpt>
      <trkpt lat="44.54316" lon="6.22276">
        <ele>902.79998779297</ele>
        <time>2016-07-13T08:52:34.000Z</time>
      </trkpt>
      <trkpt lat="44.54313" lon="6.22275">
        <ele>902.79998779297</ele>
        <time>2016-07-13T08:52:59.000Z</time>
      </trkpt>
      <trkpt lat="44.54308" lon="6.22274">
        <ele>902.79998779297</ele>
        <time>2016-07-13T08:53:08.000Z</time>
      </trkpt>
      <trkpt lat="44.54307" lon="6.22275">
        <ele>902.79998779297</ele>
        <time>2016-07-13T08:53:45.000Z</time>
      </trkpt>
      <trkpt lat="44.54307" lon="6.22273">
        <ele>902.59997558594</ele>
        <time>2016-07-13T08:54:07.000Z</time>
      </trkpt>
      <trkpt lat="44.54307" lon="6.22274">
        <ele>902.79998779297</ele>
        <time>2016-07-13T08:54:59.000Z</time>
      </trkpt>
      <trkpt lat="44.54307" lon="6.22273">
        <ele>902.59997558594</ele>
        <time>2016-07-13T08:55:04.000Z</time>
      </trkpt>
      <trkpt lat="44.54307" lon="6.22274">
        <ele>902.59997558594</ele>
        <time>2016-07-13T08:55:16.000Z</time>
      </trkpt>
      <trkpt lat="44.54302" lon="6.22276">
        <ele>903</ele>
        <time>2016-07-13T08:55:35.000Z</time>
      </trkpt>
      <trkpt lat="44.54293" lon="6.22281">
        <ele>903.79998779297</ele>
        <time>2016-07-13T08:55:42.000Z</time>
      </trkpt>
      <trkpt lat="44.54283" lon="6.22284">
        <ele>904.40002441406</ele>
        <time>2016-07-13T08:55:49.000Z</time>
      </trkpt>
      <trkpt lat="44.54273" lon="6.22286">
        <ele>904.79998779297</ele>
        <time>2016-07-13T08:55:54.000Z</time>
      </trkpt>
      <trkpt lat="44.54245" lon="6.22286">
        <ele>904.79998779297</ele>
        <time>2016-07-13T08:56:11.000Z</time>
      </trkpt>
      <trkpt lat="44.54231" lon="6.22292">
        <ele>905.20001220703</ele>
        <time>2016-07-13T08:56:21.000Z</time>
      </trkpt>
      <trkpt lat="44.5422" lon="6.22294">
        <ele>905.20001220703</ele>
        <time>2016-07-13T08:56:29.000Z</time>
      </trkpt>
      <trkpt lat="44.5421" lon="6.22292">
        <ele>905</ele>
        <time>2016-07-13T08:56:36.000Z</time>
      </trkpt>
      <trkpt lat="44.54196" lon="6.22283">
        <ele>903.79998779297</ele>
        <time>2016-07-13T08:56:46.000Z</time>
      </trkpt>
      <trkpt lat="44.54185" lon="6.2227">
        <ele>902.40002441406</ele>
        <time>2016-07-13T08:56:56.000Z</time>
      </trkpt>
      <trkpt lat="44.54176" lon="6.22258">
        <ele>901.20001220703</ele>
        <time>2016-07-13T08:57:04.000Z</time>
      </trkpt>
      <trkpt lat="44.54171" lon="6.22248">
        <ele>900.20001220703</ele>
        <time>2016-07-13T08:57:10.000Z</time>
      </trkpt>
      <trkpt lat="44.54162" lon="6.22239">
        <ele>899.20001220703</ele>
        <time>2016-07-13T08:57:17.000Z</time>
      </trkpt>
      <trkpt lat="44.54149" lon="6.22233">
        <ele>898.40002441406</ele>
        <time>2016-07-13T08:57:26.000Z</time>
      </trkpt>
      <trkpt lat="44.54136" lon="6.22234">
        <ele>898.59997558594</ele>
        <time>2016-07-13T08:57:34.000Z</time>
      </trkpt>
      <trkpt lat="44.54119" lon="6.22236">
        <ele>898.59997558594</ele>
        <time>2016-07-13T08:57:45.000Z</time>
      </trkpt>
      <trkpt lat="44.54105" lon="6.22242">
        <ele>901.59997558594</ele>
        <time>2016-07-13T08:57:54.000Z</time>
      </trkpt>
      <trkpt lat="44.54096" lon="6.22247">
        <ele>903.79998779297</ele>
        <time>2016-07-13T08:58:01.000Z</time>
      </trkpt>
      <trkpt lat="44.54087" lon="6.22249">
        <ele>905.79998779297</ele>
        <time>2016-07-13T08:58:08.000Z</time>
      </trkpt>
      <trkpt lat="44.54082" lon="6.22245">
        <ele>906.59997558594</ele>
        <time>2016-07-13T08:58:39.000Z</time>
      </trkpt>
      <trkpt lat="44.5408" lon="6.22231">
        <ele>905.79998779297</ele>
        <time>2016-07-13T08:58:47.000Z</time>
      </trkpt>
      <trkpt lat="44.54075" lon="6.22222">
        <ele>906</ele>
        <time>2016-07-13T08:58:53.000Z</time>
      </trkpt>
      <trkpt lat="44.54066" lon="6.22219">
        <ele>907.59997558594</ele>
        <time>2016-07-13T08:59:00.000Z</time>
      </trkpt>
      <trkpt lat="44.54056" lon="6.22228">
        <ele>910.59997558594</ele>
        <time>2016-07-13T08:59:06.000Z</time>
      </trkpt>
      <trkpt lat="44.54046" lon="6.22231">
        <ele>912.79998779297</ele>
        <time>2016-07-13T08:59:13.000Z</time>
      </trkpt>
      <trkpt lat="44.5404" lon="6.22227">
        <ele>913.59997558594</ele>
        <time>2016-07-13T08:59:18.000Z</time>
      </trkpt>
      <trkpt lat="44.54039" lon="6.22213">
        <ele>912.40002441406</ele>
        <time>2016-07-13T08:59:23.000Z</time>
      </trkpt>
      <trkpt lat="44.5404" lon="6.22211">
        <ele>912</ele>
        <time>2016-07-13T08:59:24.000Z</time>
      </trkpt>
      <trkpt lat="44.54039" lon="6.222">
        <ele>911.20001220703</ele>
        <time>2016-07-13T08:59:30.000Z</time>
      </trkpt>
      <trkpt lat="44.54033" lon="6.22193">
        <ele>912</ele>
        <time>2016-07-13T08:59:36.000Z</time>
      </trkpt>
      <trkpt lat="44.5403" lon="6.22191">
        <ele>912.79998779297</ele>
        <time>2016-07-13T08:59:38.000Z</time>
      </trkpt>
      <trkpt lat="44.5402" lon="6.22185">
        <ele>915.59997558594</ele>
        <time>2016-07-13T08:59:46.000Z</time>
      </trkpt>
      <trkpt lat="44.54008" lon="6.22177">
        <ele>918.79998779297</ele>
        <time>2016-07-13T08:59:55.000Z</time>
      </trkpt>
      <trkpt lat="44.53993" lon="6.22175">
        <ele>923.40002441406</ele>
        <time>2016-07-13T09:00:05.000Z</time>
      </trkpt>
      <trkpt lat="44.53975" lon="6.22154">
        <ele>927.59997558594</ele>
        <time>2016-07-13T09:00:18.000Z</time>
      </trkpt>
      <trkpt lat="44.5397" lon="6.22139">
        <ele>927.40002441406</ele>
        <time>2016-07-13T09:00:25.000Z</time>
      </trkpt>
      <trkpt lat="44.53962" lon="6.22127">
        <ele>928.59997558594</ele>
        <time>2016-07-13T09:00:33.000Z</time>
      </trkpt>
      <trkpt lat="44.5395" lon="6.22121">
        <ele>931.79998779297</ele>
        <time>2016-07-13T09:00:42.000Z</time>
      </trkpt>
      <trkpt lat="44.53944" lon="6.22111">
        <ele>931.79998779297</ele>
        <time>2016-07-13T09:00:48.000Z</time>
      </trkpt>
      <trkpt lat="44.53937" lon="6.22096">
        <ele>931.40002441406</ele>
        <time>2016-07-13T09:00:57.000Z</time>
      </trkpt>
      <trkpt lat="44.53928" lon="6.22076">
        <ele>931.20001220703</ele>
        <time>2016-07-13T09:01:09.000Z</time>
      </trkpt>
      <trkpt lat="44.53922" lon="6.22057">
        <ele>930.40002441406</ele>
        <time>2016-07-13T09:01:20.000Z</time>
      </trkpt>
      <trkpt lat="44.53922" lon="6.2204">
        <ele>929.79998779297</ele>
        <time>2016-07-13T09:01:29.000Z</time>
      </trkpt>
      <trkpt lat="44.53921" lon="6.22024">
        <ele>930</ele>
        <time>2016-07-13T09:01:37.000Z</time>
      </trkpt>
      <trkpt lat="44.53922" lon="6.22011">
        <ele>930.20001220703</ele>
        <time>2016-07-13T09:01:44.000Z</time>
      </trkpt>
      <trkpt lat="44.53921" lon="6.21992">
        <ele>930.79998779297</ele>
        <time>2016-07-13T09:01:54.000Z</time>
      </trkpt>
      <trkpt lat="44.53919" lon="6.21976">
        <ele>931.40002441406</ele>
        <time>2016-07-13T09:02:03.000Z</time>
      </trkpt>
      <trkpt lat="44.53912" lon="6.21965">
        <ele>932.40002441406</ele>
        <time>2016-07-13T09:02:11.000Z</time>
      </trkpt>
      <trkpt lat="44.53901" lon="6.2196">
        <ele>934.20001220703</ele>
        <time>2016-07-13T09:02:17.000Z</time>
      </trkpt>
      <trkpt lat="44.53893" lon="6.21953">
        <ele>935.40002441406</ele>
        <time>2016-07-13T09:02:24.000Z</time>
      </trkpt>
      <trkpt lat="44.5388" lon="6.21947">
        <ele>937.79998779297</ele>
        <time>2016-07-13T09:02:35.000Z</time>
      </trkpt>
      <trkpt lat="44.53865" lon="6.21946">
        <ele>940.59997558594</ele>
        <time>2016-07-13T09:02:46.000Z</time>
      </trkpt>
      <trkpt lat="44.53851" lon="6.2195">
        <ele>941.40002441406</ele>
        <time>2016-07-13T09:02:57.000Z</time>
      </trkpt>
      <trkpt lat="44.53841" lon="6.21959">
        <ele>942</ele>
        <time>2016-07-13T09:03:06.000Z</time>
      </trkpt>
      <trkpt lat="44.53834" lon="6.21977">
        <ele>942.40002441406</ele>
        <time>2016-07-13T09:03:16.000Z</time>
      </trkpt>
      <trkpt lat="44.53827" lon="6.21993">
        <ele>943</ele>
        <time>2016-07-13T09:03:25.000Z</time>
      </trkpt>
      <trkpt lat="44.53815" lon="6.22007">
        <ele>943.59997558594</ele>
        <time>2016-07-13T09:03:35.000Z</time>
      </trkpt>
      <trkpt lat="44.53805" lon="6.22018">
        <ele>944.20001220703</ele>
        <time>2016-07-13T09:03:44.000Z</time>
      </trkpt>
      <trkpt lat="44.53793" lon="6.22027">
        <ele>944.59997558594</ele>
        <time>2016-07-13T09:03:53.000Z</time>
      </trkpt>
      <trkpt lat="44.53782" lon="6.22036">
        <ele>945.40002441406</ele>
        <time>2016-07-13T09:04:03.000Z</time>
      </trkpt>
      <trkpt lat="44.5378" lon="6.22039">
        <ele>945.79998779297</ele>
        <time>2016-07-13T09:04:10.000Z</time>
      </trkpt>
      <trkpt lat="44.53776" lon="6.22035">
        <ele>946.40002441406</ele>
        <time>2016-07-13T09:04:43.000Z</time>
      </trkpt>
      <trkpt lat="44.53769" lon="6.22037">
        <ele>947.40002441406</ele>
        <time>2016-07-13T09:04:49.000Z</time>
      </trkpt>
      <trkpt lat="44.53757" lon="6.22042">
        <ele>948.59997558594</ele>
        <time>2016-07-13T09:04:58.000Z</time>
      </trkpt>
      <trkpt lat="44.53727" lon="6.22048">
        <ele>949.20001220703</ele>
        <time>2016-07-13T09:05:18.000Z</time>
      </trkpt>
      <trkpt lat="44.53713" lon="6.22052">
        <ele>949.40002441406</ele>
        <time>2016-07-13T09:05:27.000Z</time>
      </trkpt>
      <trkpt lat="44.53696" lon="6.22054">
        <ele>950.59997558594</ele>
        <time>2016-07-13T09:05:39.000Z</time>
      </trkpt>
      <trkpt lat="44.53689" lon="6.22061">
        <ele>952.20001220703</ele>
        <time>2016-07-13T09:05:46.000Z</time>
      </trkpt>
      <trkpt lat="44.5368" lon="6.22066">
        <ele>954.59997558594</ele>
        <time>2016-07-13T09:05:54.000Z</time>
      </trkpt>
      <trkpt lat="44.53673" lon="6.22069">
        <ele>956.59997558594</ele>
        <time>2016-07-13T09:06:00.000Z</time>
      </trkpt>
      <trkpt lat="44.53663" lon="6.22078">
        <ele>960.20001220703</ele>
        <time>2016-07-13T09:06:10.000Z</time>
      </trkpt>
      <trkpt lat="44.53657" lon="6.22086">
        <ele>962.20001220703</ele>
        <time>2016-07-13T09:06:16.000Z</time>
      </trkpt>
      <trkpt lat="44.53653" lon="6.22078">
        <ele>962.79998779297</ele>
        <time>2016-07-13T09:06:22.000Z</time>
      </trkpt>
      <trkpt lat="44.53654" lon="6.22075">
        <ele>962.20001220703</ele>
        <time>2016-07-13T09:06:24.000Z</time>
      </trkpt>
      <trkpt lat="44.53658" lon="6.22057">
        <ele>960.40002441406</ele>
        <time>2016-07-13T09:06:34.000Z</time>
      </trkpt>
      <trkpt lat="44.53655" lon="6.22045">
        <ele>961.40002441406</ele>
        <time>2016-07-13T09:06:41.000Z</time>
      </trkpt>
      <trkpt lat="44.53653" lon="6.22033">
        <ele>962.40002441406</ele>
        <time>2016-07-13T09:06:48.000Z</time>
      </trkpt>
      <trkpt lat="44.53653" lon="6.22031">
        <ele>962.40002441406</ele>
        <time>2016-07-13T09:06:49.000Z</time>
      </trkpt>
      <trkpt lat="44.53658" lon="6.22026">
        <ele>961</ele>
        <time>2016-07-13T09:06:54.000Z</time>
      </trkpt>
      <trkpt lat="44.53671" lon="6.22019">
        <ele>958.59997558594</ele>
        <time>2016-07-13T09:07:04.000Z</time>
      </trkpt>
      <trkpt lat="44.53683" lon="6.22005">
        <ele>957.40002441406</ele>
        <time>2016-07-13T09:07:15.000Z</time>
      </trkpt>
      <trkpt lat="44.53691" lon="6.21987">
        <ele>957.20001220703</ele>
        <time>2016-07-13T09:07:26.000Z</time>
      </trkpt>
      <trkpt lat="44.53694" lon="6.2197">
        <ele>957</ele>
        <time>2016-07-13T09:07:35.000Z</time>
      </trkpt>
      <trkpt lat="44.53694" lon="6.21952">
        <ele>957.79998779297</ele>
        <time>2016-07-13T09:07:44.000Z</time>
      </trkpt>
      <trkpt lat="44.5369" lon="6.21935">
        <ele>959</ele>
        <time>2016-07-13T09:07:53.000Z</time>
      </trkpt>
      <trkpt lat="44.5368" lon="6.2194">
        <ele>959.79998779297</ele>
        <time>2016-07-13T09:08:05.000Z</time>
      </trkpt>
      <trkpt lat="44.53678" lon="6.21958">
        <ele>959.40002441406</ele>
        <time>2016-07-13T09:08:15.000Z</time>
      </trkpt>
      <trkpt lat="44.53672" lon="6.21971">
        <ele>961.40002441406</ele>
        <time>2016-07-13T09:08:24.000Z</time>
      </trkpt>
      <trkpt lat="44.53662" lon="6.2198">
        <ele>963.79998779297</ele>
        <time>2016-07-13T09:08:33.000Z</time>
      </trkpt>
      <trkpt lat="44.53648" lon="6.21981">
        <ele>966.59997558594</ele>
        <time>2016-07-13T09:08:43.000Z</time>
      </trkpt>
      <trkpt lat="44.53634" lon="6.21981">
        <ele>969.40002441406</ele>
        <time>2016-07-13T09:08:54.000Z</time>
      </trkpt>
      <trkpt lat="44.53628" lon="6.21982">
        <ele>970.40002441406</ele>
        <time>2016-07-13T09:08:59.000Z</time>
      </trkpt>
      <trkpt lat="44.53616" lon="6.21983">
        <ele>973.40002441406</ele>
        <time>2016-07-13T09:09:07.000Z</time>
      </trkpt>
      <trkpt lat="44.53599" lon="6.21983">
        <ele>978.79998779297</ele>
        <time>2016-07-13T09:09:15.000Z</time>
      </trkpt>
      <trkpt lat="44.53586" lon="6.21974">
        <ele>982.40002441406</ele>
        <time>2016-07-13T09:09:22.000Z</time>
      </trkpt>
      <trkpt lat="44.53578" lon="6.21961">
        <ele>983</ele>
        <time>2016-07-13T09:09:30.000Z</time>
      </trkpt>
      <trkpt lat="44.53572" lon="6.21949">
        <ele>982.79998779297</ele>
        <time>2016-07-13T09:09:37.000Z</time>
      </trkpt>
      <trkpt lat="44.53566" lon="6.2194">
        <ele>983.20001220703</ele>
        <time>2016-07-13T09:09:43.000Z</time>
      </trkpt>
      <trkpt lat="44.53558" lon="6.21929">
        <ele>984</ele>
        <time>2016-07-13T09:09:51.000Z</time>
      </trkpt>
      <trkpt lat="44.53558" lon="6.2193">
        <ele>984.20001220703</ele>
        <time>2016-07-13T09:09:57.000Z</time>
      </trkpt>
      <trkpt lat="44.53558" lon="6.21928">
        <ele>983.59997558594</ele>
        <time>2016-07-13T09:10:01.000Z</time>
      </trkpt>
      <trkpt lat="44.53555" lon="6.21927">
        <ele>984.59997558594</ele>
        <time>2016-07-13T09:10:36.000Z</time>
      </trkpt>
      <trkpt lat="44.53549" lon="6.21921">
        <ele>985.40002441406</ele>
        <time>2016-07-13T09:10:43.000Z</time>
      </trkpt>
      <trkpt lat="44.53549" lon="6.21919">
        <ele>985.20001220703</ele>
        <time>2016-07-13T09:10:44.000Z</time>
      </trkpt>
      <trkpt lat="44.53548" lon="6.21918">
        <ele>985.20001220703</ele>
        <time>2016-07-13T09:10:45.000Z</time>
      </trkpt>
      <trkpt lat="44.53544" lon="6.21915">
        <ele>986</ele>
        <time>2016-07-13T09:10:49.000Z</time>
      </trkpt>
      <trkpt lat="44.53542" lon="6.21913">
        <ele>986.40002441406</ele>
        <time>2016-07-13T09:10:52.000Z</time>
      </trkpt>
      <trkpt lat="44.53533" lon="6.21907">
        <ele>988</ele>
        <time>2016-07-13T09:11:00.000Z</time>
      </trkpt>
      <trkpt lat="44.5353" lon="6.21906">
        <ele>988.20001220703</ele>
        <time>2016-07-13T09:11:03.000Z</time>
      </trkpt>
      <trkpt lat="44.5353" lon="6.21905">
        <ele>988.20001220703</ele>
        <time>2016-07-13T09:11:07.000Z</time>
      </trkpt>
      <trkpt lat="44.53525" lon="6.21902">
        <ele>988.20001220703</ele>
        <time>2016-07-13T09:11:26.000Z</time>
      </trkpt>
      <trkpt lat="44.53515" lon="6.21897">
        <ele>988.59997558594</ele>
        <time>2016-07-13T09:11:34.000Z</time>
      </trkpt>
      <trkpt lat="44.53505" lon="6.2189">
        <ele>987.79998779297</ele>
        <time>2016-07-13T09:11:42.000Z</time>
      </trkpt>
      <trkpt lat="44.53502" lon="6.21887">
        <ele>987</ele>
        <time>2016-07-13T09:11:45.000Z</time>
      </trkpt>
      <trkpt lat="44.53498" lon="6.21883">
        <ele>986.40002441406</ele>
        <time>2016-07-13T09:11:48.000Z</time>
      </trkpt>
      <trkpt lat="44.53489" lon="6.21884">
        <ele>987.79998779297</ele>
        <time>2016-07-13T09:11:56.000Z</time>
      </trkpt>
      <trkpt lat="44.53488" lon="6.21886">
        <ele>988.40002441406</ele>
        <time>2016-07-13T09:11:57.000Z</time>
      </trkpt>
      <trkpt lat="44.53492" lon="6.21894">
        <ele>990.59997558594</ele>
        <time>2016-07-13T09:12:03.000Z</time>
      </trkpt>
      <trkpt lat="44.53502" lon="6.21901">
        <ele>990.79998779297</ele>
        <time>2016-07-13T09:12:12.000Z</time>
      </trkpt>
      <trkpt lat="44.5351" lon="6.21911">
        <ele>991.40002441406</ele>
        <time>2016-07-13T09:12:20.000Z</time>
      </trkpt>
      <trkpt lat="44.53515" lon="6.21915">
        <ele>991.59997558594</ele>
        <time>2016-07-13T09:12:27.000Z</time>
      </trkpt>
      <trkpt lat="44.53518" lon="6.21915">
        <ele>991.20001220703</ele>
        <time>2016-07-13T09:12:48.000Z</time>
      </trkpt>
      <trkpt lat="44.53523" lon="6.21923">
        <ele>992</ele>
        <time>2016-07-13T09:12:54.000Z</time>
      </trkpt>
      <trkpt lat="44.53526" lon="6.21933">
        <ele>993.20001220703</ele>
        <time>2016-07-13T09:13:00.000Z</time>
      </trkpt>
      <trkpt lat="44.53527" lon="6.21951">
        <ele>996.20001220703</ele>
        <time>2016-07-13T09:13:09.000Z</time>
      </trkpt>
      <trkpt lat="44.53525" lon="6.21968">
        <ele>999.40002441406</ele>
        <time>2016-07-13T09:13:19.000Z</time>
      </trkpt>
      <trkpt lat="44.53523" lon="6.21981">
        <ele>1002.200012207</ele>
        <time>2016-07-13T09:13:26.000Z</time>
      </trkpt>
      <trkpt lat="44.53519" lon="6.21997">
        <ele>1002.5999755859</ele>
        <time>2016-07-13T09:13:35.000Z</time>
      </trkpt>
      <trkpt lat="44.53514" lon="6.22015">
        <ele>1003.4000244141</ele>
        <time>2016-07-13T09:13:45.000Z</time>
      </trkpt>
      <trkpt lat="44.53512" lon="6.22031">
        <ele>1003.5999755859</ele>
        <time>2016-07-13T09:13:53.000Z</time>
      </trkpt>
      <trkpt lat="44.53507" lon="6.22051">
        <ele>1006</ele>
        <time>2016-07-13T09:14:04.000Z</time>
      </trkpt>
      <trkpt lat="44.535" lon="6.22067">
        <ele>1009.200012207</ele>
        <time>2016-07-13T09:14:14.000Z</time>
      </trkpt>
      <trkpt lat="44.53499" lon="6.22069">
        <ele>1009.200012207</ele>
        <time>2016-07-13T09:14:15.000Z</time>
      </trkpt>
      <trkpt lat="44.535" lon="6.22077">
        <ele>1008.799987793</ele>
        <time>2016-07-13T09:14:19.000Z</time>
      </trkpt>
      <trkpt lat="44.53505" lon="6.22092">
        <ele>1007</ele>
        <time>2016-07-13T09:14:28.000Z</time>
      </trkpt>
      <trkpt lat="44.53503" lon="6.22104">
        <ele>1007.4000244141</ele>
        <time>2016-07-13T09:14:35.000Z</time>
      </trkpt>
      <trkpt lat="44.53497" lon="6.22115">
        <ele>1009</ele>
        <time>2016-07-13T09:14:43.000Z</time>
      </trkpt>
      <trkpt lat="44.53489" lon="6.22124">
        <ele>1011</ele>
        <time>2016-07-13T09:14:51.000Z</time>
      </trkpt>
      <trkpt lat="44.53484" lon="6.22134">
        <ele>1012.200012207</ele>
        <time>2016-07-13T09:14:58.000Z</time>
      </trkpt>
      <trkpt lat="44.5348" lon="6.22151">
        <ele>1013.4000244141</ele>
        <time>2016-07-13T09:15:08.000Z</time>
      </trkpt>
      <trkpt lat="44.53476" lon="6.22171">
        <ele>1015.200012207</ele>
        <time>2016-07-13T09:15:19.000Z</time>
      </trkpt>
      <trkpt lat="44.53472" lon="6.2218">
        <ele>1015</ele>
        <time>2016-07-13T09:15:25.000Z</time>
      </trkpt>
      <trkpt lat="44.53474" lon="6.22199">
        <ele>1013</ele>
        <time>2016-07-13T09:15:34.000Z</time>
      </trkpt>
      <trkpt lat="44.53475" lon="6.22217">
        <ele>1011</ele>
        <time>2016-07-13T09:15:43.000Z</time>
      </trkpt>
      <trkpt lat="44.53476" lon="6.22224">
        <ele>1010.200012207</ele>
        <time>2016-07-13T09:15:47.000Z</time>
      </trkpt>
      <trkpt lat="44.53475" lon="6.22228">
        <ele>1010</ele>
        <time>2016-07-13T09:15:53.000Z</time>
      </trkpt>
      <trkpt lat="44.53476" lon="6.22236">
        <ele>1009.4000244141</ele>
        <time>2016-07-13T09:15:58.000Z</time>
      </trkpt>
      <trkpt lat="44.53474" lon="6.22252">
        <ele>1009.200012207</ele>
        <time>2016-07-13T09:16:06.000Z</time>
      </trkpt>
      <trkpt lat="44.53473" lon="6.22268">
        <ele>1008.5999755859</ele>
        <time>2016-07-13T09:16:14.000Z</time>
      </trkpt>
      <trkpt lat="44.53473" lon="6.22276">
        <ele>1008.4000244141</ele>
        <time>2016-07-13T09:16:18.000Z</time>
      </trkpt>
      <trkpt lat="44.5347" lon="6.22282">
        <ele>1008.4000244141</ele>
        <time>2016-07-13T09:16:23.000Z</time>
      </trkpt>
      <trkpt lat="44.53465" lon="6.22297">
        <ele>1008.4000244141</ele>
        <time>2016-07-13T09:16:30.000Z</time>
      </trkpt>
      <trkpt lat="44.53457" lon="6.22303">
        <ele>1009.4000244141</ele>
        <time>2016-07-13T09:16:37.000Z</time>
      </trkpt>
      <trkpt lat="44.53447" lon="6.22305">
        <ele>1010.5999755859</ele>
        <time>2016-07-13T09:16:45.000Z</time>
      </trkpt>
      <trkpt lat="44.53436" lon="6.22304">
        <ele>1012</ele>
        <time>2016-07-13T09:16:52.000Z</time>
      </trkpt>
      <trkpt lat="44.53422" lon="6.22306">
        <ele>1014.4000244141</ele>
        <time>2016-07-13T09:17:03.000Z</time>
      </trkpt>
      <trkpt lat="44.53406" lon="6.22311">
        <ele>1016.799987793</ele>
        <time>2016-07-13T09:17:13.000Z</time>
      </trkpt>
      <trkpt lat="44.53395" lon="6.22314">
        <ele>1018.5999755859</ele>
        <time>2016-07-13T09:17:21.000Z</time>
      </trkpt>
      <trkpt lat="44.53381" lon="6.2232">
        <ele>1020.799987793</ele>
        <time>2016-07-13T09:17:32.000Z</time>
      </trkpt>
      <trkpt lat="44.53369" lon="6.22322">
        <ele>1022.5999755859</ele>
        <time>2016-07-13T09:17:40.000Z</time>
      </trkpt>
      <trkpt lat="44.53365" lon="6.2232">
        <ele>1023.200012207</ele>
        <time>2016-07-13T09:17:44.000Z</time>
      </trkpt>
      <trkpt lat="44.53357" lon="6.22319">
        <ele>1024</ele>
        <time>2016-07-13T09:17:51.000Z</time>
      </trkpt>
      <trkpt lat="44.53356" lon="6.22318">
        <ele>1024.1999511719</ele>
        <time>2016-07-13T09:17:52.000Z</time>
      </trkpt>
      <trkpt lat="44.53348" lon="6.22303">
        <ele>1023.799987793</ele>
        <time>2016-07-13T09:18:06.000Z</time>
      </trkpt>
      <trkpt lat="44.53341" lon="6.22291">
        <ele>1022.799987793</ele>
        <time>2016-07-13T09:18:14.000Z</time>
      </trkpt>
      <trkpt lat="44.5333" lon="6.22279">
        <ele>1022.200012207</ele>
        <time>2016-07-13T09:18:24.000Z</time>
      </trkpt>
      <trkpt lat="44.53325" lon="6.22272">
        <ele>1021.799987793</ele>
        <time>2016-07-13T09:18:32.000Z</time>
      </trkpt>
      <trkpt lat="44.5332" lon="6.22267">
        <ele>1021.5999755859</ele>
        <time>2016-07-13T09:18:38.000Z</time>
      </trkpt>
      <trkpt lat="44.53309" lon="6.2226">
        <ele>1021.799987793</ele>
        <time>2016-07-13T09:18:47.000Z</time>
      </trkpt>
      <trkpt lat="44.53295" lon="6.22252">
        <ele>1022</ele>
        <time>2016-07-13T09:18:58.000Z</time>
      </trkpt>
      <trkpt lat="44.53287" lon="6.22245">
        <ele>1022</ele>
        <time>2016-07-13T09:19:05.000Z</time>
      </trkpt>
      <trkpt lat="44.53275" lon="6.2224">
        <ele>1021.5999755859</ele>
        <time>2016-07-13T09:19:14.000Z</time>
      </trkpt>
      <trkpt lat="44.53268" lon="6.22237">
        <ele>1021.200012207</ele>
        <time>2016-07-13T09:19:18.000Z</time>
      </trkpt>
      <trkpt lat="44.53256" lon="6.22239">
        <ele>1021.4000244141</ele>
        <time>2016-07-13T09:19:27.000Z</time>
      </trkpt>
      <trkpt lat="44.53249" lon="6.22244">
        <ele>1022.200012207</ele>
        <time>2016-07-13T09:19:33.000Z</time>
      </trkpt>
      <trkpt lat="44.53239" lon="6.22247">
        <ele>1022.5999755859</ele>
        <time>2016-07-13T09:19:40.000Z</time>
      </trkpt>
      <trkpt lat="44.5323" lon="6.2225">
        <ele>1023</ele>
        <time>2016-07-13T09:19:47.000Z</time>
      </trkpt>
      <trkpt lat="44.53218" lon="6.22249">
        <ele>1023</ele>
        <time>2016-07-13T09:19:56.000Z</time>
      </trkpt>
      <trkpt lat="44.5321" lon="6.22246">
        <ele>1022.5999755859</ele>
        <time>2016-07-13T09:20:03.000Z</time>
      </trkpt>
      <trkpt lat="44.53197" lon="6.22247">
        <ele>1022.799987793</ele>
        <time>2016-07-13T09:20:12.000Z</time>
      </trkpt>
      <trkpt lat="44.53184" lon="6.22251">
        <ele>1023</ele>
        <time>2016-07-13T09:20:21.000Z</time>
      </trkpt>
      <trkpt lat="44.5317" lon="6.22259">
        <ele>1024</ele>
        <time>2016-07-13T09:20:32.000Z</time>
      </trkpt>
      <trkpt lat="44.53153" lon="6.22269">
        <ele>1025.4000244141</ele>
        <time>2016-07-13T09:20:44.000Z</time>
      </trkpt>
      <trkpt lat="44.5314" lon="6.22279">
        <ele>1027.8000488281</ele>
        <time>2016-07-13T09:20:55.000Z</time>
      </trkpt>
      <trkpt lat="44.53113" lon="6.22285">
        <ele>1029.5999755859</ele>
        <time>2016-07-13T09:21:15.000Z</time>
      </trkpt>
      <trkpt lat="44.53105" lon="6.22285">
        <ele>1030</ele>
        <time>2016-07-13T09:21:23.000Z</time>
      </trkpt>
      <trkpt lat="44.531" lon="6.22284">
        <ele>1030</ele>
        <time>2016-07-13T09:21:27.000Z</time>
      </trkpt>
      <trkpt lat="44.53091" lon="6.22282">
        <ele>1030</ele>
        <time>2016-07-13T09:21:34.000Z</time>
      </trkpt>
      <trkpt lat="44.5308" lon="6.2228">
        <ele>1029.8000488281</ele>
        <time>2016-07-13T09:21:43.000Z</time>
      </trkpt>
      <trkpt lat="44.5307" lon="6.22282">
        <ele>1030</ele>
        <time>2016-07-13T09:21:49.000Z</time>
      </trkpt>
      <trkpt lat="44.53061" lon="6.22293">
        <ele>1031.1999511719</ele>
        <time>2016-07-13T09:21:59.000Z</time>
      </trkpt>
      <trkpt lat="44.53057" lon="6.22298">
        <ele>1031.5999755859</ele>
        <time>2016-07-13T09:22:02.000Z</time>
      </trkpt>
      <trkpt lat="44.53042" lon="6.22308">
        <ele>1032.5999755859</ele>
        <time>2016-07-13T09:22:15.000Z</time>
      </trkpt>
      <trkpt lat="44.53031" lon="6.22312">
        <ele>1033.4000244141</ele>
        <time>2016-07-13T09:22:23.000Z</time>
      </trkpt>
      <trkpt lat="44.53021" lon="6.22315">
        <ele>1035.1999511719</ele>
        <time>2016-07-13T09:22:30.000Z</time>
      </trkpt>
      <trkpt lat="44.53011" lon="6.22321">
        <ele>1038</ele>
        <time>2016-07-13T09:22:37.000Z</time>
      </trkpt>
      <trkpt lat="44.53" lon="6.22328">
        <ele>1041</ele>
        <time>2016-07-13T09:22:45.000Z</time>
      </trkpt>
      <trkpt lat="44.52988" lon="6.22337">
        <ele>1044.4000244141</ele>
        <time>2016-07-13T09:22:55.000Z</time>
      </trkpt>
      <trkpt lat="44.52979" lon="6.22343">
        <ele>1046.4000244141</ele>
        <time>2016-07-13T09:23:01.000Z</time>
      </trkpt>
      <trkpt lat="44.52968" lon="6.22349">
        <ele>1045</ele>
        <time>2016-07-13T09:23:10.000Z</time>
      </trkpt>
      <trkpt lat="44.52961" lon="6.22353">
        <ele>1044.1999511719</ele>
        <time>2016-07-13T09:23:15.000Z</time>
      </trkpt>
      <trkpt lat="44.52958" lon="6.22355">
        <ele>1044</ele>
        <time>2016-07-13T09:23:17.000Z</time>
      </trkpt>
      <trkpt lat="44.52956" lon="6.22356">
        <ele>1043.5999755859</ele>
        <time>2016-07-13T09:23:19.000Z</time>
      </trkpt>
      <trkpt lat="44.52954" lon="6.22357">
        <ele>1043.4000244141</ele>
        <time>2016-07-13T09:23:20.000Z</time>
      </trkpt>
      <trkpt lat="44.52954" lon="6.22359">
        <ele>1043.4000244141</ele>
        <time>2016-07-13T09:23:28.000Z</time>
      </trkpt>
      <trkpt lat="44.52951" lon="6.22356">
        <ele>1043</ele>
        <time>2016-07-13T09:23:33.000Z</time>
      </trkpt>
      <trkpt lat="44.52946" lon="6.2235">
        <ele>1044.8000488281</ele>
        <time>2016-07-13T09:23:39.000Z</time>
      </trkpt>
      <trkpt lat="44.52945" lon="6.22338">
        <ele>1045.1999511719</ele>
        <time>2016-07-13T09:25:15.000Z</time>
      </trkpt>
      <trkpt lat="44.52948" lon="6.2233">
        <ele>1044</ele>
        <time>2016-07-13T09:25:23.000Z</time>
      </trkpt>
      <trkpt lat="44.52949" lon="6.22328">
        <ele>1043.4000244141</ele>
        <time>2016-07-13T09:25:24.000Z</time>
      </trkpt>
      <trkpt lat="44.52952" lon="6.22324">
        <ele>1043.1999511719</ele>
        <time>2016-07-13T09:25:29.000Z</time>
      </trkpt>
      <trkpt lat="44.5296" lon="6.22315">
        <ele>1042.5999755859</ele>
        <time>2016-07-13T09:25:37.000Z</time>
      </trkpt>
      <trkpt lat="44.52962" lon="6.22313">
        <ele>1041.8000488281</ele>
        <time>2016-07-13T09:25:40.000Z</time>
      </trkpt>
      <trkpt lat="44.52969" lon="6.22303">
        <ele>1041.8000488281</ele>
        <time>2016-07-13T09:26:19.000Z</time>
      </trkpt>
      <trkpt lat="44.52975" lon="6.22298">
        <ele>1041.5999755859</ele>
        <time>2016-07-13T09:26:25.000Z</time>
      </trkpt>
      <trkpt lat="44.5298" lon="6.22293">
        <ele>1041.4000244141</ele>
        <time>2016-07-13T09:26:31.000Z</time>
      </trkpt>
      <trkpt lat="44.52984" lon="6.22291">
        <ele>1041.1999511719</ele>
        <time>2016-07-13T09:26:34.000Z</time>
      </trkpt>
      <trkpt lat="44.52991" lon="6.22283">
        <ele>1041.4000244141</ele>
        <time>2016-07-13T09:26:40.000Z</time>
      </trkpt>
      <trkpt lat="44.52997" lon="6.22275">
        <ele>1041.4000244141</ele>
        <time>2016-07-13T09:26:46.000Z</time>
      </trkpt>
      <trkpt lat="44.52999" lon="6.22274">
        <ele>1040.5999755859</ele>
        <time>2016-07-13T09:26:47.000Z</time>
      </trkpt>
      <trkpt lat="44.53001" lon="6.22273">
        <ele>1039.5999755859</ele>
        <time>2016-07-13T09:26:49.000Z</time>
      </trkpt>
      <trkpt lat="44.53007" lon="6.2227">
        <ele>1037</ele>
        <time>2016-07-13T09:26:55.000Z</time>
      </trkpt>
      <trkpt lat="44.53013" lon="6.22266">
        <ele>1034.5999755859</ele>
        <time>2016-07-13T09:27:00.000Z</time>
      </trkpt>
      <trkpt lat="44.5302" lon="6.22256">
        <ele>1030.8000488281</ele>
        <time>2016-07-13T09:27:07.000Z</time>
      </trkpt>
      <trkpt lat="44.53024" lon="6.22247">
        <ele>1028</ele>
        <time>2016-07-13T09:27:13.000Z</time>
      </trkpt>
      <trkpt lat="44.53027" lon="6.2224">
        <ele>1026</ele>
        <time>2016-07-13T09:27:17.000Z</time>
      </trkpt>
      <trkpt lat="44.53027" lon="6.22236">
        <ele>1025.4000244141</ele>
        <time>2016-07-13T09:27:19.000Z</time>
      </trkpt>
      <trkpt lat="44.53028" lon="6.22227">
        <ele>1024.1999511719</ele>
        <time>2016-07-13T09:27:23.000Z</time>
      </trkpt>
      <trkpt lat="44.53029" lon="6.22219">
        <ele>1024</ele>
        <time>2016-07-13T09:27:27.000Z</time>
      </trkpt>
      <trkpt lat="44.53029" lon="6.22203">
        <ele>1024.4000244141</ele>
        <time>2016-07-13T09:27:35.000Z</time>
      </trkpt>
      <trkpt lat="44.53028" lon="6.22187">
        <ele>1025.4000244141</ele>
        <time>2016-07-13T09:27:44.000Z</time>
      </trkpt>
      <trkpt lat="44.53026" lon="6.22176">
        <ele>1026.4000244141</ele>
        <time>2016-07-13T09:27:50.000Z</time>
      </trkpt>
      <trkpt lat="44.53025" lon="6.22173">
        <ele>1026.8000488281</ele>
        <time>2016-07-13T09:27:52.000Z</time>
      </trkpt>
      <trkpt lat="44.53025" lon="6.22162">
        <ele>1027</ele>
        <time>2016-07-13T09:27:59.000Z</time>
      </trkpt>
      <trkpt lat="44.53026" lon="6.2216">
        <ele>1026.8000488281</ele>
        <time>2016-07-13T09:28:00.000Z</time>
      </trkpt>
      <trkpt lat="44.53028" lon="6.22154">
        <ele>1026.4000244141</ele>
        <time>2016-07-13T09:28:03.000Z</time>
      </trkpt>
      <trkpt lat="44.5303" lon="6.22145">
        <ele>1026.1999511719</ele>
        <time>2016-07-13T09:28:08.000Z</time>
      </trkpt>
      <trkpt lat="44.53031" lon="6.22138">
        <ele>1025.4000244141</ele>
        <time>2016-07-13T09:28:12.000Z</time>
      </trkpt>
      <trkpt lat="44.53032" lon="6.22132">
        <ele>1025.1999511719</ele>
        <time>2016-07-13T09:28:15.000Z</time>
      </trkpt>
      <trkpt lat="44.53033" lon="6.22119">
        <ele>1024.4000244141</ele>
        <time>2016-07-13T09:28:23.000Z</time>
      </trkpt>
      <trkpt lat="44.53034" lon="6.22111">
        <ele>1024.1999511719</ele>
        <time>2016-07-13T09:28:26.000Z</time>
      </trkpt>
      <trkpt lat="44.53036" lon="6.22103">
        <ele>1023.5999755859</ele>
        <time>2016-07-13T09:28:31.000Z</time>
      </trkpt>
      <trkpt lat="44.53041" lon="6.22093">
        <ele>1022.5999755859</ele>
        <time>2016-07-13T09:28:37.000Z</time>
      </trkpt>
      <trkpt lat="44.53046" lon="6.22081">
        <ele>1021.4000244141</ele>
        <time>2016-07-13T09:28:44.000Z</time>
      </trkpt>
      <trkpt lat="44.53046" lon="6.2208">
        <ele>1021.4000244141</ele>
        <time>2016-07-13T09:28:45.000Z</time>
      </trkpt>
      <trkpt lat="44.5305" lon="6.22069">
        <ele>1019.200012207</ele>
        <time>2016-07-13T09:28:51.000Z</time>
      </trkpt>
      <trkpt lat="44.53055" lon="6.22057">
        <ele>1016</ele>
        <time>2016-07-13T09:28:58.000Z</time>
      </trkpt>
      <trkpt lat="44.53055" lon="6.22042">
        <ele>1014</ele>
        <time>2016-07-13T09:29:05.000Z</time>
      </trkpt>
      <trkpt lat="44.53051" lon="6.22034">
        <ele>1014</ele>
        <time>2016-07-13T09:29:10.000Z</time>
      </trkpt>
      <trkpt lat="44.53045" lon="6.22026">
        <ele>1014.5999755859</ele>
        <time>2016-07-13T09:29:16.000Z</time>
      </trkpt>
      <trkpt lat="44.53037" lon="6.22019">
        <ele>1015.799987793</ele>
        <time>2016-07-13T09:29:23.000Z</time>
      </trkpt>
      <trkpt lat="44.5303" lon="6.22013">
        <ele>1016.5999755859</ele>
        <time>2016-07-13T09:29:28.000Z</time>
      </trkpt>
      <trkpt lat="44.53024" lon="6.22012">
        <ele>1017.5999755859</ele>
        <time>2016-07-13T09:29:33.000Z</time>
      </trkpt>
      <trkpt lat="44.53018" lon="6.22013">
        <ele>1018.5999755859</ele>
        <time>2016-07-13T09:29:37.000Z</time>
      </trkpt>
      <trkpt lat="44.53012" lon="6.22011">
        <ele>1019.200012207</ele>
        <time>2016-07-13T09:29:41.000Z</time>
      </trkpt>
      <trkpt lat="44.53" lon="6.22001">
        <ele>1020</ele>
        <time>2016-07-13T09:29:51.000Z</time>
      </trkpt>
      <trkpt lat="44.52992" lon="6.21996">
        <ele>1020.5999755859</ele>
        <time>2016-07-13T09:29:57.000Z</time>
      </trkpt>
      <trkpt lat="44.52984" lon="6.2199">
        <ele>1021</ele>
        <time>2016-07-13T09:30:04.000Z</time>
      </trkpt>
      <trkpt lat="44.52983" lon="6.21989">
        <ele>1021</ele>
        <time>2016-07-13T09:30:05.000Z</time>
      </trkpt>
      <trkpt lat="44.52974" lon="6.21982">
        <ele>1021.5999755859</ele>
        <time>2016-07-13T09:30:12.000Z</time>
      </trkpt>
      <trkpt lat="44.52967" lon="6.21977">
        <ele>1022</ele>
        <time>2016-07-13T09:30:19.000Z</time>
      </trkpt>
      <trkpt lat="44.52965" lon="6.21977">
        <ele>1022.200012207</ele>
        <time>2016-07-13T09:30:20.000Z</time>
      </trkpt>
      <trkpt lat="44.52961" lon="6.21976">
        <ele>1022.799987793</ele>
        <time>2016-07-13T09:30:24.000Z</time>
      </trkpt>
      <trkpt lat="44.52952" lon="6.21973">
        <ele>1023.799987793</ele>
        <time>2016-07-13T09:30:31.000Z</time>
      </trkpt>
      <trkpt lat="44.52946" lon="6.21969">
        <ele>1023.799987793</ele>
        <time>2016-07-13T09:30:36.000Z</time>
      </trkpt>
      <trkpt lat="44.52944" lon="6.21967">
        <ele>1023.4000244141</ele>
        <time>2016-07-13T09:30:38.000Z</time>
      </trkpt>
      <trkpt lat="44.52932" lon="6.21961">
        <ele>1023.4000244141</ele>
        <time>2016-07-13T09:30:47.000Z</time>
      </trkpt>
      <trkpt lat="44.52926" lon="6.21961">
        <ele>1023.5999755859</ele>
        <time>2016-07-13T09:30:53.000Z</time>
      </trkpt>
      <trkpt lat="44.52915" lon="6.21962">
        <ele>1024</ele>
        <time>2016-07-13T09:31:00.000Z</time>
      </trkpt>
      <trkpt lat="44.52905" lon="6.21976">
        <ele>1026.1999511719</ele>
        <time>2016-07-13T09:31:12.000Z</time>
      </trkpt>
      <trkpt lat="44.52896" lon="6.21979">
        <ele>1027</ele>
        <time>2016-07-13T09:31:20.000Z</time>
      </trkpt>
      <trkpt lat="44.52887" lon="6.21982">
        <ele>1027.8000488281</ele>
        <time>2016-07-13T09:31:28.000Z</time>
      </trkpt>
      <trkpt lat="44.52883" lon="6.21984">
        <ele>1028.1999511719</ele>
        <time>2016-07-13T09:31:31.000Z</time>
      </trkpt>
      <trkpt lat="44.52881" lon="6.21983">
        <ele>1028.1999511719</ele>
        <time>2016-07-13T09:31:37.000Z</time>
      </trkpt>
      <trkpt lat="44.52878" lon="6.21984">
        <ele>1028.4000244141</ele>
        <time>2016-07-13T09:31:47.000Z</time>
      </trkpt>
      <trkpt lat="44.52876" lon="6.21985">
        <ele>1028.8000488281</ele>
        <time>2016-07-13T09:31:49.000Z</time>
      </trkpt>
      <trkpt lat="44.52868" lon="6.21989">
        <ele>1030.8000488281</ele>
        <time>2016-07-13T09:31:55.000Z</time>
      </trkpt>
      <trkpt lat="44.52854" lon="6.21994">
        <ele>1033.4000244141</ele>
        <time>2016-07-13T09:32:07.000Z</time>
      </trkpt>
      <trkpt lat="44.52849" lon="6.21991">
        <ele>1033.1999511719</ele>
        <time>2016-07-13T09:32:10.000Z</time>
      </trkpt>
      <trkpt lat="44.5284" lon="6.2199">
        <ele>1033.5999755859</ele>
        <time>2016-07-13T09:32:17.000Z</time>
      </trkpt>
      <trkpt lat="44.52839" lon="6.2199">
        <ele>1033.8000488281</ele>
        <time>2016-07-13T09:32:18.000Z</time>
      </trkpt>
      <trkpt lat="44.52831" lon="6.21992">
        <ele>1035.1999511719</ele>
        <time>2016-07-13T09:32:24.000Z</time>
      </trkpt>
      <trkpt lat="44.52821" lon="6.22">
        <ele>1038.1999511719</ele>
        <time>2016-07-13T09:32:29.000Z</time>
      </trkpt>
      <trkpt lat="44.52808" lon="6.22012">
        <ele>1042.5999755859</ele>
        <time>2016-07-13T09:32:35.000Z</time>
      </trkpt>
      <trkpt lat="44.52807" lon="6.22014">
        <ele>1043</ele>
        <time>2016-07-13T09:32:37.000Z</time>
      </trkpt>
      <trkpt lat="44.52804" lon="6.22018">
        <ele>1044.1999511719</ele>
        <time>2016-07-13T09:32:40.000Z</time>
      </trkpt>
      <trkpt lat="44.528" lon="6.2203">
        <ele>1047.4000244141</ele>
        <time>2016-07-13T09:32:47.000Z</time>
      </trkpt>
      <trkpt lat="44.52799" lon="6.22038">
        <ele>1049.4000244141</ele>
        <time>2016-07-13T09:32:52.000Z</time>
      </trkpt>
      <trkpt lat="44.52796" lon="6.22044">
        <ele>1051</ele>
        <time>2016-07-13T09:32:58.000Z</time>
      </trkpt>
      <trkpt lat="44.52794" lon="6.22046">
        <ele>1051.5999755859</ele>
        <time>2016-07-13T09:33:00.000Z</time>
      </trkpt>
      <trkpt lat="44.52793" lon="6.22049">
        <ele>1052.4000244141</ele>
        <time>2016-07-13T09:33:03.000Z</time>
      </trkpt>
      <trkpt lat="44.52785" lon="6.22055">
        <ele>1054.1999511719</ele>
        <time>2016-07-13T09:33:13.000Z</time>
      </trkpt>
      <trkpt lat="44.52784" lon="6.22058">
        <ele>1055</ele>
        <time>2016-07-13T09:33:15.000Z</time>
      </trkpt>
      <trkpt lat="44.52778" lon="6.2206">
        <ele>1056.1999511719</ele>
        <time>2016-07-13T09:33:22.000Z</time>
      </trkpt>
      <trkpt lat="44.5277" lon="6.22064">
        <ele>1058.4000244141</ele>
        <time>2016-07-13T09:33:30.000Z</time>
      </trkpt>
      <trkpt lat="44.52765" lon="6.22069">
        <ele>1060.1999511719</ele>
        <time>2016-07-13T09:33:34.000Z</time>
      </trkpt>
      <trkpt lat="44.52759" lon="6.22074">
        <ele>1062.5999755859</ele>
        <time>2016-07-13T09:33:40.000Z</time>
      </trkpt>
      <trkpt lat="44.52752" lon="6.22078">
        <ele>1064.8000488281</ele>
        <time>2016-07-13T09:33:45.000Z</time>
      </trkpt>
      <trkpt lat="44.52748" lon="6.22081">
        <ele>1065.8000488281</ele>
        <time>2016-07-13T09:33:48.000Z</time>
      </trkpt>
      <trkpt lat="44.52742" lon="6.22086">
        <ele>1068.4000244141</ele>
        <time>2016-07-13T09:33:54.000Z</time>
      </trkpt>
      <trkpt lat="44.52738" lon="6.22093">
        <ele>1070.5999755859</ele>
        <time>2016-07-13T09:34:02.000Z</time>
      </trkpt>
      <trkpt lat="44.5274" lon="6.22095">
        <ele>1071.1999511719</ele>
        <time>2016-07-13T09:34:12.000Z</time>
      </trkpt>
      <trkpt lat="44.52741" lon="6.22094">
        <ele>1071</ele>
        <time>2016-07-13T09:34:14.000Z</time>
      </trkpt>
      <trkpt lat="44.52726" lon="6.22094">
        <ele>1072.5999755859</ele>
        <time>2016-07-13T09:34:24.000Z</time>
      </trkpt>
      <trkpt lat="44.52717" lon="6.22093">
        <ele>1073.5999755859</ele>
        <time>2016-07-13T09:34:32.000Z</time>
      </trkpt>
      <trkpt lat="44.52709" lon="6.22089">
        <ele>1073.4000244141</ele>
        <time>2016-07-13T09:34:38.000Z</time>
      </trkpt>
      <trkpt lat="44.52701" lon="6.22081">
        <ele>1071.8000488281</ele>
        <time>2016-07-13T09:34:46.000Z</time>
      </trkpt>
      <trkpt lat="44.52692" lon="6.22071">
        <ele>1070.4000244141</ele>
        <time>2016-07-13T09:34:56.000Z</time>
      </trkpt>
      <trkpt lat="44.52684" lon="6.22067">
        <ele>1070.4000244141</ele>
        <time>2016-07-13T09:35:02.000Z</time>
      </trkpt>
      <trkpt lat="44.52678" lon="6.22063">
        <ele>1070.1999511719</ele>
        <time>2016-07-13T09:35:07.000Z</time>
      </trkpt>
      <trkpt lat="44.52666" lon="6.22056">
        <ele>1070.4000244141</ele>
        <time>2016-07-13T09:35:17.000Z</time>
      </trkpt>
      <trkpt lat="44.52657" lon="6.22049">
        <ele>1070.4000244141</ele>
        <time>2016-07-13T09:35:24.000Z</time>
      </trkpt>
      <trkpt lat="44.52646" lon="6.22046">
        <ele>1071.5999755859</ele>
        <time>2016-07-13T09:35:32.000Z</time>
      </trkpt>
      <trkpt lat="44.52638" lon="6.2204">
        <ele>1071.8000488281</ele>
        <time>2016-07-13T09:35:38.000Z</time>
      </trkpt>
      <trkpt lat="44.52625" lon="6.22032">
        <ele>1072.1999511719</ele>
        <time>2016-07-13T09:35:47.000Z</time>
      </trkpt>
      <trkpt lat="44.52615" lon="6.2203">
        <ele>1073.1999511719</ele>
        <time>2016-07-13T09:35:54.000Z</time>
      </trkpt>
      <trkpt lat="44.52608" lon="6.22019">
        <ele>1071.4000244141</ele>
        <time>2016-07-13T09:36:02.000Z</time>
      </trkpt>
      <trkpt lat="44.526" lon="6.22005">
        <ele>1069</ele>
        <time>2016-07-13T09:36:10.000Z</time>
      </trkpt>
      <trkpt lat="44.52591" lon="6.21997">
        <ele>1068.1999511719</ele>
        <time>2016-07-13T09:36:19.000Z</time>
      </trkpt>
      <trkpt lat="44.52583" lon="6.21996">
        <ele>1068.5999755859</ele>
        <time>2016-07-13T09:36:24.000Z</time>
      </trkpt>
      <trkpt lat="44.52573" lon="6.21995">
        <ele>1069.1999511719</ele>
        <time>2016-07-13T09:36:30.000Z</time>
      </trkpt>
      <trkpt lat="44.52559" lon="6.21995">
        <ele>1070.4000244141</ele>
        <time>2016-07-13T09:36:39.000Z</time>
      </trkpt>
      <trkpt lat="44.52558" lon="6.21995">
        <ele>1070.4000244141</ele>
        <time>2016-07-13T09:36:40.000Z</time>
      </trkpt>
      <trkpt lat="44.52556" lon="6.21993">
        <ele>1070.1999511719</ele>
        <time>2016-07-13T09:36:42.000Z</time>
      </trkpt>
      <trkpt lat="44.52554" lon="6.2199">
        <ele>1069.5999755859</ele>
        <time>2016-07-13T09:36:45.000Z</time>
      </trkpt>
      <trkpt lat="44.5255" lon="6.21985">
        <ele>1069</ele>
        <time>2016-07-13T09:36:51.000Z</time>
      </trkpt>
      <trkpt lat="44.52544" lon="6.21982">
        <ele>1068.8000488281</ele>
        <time>2016-07-13T09:36:56.000Z</time>
      </trkpt>
      <trkpt lat="44.52528" lon="6.21989">
        <ele>1072.8000488281</ele>
        <time>2016-07-13T09:37:10.000Z</time>
      </trkpt>
      <trkpt lat="44.52527" lon="6.2199">
        <ele>1073.1999511719</ele>
        <time>2016-07-13T09:37:11.000Z</time>
      </trkpt>
      <trkpt lat="44.52523" lon="6.21994">
        <ele>1075</ele>
        <time>2016-07-13T09:37:16.000Z</time>
      </trkpt>
      <trkpt lat="44.52519" lon="6.21994">
        <ele>1075.5999755859</ele>
        <time>2016-07-13T09:37:21.000Z</time>
      </trkpt>
      <trkpt lat="44.52514" lon="6.21993">
        <ele>1076</ele>
        <time>2016-07-13T09:37:26.000Z</time>
      </trkpt>
      <trkpt lat="44.52507" lon="6.21995">
        <ele>1077.5999755859</ele>
        <time>2016-07-13T09:37:31.000Z</time>
      </trkpt>
      <trkpt lat="44.52502" lon="6.21999">
        <ele>1079.4000244141</ele>
        <time>2016-07-13T09:37:37.000Z</time>
      </trkpt>
      <trkpt lat="44.52496" lon="6.22002">
        <ele>1081.4000244141</ele>
        <time>2016-07-13T09:37:43.000Z</time>
      </trkpt>
      <trkpt lat="44.5249" lon="6.22003">
        <ele>1082.4000244141</ele>
        <time>2016-07-13T09:37:47.000Z</time>
      </trkpt>
      <trkpt lat="44.52488" lon="6.22002">
        <ele>1082.5999755859</ele>
        <time>2016-07-13T09:37:50.000Z</time>
      </trkpt>
      <trkpt lat="44.52483" lon="6.22002">
        <ele>1083.1999511719</ele>
        <time>2016-07-13T09:37:53.000Z</time>
      </trkpt>
      <trkpt lat="44.52477" lon="6.22002">
        <ele>1084.1999511719</ele>
        <time>2016-07-13T09:37:57.000Z</time>
      </trkpt>
      <trkpt lat="44.5247" lon="6.22003">
        <ele>1085.1999511719</ele>
        <time>2016-07-13T09:38:02.000Z</time>
      </trkpt>
      <trkpt lat="44.52468" lon="6.22002">
        <ele>1085.1999511719</ele>
        <time>2016-07-13T09:38:04.000Z</time>
      </trkpt>
      <trkpt lat="44.52467" lon="6.22002">
        <ele>1085.1999511719</ele>
        <time>2016-07-13T09:38:06.000Z</time>
      </trkpt>
      <trkpt lat="44.52465" lon="6.22002">
        <ele>1085.4000244141</ele>
        <time>2016-07-13T09:38:08.000Z</time>
      </trkpt>
      <trkpt lat="44.52461" lon="6.22003">
        <ele>1086</ele>
        <time>2016-07-13T09:38:11.000Z</time>
      </trkpt>
      <trkpt lat="44.52459" lon="6.22005">
        <ele>1086.4000244141</ele>
        <time>2016-07-13T09:38:12.000Z</time>
      </trkpt>
      <trkpt lat="44.5245" lon="6.22009">
        <ele>1088</ele>
        <time>2016-07-13T09:38:19.000Z</time>
      </trkpt>
      <trkpt lat="44.52449" lon="6.22009">
        <ele>1088</ele>
        <time>2016-07-13T09:38:20.000Z</time>
      </trkpt>
      <trkpt lat="44.52436" lon="6.22005">
        <ele>1090.4000244141</ele>
        <time>2016-07-13T09:38:28.000Z</time>
      </trkpt>
      <trkpt lat="44.52432" lon="6.22003">
        <ele>1091</ele>
        <time>2016-07-13T09:38:32.000Z</time>
      </trkpt>
      <trkpt lat="44.52424" lon="6.22006">
        <ele>1093.4000244141</ele>
        <time>2016-07-13T09:38:37.000Z</time>
      </trkpt>
      <trkpt lat="44.52422" lon="6.22007">
        <ele>1093.8000488281</ele>
        <time>2016-07-13T09:38:39.000Z</time>
      </trkpt>
      <trkpt lat="44.52418" lon="6.22006">
        <ele>1094.5999755859</ele>
        <time>2016-07-13T09:38:43.000Z</time>
      </trkpt>
      <trkpt lat="44.52413" lon="6.22008">
        <ele>1096.1999511719</ele>
        <time>2016-07-13T09:38:48.000Z</time>
      </trkpt>
      <trkpt lat="44.52408" lon="6.22008">
        <ele>1097.1999511719</ele>
        <time>2016-07-13T09:38:51.000Z</time>
      </trkpt>
      <trkpt lat="44.52406" lon="6.22007">
        <ele>1097.5999755859</ele>
        <time>2016-07-13T09:38:53.000Z</time>
      </trkpt>
      <trkpt lat="44.52403" lon="6.22007">
        <ele>1098.4000244141</ele>
        <time>2016-07-13T09:38:56.000Z</time>
      </trkpt>
      <trkpt lat="44.52396" lon="6.2201">
        <ele>1099.8000488281</ele>
        <time>2016-07-13T09:39:03.000Z</time>
      </trkpt>
      <trkpt lat="44.52392" lon="6.22008">
        <ele>1099.8000488281</ele>
        <time>2016-07-13T09:39:08.000Z</time>
      </trkpt>
      <trkpt lat="44.5239" lon="6.22009">
        <ele>1099.8000488281</ele>
        <time>2016-07-13T09:39:10.000Z</time>
      </trkpt>
      <trkpt lat="44.52386" lon="6.2201">
        <ele>1099.5999755859</ele>
        <time>2016-07-13T09:39:15.000Z</time>
      </trkpt>
      <trkpt lat="44.52382" lon="6.22013">
        <ele>1099.4000244141</ele>
        <time>2016-07-13T09:39:21.000Z</time>
      </trkpt>
      <trkpt lat="44.5238" lon="6.22018">
        <ele>1099</ele>
        <time>2016-07-13T09:39:25.000Z</time>
      </trkpt>
      <trkpt lat="44.52378" lon="6.2202">
        <ele>1098.8000488281</ele>
        <time>2016-07-13T09:39:27.000Z</time>
      </trkpt>
      <trkpt lat="44.52374" lon="6.22022">
        <ele>1098.5999755859</ele>
        <time>2016-07-13T09:39:32.000Z</time>
      </trkpt>
      <trkpt lat="44.52367" lon="6.22025">
        <ele>1098.1999511719</ele>
        <time>2016-07-13T09:39:36.000Z</time>
      </trkpt>
      <trkpt lat="44.52365" lon="6.22025">
        <ele>1099</ele>
        <time>2016-07-13T09:39:38.000Z</time>
      </trkpt>
      <trkpt lat="44.52355" lon="6.22026">
        <ele>1102</ele>
        <time>2016-07-13T09:39:43.000Z</time>
      </trkpt>
      <trkpt lat="44.5235" lon="6.22027">
        <ele>1103.5999755859</ele>
        <time>2016-07-13T09:39:46.000Z</time>
      </trkpt>
      <trkpt lat="44.52344" lon="6.22027">
        <ele>1105.5999755859</ele>
        <time>2016-07-13T09:39:51.000Z</time>
      </trkpt>
      <trkpt lat="44.52339" lon="6.22029">
        <ele>1107.1999511719</ele>
        <time>2016-07-13T09:39:55.000Z</time>
      </trkpt>
      <trkpt lat="44.52336" lon="6.22031">
        <ele>1108</ele>
        <time>2016-07-13T09:39:57.000Z</time>
      </trkpt>
      <trkpt lat="44.52335" lon="6.22032">
        <ele>1108</ele>
        <time>2016-07-13T09:39:59.000Z</time>
      </trkpt>
      <trkpt lat="44.52329" lon="6.2204">
        <ele>1107.4000244141</ele>
        <time>2016-07-13T09:40:06.000Z</time>
      </trkpt>
      <trkpt lat="44.52328" lon="6.22041">
        <ele>1107.4000244141</ele>
        <time>2016-07-13T09:40:07.000Z</time>
      </trkpt>
      <trkpt lat="44.52323" lon="6.22045">
        <ele>1107.4000244141</ele>
        <time>2016-07-13T09:40:13.000Z</time>
      </trkpt>
      <trkpt lat="44.52322" lon="6.22047">
        <ele>1107</ele>
        <time>2016-07-13T09:40:19.000Z</time>
      </trkpt>
      <trkpt lat="44.5232" lon="6.22047">
        <ele>1107.4000244141</ele>
        <time>2016-07-13T09:40:26.000Z</time>
      </trkpt>
      <trkpt lat="44.52311" lon="6.2205">
        <ele>1108.5999755859</ele>
        <time>2016-07-13T09:40:33.000Z</time>
      </trkpt>
      <trkpt lat="44.52303" lon="6.22054">
        <ele>1109.1999511719</ele>
        <time>2016-07-13T09:40:39.000Z</time>
      </trkpt>
      <trkpt lat="44.52302" lon="6.22055">
        <ele>1109.1999511719</ele>
        <time>2016-07-13T09:40:40.000Z</time>
      </trkpt>
      <trkpt lat="44.52299" lon="6.22055">
        <ele>1109.5999755859</ele>
        <time>2016-07-13T09:40:44.000Z</time>
      </trkpt>
      <trkpt lat="44.52295" lon="6.22061">
        <ele>1109.1999511719</ele>
        <time>2016-07-13T09:40:50.000Z</time>
      </trkpt>
      <trkpt lat="44.52293" lon="6.22065">
        <ele>1110.5999755859</ele>
        <time>2016-07-13T09:40:53.000Z</time>
      </trkpt>
      <trkpt lat="44.5229" lon="6.22066">
        <ele>1111.4000244141</ele>
        <time>2016-07-13T09:40:56.000Z</time>
      </trkpt>
      <trkpt lat="44.52285" lon="6.22069">
        <ele>1111.5999755859</ele>
        <time>2016-07-13T09:41:01.000Z</time>
      </trkpt>
      <trkpt lat="44.52277" lon="6.22074">
        <ele>1113.8000488281</ele>
        <time>2016-07-13T09:41:10.000Z</time>
      </trkpt>
      <trkpt lat="44.52276" lon="6.22076">
        <ele>1114.1999511719</ele>
        <time>2016-07-13T09:41:12.000Z</time>
      </trkpt>
      <trkpt lat="44.52275" lon="6.22078">
        <ele>1114.5999755859</ele>
        <time>2016-07-13T09:41:18.000Z</time>
      </trkpt>
      <trkpt lat="44.52274" lon="6.22083">
        <ele>1115.4000244141</ele>
        <time>2016-07-13T09:41:34.000Z</time>
      </trkpt>
      <trkpt lat="44.52272" lon="6.22088">
        <ele>1116.1999511719</ele>
        <time>2016-07-13T09:41:41.000Z</time>
      </trkpt>
      <trkpt lat="44.52276" lon="6.22089">
        <ele>1114.8000488281</ele>
        <time>2016-07-13T09:41:47.000Z</time>
      </trkpt>
      <trkpt lat="44.52275" lon="6.2209">
        <ele>1115.4000244141</ele>
        <time>2016-07-13T09:41:53.000Z</time>
      </trkpt>
      <trkpt lat="44.52269" lon="6.2209">
        <ele>1117.1999511719</ele>
        <time>2016-07-13T09:42:00.000Z</time>
      </trkpt>
      <trkpt lat="44.52266" lon="6.22088">
        <ele>1118.4000244141</ele>
        <time>2016-07-13T09:42:04.000Z</time>
      </trkpt>
      <trkpt lat="44.52262" lon="6.22088">
        <ele>1119.8000488281</ele>
        <time>2016-07-13T09:42:10.000Z</time>
      </trkpt>
      <trkpt lat="44.52259" lon="6.22088">
        <ele>1120.8000488281</ele>
        <time>2016-07-13T09:42:13.000Z</time>
      </trkpt>
      <trkpt lat="44.52257" lon="6.22089">
        <ele>1121.5999755859</ele>
        <time>2016-07-13T09:42:15.000Z</time>
      </trkpt>
      <trkpt lat="44.52256" lon="6.22089">
        <ele>1121.8000488281</ele>
        <time>2016-07-13T09:42:16.000Z</time>
      </trkpt>
      <trkpt lat="44.52252" lon="6.22088">
        <ele>1123.1999511719</ele>
        <time>2016-07-13T09:42:24.000Z</time>
      </trkpt>
      <trkpt lat="44.52253" lon="6.22086">
        <ele>1123</ele>
        <time>2016-07-13T09:42:28.000Z</time>
      </trkpt>
      <trkpt lat="44.52254" lon="6.22085">
        <ele>1122.5999755859</ele>
        <time>2016-07-13T09:42:36.000Z</time>
      </trkpt>
      <trkpt lat="44.52254" lon="6.22081">
        <ele>1122.5999755859</ele>
        <time>2016-07-13T09:42:41.000Z</time>
      </trkpt>
      <trkpt lat="44.52252" lon="6.22081">
        <ele>1123.1999511719</ele>
        <time>2016-07-13T09:42:45.000Z</time>
      </trkpt>
      <trkpt lat="44.52252" lon="6.22083">
        <ele>1123.1999511719</ele>
        <time>2016-07-13T09:42:51.000Z</time>
      </trkpt>
      <trkpt lat="44.52251" lon="6.22085">
        <ele>1123.8000488281</ele>
        <time>2016-07-13T09:42:56.000Z</time>
      </trkpt>
      <trkpt lat="44.52247" lon="6.22083">
        <ele>1125.1999511719</ele>
        <time>2016-07-13T09:43:02.000Z</time>
      </trkpt>
      <trkpt lat="44.52243" lon="6.22083">
        <ele>1126.4000244141</ele>
        <time>2016-07-13T09:43:07.000Z</time>
      </trkpt>
      <trkpt lat="44.5224" lon="6.2208">
        <ele>1127.5999755859</ele>
        <time>2016-07-13T09:43:13.000Z</time>
      </trkpt>
      <trkpt lat="44.52236" lon="6.22077">
        <ele>1128.5999755859</ele>
        <time>2016-07-13T09:43:20.000Z</time>
      </trkpt>
      <trkpt lat="44.52234" lon="6.22074">
        <ele>1129.1999511719</ele>
        <time>2016-07-13T09:43:26.000Z</time>
      </trkpt>
      <trkpt lat="44.52231" lon="6.22076">
        <ele>1130.5999755859</ele>
        <time>2016-07-13T09:43:35.000Z</time>
      </trkpt>
      <trkpt lat="44.52228" lon="6.22077">
        <ele>1131.5999755859</ele>
        <time>2016-07-13T09:43:48.000Z</time>
      </trkpt>
      <trkpt lat="44.5223" lon="6.22075">
        <ele>1130.8000488281</ele>
        <time>2016-07-13T09:43:55.000Z</time>
      </trkpt>
      <trkpt lat="44.5223" lon="6.22073">
        <ele>1130.5999755859</ele>
        <time>2016-07-13T09:44:18.000Z</time>
      </trkpt>
      <trkpt lat="44.52228" lon="6.22075">
        <ele>1131.4000244141</ele>
        <time>2016-07-13T09:44:24.000Z</time>
      </trkpt>
      <trkpt lat="44.52227" lon="6.22076">
        <ele>1131.8000488281</ele>
        <time>2016-07-13T09:44:27.000Z</time>
      </trkpt>
      <trkpt lat="44.52226" lon="6.22079">
        <ele>1132.4000244141</ele>
        <time>2016-07-13T09:44:35.000Z</time>
      </trkpt>
      <trkpt lat="44.52222" lon="6.22081">
        <ele>1134</ele>
        <time>2016-07-13T09:44:42.000Z</time>
      </trkpt>
      <trkpt lat="44.52216" lon="6.22082">
        <ele>1135.1999511719</ele>
        <time>2016-07-13T09:44:55.000Z</time>
      </trkpt>
      <trkpt lat="44.52214" lon="6.22085">
        <ele>1135.1999511719</ele>
        <time>2016-07-13T09:45:02.000Z</time>
      </trkpt>
      <trkpt lat="44.52212" lon="6.22088">
        <ele>1135</ele>
        <time>2016-07-13T09:45:05.000Z</time>
      </trkpt>
      <trkpt lat="44.52209" lon="6.22091">
        <ele>1135</ele>
        <time>2016-07-13T09:45:09.000Z</time>
      </trkpt>
      <trkpt lat="44.52209" lon="6.22093">
        <ele>1134.8000488281</ele>
        <time>2016-07-13T09:45:11.000Z</time>
      </trkpt>
      <trkpt lat="44.52205" lon="6.22099">
        <ele>1134.5999755859</ele>
        <time>2016-07-13T09:45:19.000Z</time>
      </trkpt>
      <trkpt lat="44.52202" lon="6.221">
        <ele>1134.8000488281</ele>
        <time>2016-07-13T09:45:22.000Z</time>
      </trkpt>
      <trkpt lat="44.52195" lon="6.22102">
        <ele>1136.5999755859</ele>
        <time>2016-07-13T09:45:31.000Z</time>
      </trkpt>
      <trkpt lat="44.52193" lon="6.22105">
        <ele>1136.8000488281</ele>
        <time>2016-07-13T09:45:36.000Z</time>
      </trkpt>
      <trkpt lat="44.5219" lon="6.22106">
        <ele>1137.5999755859</ele>
        <time>2016-07-13T09:45:41.000Z</time>
      </trkpt>
      <trkpt lat="44.52186" lon="6.22108">
        <ele>1138.5999755859</ele>
        <time>2016-07-13T09:45:46.000Z</time>
      </trkpt>
      <trkpt lat="44.52183" lon="6.2211">
        <ele>1139.4000244141</ele>
        <time>2016-07-13T09:45:50.000Z</time>
      </trkpt>
      <trkpt lat="44.52178" lon="6.22111">
        <ele>1140.5999755859</ele>
        <time>2016-07-13T09:45:57.000Z</time>
      </trkpt>
      <trkpt lat="44.52174" lon="6.22111">
        <ele>1142</ele>
        <time>2016-07-13T09:46:05.000Z</time>
      </trkpt>
      <trkpt lat="44.5217" lon="6.2211">
        <ele>1143.1999511719</ele>
        <time>2016-07-13T09:46:11.000Z</time>
      </trkpt>
      <trkpt lat="44.52165" lon="6.22111">
        <ele>1144.5999755859</ele>
        <time>2016-07-13T09:46:18.000Z</time>
      </trkpt>
      <trkpt lat="44.52161" lon="6.22109">
        <ele>1146.4000244141</ele>
        <time>2016-07-13T09:46:24.000Z</time>
      </trkpt>
      <trkpt lat="44.52159" lon="6.22106">
        <ele>1147.4000244141</ele>
        <time>2016-07-13T09:46:29.000Z</time>
      </trkpt>
      <trkpt lat="44.52158" lon="6.22105">
        <ele>1147.8000488281</ele>
        <time>2016-07-13T09:46:37.000Z</time>
      </trkpt>
      <trkpt lat="44.52159" lon="6.22106">
        <ele>1147.1999511719</ele>
        <time>2016-07-13T09:46:45.000Z</time>
      </trkpt>
      <trkpt lat="44.52159" lon="6.22107">
        <ele>1147</ele>
        <time>2016-07-13T09:46:51.000Z</time>
      </trkpt>
      <trkpt lat="44.52157" lon="6.22107">
        <ele>1147.8000488281</ele>
        <time>2016-07-13T09:46:56.000Z</time>
      </trkpt>
      <trkpt lat="44.52147" lon="6.22108">
        <ele>1149.8000488281</ele>
        <time>2016-07-13T09:47:04.000Z</time>
      </trkpt>
      <trkpt lat="44.5214" lon="6.22111">
        <ele>1151</ele>
        <time>2016-07-13T09:47:11.000Z</time>
      </trkpt>
      <trkpt lat="44.52133" lon="6.22114">
        <ele>1152</ele>
        <time>2016-07-13T09:47:17.000Z</time>
      </trkpt>
      <trkpt lat="44.52124" lon="6.22116">
        <ele>1154</ele>
        <time>2016-07-13T09:47:24.000Z</time>
      </trkpt>
      <trkpt lat="44.52122" lon="6.22116">
        <ele>1154.4000244141</ele>
        <time>2016-07-13T09:47:26.000Z</time>
      </trkpt>
      <trkpt lat="44.52112" lon="6.2212">
        <ele>1157</ele>
        <time>2016-07-13T09:47:34.000Z</time>
      </trkpt>
      <trkpt lat="44.5211" lon="6.2212">
        <ele>1158.1999511719</ele>
        <time>2016-07-13T09:47:37.000Z</time>
      </trkpt>
      <trkpt lat="44.52109" lon="6.2212">
        <ele>1158.5999755859</ele>
        <time>2016-07-13T09:47:39.000Z</time>
      </trkpt>
      <trkpt lat="44.52101" lon="6.22125">
        <ele>1160.5999755859</ele>
        <time>2016-07-13T09:47:46.000Z</time>
      </trkpt>
      <trkpt lat="44.52097" lon="6.2213">
        <ele>1161.8000488281</ele>
        <time>2016-07-13T09:47:51.000Z</time>
      </trkpt>
      <trkpt lat="44.52089" lon="6.2214">
        <ele>1163.8000488281</ele>
        <time>2016-07-13T09:47:59.000Z</time>
      </trkpt>
      <trkpt lat="44.52083" lon="6.22147">
        <ele>1166</ele>
        <time>2016-07-13T09:48:05.000Z</time>
      </trkpt>
      <trkpt lat="44.52072" lon="6.22161">
        <ele>1173.1999511719</ele>
        <time>2016-07-13T09:48:16.000Z</time>
      </trkpt>
      <trkpt lat="44.52068" lon="6.2217">
        <ele>1175.5999755859</ele>
        <time>2016-07-13T09:48:21.000Z</time>
      </trkpt>
      <trkpt lat="44.52065" lon="6.22184">
        <ele>1178</ele>
        <time>2016-07-13T09:48:30.000Z</time>
      </trkpt>
      <trkpt lat="44.52065" lon="6.22192">
        <ele>1178</ele>
        <time>2016-07-13T09:48:35.000Z</time>
      </trkpt>
      <trkpt lat="44.52064" lon="6.22204">
        <ele>1179</ele>
        <time>2016-07-13T09:48:43.000Z</time>
      </trkpt>
      <trkpt lat="44.52064" lon="6.22205">
        <ele>1179</ele>
        <time>2016-07-13T09:48:44.000Z</time>
      </trkpt>
      <trkpt lat="44.52064" lon="6.2221">
        <ele>1179</ele>
        <time>2016-07-13T09:48:47.000Z</time>
      </trkpt>
      <trkpt lat="44.52065" lon="6.22218">
        <ele>1178.8000488281</ele>
        <time>2016-07-13T09:48:53.000Z</time>
      </trkpt>
      <trkpt lat="44.52065" lon="6.22221">
        <ele>1178.8000488281</ele>
        <time>2016-07-13T09:48:55.000Z</time>
      </trkpt>
      <trkpt lat="44.52066" lon="6.22223">
        <ele>1178.5999755859</ele>
        <time>2016-07-13T09:48:58.000Z</time>
      </trkpt>
      <trkpt lat="44.52067" lon="6.22225">
        <ele>1178.1999511719</ele>
        <time>2016-07-13T09:49:00.000Z</time>
      </trkpt>
      <trkpt lat="44.52069" lon="6.22235">
        <ele>1177.5999755859</ele>
        <time>2016-07-13T09:49:06.000Z</time>
      </trkpt>
      <trkpt lat="44.5207" lon="6.22237">
        <ele>1177.5999755859</ele>
        <time>2016-07-13T09:49:07.000Z</time>
      </trkpt>
      <trkpt lat="44.52073" lon="6.22252">
        <ele>1177</ele>
        <time>2016-07-13T09:49:17.000Z</time>
      </trkpt>
      <trkpt lat="44.52077" lon="6.22258">
        <ele>1175.8000488281</ele>
        <time>2016-07-13T09:49:22.000Z</time>
      </trkpt>
      <trkpt lat="44.52079" lon="6.22262">
        <ele>1175.1999511719</ele>
        <time>2016-07-13T09:49:25.000Z</time>
      </trkpt>
      <trkpt lat="44.52084" lon="6.22271">
        <ele>1173.8000488281</ele>
        <time>2016-07-13T09:49:32.000Z</time>
      </trkpt>
      <trkpt lat="44.52085" lon="6.22274">
        <ele>1173.4000244141</ele>
        <time>2016-07-13T09:49:34.000Z</time>
      </trkpt>
      <trkpt lat="44.52089" lon="6.22281">
        <ele>1172.4000244141</ele>
        <time>2016-07-13T09:49:40.000Z</time>
      </trkpt>
      <trkpt lat="44.52094" lon="6.22287">
        <ele>1170.5999755859</ele>
        <time>2016-07-13T09:49:46.000Z</time>
      </trkpt>
      <trkpt lat="44.52095" lon="6.22289">
        <ele>1170.4000244141</ele>
        <time>2016-07-13T09:49:47.000Z</time>
      </trkpt>
      <trkpt lat="44.52095" lon="6.2229">
        <ele>1170.1999511719</ele>
        <time>2016-07-13T09:49:48.000Z</time>
      </trkpt>
      <trkpt lat="44.52095" lon="6.22301">
        <ele>1168.8000488281</ele>
        <time>2016-07-13T09:49:54.000Z</time>
      </trkpt>
      <trkpt lat="44.52095" lon="6.22303">
        <ele>1168.5999755859</ele>
        <time>2016-07-13T09:49:55.000Z</time>
      </trkpt>
      <trkpt lat="44.52094" lon="6.22305">
        <ele>1168.5999755859</ele>
        <time>2016-07-13T09:49:56.000Z</time>
      </trkpt>
      <trkpt lat="44.52091" lon="6.22312">
        <ele>1168.5999755859</ele>
        <time>2016-07-13T09:50:01.000Z</time>
      </trkpt>
      <trkpt lat="44.52088" lon="6.22316">
        <ele>1169.8000488281</ele>
        <time>2016-07-13T09:50:05.000Z</time>
      </trkpt>
      <trkpt lat="44.52083" lon="6.2232">
        <ele>1171.4000244141</ele>
        <time>2016-07-13T09:50:09.000Z</time>
      </trkpt>
      <trkpt lat="44.52075" lon="6.2233">
        <ele>1174.4000244141</ele>
        <time>2016-07-13T09:50:17.000Z</time>
      </trkpt>
      <trkpt lat="44.52072" lon="6.22335">
        <ele>1175.8000488281</ele>
        <time>2016-07-13T09:50:21.000Z</time>
      </trkpt>
      <trkpt lat="44.52068" lon="6.22341">
        <ele>1177.4000244141</ele>
        <time>2016-07-13T09:50:26.000Z</time>
      </trkpt>
      <trkpt lat="44.52064" lon="6.22345">
        <ele>1178.5999755859</ele>
        <time>2016-07-13T09:50:31.000Z</time>
      </trkpt>
      <trkpt lat="44.52059" lon="6.22347">
        <ele>1178.8000488281</ele>
        <time>2016-07-13T09:50:36.000Z</time>
      </trkpt>
      <trkpt lat="44.52056" lon="6.22349">
        <ele>1179.1999511719</ele>
        <time>2016-07-13T09:50:39.000Z</time>
      </trkpt>
      <trkpt lat="44.52051" lon="6.22351">
        <ele>1179.4000244141</ele>
        <time>2016-07-13T09:50:44.000Z</time>
      </trkpt>
      <trkpt lat="44.5204" lon="6.22368">
        <ele>1179.5999755859</ele>
        <time>2016-07-13T09:51:16.000Z</time>
      </trkpt>
      <trkpt lat="44.52039" lon="6.22368">
        <ele>1179.8000488281</ele>
        <time>2016-07-13T09:51:17.000Z</time>
      </trkpt>
      <trkpt lat="44.52032" lon="6.22373">
        <ele>1180.4000244141</ele>
        <time>2016-07-13T09:51:23.000Z</time>
      </trkpt>
      <trkpt lat="44.52031" lon="6.22374">
        <ele>1180.5999755859</ele>
        <time>2016-07-13T09:51:24.000Z</time>
      </trkpt>
      <trkpt lat="44.5203" lon="6.22374">
        <ele>1180.8000488281</ele>
        <time>2016-07-13T09:51:25.000Z</time>
      </trkpt>
      <trkpt lat="44.52025" lon="6.22374">
        <ele>1182</ele>
        <time>2016-07-13T09:51:30.000Z</time>
      </trkpt>
      <trkpt lat="44.52022" lon="6.22374">
        <ele>1183</ele>
        <time>2016-07-13T09:51:33.000Z</time>
      </trkpt>
      <trkpt lat="44.52018" lon="6.22375">
        <ele>1183.8000488281</ele>
        <time>2016-07-13T09:51:36.000Z</time>
      </trkpt>
      <trkpt lat="44.52012" lon="6.22376">
        <ele>1185</ele>
        <time>2016-07-13T09:51:42.000Z</time>
      </trkpt>
      <trkpt lat="44.52007" lon="6.22375">
        <ele>1186.4000244141</ele>
        <time>2016-07-13T09:51:48.000Z</time>
      </trkpt>
      <trkpt lat="44.52006" lon="6.22375">
        <ele>1186.5999755859</ele>
        <time>2016-07-13T09:51:49.000Z</time>
      </trkpt>
      <trkpt lat="44.52001" lon="6.22376">
        <ele>1187.5999755859</ele>
        <time>2016-07-13T09:51:54.000Z</time>
      </trkpt>
      <trkpt lat="44.52" lon="6.22377">
        <ele>1187.8000488281</ele>
        <time>2016-07-13T09:51:55.000Z</time>
      </trkpt>
      <trkpt lat="44.51998" lon="6.22379">
        <ele>1188.4000244141</ele>
        <time>2016-07-13T09:52:00.000Z</time>
      </trkpt>
      <trkpt lat="44.51994" lon="6.22383">
        <ele>1189</ele>
        <time>2016-07-13T09:52:04.000Z</time>
      </trkpt>
      <trkpt lat="44.51989" lon="6.22388">
        <ele>1190.1999511719</ele>
        <time>2016-07-13T09:52:09.000Z</time>
      </trkpt>
      <trkpt lat="44.51984" lon="6.22394">
        <ele>1191.1999511719</ele>
        <time>2016-07-13T09:52:15.000Z</time>
      </trkpt>
      <trkpt lat="44.51978" lon="6.22397">
        <ele>1192.5999755859</ele>
        <time>2016-07-13T09:52:21.000Z</time>
      </trkpt>
      <trkpt lat="44.51974" lon="6.22401">
        <ele>1194.1999511719</ele>
        <time>2016-07-13T09:52:25.000Z</time>
      </trkpt>
      <trkpt lat="44.51967" lon="6.22406">
        <ele>1196.4000244141</ele>
        <time>2016-07-13T09:52:32.000Z</time>
      </trkpt>
      <trkpt lat="44.51964" lon="6.22408">
        <ele>1197.1999511719</ele>
        <time>2016-07-13T09:52:34.000Z</time>
      </trkpt>
      <trkpt lat="44.51962" lon="6.2241">
        <ele>1197.8000488281</ele>
        <time>2016-07-13T09:52:36.000Z</time>
      </trkpt>
      <trkpt lat="44.51963" lon="6.22412">
        <ele>1198.1999511719</ele>
        <time>2016-07-13T09:52:40.000Z</time>
      </trkpt>
      <trkpt lat="44.51967" lon="6.22414">
        <ele>1197.4000244141</ele>
        <time>2016-07-13T09:52:45.000Z</time>
      </trkpt>
      <trkpt lat="44.51973" lon="6.22417">
        <ele>1196</ele>
        <time>2016-07-13T09:52:52.000Z</time>
      </trkpt>
      <trkpt lat="44.51981" lon="6.22419">
        <ele>1194.5999755859</ele>
        <time>2016-07-13T09:52:58.000Z</time>
      </trkpt>
      <trkpt lat="44.5198" lon="6.22422">
        <ele>1195</ele>
        <time>2016-07-13T09:53:02.000Z</time>
      </trkpt>
      <trkpt lat="44.51973" lon="6.22433">
        <ele>1198.5999755859</ele>
        <time>2016-07-13T09:53:15.000Z</time>
      </trkpt>
      <trkpt lat="44.51971" lon="6.2244">
        <ele>1200.4000244141</ele>
        <time>2016-07-13T09:53:19.000Z</time>
      </trkpt>
      <trkpt lat="44.51968" lon="6.22443">
        <ele>1201.5999755859</ele>
        <time>2016-07-13T09:53:21.000Z</time>
      </trkpt>
      <trkpt lat="44.51962" lon="6.22448">
        <ele>1204</ele>
        <time>2016-07-13T09:53:26.000Z</time>
      </trkpt>
      <trkpt lat="44.51958" lon="6.22454">
        <ele>1206</ele>
        <time>2016-07-13T09:53:31.000Z</time>
      </trkpt>
      <trkpt lat="44.51955" lon="6.22461">
        <ele>1208</ele>
        <time>2016-07-13T09:53:36.000Z</time>
      </trkpt>
      <trkpt lat="44.51954" lon="6.22463">
        <ele>1208.5999755859</ele>
        <time>2016-07-13T09:53:38.000Z</time>
      </trkpt>
      <trkpt lat="44.51953" lon="6.22466">
        <ele>1209.1999511719</ele>
        <time>2016-07-13T09:53:40.000Z</time>
      </trkpt>
      <trkpt lat="44.51951" lon="6.22468">
        <ele>1210.4000244141</ele>
        <time>2016-07-13T09:53:43.000Z</time>
      </trkpt>
      <trkpt lat="44.51947" lon="6.22474">
        <ele>1212.1999511719</ele>
        <time>2016-07-13T09:53:48.000Z</time>
      </trkpt>
      <trkpt lat="44.51942" lon="6.22481">
        <ele>1214</ele>
        <time>2016-07-13T09:53:56.000Z</time>
      </trkpt>
      <trkpt lat="44.51939" lon="6.22484">
        <ele>1215</ele>
        <time>2016-07-13T09:53:59.000Z</time>
      </trkpt>
      <trkpt lat="44.51935" lon="6.2249">
        <ele>1216.4000244141</ele>
        <time>2016-07-13T09:54:05.000Z</time>
      </trkpt>
      <trkpt lat="44.51929" lon="6.22496">
        <ele>1218.4000244141</ele>
        <time>2016-07-13T09:54:12.000Z</time>
      </trkpt>
      <trkpt lat="44.51925" lon="6.22498">
        <ele>1219.4000244141</ele>
        <time>2016-07-13T09:54:16.000Z</time>
      </trkpt>
      <trkpt lat="44.51918" lon="6.22502">
        <ele>1221.4000244141</ele>
        <time>2016-07-13T09:54:24.000Z</time>
      </trkpt>
      <trkpt lat="44.51915" lon="6.22506">
        <ele>1222.5999755859</ele>
        <time>2016-07-13T09:54:28.000Z</time>
      </trkpt>
      <trkpt lat="44.51912" lon="6.22511">
        <ele>1223.8000488281</ele>
        <time>2016-07-13T09:54:33.000Z</time>
      </trkpt>
      <trkpt lat="44.51909" lon="6.22516">
        <ele>1225</ele>
        <time>2016-07-13T09:54:37.000Z</time>
      </trkpt>
      <trkpt lat="44.51905" lon="6.22523">
        <ele>1226.5999755859</ele>
        <time>2016-07-13T09:54:43.000Z</time>
      </trkpt>
      <trkpt lat="44.51899" lon="6.22531">
        <ele>1229</ele>
        <time>2016-07-13T09:54:50.000Z</time>
      </trkpt>
      <trkpt lat="44.51899" lon="6.22533">
        <ele>1229.4000244141</ele>
        <time>2016-07-13T09:54:51.000Z</time>
      </trkpt>
      <trkpt lat="44.51893" lon="6.22543">
        <ele>1231.8000488281</ele>
        <time>2016-07-13T09:54:58.000Z</time>
      </trkpt>
      <trkpt lat="44.51887" lon="6.22549">
        <ele>1234</ele>
        <time>2016-07-13T09:55:03.000Z</time>
      </trkpt>
      <trkpt lat="44.51881" lon="6.22557">
        <ele>1236.1999511719</ele>
        <time>2016-07-13T09:55:10.000Z</time>
      </trkpt>
      <trkpt lat="44.51881" lon="6.22558">
        <ele>1236.5999755859</ele>
        <time>2016-07-13T09:55:11.000Z</time>
      </trkpt>
      <trkpt lat="44.51878" lon="6.22562">
        <ele>1237.5999755859</ele>
        <time>2016-07-13T09:55:18.000Z</time>
      </trkpt>
      <trkpt lat="44.51873" lon="6.22564">
        <ele>1238.8000488281</ele>
        <time>2016-07-13T09:55:28.000Z</time>
      </trkpt>
      <trkpt lat="44.5187" lon="6.22566">
        <ele>1239.4000244141</ele>
        <time>2016-07-13T09:55:35.000Z</time>
      </trkpt>
      <trkpt lat="44.51868" lon="6.2257">
        <ele>1240.5999755859</ele>
        <time>2016-07-13T09:55:43.000Z</time>
      </trkpt>
      <trkpt lat="44.51865" lon="6.22576">
        <ele>1242</ele>
        <time>2016-07-13T09:55:48.000Z</time>
      </trkpt>
      <trkpt lat="44.51865" lon="6.2258">
        <ele>1242.5999755859</ele>
        <time>2016-07-13T09:55:51.000Z</time>
      </trkpt>
      <trkpt lat="44.51863" lon="6.2259">
        <ele>1244</ele>
        <time>2016-07-13T09:55:57.000Z</time>
      </trkpt>
      <trkpt lat="44.51863" lon="6.22591">
        <ele>1244.1999511719</ele>
        <time>2016-07-13T09:55:58.000Z</time>
      </trkpt>
      <trkpt lat="44.51863" lon="6.22594">
        <ele>1244.5999755859</ele>
        <time>2016-07-13T09:56:00.000Z</time>
      </trkpt>
      <trkpt lat="44.51862" lon="6.22601">
        <ele>1245.5999755859</ele>
        <time>2016-07-13T09:56:04.000Z</time>
      </trkpt>
      <trkpt lat="44.51861" lon="6.22603">
        <ele>1246</ele>
        <time>2016-07-13T09:56:06.000Z</time>
      </trkpt>
      <trkpt lat="44.51854" lon="6.22623">
        <ele>1250.1999511719</ele>
        <time>2016-07-13T09:56:18.000Z</time>
      </trkpt>
      <trkpt lat="44.51853" lon="6.22634">
        <ele>1251.5999755859</ele>
        <time>2016-07-13T09:56:25.000Z</time>
      </trkpt>
      <trkpt lat="44.51853" lon="6.22642">
        <ele>1252.4000244141</ele>
        <time>2016-07-13T09:56:31.000Z</time>
      </trkpt>
      <trkpt lat="44.51856" lon="6.22648">
        <ele>1252.1999511719</ele>
        <time>2016-07-13T09:56:37.000Z</time>
      </trkpt>
      <trkpt lat="44.51855" lon="6.22647">
        <ele>1252.4000244141</ele>
        <time>2016-07-13T09:56:41.000Z</time>
      </trkpt>
      <trkpt lat="44.51856" lon="6.22651">
        <ele>1252.4000244141</ele>
        <time>2016-07-13T09:56:48.000Z</time>
      </trkpt>
      <trkpt lat="44.51856" lon="6.22655">
        <ele>1252.4000244141</ele>
        <time>2016-07-13T09:56:51.000Z</time>
      </trkpt>
      <trkpt lat="44.51857" lon="6.22664">
        <ele>1252.5999755859</ele>
        <time>2016-07-13T09:56:57.000Z</time>
      </trkpt>
      <trkpt lat="44.51858" lon="6.22665">
        <ele>1252.4000244141</ele>
        <time>2016-07-13T09:56:58.000Z</time>
      </trkpt>
      <trkpt lat="44.51865" lon="6.22682">
        <ele>1251.4000244141</ele>
        <time>2016-07-13T09:57:10.000Z</time>
      </trkpt>
      <trkpt lat="44.51864" lon="6.22686">
        <ele>1251.8000488281</ele>
        <time>2016-07-13T09:57:16.000Z</time>
      </trkpt>
      <trkpt lat="44.51857" lon="6.22692">
        <ele>1254</ele>
        <time>2016-07-13T09:57:23.000Z</time>
      </trkpt>
      <trkpt lat="44.51851" lon="6.227">
        <ele>1256.1999511719</ele>
        <time>2016-07-13T09:57:30.000Z</time>
      </trkpt>
      <trkpt lat="44.51846" lon="6.22706">
        <ele>1257.5999755859</ele>
        <time>2016-07-13T09:57:36.000Z</time>
      </trkpt>
      <trkpt lat="44.5184" lon="6.22714">
        <ele>1260.1999511719</ele>
        <time>2016-07-13T09:57:45.000Z</time>
      </trkpt>
      <trkpt lat="44.51836" lon="6.22718">
        <ele>1261.5999755859</ele>
        <time>2016-07-13T09:57:51.000Z</time>
      </trkpt>
      <trkpt lat="44.51831" lon="6.22722">
        <ele>1263.4000244141</ele>
        <time>2016-07-13T09:57:58.000Z</time>
      </trkpt>
      <trkpt lat="44.5183" lon="6.22726">
        <ele>1264</ele>
        <time>2016-07-13T09:58:03.000Z</time>
      </trkpt>
      <trkpt lat="44.51828" lon="6.22729">
        <ele>1264.8000488281</ele>
        <time>2016-07-13T09:58:06.000Z</time>
      </trkpt>
      <trkpt lat="44.51825" lon="6.22734">
        <ele>1265.5999755859</ele>
        <time>2016-07-13T09:58:10.000Z</time>
      </trkpt>
      <trkpt lat="44.51819" lon="6.22746">
        <ele>1267.5999755859</ele>
        <time>2016-07-13T09:58:19.000Z</time>
      </trkpt>
      <trkpt lat="44.51816" lon="6.22755">
        <ele>1268.8000488281</ele>
        <time>2016-07-13T09:58:25.000Z</time>
      </trkpt>
      <trkpt lat="44.51815" lon="6.22757">
        <ele>1268.8000488281</ele>
        <time>2016-07-13T09:58:27.000Z</time>
      </trkpt>
      <trkpt lat="44.51812" lon="6.22766">
        <ele>1269.8000488281</ele>
        <time>2016-07-13T09:58:34.000Z</time>
      </trkpt>
      <trkpt lat="44.51807" lon="6.22774">
        <ele>1271.4000244141</ele>
        <time>2016-07-13T09:58:40.000Z</time>
      </trkpt>
      <trkpt lat="44.51803" lon="6.22783">
        <ele>1272.5999755859</ele>
        <time>2016-07-13T09:58:47.000Z</time>
      </trkpt>
      <trkpt lat="44.51802" lon="6.22786">
        <ele>1272.5999755859</ele>
        <time>2016-07-13T09:58:49.000Z</time>
      </trkpt>
      <trkpt lat="44.51802" lon="6.2279">
        <ele>1272.8000488281</ele>
        <time>2016-07-13T09:58:51.000Z</time>
      </trkpt>
      <trkpt lat="44.51797" lon="6.22798">
        <ele>1274.1999511719</ele>
        <time>2016-07-13T09:58:56.000Z</time>
      </trkpt>
      <trkpt lat="44.51796" lon="6.22799">
        <ele>1274.4000244141</ele>
        <time>2016-07-13T09:58:57.000Z</time>
      </trkpt>
      <trkpt lat="44.5179" lon="6.22812">
        <ele>1276.1999511719</ele>
        <time>2016-07-13T09:59:05.000Z</time>
      </trkpt>
      <trkpt lat="44.51789" lon="6.22814">
        <ele>1276.5999755859</ele>
        <time>2016-07-13T09:59:07.000Z</time>
      </trkpt>
      <trkpt lat="44.51783" lon="6.22829">
        <ele>1278.8000488281</ele>
        <time>2016-07-13T09:59:20.000Z</time>
      </trkpt>
      <trkpt lat="44.51782" lon="6.22844">
        <ele>1279.8000488281</ele>
        <time>2016-07-13T09:59:45.000Z</time>
      </trkpt>
      <trkpt lat="44.51781" lon="6.2285">
        <ele>1280.1999511719</ele>
        <time>2016-07-13T09:59:50.000Z</time>
      </trkpt>
      <trkpt lat="44.51781" lon="6.22858">
        <ele>1280.5999755859</ele>
        <time>2016-07-13T09:59:56.000Z</time>
      </trkpt>
      <trkpt lat="44.5178" lon="6.22865">
        <ele>1281.4000244141</ele>
        <time>2016-07-13T10:00:03.000Z</time>
      </trkpt>
      <trkpt lat="44.51775" lon="6.2287">
        <ele>1283.4000244141</ele>
        <time>2016-07-13T10:00:15.000Z</time>
      </trkpt>
      <trkpt lat="44.51771" lon="6.22873">
        <ele>1285</ele>
        <time>2016-07-13T10:00:18.000Z</time>
      </trkpt>
      <trkpt lat="44.51764" lon="6.22874">
        <ele>1287.8000488281</ele>
        <time>2016-07-13T10:00:23.000Z</time>
      </trkpt>
      <trkpt lat="44.51757" lon="6.22871">
        <ele>1290</ele>
        <time>2016-07-13T10:00:29.000Z</time>
      </trkpt>
      <trkpt lat="44.51751" lon="6.22867">
        <ele>1292</ele>
        <time>2016-07-13T10:00:35.000Z</time>
      </trkpt>
      <trkpt lat="44.51748" lon="6.22866">
        <ele>1292.8000488281</ele>
        <time>2016-07-13T10:00:37.000Z</time>
      </trkpt>
      <trkpt lat="44.51738" lon="6.22862">
        <ele>1296</ele>
        <time>2016-07-13T10:00:46.000Z</time>
      </trkpt>
      <trkpt lat="44.51731" lon="6.2286">
        <ele>1298.4000244141</ele>
        <time>2016-07-13T10:00:52.000Z</time>
      </trkpt>
      <trkpt lat="44.51731" lon="6.22861">
        <ele>1298.4000244141</ele>
        <time>2016-07-13T10:01:02.000Z</time>
      </trkpt>
      <trkpt lat="44.51734" lon="6.22861">
        <ele>1297.4000244141</ele>
        <time>2016-07-13T10:01:07.000Z</time>
      </trkpt>
      <trkpt lat="44.51739" lon="6.22862">
        <ele>1295.8000488281</ele>
        <time>2016-07-13T10:01:13.000Z</time>
      </trkpt>
      <trkpt lat="44.51742" lon="6.22865">
        <ele>1294.5999755859</ele>
        <time>2016-07-13T10:01:19.000Z</time>
      </trkpt>
      <trkpt lat="44.51745" lon="6.22868">
        <ele>1293.5999755859</ele>
        <time>2016-07-13T10:01:25.000Z</time>
      </trkpt>
      <trkpt lat="44.51752" lon="6.22871">
        <ele>1291.5999755859</ele>
        <time>2016-07-13T10:01:32.000Z</time>
      </trkpt>
      <trkpt lat="44.51752" lon="6.2287">
        <ele>1291.5999755859</ele>
        <time>2016-07-13T10:01:41.000Z</time>
      </trkpt>
      <trkpt lat="44.51757" lon="6.22867">
        <ele>1289.8000488281</ele>
        <time>2016-07-13T10:01:52.000Z</time>
      </trkpt>
      <trkpt lat="44.51758" lon="6.22869">
        <ele>1289.4000244141</ele>
        <time>2016-07-13T10:01:57.000Z</time>
      </trkpt>
      <trkpt lat="44.51761" lon="6.22872">
        <ele>1288.5999755859</ele>
        <time>2016-07-13T10:02:01.000Z</time>
      </trkpt>
      <trkpt lat="44.51761" lon="6.22874">
        <ele>1288.4000244141</ele>
        <time>2016-07-13T10:02:07.000Z</time>
      </trkpt>
      <trkpt lat="44.5176" lon="6.2287">
        <ele>1289</ele>
        <time>2016-07-13T10:02:12.000Z</time>
      </trkpt>
      <trkpt lat="44.51762" lon="6.22878">
        <ele>1288.1999511719</ele>
        <time>2016-07-13T10:02:19.000Z</time>
      </trkpt>
      <trkpt lat="44.51762" lon="6.22886">
        <ele>1288</ele>
        <time>2016-07-13T10:02:24.000Z</time>
      </trkpt>
      <trkpt lat="44.51763" lon="6.22889">
        <ele>1287.8000488281</ele>
        <time>2016-07-13T10:02:31.000Z</time>
      </trkpt>
      <trkpt lat="44.51762" lon="6.22892">
        <ele>1287.8000488281</ele>
        <time>2016-07-13T10:02:48.000Z</time>
      </trkpt>
      <trkpt lat="44.51762" lon="6.22897">
        <ele>1287.5999755859</ele>
        <time>2016-07-13T10:03:43.000Z</time>
      </trkpt>
      <trkpt lat="44.51763" lon="6.22895">
        <ele>1287.5999755859</ele>
        <time>2016-07-13T10:03:49.000Z</time>
      </trkpt>
      <trkpt lat="44.51763" lon="6.22894">
        <ele>1287.4000244141</ele>
        <time>2016-07-13T10:04:06.000Z</time>
      </trkpt>
      <trkpt lat="44.51763" lon="6.22897">
        <ele>1287.5999755859</ele>
        <time>2016-07-13T10:04:16.000Z</time>
      </trkpt>
      <trkpt lat="44.51763" lon="6.22896">
        <ele>1287.4000244141</ele>
        <time>2016-07-13T10:04:20.000Z</time>
      </trkpt>
      <trkpt lat="44.51762" lon="6.22896">
        <ele>1287.8000488281</ele>
        <time>2016-07-13T10:04:25.000Z</time>
      </trkpt>
      <trkpt lat="44.51763" lon="6.22895">
        <ele>1287.4000244141</ele>
        <time>2016-07-13T10:04:32.000Z</time>
      </trkpt>
      <trkpt lat="44.51763" lon="6.22898">
        <ele>1287.1999511719</ele>
        <time>2016-07-13T10:04:36.000Z</time>
      </trkpt>
      <trkpt lat="44.51765" lon="6.229">
        <ele>1286.5999755859</ele>
        <time>2016-07-13T10:04:38.000Z</time>
      </trkpt>
      <trkpt lat="44.5177" lon="6.22906">
        <ele>1284.5999755859</ele>
        <time>2016-07-13T10:04:45.000Z</time>
      </trkpt>
      <trkpt lat="44.51775" lon="6.22912">
        <ele>1282.8000488281</ele>
        <time>2016-07-13T10:04:51.000Z</time>
      </trkpt>
      <trkpt lat="44.51776" lon="6.22914">
        <ele>1282.5999755859</ele>
        <time>2016-07-13T10:04:52.000Z</time>
      </trkpt>
      <trkpt lat="44.51777" lon="6.22916">
        <ele>1282.1999511719</ele>
        <time>2016-07-13T10:04:54.000Z</time>
      </trkpt>
      <trkpt lat="44.51778" lon="6.22919">
        <ele>1281.5999755859</ele>
        <time>2016-07-13T10:04:56.000Z</time>
      </trkpt>
      <trkpt lat="44.51779" lon="6.22925">
        <ele>1281</ele>
        <time>2016-07-13T10:05:02.000Z</time>
      </trkpt>
      <trkpt lat="44.51773" lon="6.22927">
        <ele>1283</ele>
        <time>2016-07-13T10:05:11.000Z</time>
      </trkpt>
      <trkpt lat="44.51769" lon="6.22926">
        <ele>1284</ele>
        <time>2016-07-13T10:05:16.000Z</time>
      </trkpt>
      <trkpt lat="44.51767" lon="6.22927">
        <ele>1284.8000488281</ele>
        <time>2016-07-13T10:05:23.000Z</time>
      </trkpt>
      <trkpt lat="44.51765" lon="6.22928">
        <ele>1285.1999511719</ele>
        <time>2016-07-13T10:05:34.000Z</time>
      </trkpt>
      <trkpt lat="44.51767" lon="6.22928">
        <ele>1284.8000488281</ele>
        <time>2016-07-13T10:05:50.000Z</time>
      </trkpt>
      <trkpt lat="44.51762" lon="6.22927">
        <ele>1286.1999511719</ele>
        <time>2016-07-13T10:06:12.000Z</time>
      </trkpt>
      <trkpt lat="44.5176" lon="6.22927">
        <ele>1286.8000488281</ele>
        <time>2016-07-13T10:06:14.000Z</time>
      </trkpt>
      <trkpt lat="44.51759" lon="6.22926">
        <ele>1287.4000244141</ele>
        <time>2016-07-13T10:06:16.000Z</time>
      </trkpt>
      <trkpt lat="44.51755" lon="6.22926">
        <ele>1288.4000244141</ele>
        <time>2016-07-13T10:06:20.000Z</time>
      </trkpt>
      <trkpt lat="44.5175" lon="6.22923">
        <ele>1290.1999511719</ele>
        <time>2016-07-13T10:06:28.000Z</time>
      </trkpt>
      <trkpt lat="44.51745" lon="6.22924">
        <ele>1291.8000488281</ele>
        <time>2016-07-13T10:06:34.000Z</time>
      </trkpt>
      <trkpt lat="44.51741" lon="6.22924">
        <ele>1292.8000488281</ele>
        <time>2016-07-13T10:06:40.000Z</time>
      </trkpt>
      <trkpt lat="44.5174" lon="6.22922">
        <ele>1293.4000244141</ele>
        <time>2016-07-13T10:06:46.000Z</time>
      </trkpt>
      <trkpt lat="44.51741" lon="6.2292">
        <ele>1293.1999511719</ele>
        <time>2016-07-13T10:06:53.000Z</time>
      </trkpt>
      <trkpt lat="44.51739" lon="6.2292">
        <ele>1293.5999755859</ele>
        <time>2016-07-13T10:06:57.000Z</time>
      </trkpt>
      <trkpt lat="44.51728" lon="6.22922">
        <ele>1297</ele>
        <time>2016-07-13T10:07:11.000Z</time>
      </trkpt>
      <trkpt lat="44.51725" lon="6.22921">
        <ele>1298.1999511719</ele>
        <time>2016-07-13T10:07:13.000Z</time>
      </trkpt>
      <trkpt lat="44.51719" lon="6.22923">
        <ele>1299.5999755859</ele>
        <time>2016-07-13T10:07:18.000Z</time>
      </trkpt>
      <trkpt lat="44.51719" lon="6.22924">
        <ele>1299.8000488281</ele>
        <time>2016-07-13T10:07:20.000Z</time>
      </trkpt>
      <trkpt lat="44.51717" lon="6.22926">
        <ele>1300</ele>
        <time>2016-07-13T10:07:33.000Z</time>
      </trkpt>
      <trkpt lat="44.51716" lon="6.22928">
        <ele>1300.1999511719</ele>
        <time>2016-07-13T10:07:38.000Z</time>
      </trkpt>
      <trkpt lat="44.51716" lon="6.22931">
        <ele>1299.8000488281</ele>
        <time>2016-07-13T10:07:43.000Z</time>
      </trkpt>
      <trkpt lat="44.51715" lon="6.22933">
        <ele>1300.1999511719</ele>
        <time>2016-07-13T10:07:47.000Z</time>
      </trkpt>
      <trkpt lat="44.51715" lon="6.22934">
        <ele>1300</ele>
        <time>2016-07-13T10:07:54.000Z</time>
      </trkpt>
      <trkpt lat="44.51714" lon="6.22934">
        <ele>1300.1999511719</ele>
        <time>2016-07-13T10:07:55.000Z</time>
      </trkpt>
      <trkpt lat="44.51709" lon="6.22937">
        <ele>1301.4000244141</ele>
        <time>2016-07-13T10:08:00.000Z</time>
      </trkpt>
      <trkpt lat="44.51702" lon="6.22939">
        <ele>1303.4000244141</ele>
        <time>2016-07-13T10:08:08.000Z</time>
      </trkpt>
      <trkpt lat="44.51701" lon="6.22939">
        <ele>1303.5999755859</ele>
        <time>2016-07-13T10:08:10.000Z</time>
      </trkpt>
      <trkpt lat="44.51691" lon="6.22947">
        <ele>1306.1999511719</ele>
        <time>2016-07-13T10:08:20.000Z</time>
      </trkpt>
      <trkpt lat="44.51689" lon="6.22947">
        <ele>1306.5999755859</ele>
        <time>2016-07-13T10:08:22.000Z</time>
      </trkpt>
      <trkpt lat="44.51686" lon="6.22956">
        <ele>1307</ele>
        <time>2016-07-13T10:08:29.000Z</time>
      </trkpt>
      <trkpt lat="44.51684" lon="6.22959">
        <ele>1307.4000244141</ele>
        <time>2016-07-13T10:08:31.000Z</time>
      </trkpt>
      <trkpt lat="44.51681" lon="6.22967">
        <ele>1307.5999755859</ele>
        <time>2016-07-13T10:08:36.000Z</time>
      </trkpt>
      <trkpt lat="44.51678" lon="6.22978">
        <ele>1308.1999511719</ele>
        <time>2016-07-13T10:08:42.000Z</time>
      </trkpt>
      <trkpt lat="44.51678" lon="6.22981">
        <ele>1308.4000244141</ele>
        <time>2016-07-13T10:08:44.000Z</time>
      </trkpt>
      <trkpt lat="44.51671" lon="6.22994">
        <ele>1310.4000244141</ele>
        <time>2016-07-13T10:08:52.000Z</time>
      </trkpt>
      <trkpt lat="44.5167" lon="6.22997">
        <ele>1310.8000488281</ele>
        <time>2016-07-13T10:08:54.000Z</time>
      </trkpt>
      <trkpt lat="44.51662" lon="6.23005">
        <ele>1313.1999511719</ele>
        <time>2016-07-13T10:09:02.000Z</time>
      </trkpt>
      <trkpt lat="44.51659" lon="6.23008">
        <ele>1314.1999511719</ele>
        <time>2016-07-13T10:09:05.000Z</time>
      </trkpt>
      <trkpt lat="44.5165" lon="6.23021">
        <ele>1316.5999755859</ele>
        <time>2016-07-13T10:09:19.000Z</time>
      </trkpt>
      <trkpt lat="44.51649" lon="6.23021">
        <ele>1316.8000488281</ele>
        <time>2016-07-13T10:09:20.000Z</time>
      </trkpt>
      <trkpt lat="44.51647" lon="6.23019">
        <ele>1317.5999755859</ele>
        <time>2016-07-13T10:09:22.000Z</time>
      </trkpt>
      <trkpt lat="44.51643" lon="6.23019">
        <ele>1318.8000488281</ele>
        <time>2016-07-13T10:09:27.000Z</time>
      </trkpt>
      <trkpt lat="44.51639" lon="6.23028">
        <ele>1319.5999755859</ele>
        <time>2016-07-13T10:09:33.000Z</time>
      </trkpt>
      <trkpt lat="44.51639" lon="6.23029">
        <ele>1319.5999755859</ele>
        <time>2016-07-13T10:09:34.000Z</time>
      </trkpt>
      <trkpt lat="44.51638" lon="6.23039">
        <ele>1319.4000244141</ele>
        <time>2016-07-13T10:09:40.000Z</time>
      </trkpt>
      <trkpt lat="44.51639" lon="6.2304">
        <ele>1319.1999511719</ele>
        <time>2016-07-13T10:09:46.000Z</time>
      </trkpt>
      <trkpt lat="44.5164" lon="6.23041">
        <ele>1318.8000488281</ele>
        <time>2016-07-13T10:09:53.000Z</time>
      </trkpt>
      <trkpt lat="44.5164" lon="6.23047">
        <ele>1318.5999755859</ele>
        <time>2016-07-13T10:10:05.000Z</time>
      </trkpt>
      <trkpt lat="44.51637" lon="6.23059">
        <ele>1319</ele>
        <time>2016-07-13T10:10:12.000Z</time>
      </trkpt>
      <trkpt lat="44.51632" lon="6.23074">
        <ele>1321.5999755859</ele>
        <time>2016-07-13T10:10:21.000Z</time>
      </trkpt>
      <trkpt lat="44.51628" lon="6.23083">
        <ele>1322.8000488281</ele>
        <time>2016-07-13T10:10:27.000Z</time>
      </trkpt>
      <trkpt lat="44.5163" lon="6.23095">
        <ele>1322.5999755859</ele>
        <time>2016-07-13T10:10:35.000Z</time>
      </trkpt>
      <trkpt lat="44.51635" lon="6.23105">
        <ele>1321.8000488281</ele>
        <time>2016-07-13T10:10:42.000Z</time>
      </trkpt>
      <trkpt lat="44.51638" lon="6.23117">
        <ele>1321.1999511719</ele>
        <time>2016-07-13T10:10:49.000Z</time>
      </trkpt>
      <trkpt lat="44.51642" lon="6.23128">
        <ele>1320.5999755859</ele>
        <time>2016-07-13T10:10:57.000Z</time>
      </trkpt>
      <trkpt lat="44.51649" lon="6.23136">
        <ele>1319</ele>
        <time>2016-07-13T10:11:05.000Z</time>
      </trkpt>
      <trkpt lat="44.5165" lon="6.23138">
        <ele>1318.8000488281</ele>
        <time>2016-07-13T10:11:06.000Z</time>
      </trkpt>
      <trkpt lat="44.51652" lon="6.23144">
        <ele>1318.5999755859</ele>
        <time>2016-07-13T10:11:11.000Z</time>
      </trkpt>
      <trkpt lat="44.51653" lon="6.23147">
        <ele>1318.4000244141</ele>
        <time>2016-07-13T10:11:13.000Z</time>
      </trkpt>
      <trkpt lat="44.51658" lon="6.23158">
        <ele>1319</ele>
        <time>2016-07-13T10:11:22.000Z</time>
      </trkpt>
      <trkpt lat="44.51662" lon="6.2316">
        <ele>1318.1999511719</ele>
        <time>2016-07-13T10:11:25.000Z</time>
      </trkpt>
      <trkpt lat="44.51672" lon="6.23158">
        <ele>1315.5999755859</ele>
        <time>2016-07-13T10:11:33.000Z</time>
      </trkpt>
      <trkpt lat="44.51679" lon="6.23158">
        <ele>1314</ele>
        <time>2016-07-13T10:11:39.000Z</time>
      </trkpt>
      <trkpt lat="44.51687" lon="6.23163">
        <ele>1312.8000488281</ele>
        <time>2016-07-13T10:11:46.000Z</time>
      </trkpt>
      <trkpt lat="44.51692" lon="6.23168">
        <ele>1312.1999511719</ele>
        <time>2016-07-13T10:11:52.000Z</time>
      </trkpt>
      <trkpt lat="44.51698" lon="6.23176">
        <ele>1311.8000488281</ele>
        <time>2016-07-13T10:11:59.000Z</time>
      </trkpt>
      <trkpt lat="44.517" lon="6.23179">
        <ele>1311.8000488281</ele>
        <time>2016-07-13T10:12:06.000Z</time>
      </trkpt>
      <trkpt lat="44.51704" lon="6.23185">
        <ele>1312.4000244141</ele>
        <time>2016-07-13T10:12:21.000Z</time>
      </trkpt>
      <trkpt lat="44.5171" lon="6.23193">
        <ele>1312.8000488281</ele>
        <time>2016-07-13T10:12:27.000Z</time>
      </trkpt>
      <trkpt lat="44.5172" lon="6.23206">
        <ele>1313.5999755859</ele>
        <time>2016-07-13T10:12:37.000Z</time>
      </trkpt>
      <trkpt lat="44.5173" lon="6.23221">
        <ele>1314.5999755859</ele>
        <time>2016-07-13T10:12:48.000Z</time>
      </trkpt>
      <trkpt lat="44.51742" lon="6.23237">
        <ele>1316.4000244141</ele>
        <time>2016-07-13T10:13:00.000Z</time>
      </trkpt>
      <trkpt lat="44.5175" lon="6.23247">
        <ele>1317.5999755859</ele>
        <time>2016-07-13T10:13:08.000Z</time>
      </trkpt>
      <trkpt lat="44.51752" lon="6.23253">
        <ele>1318.5999755859</ele>
        <time>2016-07-13T10:13:11.000Z</time>
      </trkpt>
      <trkpt lat="44.51756" lon="6.23267">
        <ele>1321.1999511719</ele>
        <time>2016-07-13T10:13:19.000Z</time>
      </trkpt>
      <trkpt lat="44.51757" lon="6.23298">
        <ele>1328</ele>
        <time>2016-07-13T10:13:35.000Z</time>
      </trkpt>
      <trkpt lat="44.5176" lon="6.23314">
        <ele>1331.8000488281</ele>
        <time>2016-07-13T10:13:44.000Z</time>
      </trkpt>
      <trkpt lat="44.51765" lon="6.23334">
        <ele>1336.5999755859</ele>
        <time>2016-07-13T10:13:55.000Z</time>
      </trkpt>
      <trkpt lat="44.51769" lon="6.23348">
        <ele>1340.1999511719</ele>
        <time>2016-07-13T10:14:05.000Z</time>
      </trkpt>
      <trkpt lat="44.51773" lon="6.23359">
        <ele>1342.8000488281</ele>
        <time>2016-07-13T10:14:13.000Z</time>
      </trkpt>
      <trkpt lat="44.51777" lon="6.23366">
        <ele>1344.4000244141</ele>
        <time>2016-07-13T10:14:20.000Z</time>
      </trkpt>
      <trkpt lat="44.51781" lon="6.23373">
        <ele>1345.5999755859</ele>
        <time>2016-07-13T10:14:26.000Z</time>
      </trkpt>
      <trkpt lat="44.51789" lon="6.2338">
        <ele>1346.4000244141</ele>
        <time>2016-07-13T10:14:33.000Z</time>
      </trkpt>
      <trkpt lat="44.51798" lon="6.2339">
        <ele>1347.1999511719</ele>
        <time>2016-07-13T10:14:41.000Z</time>
      </trkpt>
      <trkpt lat="44.5181" lon="6.23401">
        <ele>1347.4000244141</ele>
        <time>2016-07-13T10:14:52.000Z</time>
      </trkpt>
      <trkpt lat="44.51821" lon="6.23406">
        <ele>1346.4000244141</ele>
        <time>2016-07-13T10:15:00.000Z</time>
      </trkpt>
      <trkpt lat="44.51828" lon="6.23411">
        <ele>1346.1999511719</ele>
        <time>2016-07-13T10:15:05.000Z</time>
      </trkpt>
      <trkpt lat="44.51835" lon="6.23417">
        <ele>1346</ele>
        <time>2016-07-13T10:15:11.000Z</time>
      </trkpt>
      <trkpt lat="44.51836" lon="6.23417">
        <ele>1345.8000488281</ele>
        <time>2016-07-13T10:15:12.000Z</time>
      </trkpt>
      <trkpt lat="44.51845" lon="6.23419">
        <ele>1344.4000244141</ele>
        <time>2016-07-13T10:15:19.000Z</time>
      </trkpt>
      <trkpt lat="44.51859" lon="6.23421">
        <ele>1341.8000488281</ele>
        <time>2016-07-13T10:15:29.000Z</time>
      </trkpt>
      <trkpt lat="44.51871" lon="6.23427">
        <ele>1340.8000488281</ele>
        <time>2016-07-13T10:15:38.000Z</time>
      </trkpt>
      <trkpt lat="44.51881" lon="6.23436">
        <ele>1341.4000244141</ele>
        <time>2016-07-13T10:15:47.000Z</time>
      </trkpt>
      <trkpt lat="44.51891" lon="6.23444">
        <ele>1341.5999755859</ele>
        <time>2016-07-13T10:15:55.000Z</time>
      </trkpt>
      <trkpt lat="44.51899" lon="6.23455">
        <ele>1343</ele>
        <time>2016-07-13T10:16:04.000Z</time>
      </trkpt>
      <trkpt lat="44.51906" lon="6.2347">
        <ele>1345.1999511719</ele>
        <time>2016-07-13T10:16:14.000Z</time>
      </trkpt>
      <trkpt lat="44.51908" lon="6.23475">
        <ele>1346.1999511719</ele>
        <time>2016-07-13T10:16:18.000Z</time>
      </trkpt>
      <trkpt lat="44.51909" lon="6.23484">
        <ele>1348</ele>
        <time>2016-07-13T10:16:24.000Z</time>
      </trkpt>
      <trkpt lat="44.51909" lon="6.23486">
        <ele>1348.1999511719</ele>
        <time>2016-07-13T10:16:25.000Z</time>
      </trkpt>
      <trkpt lat="44.5191" lon="6.23488">
        <ele>1348.4000244141</ele>
        <time>2016-07-13T10:16:26.000Z</time>
      </trkpt>
      <trkpt lat="44.51911" lon="6.23496">
        <ele>1349.5999755859</ele>
        <time>2016-07-13T10:16:30.000Z</time>
      </trkpt>
      <trkpt lat="44.51914" lon="6.23512">
        <ele>1352</ele>
        <time>2016-07-13T10:16:38.000Z</time>
      </trkpt>
      <trkpt lat="44.51917" lon="6.23525">
        <ele>1354</ele>
        <time>2016-07-13T10:16:45.000Z</time>
      </trkpt>
      <trkpt lat="44.51917" lon="6.23527">
        <ele>1354.1999511719</ele>
        <time>2016-07-13T10:16:46.000Z</time>
      </trkpt>
      <trkpt lat="44.5192" lon="6.23542">
        <ele>1356.8000488281</ele>
        <time>2016-07-13T10:16:53.000Z</time>
      </trkpt>
      <trkpt lat="44.51923" lon="6.23551">
        <ele>1358</ele>
        <time>2016-07-13T10:16:58.000Z</time>
      </trkpt>
      <trkpt lat="44.51924" lon="6.23553">
        <ele>1358.1999511719</ele>
        <time>2016-07-13T10:17:01.000Z</time>
      </trkpt>
      <trkpt lat="44.51928" lon="6.23566">
        <ele>1360.1999511719</ele>
        <time>2016-07-13T10:17:09.000Z</time>
      </trkpt>
      <trkpt lat="44.51929" lon="6.23566">
        <ele>1359.8000488281</ele>
        <time>2016-07-13T10:17:10.000Z</time>
      </trkpt>
      <trkpt lat="44.51931" lon="6.23562">
        <ele>1358.5999755859</ele>
        <time>2016-07-13T10:17:17.000Z</time>
      </trkpt>
      <trkpt lat="44.51931" lon="6.23565">
        <ele>1359.4000244141</ele>
        <time>2016-07-13T10:17:40.000Z</time>
      </trkpt>
      <trkpt lat="44.5193" lon="6.23571">
        <ele>1360.8000488281</ele>
        <time>2016-07-13T10:17:44.000Z</time>
      </trkpt>
      <trkpt lat="44.51936" lon="6.2358">
        <ele>1361.5999755859</ele>
        <time>2016-07-13T10:17:52.000Z</time>
      </trkpt>
      <trkpt lat="44.51943" lon="6.23585">
        <ele>1361.5999755859</ele>
        <time>2016-07-13T10:17:58.000Z</time>
      </trkpt>
      <trkpt lat="44.51946" lon="6.23588">
        <ele>1361.5999755859</ele>
        <time>2016-07-13T10:18:01.000Z</time>
      </trkpt>
      <trkpt lat="44.51954" lon="6.23599">
        <ele>1362.4000244141</ele>
        <time>2016-07-13T10:18:10.000Z</time>
      </trkpt>
      <trkpt lat="44.51956" lon="6.23603">
        <ele>1362.5999755859</ele>
        <time>2016-07-13T10:18:13.000Z</time>
      </trkpt>
      <trkpt lat="44.5196" lon="6.23609">
        <ele>1363.1999511719</ele>
        <time>2016-07-13T10:18:17.000Z</time>
      </trkpt>
      <trkpt lat="44.51963" lon="6.2362">
        <ele>1364.5999755859</ele>
        <time>2016-07-13T10:18:23.000Z</time>
      </trkpt>
      <trkpt lat="44.51965" lon="6.2363">
        <ele>1366.4000244141</ele>
        <time>2016-07-13T10:18:29.000Z</time>
      </trkpt>
      <trkpt lat="44.51967" lon="6.23634">
        <ele>1366.8000488281</ele>
        <time>2016-07-13T10:18:31.000Z</time>
      </trkpt>
      <trkpt lat="44.51969" lon="6.23639">
        <ele>1367.4000244141</ele>
        <time>2016-07-13T10:18:34.000Z</time>
      </trkpt>
      <trkpt lat="44.51976" lon="6.23651">
        <ele>1367.1999511719</ele>
        <time>2016-07-13T10:18:42.000Z</time>
      </trkpt>
      <trkpt lat="44.51977" lon="6.23656">
        <ele>1367</ele>
        <time>2016-07-13T10:18:45.000Z</time>
      </trkpt>
      <trkpt lat="44.51979" lon="6.23664">
        <ele>1366.8000488281</ele>
        <time>2016-07-13T10:18:49.000Z</time>
      </trkpt>
      <trkpt lat="44.51982" lon="6.23676">
        <ele>1366.8000488281</ele>
        <time>2016-07-13T10:18:55.000Z</time>
      </trkpt>
      <trkpt lat="44.51982" lon="6.23678">
        <ele>1366.8000488281</ele>
        <time>2016-07-13T10:18:56.000Z</time>
      </trkpt>
      <trkpt lat="44.51984" lon="6.2369">
        <ele>1367.5999755859</ele>
        <time>2016-07-13T10:19:03.000Z</time>
      </trkpt>
      <trkpt lat="44.51986" lon="6.23697">
        <ele>1368</ele>
        <time>2016-07-13T10:19:07.000Z</time>
      </trkpt>
      <trkpt lat="44.51988" lon="6.23706">
        <ele>1368.4000244141</ele>
        <time>2016-07-13T10:19:12.000Z</time>
      </trkpt>
      <trkpt lat="44.51989" lon="6.23714">
        <ele>1369</ele>
        <time>2016-07-13T10:19:16.000Z</time>
      </trkpt>
      <trkpt lat="44.51992" lon="6.23729">
        <ele>1370</ele>
        <time>2016-07-13T10:19:23.000Z</time>
      </trkpt>
      <trkpt lat="44.51994" lon="6.2374">
        <ele>1370.1999511719</ele>
        <time>2016-07-13T10:19:29.000Z</time>
      </trkpt>
      <trkpt lat="44.51994" lon="6.23759">
        <ele>1371.4000244141</ele>
        <time>2016-07-13T10:19:38.000Z</time>
      </trkpt>
      <trkpt lat="44.51995" lon="6.2377">
        <ele>1371.8000488281</ele>
        <time>2016-07-13T10:19:44.000Z</time>
      </trkpt>
      <trkpt lat="44.51995" lon="6.23772">
        <ele>1372</ele>
        <time>2016-07-13T10:19:45.000Z</time>
      </trkpt>
      <trkpt lat="44.51997" lon="6.23785">
        <ele>1372.4000244141</ele>
        <time>2016-07-13T10:19:52.000Z</time>
      </trkpt>
      <trkpt lat="44.52" lon="6.23798">
        <ele>1372.4000244141</ele>
        <time>2016-07-13T10:19:59.000Z</time>
      </trkpt>
      <trkpt lat="44.52003" lon="6.23814">
        <ele>1373</ele>
        <time>2016-07-13T10:20:07.000Z</time>
      </trkpt>
      <trkpt lat="44.52008" lon="6.23835">
        <ele>1372.5999755859</ele>
        <time>2016-07-13T10:20:18.000Z</time>
      </trkpt>
      <trkpt lat="44.52012" lon="6.23849">
        <ele>1371.8000488281</ele>
        <time>2016-07-13T10:20:26.000Z</time>
      </trkpt>
      <trkpt lat="44.52016" lon="6.23867">
        <ele>1371.5999755859</ele>
        <time>2016-07-13T10:20:35.000Z</time>
      </trkpt>
      <trkpt lat="44.5202" lon="6.23888">
        <ele>1371.8000488281</ele>
        <time>2016-07-13T10:20:46.000Z</time>
      </trkpt>
      <trkpt lat="44.52019" lon="6.23906">
        <ele>1373</ele>
        <time>2016-07-13T10:20:55.000Z</time>
      </trkpt>
      <trkpt lat="44.52016" lon="6.23921">
        <ele>1374.8000488281</ele>
        <time>2016-07-13T10:21:03.000Z</time>
      </trkpt>
      <trkpt lat="44.52015" lon="6.23935">
        <ele>1375.5999755859</ele>
        <time>2016-07-13T10:21:12.000Z</time>
      </trkpt>
      <trkpt lat="44.52016" lon="6.2394">
        <ele>1375.4000244141</ele>
        <time>2016-07-13T10:22:03.000Z</time>
      </trkpt>
      <trkpt lat="44.52013" lon="6.23943">
        <ele>1376.5999755859</ele>
        <time>2016-07-13T10:25:44.000Z</time>
      </trkpt>
      <trkpt lat="44.52012" lon="6.23942">
        <ele>1376.8000488281</ele>
        <time>2016-07-13T10:26:15.000Z</time>
      </trkpt>
      <trkpt lat="44.52012" lon="6.23943">
        <ele>1377</ele>
        <time>2016-07-13T10:26:22.000Z</time>
      </trkpt>
      <trkpt lat="44.52011" lon="6.23942">
        <ele>1377.1999511719</ele>
        <time>2016-07-13T10:26:27.000Z</time>
      </trkpt>
      <trkpt lat="44.5201" lon="6.2394">
        <ele>1377.8000488281</ele>
        <time>2016-07-13T10:26:30.000Z</time>
      </trkpt>
      <trkpt lat="44.52007" lon="6.23928">
        <ele>1378.5999755859</ele>
        <time>2016-07-13T10:26:37.000Z</time>
      </trkpt>
      <trkpt lat="44.52006" lon="6.23912">
        <ele>1378.8000488281</ele>
        <time>2016-07-13T10:26:46.000Z</time>
      </trkpt>
      <trkpt lat="44.52005" lon="6.23906">
        <ele>1378.8000488281</ele>
        <time>2016-07-13T10:26:51.000Z</time>
      </trkpt>
      <trkpt lat="44.52004" lon="6.23896">
        <ele>1379.1999511719</ele>
        <time>2016-07-13T10:26:59.000Z</time>
      </trkpt>
      <trkpt lat="44.52002" lon="6.23881">
        <ele>1378.4000244141</ele>
        <time>2016-07-13T10:27:08.000Z</time>
      </trkpt>
      <trkpt lat="44.52" lon="6.23875">
        <ele>1378.5999755859</ele>
        <time>2016-07-13T10:27:12.000Z</time>
      </trkpt>
      <trkpt lat="44.52" lon="6.23872">
        <ele>1378.8000488281</ele>
        <time>2016-07-13T10:27:14.000Z</time>
      </trkpt>
      <trkpt lat="44.51998" lon="6.23868">
        <ele>1378.8000488281</ele>
        <time>2016-07-13T10:27:17.000Z</time>
      </trkpt>
      <trkpt lat="44.51996" lon="6.23861">
        <ele>1379</ele>
        <time>2016-07-13T10:27:22.000Z</time>
      </trkpt>
      <trkpt lat="44.51996" lon="6.23858">
        <ele>1378.8000488281</ele>
        <time>2016-07-13T10:27:24.000Z</time>
      </trkpt>
      <trkpt lat="44.51991" lon="6.23849">
        <ele>1380.1999511719</ele>
        <time>2016-07-13T10:27:31.000Z</time>
      </trkpt>
      <trkpt lat="44.51987" lon="6.23842">
        <ele>1381.1999511719</ele>
        <time>2016-07-13T10:27:36.000Z</time>
      </trkpt>
      <trkpt lat="44.51984" lon="6.23836">
        <ele>1381.8000488281</ele>
        <time>2016-07-13T10:27:40.000Z</time>
      </trkpt>
      <trkpt lat="44.51981" lon="6.2383">
        <ele>1382.4000244141</ele>
        <time>2016-07-13T10:27:44.000Z</time>
      </trkpt>
      <trkpt lat="44.51983" lon="6.2383">
        <ele>1381.8000488281</ele>
        <time>2016-07-13T10:27:49.000Z</time>
      </trkpt>
      <trkpt lat="44.51982" lon="6.23829">
        <ele>1382</ele>
        <time>2016-07-13T10:27:58.000Z</time>
      </trkpt>
      <trkpt lat="44.5198" lon="6.23827">
        <ele>1382.5999755859</ele>
        <time>2016-07-13T10:28:01.000Z</time>
      </trkpt>
      <trkpt lat="44.51976" lon="6.23812">
        <ele>1383</ele>
        <time>2016-07-13T10:28:09.000Z</time>
      </trkpt>
      <trkpt lat="44.51974" lon="6.23806">
        <ele>1383.1999511719</ele>
        <time>2016-07-13T10:28:13.000Z</time>
      </trkpt>
      <trkpt lat="44.51971" lon="6.23796">
        <ele>1383.4000244141</ele>
        <time>2016-07-13T10:28:19.000Z</time>
      </trkpt>
      <trkpt lat="44.51969" lon="6.23783">
        <ele>1383.1999511719</ele>
        <time>2016-07-13T10:28:27.000Z</time>
      </trkpt>
      <trkpt lat="44.51965" lon="6.23768">
        <ele>1383</ele>
        <time>2016-07-13T10:28:35.000Z</time>
      </trkpt>
      <trkpt lat="44.51963" lon="6.23757">
        <ele>1382.8000488281</ele>
        <time>2016-07-13T10:28:41.000Z</time>
      </trkpt>
      <trkpt lat="44.51961" lon="6.23746">
        <ele>1382.5999755859</ele>
        <time>2016-07-13T10:28:48.000Z</time>
      </trkpt>
      <trkpt lat="44.51956" lon="6.23733">
        <ele>1383</ele>
        <time>2016-07-13T10:28:56.000Z</time>
      </trkpt>
      <trkpt lat="44.51953" lon="6.23725">
        <ele>1383.4000244141</ele>
        <time>2016-07-13T10:29:02.000Z</time>
      </trkpt>
      <trkpt lat="44.51952" lon="6.23723">
        <ele>1383.4000244141</ele>
        <time>2016-07-13T10:29:03.000Z</time>
      </trkpt>
      <trkpt lat="44.51947" lon="6.23713">
        <ele>1383.5999755859</ele>
        <time>2016-07-13T10:29:10.000Z</time>
      </trkpt>
      <trkpt lat="44.51946" lon="6.23712">
        <ele>1383.5999755859</ele>
        <time>2016-07-13T10:29:11.000Z</time>
      </trkpt>
      <trkpt lat="44.51941" lon="6.23706">
        <ele>1383.5999755859</ele>
        <time>2016-07-13T10:29:16.000Z</time>
      </trkpt>
      <trkpt lat="44.51939" lon="6.23704">
        <ele>1383.5999755859</ele>
        <time>2016-07-13T10:29:18.000Z</time>
      </trkpt>
      <trkpt lat="44.51935" lon="6.23699">
        <ele>1384</ele>
        <time>2016-07-13T10:29:22.000Z</time>
      </trkpt>
      <trkpt lat="44.5193" lon="6.23696">
        <ele>1384.4000244141</ele>
        <time>2016-07-13T10:29:26.000Z</time>
      </trkpt>
      <trkpt lat="44.51922" lon="6.23694">
        <ele>1385.4000244141</ele>
        <time>2016-07-13T10:29:31.000Z</time>
      </trkpt>
      <trkpt lat="44.51916" lon="6.23689">
        <ele>1386</ele>
        <time>2016-07-13T10:29:36.000Z</time>
      </trkpt>
      <trkpt lat="44.51915" lon="6.23688">
        <ele>1386</ele>
        <time>2016-07-13T10:29:37.000Z</time>
      </trkpt>
      <trkpt lat="44.51909" lon="6.23682">
        <ele>1386.4000244141</ele>
        <time>2016-07-13T10:29:42.000Z</time>
      </trkpt>
      <trkpt lat="44.51903" lon="6.23676">
        <ele>1386.5999755859</ele>
        <time>2016-07-13T10:29:48.000Z</time>
      </trkpt>
      <trkpt lat="44.51893" lon="6.23671">
        <ele>1387.5999755859</ele>
        <time>2016-07-13T10:29:56.000Z</time>
      </trkpt>
      <trkpt lat="44.51885" lon="6.23666">
        <ele>1388.5999755859</ele>
        <time>2016-07-13T10:30:02.000Z</time>
      </trkpt>
      <trkpt lat="44.51878" lon="6.23661">
        <ele>1389.4000244141</ele>
        <time>2016-07-13T10:30:08.000Z</time>
      </trkpt>
      <trkpt lat="44.51877" lon="6.23659">
        <ele>1389.1999511719</ele>
        <time>2016-07-13T10:30:09.000Z</time>
      </trkpt>
      <trkpt lat="44.51873" lon="6.23651">
        <ele>1388.5999755859</ele>
        <time>2016-07-13T10:30:14.000Z</time>
      </trkpt>
      <trkpt lat="44.51872" lon="6.23649">
        <ele>1388.5999755859</ele>
        <time>2016-07-13T10:30:15.000Z</time>
      </trkpt>
      <trkpt lat="44.51868" lon="6.2364">
        <ele>1387.8000488281</ele>
        <time>2016-07-13T10:30:22.000Z</time>
      </trkpt>
      <trkpt lat="44.51867" lon="6.23639">
        <ele>1387.5999755859</ele>
        <time>2016-07-13T10:30:23.000Z</time>
      </trkpt>
      <trkpt lat="44.51862" lon="6.23632">
        <ele>1387</ele>
        <time>2016-07-13T10:30:29.000Z</time>
      </trkpt>
      <trkpt lat="44.51856" lon="6.23625">
        <ele>1386.8000488281</ele>
        <time>2016-07-13T10:30:35.000Z</time>
      </trkpt>
      <trkpt lat="44.51849" lon="6.23621">
        <ele>1387.5999755859</ele>
        <time>2016-07-13T10:30:40.000Z</time>
      </trkpt>
      <trkpt lat="44.51846" lon="6.2362">
        <ele>1388</ele>
        <time>2016-07-13T10:30:42.000Z</time>
      </trkpt>
      <trkpt lat="44.51837" lon="6.23616">
        <ele>1388.8000488281</ele>
        <time>2016-07-13T10:30:49.000Z</time>
      </trkpt>
      <trkpt lat="44.5183" lon="6.23612">
        <ele>1389.5999755859</ele>
        <time>2016-07-13T10:30:55.000Z</time>
      </trkpt>
      <trkpt lat="44.5182" lon="6.23608">
        <ele>1391</ele>
        <time>2016-07-13T10:31:02.000Z</time>
      </trkpt>
      <trkpt lat="44.51809" lon="6.23605">
        <ele>1392.8000488281</ele>
        <time>2016-07-13T10:31:09.000Z</time>
      </trkpt>
      <trkpt lat="44.518" lon="6.236">
        <ele>1393.4000244141</ele>
        <time>2016-07-13T10:31:16.000Z</time>
      </trkpt>
      <trkpt lat="44.51799" lon="6.23599">
        <ele>1393.4000244141</ele>
        <time>2016-07-13T10:31:17.000Z</time>
      </trkpt>
      <trkpt lat="44.51796" lon="6.23597">
        <ele>1393.5999755859</ele>
        <time>2016-07-13T10:31:19.000Z</time>
      </trkpt>
      <trkpt lat="44.51792" lon="6.23593">
        <ele>1393.5999755859</ele>
        <time>2016-07-13T10:31:23.000Z</time>
      </trkpt>
      <trkpt lat="44.51782" lon="6.23581">
        <ele>1393</ele>
        <time>2016-07-13T10:31:33.000Z</time>
      </trkpt>
      <trkpt lat="44.5178" lon="6.2358">
        <ele>1393</ele>
        <time>2016-07-13T10:31:34.000Z</time>
      </trkpt>
      <trkpt lat="44.51771" lon="6.23574">
        <ele>1393.1999511719</ele>
        <time>2016-07-13T10:31:41.000Z</time>
      </trkpt>
      <trkpt lat="44.51764" lon="6.23564">
        <ele>1392.1999511719</ele>
        <time>2016-07-13T10:31:48.000Z</time>
      </trkpt>
      <trkpt lat="44.51758" lon="6.23561">
        <ele>1392.1999511719</ele>
        <time>2016-07-13T10:31:52.000Z</time>
      </trkpt>
      <trkpt lat="44.51749" lon="6.23552">
        <ele>1391.1999511719</ele>
        <time>2016-07-13T10:31:59.000Z</time>
      </trkpt>
      <trkpt lat="44.51738" lon="6.23545">
        <ele>1390.5999755859</ele>
        <time>2016-07-13T10:32:07.000Z</time>
      </trkpt>
      <trkpt lat="44.51728" lon="6.23537">
        <ele>1390</ele>
        <time>2016-07-13T10:32:15.000Z</time>
      </trkpt>
      <trkpt lat="44.51724" lon="6.23533">
        <ele>1389.5999755859</ele>
        <time>2016-07-13T10:32:19.000Z</time>
      </trkpt>
      <trkpt lat="44.51718" lon="6.2353">
        <ele>1389.5999755859</ele>
        <time>2016-07-13T10:32:23.000Z</time>
      </trkpt>
      <trkpt lat="44.51712" lon="6.23527">
        <ele>1389.4000244141</ele>
        <time>2016-07-13T10:32:28.000Z</time>
      </trkpt>
      <trkpt lat="44.51707" lon="6.23524">
        <ele>1389.4000244141</ele>
        <time>2016-07-13T10:32:32.000Z</time>
      </trkpt>
      <trkpt lat="44.51697" lon="6.23521">
        <ele>1389.8000488281</ele>
        <time>2016-07-13T10:32:40.000Z</time>
      </trkpt>
      <trkpt lat="44.51687" lon="6.23522">
        <ele>1390.5999755859</ele>
        <time>2016-07-13T10:32:46.000Z</time>
      </trkpt>
      <trkpt lat="44.51679" lon="6.23523">
        <ele>1391.1999511719</ele>
        <time>2016-07-13T10:32:52.000Z</time>
      </trkpt>
      <trkpt lat="44.51671" lon="6.23523">
        <ele>1391.5999755859</ele>
        <time>2016-07-13T10:32:59.000Z</time>
      </trkpt>
      <trkpt lat="44.51656" lon="6.23522">
        <ele>1392.1999511719</ele>
        <time>2016-07-13T10:33:08.000Z</time>
      </trkpt>
      <trkpt lat="44.51653" lon="6.23521">
        <ele>1392</ele>
        <time>2016-07-13T10:33:10.000Z</time>
      </trkpt>
      <trkpt lat="44.51649" lon="6.23517">
        <ele>1391.1999511719</ele>
        <time>2016-07-13T10:33:13.000Z</time>
      </trkpt>
      <trkpt lat="44.51643" lon="6.23508">
        <ele>1389</ele>
        <time>2016-07-13T10:33:20.000Z</time>
      </trkpt>
      <trkpt lat="44.51634" lon="6.235">
        <ele>1387</ele>
        <time>2016-07-13T10:33:27.000Z</time>
      </trkpt>
      <trkpt lat="44.5163" lon="6.23497">
        <ele>1386.4000244141</ele>
        <time>2016-07-13T10:33:32.000Z</time>
      </trkpt>
      <trkpt lat="44.5162" lon="6.23496">
        <ele>1387</ele>
        <time>2016-07-13T10:33:40.000Z</time>
      </trkpt>
      <trkpt lat="44.51619" lon="6.23497">
        <ele>1387.1999511719</ele>
        <time>2016-07-13T10:33:41.000Z</time>
      </trkpt>
      <trkpt lat="44.51609" lon="6.23502">
        <ele>1391.4000244141</ele>
        <time>2016-07-13T10:33:50.000Z</time>
      </trkpt>
      <trkpt lat="44.51601" lon="6.23505">
        <ele>1394.8000488281</ele>
        <time>2016-07-13T10:33:57.000Z</time>
      </trkpt>
      <trkpt lat="44.51582" lon="6.23503">
        <ele>1400</ele>
        <time>2016-07-13T10:34:10.000Z</time>
      </trkpt>
      <trkpt lat="44.5157" lon="6.23494">
        <ele>1401.1999511719</ele>
        <time>2016-07-13T10:34:17.000Z</time>
      </trkpt>
      <trkpt lat="44.51564" lon="6.23479">
        <ele>1398.5999755859</ele>
        <time>2016-07-13T10:34:25.000Z</time>
      </trkpt>
      <trkpt lat="44.5156" lon="6.23463">
        <ele>1396.4000244141</ele>
        <time>2016-07-13T10:34:33.000Z</time>
      </trkpt>
      <trkpt lat="44.51558" lon="6.23459">
        <ele>1396</ele>
        <time>2016-07-13T10:34:36.000Z</time>
      </trkpt>
      <trkpt lat="44.51547" lon="6.23447">
        <ele>1396.8000488281</ele>
        <time>2016-07-13T10:34:47.000Z</time>
      </trkpt>
      <trkpt lat="44.51541" lon="6.23444">
        <ele>1398.1999511719</ele>
        <time>2016-07-13T10:34:52.000Z</time>
      </trkpt>
      <trkpt lat="44.51532" lon="6.23435">
        <ele>1399</ele>
        <time>2016-07-13T10:35:00.000Z</time>
      </trkpt>
      <trkpt lat="44.51527" lon="6.23427">
        <ele>1398.5999755859</ele>
        <time>2016-07-13T10:35:06.000Z</time>
      </trkpt>
      <trkpt lat="44.5152" lon="6.23419">
        <ele>1399</ele>
        <time>2016-07-13T10:35:13.000Z</time>
      </trkpt>
      <trkpt lat="44.51512" lon="6.23417">
        <ele>1401</ele>
        <time>2016-07-13T10:35:18.000Z</time>
      </trkpt>
      <trkpt lat="44.51511" lon="6.23417">
        <ele>1401.4000244141</ele>
        <time>2016-07-13T10:35:19.000Z</time>
      </trkpt>
      <trkpt lat="44.51504" lon="6.23412">
        <ele>1402.4000244141</ele>
        <time>2016-07-13T10:35:24.000Z</time>
      </trkpt>
      <trkpt lat="44.51497" lon="6.23401">
        <ele>1402.4000244141</ele>
        <time>2016-07-13T10:35:31.000Z</time>
      </trkpt>
      <trkpt lat="44.51494" lon="6.23398">
        <ele>1402.1999511719</ele>
        <time>2016-07-13T10:35:33.000Z</time>
      </trkpt>
      <trkpt lat="44.51492" lon="6.23389">
        <ele>1401.5999755859</ele>
        <time>2016-07-13T10:35:37.000Z</time>
      </trkpt>
      <trkpt lat="44.51485" lon="6.2337">
        <ele>1401</ele>
        <time>2016-07-13T10:35:47.000Z</time>
      </trkpt>
      <trkpt lat="44.51479" lon="6.2336">
        <ele>1401.1999511719</ele>
        <time>2016-07-13T10:35:54.000Z</time>
      </trkpt>
      <trkpt lat="44.51475" lon="6.23353">
        <ele>1401.5999755859</ele>
        <time>2016-07-13T10:35:59.000Z</time>
      </trkpt>
      <trkpt lat="44.51465" lon="6.23341">
        <ele>1402.8000488281</ele>
        <time>2016-07-13T10:36:09.000Z</time>
      </trkpt>
      <trkpt lat="44.51462" lon="6.23337">
        <ele>1403.1999511719</ele>
        <time>2016-07-13T10:36:12.000Z</time>
      </trkpt>
      <trkpt lat="44.51457" lon="6.23333">
        <ele>1403.8000488281</ele>
        <time>2016-07-13T10:36:15.000Z</time>
      </trkpt>
      <trkpt lat="44.51452" lon="6.23321">
        <ele>1403.5999755859</ele>
        <time>2016-07-13T10:36:22.000Z</time>
      </trkpt>
      <trkpt lat="44.51451" lon="6.23317">
        <ele>1403.1999511719</ele>
        <time>2016-07-13T10:36:24.000Z</time>
      </trkpt>
      <trkpt lat="44.51451" lon="6.23313">
        <ele>1403</ele>
        <time>2016-07-13T10:36:26.000Z</time>
      </trkpt>
      <trkpt lat="44.51445" lon="6.23298">
        <ele>1402.8000488281</ele>
        <time>2016-07-13T10:36:34.000Z</time>
      </trkpt>
      <trkpt lat="44.5144" lon="6.23286">
        <ele>1403</ele>
        <time>2016-07-13T10:36:41.000Z</time>
      </trkpt>
      <trkpt lat="44.51434" lon="6.23275">
        <ele>1403.1999511719</ele>
        <time>2016-07-13T10:36:48.000Z</time>
      </trkpt>
      <trkpt lat="44.5143" lon="6.23267">
        <ele>1403.5999755859</ele>
        <time>2016-07-13T10:36:53.000Z</time>
      </trkpt>
      <trkpt lat="44.51426" lon="6.23255">
        <ele>1403</ele>
        <time>2016-07-13T10:37:00.000Z</time>
      </trkpt>
      <trkpt lat="44.51425" lon="6.23252">
        <ele>1403.1999511719</ele>
        <time>2016-07-13T10:37:02.000Z</time>
      </trkpt>
      <trkpt lat="44.51419" lon="6.23241">
        <ele>1403.5999755859</ele>
        <time>2016-07-13T10:37:09.000Z</time>
      </trkpt>
      <trkpt lat="44.51418" lon="6.23239">
        <ele>1403.5999755859</ele>
        <time>2016-07-13T10:37:10.000Z</time>
      </trkpt>
      <trkpt lat="44.51412" lon="6.23225">
        <ele>1403.8000488281</ele>
        <time>2016-07-13T10:37:19.000Z</time>
      </trkpt>
      <trkpt lat="44.5141" lon="6.23218">
        <ele>1404</ele>
        <time>2016-07-13T10:37:23.000Z</time>
      </trkpt>
      <trkpt lat="44.51405" lon="6.23206">
        <ele>1404.5999755859</ele>
        <time>2016-07-13T10:37:31.000Z</time>
      </trkpt>
      <trkpt lat="44.51404" lon="6.23204">
        <ele>1404.5999755859</ele>
        <time>2016-07-13T10:37:32.000Z</time>
      </trkpt>
      <trkpt lat="44.514" lon="6.23196">
        <ele>1405.1999511719</ele>
        <time>2016-07-13T10:37:37.000Z</time>
      </trkpt>
      <trkpt lat="44.514" lon="6.23194">
        <ele>1405.1999511719</ele>
        <time>2016-07-13T10:37:38.000Z</time>
      </trkpt>
      <trkpt lat="44.51392" lon="6.23179">
        <ele>1406.1999511719</ele>
        <time>2016-07-13T10:37:47.000Z</time>
      </trkpt>
      <trkpt lat="44.51388" lon="6.23169">
        <ele>1407</ele>
        <time>2016-07-13T10:37:53.000Z</time>
      </trkpt>
      <trkpt lat="44.51381" lon="6.23162">
        <ele>1408.4000244141</ele>
        <time>2016-07-13T10:37:59.000Z</time>
      </trkpt>
      <trkpt lat="44.51378" lon="6.23159">
        <ele>1408.8000488281</ele>
        <time>2016-07-13T10:38:01.000Z</time>
      </trkpt>
      <trkpt lat="44.51372" lon="6.23143">
        <ele>1409</ele>
        <time>2016-07-13T10:38:12.000Z</time>
      </trkpt>
      <trkpt lat="44.5137" lon="6.23134">
        <ele>1408.5999755859</ele>
        <time>2016-07-13T10:38:17.000Z</time>
      </trkpt>
      <trkpt lat="44.51363" lon="6.23122">
        <ele>1407.8000488281</ele>
        <time>2016-07-13T10:38:25.000Z</time>
      </trkpt>
      <trkpt lat="44.51356" lon="6.23109">
        <ele>1405.8000488281</ele>
        <time>2016-07-13T10:38:33.000Z</time>
      </trkpt>
      <trkpt lat="44.51351" lon="6.23097">
        <ele>1404</ele>
        <time>2016-07-13T10:38:40.000Z</time>
      </trkpt>
      <trkpt lat="44.51349" lon="6.23082">
        <ele>1402</ele>
        <time>2016-07-13T10:38:47.000Z</time>
      </trkpt>
      <trkpt lat="44.51348" lon="6.2308">
        <ele>1401.8000488281</ele>
        <time>2016-07-13T10:38:48.000Z</time>
      </trkpt>
      <trkpt lat="44.51344" lon="6.23067">
        <ele>1400</ele>
        <time>2016-07-13T10:38:55.000Z</time>
      </trkpt>
      <trkpt lat="44.51327" lon="6.23039">
        <ele>1396</ele>
        <time>2016-07-13T10:39:15.000Z</time>
      </trkpt>
      <trkpt lat="44.51314" lon="6.23038">
        <ele>1395</ele>
        <time>2016-07-13T10:39:24.000Z</time>
      </trkpt>
      <trkpt lat="44.51313" lon="6.23038">
        <ele>1394.8000488281</ele>
        <time>2016-07-13T10:39:25.000Z</time>
      </trkpt>
      <trkpt lat="44.51312" lon="6.23032">
        <ele>1394.1999511719</ele>
        <time>2016-07-13T10:39:31.000Z</time>
      </trkpt>
      <trkpt lat="44.51312" lon="6.23031">
        <ele>1394.1999511719</ele>
        <time>2016-07-13T10:39:32.000Z</time>
      </trkpt>
      <trkpt lat="44.51314" lon="6.23031">
        <ele>1394.1999511719</ele>
        <time>2016-07-13T10:39:34.000Z</time>
      </trkpt>
      <trkpt lat="44.51317" lon="6.23033">
        <ele>1394.5999755859</ele>
        <time>2016-07-13T10:39:42.000Z</time>
      </trkpt>
      <trkpt lat="44.51318" lon="6.23034">
        <ele>1394.8000488281</ele>
        <time>2016-07-13T10:39:43.000Z</time>
      </trkpt>
      <trkpt lat="44.51316" lon="6.23038">
        <ele>1395</ele>
        <time>2016-07-13T10:39:47.000Z</time>
      </trkpt>
      <trkpt lat="44.51315" lon="6.23038">
        <ele>1395</ele>
        <time>2016-07-13T10:39:48.000Z</time>
      </trkpt>
      <trkpt lat="44.51314" lon="6.2304">
        <ele>1395</ele>
        <time>2016-07-13T10:39:54.000Z</time>
      </trkpt>
      <trkpt lat="44.51312" lon="6.23045">
        <ele>1395.4000244141</ele>
        <time>2016-07-13T10:40:01.000Z</time>
      </trkpt>
      <trkpt lat="44.51309" lon="6.23048">
        <ele>1395.4000244141</ele>
        <time>2016-07-13T10:40:07.000Z</time>
      </trkpt>
      <trkpt lat="44.51305" lon="6.23048">
        <ele>1395.1999511719</ele>
        <time>2016-07-13T10:40:12.000Z</time>
      </trkpt>
      <trkpt lat="44.51304" lon="6.23046">
        <ele>1395</ele>
        <time>2016-07-13T10:40:18.000Z</time>
      </trkpt>
      <trkpt lat="44.51308" lon="6.23046">
        <ele>1395.1999511719</ele>
        <time>2016-07-13T10:40:24.000Z</time>
      </trkpt>
      <trkpt lat="44.51311" lon="6.23048">
        <ele>1395.5999755859</ele>
        <time>2016-07-13T10:40:30.000Z</time>
      </trkpt>
      <trkpt lat="44.51313" lon="6.23046">
        <ele>1395.5999755859</ele>
        <time>2016-07-13T10:40:36.000Z</time>
      </trkpt>
      <trkpt lat="44.51316" lon="6.23042">
        <ele>1395.4000244141</ele>
        <time>2016-07-13T10:40:52.000Z</time>
      </trkpt>
      <trkpt lat="44.51317" lon="6.2304">
        <ele>1395.1999511719</ele>
        <time>2016-07-13T10:40:53.000Z</time>
      </trkpt>
      <trkpt lat="44.5132" lon="6.23036">
        <ele>1395</ele>
        <time>2016-07-13T10:40:56.000Z</time>
      </trkpt>
      <trkpt lat="44.51322" lon="6.23033">
        <ele>1395</ele>
        <time>2016-07-13T10:40:58.000Z</time>
      </trkpt>
      <trkpt lat="44.51339" lon="6.23022">
        <ele>1395.1999511719</ele>
        <time>2016-07-13T10:41:11.000Z</time>
      </trkpt>
      <trkpt lat="44.51348" lon="6.23015">
        <ele>1395</ele>
        <time>2016-07-13T10:41:19.000Z</time>
      </trkpt>
      <trkpt lat="44.51353" lon="6.23011">
        <ele>1395.1999511719</ele>
        <time>2016-07-13T10:41:25.000Z</time>
      </trkpt>
      <trkpt lat="44.51358" lon="6.2301">
        <ele>1395.4000244141</ele>
        <time>2016-07-13T10:41:30.000Z</time>
      </trkpt>
      <trkpt lat="44.51361" lon="6.2301">
        <ele>1395.5999755859</ele>
        <time>2016-07-13T10:41:37.000Z</time>
      </trkpt>
      <trkpt lat="44.51362" lon="6.23009">
        <ele>1395.5999755859</ele>
        <time>2016-07-13T10:41:43.000Z</time>
      </trkpt>
      <trkpt lat="44.51363" lon="6.23009">
        <ele>1395.5999755859</ele>
        <time>2016-07-13T10:42:15.000Z</time>
      </trkpt>
      <trkpt lat="44.51362" lon="6.2301">
        <ele>1395.5999755859</ele>
        <time>2016-07-13T10:42:20.000Z</time>
      </trkpt>
      <trkpt lat="44.51364" lon="6.2301">
        <ele>1395.8000488281</ele>
        <time>2016-07-13T10:42:24.000Z</time>
      </trkpt>
      <trkpt lat="44.51363" lon="6.23009">
        <ele>1395.5999755859</ele>
        <time>2016-07-13T10:42:30.000Z</time>
      </trkpt>
      <trkpt lat="44.51364" lon="6.23011">
        <ele>1395.8000488281</ele>
        <time>2016-07-13T10:42:41.000Z</time>
      </trkpt>
      <trkpt lat="44.51364" lon="6.23006">
        <ele>1395.4000244141</ele>
        <time>2016-07-13T10:42:48.000Z</time>
      </trkpt>
      <trkpt lat="44.51363" lon="6.23005">
        <ele>1395.1999511719</ele>
        <time>2016-07-13T10:42:55.000Z</time>
      </trkpt>
      <trkpt lat="44.51364" lon="6.23008">
        <ele>1395.5999755859</ele>
        <time>2016-07-13T10:43:19.000Z</time>
      </trkpt>
      <trkpt lat="44.51365" lon="6.23009">
        <ele>1395.8000488281</ele>
        <time>2016-07-13T10:43:29.000Z</time>
      </trkpt>
      <trkpt lat="44.51365" lon="6.23011">
        <ele>1396</ele>
        <time>2016-07-13T10:43:32.000Z</time>
      </trkpt>
      <trkpt lat="44.51365" lon="6.23008">
        <ele>1395.5999755859</ele>
        <time>2016-07-13T10:43:41.000Z</time>
      </trkpt>
      <trkpt lat="44.51366" lon="6.23005">
        <ele>1395.4000244141</ele>
        <time>2016-07-13T10:43:52.000Z</time>
      </trkpt>
      <trkpt lat="44.5132" lon="6.23051">
        <ele>1396.5999755859</ele>
        <time>2016-07-13T11:39:51.000Z</time>
      </trkpt>
      <trkpt lat="44.51324" lon="6.23051">
        <ele>1396.8000488281</ele>
        <time>2016-07-13T11:39:54.000Z</time>
      </trkpt>
      <trkpt lat="44.51331" lon="6.23054">
        <ele>1397.5999755859</ele>
        <time>2016-07-13T11:40:01.000Z</time>
      </trkpt>
      <trkpt lat="44.51335" lon="6.23058">
        <ele>1398.1999511719</ele>
        <time>2016-07-13T11:40:04.000Z</time>
      </trkpt>
      <trkpt lat="44.51341" lon="6.23053">
        <ele>1398.1999511719</ele>
        <time>2016-07-13T11:40:09.000Z</time>
      </trkpt>
      <trkpt lat="44.51346" lon="6.23055">
        <ele>1398.8000488281</ele>
        <time>2016-07-13T11:40:14.000Z</time>
      </trkpt>
      <trkpt lat="44.51348" lon="6.23056">
        <ele>1399</ele>
        <time>2016-07-13T11:40:16.000Z</time>
      </trkpt>
      <trkpt lat="44.51355" lon="6.2306">
        <ele>1400</ele>
        <time>2016-07-13T11:40:22.000Z</time>
      </trkpt>
      <trkpt lat="44.51356" lon="6.2306">
        <ele>1400</ele>
        <time>2016-07-13T11:40:23.000Z</time>
      </trkpt>
      <trkpt lat="44.51359" lon="6.23055">
        <ele>1399.8000488281</ele>
        <time>2016-07-13T11:40:27.000Z</time>
      </trkpt>
      <trkpt lat="44.51367" lon="6.23063">
        <ele>1401</ele>
        <time>2016-07-13T11:40:35.000Z</time>
      </trkpt>
      <trkpt lat="44.51372" lon="6.23075">
        <ele>1400.8000488281</ele>
        <time>2016-07-13T11:40:43.000Z</time>
      </trkpt>
      <trkpt lat="44.5138" lon="6.23092">
        <ele>1400.4000244141</ele>
        <time>2016-07-13T11:40:54.000Z</time>
      </trkpt>
      <trkpt lat="44.51384" lon="6.23097">
        <ele>1399.8000488281</ele>
        <time>2016-07-13T11:40:58.000Z</time>
      </trkpt>
      <trkpt lat="44.51388" lon="6.23103">
        <ele>1399.4000244141</ele>
        <time>2016-07-13T11:41:02.000Z</time>
      </trkpt>
      <trkpt lat="44.5139" lon="6.23111">
        <ele>1399.8000488281</ele>
        <time>2016-07-13T11:41:08.000Z</time>
      </trkpt>
      <trkpt lat="44.5139" lon="6.23113">
        <ele>1400</ele>
        <time>2016-07-13T11:41:09.000Z</time>
      </trkpt>
      <trkpt lat="44.5139" lon="6.23114">
        <ele>1400</ele>
        <time>2016-07-13T11:41:10.000Z</time>
      </trkpt>
      <trkpt lat="44.51393" lon="6.23119">
        <ele>1399.5999755859</ele>
        <time>2016-07-13T11:41:15.000Z</time>
      </trkpt>
      <trkpt lat="44.51396" lon="6.23126">
        <ele>1399.5999755859</ele>
        <time>2016-07-13T11:41:20.000Z</time>
      </trkpt>
      <trkpt lat="44.51396" lon="6.23129">
        <ele>1400</ele>
        <time>2016-07-13T11:41:22.000Z</time>
      </trkpt>
      <trkpt lat="44.51397" lon="6.23136">
        <ele>1400.1999511719</ele>
        <time>2016-07-13T11:41:26.000Z</time>
      </trkpt>
      <trkpt lat="44.514" lon="6.23144">
        <ele>1400.4000244141</ele>
        <time>2016-07-13T11:41:31.000Z</time>
      </trkpt>
      <trkpt lat="44.51401" lon="6.23145">
        <ele>1400.4000244141</ele>
        <time>2016-07-13T11:41:32.000Z</time>
      </trkpt>
      <trkpt lat="44.51403" lon="6.23151">
        <ele>1400.4000244141</ele>
        <time>2016-07-13T11:41:36.000Z</time>
      </trkpt>
      <trkpt lat="44.51407" lon="6.23159">
        <ele>1400</ele>
        <time>2016-07-13T11:41:41.000Z</time>
      </trkpt>
      <trkpt lat="44.5141" lon="6.23168">
        <ele>1400</ele>
        <time>2016-07-13T11:41:46.000Z</time>
      </trkpt>
      <trkpt lat="44.51413" lon="6.23172">
        <ele>1399.4000244141</ele>
        <time>2016-07-13T11:41:49.000Z</time>
      </trkpt>
      <trkpt lat="44.51415" lon="6.23185">
        <ele>1400.1999511719</ele>
        <time>2016-07-13T11:41:56.000Z</time>
      </trkpt>
      <trkpt lat="44.51416" lon="6.23187">
        <ele>1400.1999511719</ele>
        <time>2016-07-13T11:41:57.000Z</time>
      </trkpt>
      <trkpt lat="44.51418" lon="6.23192">
        <ele>1400.1999511719</ele>
        <time>2016-07-13T11:42:03.000Z</time>
      </trkpt>
      <trkpt lat="44.51418" lon="6.23193">
        <ele>1400.1999511719</ele>
        <time>2016-07-13T11:42:04.000Z</time>
      </trkpt>
      <trkpt lat="44.51419" lon="6.23199">
        <ele>1400.4000244141</ele>
        <time>2016-07-13T11:42:10.000Z</time>
      </trkpt>
      <trkpt lat="44.51422" lon="6.23202">
        <ele>1400</ele>
        <time>2016-07-13T11:42:15.000Z</time>
      </trkpt>
      <trkpt lat="44.51422" lon="6.23204">
        <ele>1399.8000488281</ele>
        <time>2016-07-13T11:42:16.000Z</time>
      </trkpt>
      <trkpt lat="44.51425" lon="6.23212">
        <ele>1399.8000488281</ele>
        <time>2016-07-13T11:42:22.000Z</time>
      </trkpt>
      <trkpt lat="44.51426" lon="6.23215">
        <ele>1399.4000244141</ele>
        <time>2016-07-13T11:42:24.000Z</time>
      </trkpt>
      <trkpt lat="44.51435" lon="6.23231">
        <ele>1398.4000244141</ele>
        <time>2016-07-13T11:42:34.000Z</time>
      </trkpt>
      <trkpt lat="44.5144" lon="6.23241">
        <ele>1398</ele>
        <time>2016-07-13T11:42:40.000Z</time>
      </trkpt>
      <trkpt lat="44.51442" lon="6.23248">
        <ele>1398</ele>
        <time>2016-07-13T11:42:44.000Z</time>
      </trkpt>
      <trkpt lat="44.51447" lon="6.23259">
        <ele>1398.1999511719</ele>
        <time>2016-07-13T11:42:51.000Z</time>
      </trkpt>
      <trkpt lat="44.5145" lon="6.23268">
        <ele>1398.1999511719</ele>
        <time>2016-07-13T11:42:56.000Z</time>
      </trkpt>
      <trkpt lat="44.51452" lon="6.23271">
        <ele>1398</ele>
        <time>2016-07-13T11:42:58.000Z</time>
      </trkpt>
      <trkpt lat="44.51454" lon="6.23274">
        <ele>1398</ele>
        <time>2016-07-13T11:43:00.000Z</time>
      </trkpt>
      <trkpt lat="44.51455" lon="6.23278">
        <ele>1398</ele>
        <time>2016-07-13T11:43:02.000Z</time>
      </trkpt>
      <trkpt lat="44.51458" lon="6.23285">
        <ele>1397.8000488281</ele>
        <time>2016-07-13T11:43:06.000Z</time>
      </trkpt>
      <trkpt lat="44.51463" lon="6.23299">
        <ele>1397.8000488281</ele>
        <time>2016-07-13T11:43:14.000Z</time>
      </trkpt>
      <trkpt lat="44.51468" lon="6.2331">
        <ele>1397.1999511719</ele>
        <time>2016-07-13T11:43:20.000Z</time>
      </trkpt>
      <trkpt lat="44.51475" lon="6.23319">
        <ele>1396.4000244141</ele>
        <time>2016-07-13T11:43:27.000Z</time>
      </trkpt>
      <trkpt lat="44.51482" lon="6.23327">
        <ele>1395.4000244141</ele>
        <time>2016-07-13T11:43:34.000Z</time>
      </trkpt>
      <trkpt lat="44.51483" lon="6.23328">
        <ele>1395.4000244141</ele>
        <time>2016-07-13T11:43:35.000Z</time>
      </trkpt>
      <trkpt lat="44.51486" lon="6.23333">
        <ele>1395</ele>
        <time>2016-07-13T11:43:40.000Z</time>
      </trkpt>
      <trkpt lat="44.51491" lon="6.2334">
        <ele>1394.5999755859</ele>
        <time>2016-07-13T11:43:46.000Z</time>
      </trkpt>
      <trkpt lat="44.51494" lon="6.23344">
        <ele>1394.4000244141</ele>
        <time>2016-07-13T11:43:52.000Z</time>
      </trkpt>
      <trkpt lat="44.51493" lon="6.23344">
        <ele>1394.5999755859</ele>
        <time>2016-07-13T11:43:57.000Z</time>
      </trkpt>
      <trkpt lat="44.51496" lon="6.23348">
        <ele>1394.4000244141</ele>
        <time>2016-07-13T11:44:02.000Z</time>
      </trkpt>
      <trkpt lat="44.51499" lon="6.2336">
        <ele>1395</ele>
        <time>2016-07-13T11:44:09.000Z</time>
      </trkpt>
      <trkpt lat="44.515" lon="6.23361">
        <ele>1395.1999511719</ele>
        <time>2016-07-13T11:44:10.000Z</time>
      </trkpt>
      <trkpt lat="44.51502" lon="6.23371">
        <ele>1395.8000488281</ele>
        <time>2016-07-13T11:44:16.000Z</time>
      </trkpt>
      <trkpt lat="44.51507" lon="6.23382">
        <ele>1396.1999511719</ele>
        <time>2016-07-13T11:44:23.000Z</time>
      </trkpt>
      <trkpt lat="44.51508" lon="6.23383">
        <ele>1396</ele>
        <time>2016-07-13T11:44:24.000Z</time>
      </trkpt>
      <trkpt lat="44.5151" lon="6.23384">
        <ele>1395.5999755859</ele>
        <time>2016-07-13T11:44:26.000Z</time>
      </trkpt>
      <trkpt lat="44.51513" lon="6.23391">
        <ele>1395.5999755859</ele>
        <time>2016-07-13T11:44:30.000Z</time>
      </trkpt>
      <trkpt lat="44.51518" lon="6.23399">
        <ele>1395.4000244141</ele>
        <time>2016-07-13T11:44:37.000Z</time>
      </trkpt>
      <trkpt lat="44.51524" lon="6.23408">
        <ele>1395.5999755859</ele>
        <time>2016-07-13T11:44:44.000Z</time>
      </trkpt>
      <trkpt lat="44.51526" lon="6.23412">
        <ele>1396</ele>
        <time>2016-07-13T11:44:49.000Z</time>
      </trkpt>
      <trkpt lat="44.51531" lon="6.23419">
        <ele>1396</ele>
        <time>2016-07-13T11:44:57.000Z</time>
      </trkpt>
      <trkpt lat="44.51539" lon="6.23427">
        <ele>1395</ele>
        <time>2016-07-13T11:45:04.000Z</time>
      </trkpt>
      <trkpt lat="44.51551" lon="6.23434">
        <ele>1393</ele>
        <time>2016-07-13T11:45:12.000Z</time>
      </trkpt>
      <trkpt lat="44.5156" lon="6.23445">
        <ele>1392.5999755859</ele>
        <time>2016-07-13T11:45:20.000Z</time>
      </trkpt>
      <trkpt lat="44.51564" lon="6.23458">
        <ele>1394</ele>
        <time>2016-07-13T11:45:27.000Z</time>
      </trkpt>
      <trkpt lat="44.51569" lon="6.23475">
        <ele>1396.4000244141</ele>
        <time>2016-07-13T11:45:37.000Z</time>
      </trkpt>
      <trkpt lat="44.51569" lon="6.23478">
        <ele>1397</ele>
        <time>2016-07-13T11:45:43.000Z</time>
      </trkpt>
      <trkpt lat="44.51571" lon="6.23479">
        <ele>1396.5999755859</ele>
        <time>2016-07-13T11:45:52.000Z</time>
      </trkpt>
      <trkpt lat="44.51574" lon="6.23485">
        <ele>1397.1999511719</ele>
        <time>2016-07-13T11:45:58.000Z</time>
      </trkpt>
      <trkpt lat="44.51573" lon="6.23485">
        <ele>1397.4000244141</ele>
        <time>2016-07-13T11:46:03.000Z</time>
      </trkpt>
      <trkpt lat="44.51577" lon="6.23491">
        <ele>1398</ele>
        <time>2016-07-13T11:46:11.000Z</time>
      </trkpt>
      <trkpt lat="44.51585" lon="6.23496">
        <ele>1397</ele>
        <time>2016-07-13T11:46:18.000Z</time>
      </trkpt>
      <trkpt lat="44.51596" lon="6.23494">
        <ele>1393.1999511719</ele>
        <time>2016-07-13T11:46:26.000Z</time>
      </trkpt>
      <trkpt lat="44.51601" lon="6.2349">
        <ele>1390.1999511719</ele>
        <time>2016-07-13T11:46:31.000Z</time>
      </trkpt>
      <trkpt lat="44.51607" lon="6.23487">
        <ele>1387.5999755859</ele>
        <time>2016-07-13T11:46:36.000Z</time>
      </trkpt>
      <trkpt lat="44.51615" lon="6.23484">
        <ele>1384</ele>
        <time>2016-07-13T11:46:43.000Z</time>
      </trkpt>
      <trkpt lat="44.51627" lon="6.23488">
        <ele>1384</ele>
        <time>2016-07-13T11:46:52.000Z</time>
      </trkpt>
      <trkpt lat="44.51634" lon="6.23494">
        <ele>1385.1999511719</ele>
        <time>2016-07-13T11:46:59.000Z</time>
      </trkpt>
      <trkpt lat="44.51635" lon="6.23495">
        <ele>1385.5999755859</ele>
        <time>2016-07-13T11:47:00.000Z</time>
      </trkpt>
      <trkpt lat="44.51642" lon="6.23504">
        <ele>1387.8000488281</ele>
        <time>2016-07-13T11:47:07.000Z</time>
      </trkpt>
      <trkpt lat="44.51644" lon="6.23507">
        <ele>1388.4000244141</ele>
        <time>2016-07-13T11:47:09.000Z</time>
      </trkpt>
      <trkpt lat="44.51653" lon="6.23513">
        <ele>1389.5999755859</ele>
        <time>2016-07-13T11:47:16.000Z</time>
      </trkpt>
      <trkpt lat="44.51664" lon="6.23511">
        <ele>1388.5999755859</ele>
        <time>2016-07-13T11:47:23.000Z</time>
      </trkpt>
      <trkpt lat="44.51676" lon="6.23509">
        <ele>1387.4000244141</ele>
        <time>2016-07-13T11:47:31.000Z</time>
      </trkpt>
      <trkpt lat="44.51686" lon="6.23507">
        <ele>1386.4000244141</ele>
        <time>2016-07-13T11:47:38.000Z</time>
      </trkpt>
      <trkpt lat="44.51696" lon="6.23508">
        <ele>1386.1999511719</ele>
        <time>2016-07-13T11:47:46.000Z</time>
      </trkpt>
      <trkpt lat="44.51699" lon="6.23511">
        <ele>1386.8000488281</ele>
        <time>2016-07-13T11:47:50.000Z</time>
      </trkpt>
      <trkpt lat="44.51701" lon="6.23512">
        <ele>1386.8000488281</ele>
        <time>2016-07-13T11:47:53.000Z</time>
      </trkpt>
      <trkpt lat="44.51707" lon="6.23515">
        <ele>1387</ele>
        <time>2016-07-13T11:47:58.000Z</time>
      </trkpt>
      <trkpt lat="44.51717" lon="6.23524">
        <ele>1388</ele>
        <time>2016-07-13T11:48:06.000Z</time>
      </trkpt>
      <trkpt lat="44.51727" lon="6.23532">
        <ele>1388.8000488281</ele>
        <time>2016-07-13T11:48:13.000Z</time>
      </trkpt>
      <trkpt lat="44.51738" lon="6.23539">
        <ele>1389.1999511719</ele>
        <time>2016-07-13T11:48:20.000Z</time>
      </trkpt>
      <trkpt lat="44.51742" lon="6.23542">
        <ele>1389.4000244141</ele>
        <time>2016-07-13T11:48:23.000Z</time>
      </trkpt>
      <trkpt lat="44.51749" lon="6.23547">
        <ele>1389.8000488281</ele>
        <time>2016-07-13T11:48:28.000Z</time>
      </trkpt>
      <trkpt lat="44.51753" lon="6.23549">
        <ele>1389.5999755859</ele>
        <time>2016-07-13T11:48:31.000Z</time>
      </trkpt>
      <trkpt lat="44.51762" lon="6.23553">
        <ele>1389.4000244141</ele>
        <time>2016-07-13T11:48:37.000Z</time>
      </trkpt>
      <trkpt lat="44.51774" lon="6.23559">
        <ele>1389.5999755859</ele>
        <time>2016-07-13T11:48:45.000Z</time>
      </trkpt>
      <trkpt lat="44.51775" lon="6.2356">
        <ele>1389.5999755859</ele>
        <time>2016-07-13T11:48:46.000Z</time>
      </trkpt>
      <trkpt lat="44.51781" lon="6.23565">
        <ele>1390</ele>
        <time>2016-07-13T11:48:51.000Z</time>
      </trkpt>
      <trkpt lat="44.51792" lon="6.23572">
        <ele>1389.1999511719</ele>
        <time>2016-07-13T11:48:59.000Z</time>
      </trkpt>
      <trkpt lat="44.51799" lon="6.23577">
        <ele>1388.8000488281</ele>
        <time>2016-07-13T11:49:04.000Z</time>
      </trkpt>
      <trkpt lat="44.51809" lon="6.23582">
        <ele>1387.8000488281</ele>
        <time>2016-07-13T11:49:11.000Z</time>
      </trkpt>
      <trkpt lat="44.51818" lon="6.23586">
        <ele>1386.8000488281</ele>
        <time>2016-07-13T11:49:17.000Z</time>
      </trkpt>
      <trkpt lat="44.51828" lon="6.23591">
        <ele>1385.5999755859</ele>
        <time>2016-07-13T11:49:24.000Z</time>
      </trkpt>
      <trkpt lat="44.51837" lon="6.23596">
        <ele>1384.5999755859</ele>
        <time>2016-07-13T11:49:31.000Z</time>
      </trkpt>
      <trkpt lat="44.51845" lon="6.236">
        <ele>1383.8000488281</ele>
        <time>2016-07-13T11:49:37.000Z</time>
      </trkpt>
      <trkpt lat="44.51852" lon="6.23606">
        <ele>1383.5999755859</ele>
        <time>2016-07-13T11:49:43.000Z</time>
      </trkpt>
      <trkpt lat="44.51853" lon="6.23607">
        <ele>1383.5999755859</ele>
        <time>2016-07-13T11:49:44.000Z</time>
      </trkpt>
      <trkpt lat="44.51862" lon="6.23617">
        <ele>1384</ele>
        <time>2016-07-13T11:49:51.000Z</time>
      </trkpt>
      <trkpt lat="44.51863" lon="6.23618">
        <ele>1383.8000488281</ele>
        <time>2016-07-13T11:49:52.000Z</time>
      </trkpt>
      <trkpt lat="44.5187" lon="6.23627">
        <ele>1384.5999755859</ele>
        <time>2016-07-13T11:49:58.000Z</time>
      </trkpt>
      <trkpt lat="44.51873" lon="6.23634">
        <ele>1385.1999511719</ele>
        <time>2016-07-13T11:50:02.000Z</time>
      </trkpt>
      <trkpt lat="44.51884" lon="6.23644">
        <ele>1385.5999755859</ele>
        <time>2016-07-13T11:50:10.000Z</time>
      </trkpt>
      <trkpt lat="44.51894" lon="6.2365">
        <ele>1384.5999755859</ele>
        <time>2016-07-13T11:50:17.000Z</time>
      </trkpt>
      <trkpt lat="44.51901" lon="6.23655">
        <ele>1384</ele>
        <time>2016-07-13T11:50:23.000Z</time>
      </trkpt>
      <trkpt lat="44.51908" lon="6.2366">
        <ele>1383.4000244141</ele>
        <time>2016-07-13T11:50:29.000Z</time>
      </trkpt>
      <trkpt lat="44.51917" lon="6.23666">
        <ele>1382.5999755859</ele>
        <time>2016-07-13T11:50:36.000Z</time>
      </trkpt>
      <trkpt lat="44.51922" lon="6.23669">
        <ele>1382.1999511719</ele>
        <time>2016-07-13T11:50:40.000Z</time>
      </trkpt>
      <trkpt lat="44.51932" lon="6.2368">
        <ele>1381.8000488281</ele>
        <time>2016-07-13T11:50:49.000Z</time>
      </trkpt>
      <trkpt lat="44.51936" lon="6.23684">
        <ele>1381.5999755859</ele>
        <time>2016-07-13T11:50:53.000Z</time>
      </trkpt>
      <trkpt lat="44.51941" lon="6.23692">
        <ele>1382</ele>
        <time>2016-07-13T11:50:58.000Z</time>
      </trkpt>
      <trkpt lat="44.51949" lon="6.23705">
        <ele>1382</ele>
        <time>2016-07-13T11:51:06.000Z</time>
      </trkpt>
      <trkpt lat="44.51952" lon="6.23711">
        <ele>1381.8000488281</ele>
        <time>2016-07-13T11:51:10.000Z</time>
      </trkpt>
      <trkpt lat="44.51955" lon="6.23721">
        <ele>1382.4000244141</ele>
        <time>2016-07-13T11:51:16.000Z</time>
      </trkpt>
      <trkpt lat="44.51959" lon="6.23732">
        <ele>1382.1999511719</ele>
        <time>2016-07-13T11:51:22.000Z</time>
      </trkpt>
      <trkpt lat="44.5196" lon="6.23734">
        <ele>1382</ele>
        <time>2016-07-13T11:51:23.000Z</time>
      </trkpt>
      <trkpt lat="44.51964" lon="6.23743">
        <ele>1381.1999511719</ele>
        <time>2016-07-13T11:51:28.000Z</time>
      </trkpt>
      <trkpt lat="44.51968" lon="6.23751">
        <ele>1380.4000244141</ele>
        <time>2016-07-13T11:51:32.000Z</time>
      </trkpt>
      <trkpt lat="44.51975" lon="6.23762">
        <ele>1378.8000488281</ele>
        <time>2016-07-13T11:51:39.000Z</time>
      </trkpt>
      <trkpt lat="44.51976" lon="6.23767">
        <ele>1378.8000488281</ele>
        <time>2016-07-13T11:51:41.000Z</time>
      </trkpt>
      <trkpt lat="44.5198" lon="6.23776">
        <ele>1378</ele>
        <time>2016-07-13T11:51:46.000Z</time>
      </trkpt>
      <trkpt lat="44.51986" lon="6.23789">
        <ele>1377</ele>
        <time>2016-07-13T11:51:52.000Z</time>
      </trkpt>
      <trkpt lat="44.51987" lon="6.23791">
        <ele>1377</ele>
        <time>2016-07-13T11:51:53.000Z</time>
      </trkpt>
      <trkpt lat="44.51994" lon="6.23803">
        <ele>1375.1999511719</ele>
        <time>2016-07-13T11:52:00.000Z</time>
      </trkpt>
      <trkpt lat="44.52002" lon="6.23809">
        <ele>1372.5999755859</ele>
        <time>2016-07-13T11:52:06.000Z</time>
      </trkpt>
      <trkpt lat="44.52011" lon="6.23819">
        <ele>1370.1999511719</ele>
        <time>2016-07-13T11:52:14.000Z</time>
      </trkpt>
      <trkpt lat="44.52018" lon="6.23826">
        <ele>1368</ele>
        <time>2016-07-13T11:52:20.000Z</time>
      </trkpt>
      <trkpt lat="44.52037" lon="6.23833">
        <ele>1361.8000488281</ele>
        <time>2016-07-13T11:52:34.000Z</time>
      </trkpt>
      <trkpt lat="44.5205" lon="6.23828">
        <ele>1359.1999511719</ele>
        <time>2016-07-13T11:52:43.000Z</time>
      </trkpt>
      <trkpt lat="44.52061" lon="6.23821">
        <ele>1358.1999511719</ele>
        <time>2016-07-13T11:52:52.000Z</time>
      </trkpt>
      <trkpt lat="44.52069" lon="6.23813">
        <ele>1357.5999755859</ele>
        <time>2016-07-13T11:52:59.000Z</time>
      </trkpt>
      <trkpt lat="44.52075" lon="6.23805">
        <ele>1356.4000244141</ele>
        <time>2016-07-13T11:53:07.000Z</time>
      </trkpt>
      <trkpt lat="44.52077" lon="6.23802">
        <ele>1356.1999511719</ele>
        <time>2016-07-13T11:53:09.000Z</time>
      </trkpt>
      <trkpt lat="44.52077" lon="6.23782">
        <ele>1354.5999755859</ele>
        <time>2016-07-13T11:53:19.000Z</time>
      </trkpt>
      <trkpt lat="44.52078" lon="6.23773">
        <ele>1354</ele>
        <time>2016-07-13T11:53:26.000Z</time>
      </trkpt>
      <trkpt lat="44.52077" lon="6.23766">
        <ele>1353.4000244141</ele>
        <time>2016-07-13T11:53:32.000Z</time>
      </trkpt>
      <trkpt lat="44.52079" lon="6.23724">
        <ele>1349.4000244141</ele>
        <time>2016-07-13T11:53:49.000Z</time>
      </trkpt>
      <trkpt lat="44.52082" lon="6.23709">
        <ele>1348.1999511719</ele>
        <time>2016-07-13T11:53:56.000Z</time>
      </trkpt>
      <trkpt lat="44.52087" lon="6.23695">
        <ele>1346.5999755859</ele>
        <time>2016-07-13T11:54:03.000Z</time>
      </trkpt>
      <trkpt lat="44.52099" lon="6.23674">
        <ele>1341.4000244141</ele>
        <time>2016-07-13T11:54:15.000Z</time>
      </trkpt>
      <trkpt lat="44.52108" lon="6.23655">
        <ele>1337</ele>
        <time>2016-07-13T11:54:25.000Z</time>
      </trkpt>
      <trkpt lat="44.52113" lon="6.23639">
        <ele>1334</ele>
        <time>2016-07-13T11:54:33.000Z</time>
      </trkpt>
      <trkpt lat="44.52118" lon="6.23618">
        <ele>1332</ele>
        <time>2016-07-13T11:54:43.000Z</time>
      </trkpt>
      <trkpt lat="44.52119" lon="6.23613">
        <ele>1331.5999755859</ele>
        <time>2016-07-13T11:54:48.000Z</time>
      </trkpt>
      <trkpt lat="44.5212" lon="6.23605">
        <ele>1331</ele>
        <time>2016-07-13T11:55:19.000Z</time>
      </trkpt>
      <trkpt lat="44.52121" lon="6.23579">
        <ele>1329.1999511719</ele>
        <time>2016-07-13T11:55:31.000Z</time>
      </trkpt>
      <trkpt lat="44.52125" lon="6.23558">
        <ele>1328.8000488281</ele>
        <time>2016-07-13T11:55:41.000Z</time>
      </trkpt>
      <trkpt lat="44.52127" lon="6.23537">
        <ele>1328.1999511719</ele>
        <time>2016-07-13T11:55:51.000Z</time>
      </trkpt>
      <trkpt lat="44.52128" lon="6.23519">
        <ele>1327.1999511719</ele>
        <time>2016-07-13T11:56:00.000Z</time>
      </trkpt>
      <trkpt lat="44.52127" lon="6.23503">
        <ele>1326</ele>
        <time>2016-07-13T11:56:07.000Z</time>
      </trkpt>
      <trkpt lat="44.52125" lon="6.23486">
        <ele>1324.4000244141</ele>
        <time>2016-07-13T11:56:15.000Z</time>
      </trkpt>
      <trkpt lat="44.52124" lon="6.23469">
        <ele>1322.8000488281</ele>
        <time>2016-07-13T11:56:23.000Z</time>
      </trkpt>
      <trkpt lat="44.52126" lon="6.23448">
        <ele>1321.1999511719</ele>
        <time>2016-07-13T11:56:33.000Z</time>
      </trkpt>
      <trkpt lat="44.52127" lon="6.23421">
        <ele>1319</ele>
        <time>2016-07-13T11:56:46.000Z</time>
      </trkpt>
      <trkpt lat="44.52126" lon="6.23403">
        <ele>1317</ele>
        <time>2016-07-13T11:56:55.000Z</time>
      </trkpt>
      <trkpt lat="44.5213" lon="6.23391">
        <ele>1317.1999511719</ele>
        <time>2016-07-13T11:57:02.000Z</time>
      </trkpt>
      <trkpt lat="44.52138" lon="6.23379">
        <ele>1318.4000244141</ele>
        <time>2016-07-13T11:57:10.000Z</time>
      </trkpt>
      <trkpt lat="44.52144" lon="6.23364">
        <ele>1318.8000488281</ele>
        <time>2016-07-13T11:57:18.000Z</time>
      </trkpt>
      <trkpt lat="44.52154" lon="6.2333">
        <ele>1317.5999755859</ele>
        <time>2016-07-13T11:57:35.000Z</time>
      </trkpt>
      <trkpt lat="44.52155" lon="6.23308">
        <ele>1314.5999755859</ele>
        <time>2016-07-13T11:57:45.000Z</time>
      </trkpt>
      <trkpt lat="44.52156" lon="6.23283">
        <ele>1311.8000488281</ele>
        <time>2016-07-13T11:57:56.000Z</time>
      </trkpt>
      <trkpt lat="44.52159" lon="6.23259">
        <ele>1309.5999755859</ele>
        <time>2016-07-13T11:58:07.000Z</time>
      </trkpt>
      <trkpt lat="44.5216" lon="6.23239">
        <ele>1307.5999755859</ele>
        <time>2016-07-13T11:58:16.000Z</time>
      </trkpt>
      <trkpt lat="44.52159" lon="6.2323">
        <ele>1306.4000244141</ele>
        <time>2016-07-13T11:58:23.000Z</time>
      </trkpt>
      <trkpt lat="44.52159" lon="6.23232">
        <ele>1306.4000244141</ele>
        <time>2016-07-13T11:58:44.000Z</time>
      </trkpt>
      <trkpt lat="44.5216" lon="6.23233">
        <ele>1306.8000488281</ele>
        <time>2016-07-13T11:59:06.000Z</time>
      </trkpt>
      <trkpt lat="44.52161" lon="6.23229">
        <ele>1306.4000244141</ele>
        <time>2016-07-13T12:01:10.000Z</time>
      </trkpt>
      <trkpt lat="44.52162" lon="6.23221">
        <ele>1306.1999511719</ele>
        <time>2016-07-13T12:01:18.000Z</time>
      </trkpt>
      <trkpt lat="44.52162" lon="6.23209">
        <ele>1305.5999755859</ele>
        <time>2016-07-13T12:01:25.000Z</time>
      </trkpt>
      <trkpt lat="44.52161" lon="6.23194">
        <ele>1304.4000244141</ele>
        <time>2016-07-13T12:01:34.000Z</time>
      </trkpt>
      <trkpt lat="44.52163" lon="6.23182">
        <ele>1304</ele>
        <time>2016-07-13T12:01:41.000Z</time>
      </trkpt>
      <trkpt lat="44.52165" lon="6.23173">
        <ele>1303.8000488281</ele>
        <time>2016-07-13T12:01:47.000Z</time>
      </trkpt>
      <trkpt lat="44.52168" lon="6.23168">
        <ele>1304</ele>
        <time>2016-07-13T12:01:54.000Z</time>
      </trkpt>
      <trkpt lat="44.52167" lon="6.23167">
        <ele>1303.5999755859</ele>
        <time>2016-07-13T12:01:59.000Z</time>
      </trkpt>
      <trkpt lat="44.52164" lon="6.23168">
        <ele>1303.1999511719</ele>
        <time>2016-07-13T12:02:05.000Z</time>
      </trkpt>
      <trkpt lat="44.52163" lon="6.23171">
        <ele>1303.1999511719</ele>
        <time>2016-07-13T12:02:08.000Z</time>
      </trkpt>
      <trkpt lat="44.52161" lon="6.23175">
        <ele>1303.1999511719</ele>
        <time>2016-07-13T12:02:12.000Z</time>
      </trkpt>
      <trkpt lat="44.52159" lon="6.23179">
        <ele>1303</ele>
        <time>2016-07-13T12:02:18.000Z</time>
      </trkpt>
      <trkpt lat="44.52159" lon="6.23178">
        <ele>1303</ele>
        <time>2016-07-13T12:02:28.000Z</time>
      </trkpt>
      <trkpt lat="44.52162" lon="6.23174">
        <ele>1303.1999511719</ele>
        <time>2016-07-13T12:02:32.000Z</time>
      </trkpt>
      <trkpt lat="44.52164" lon="6.23166">
        <ele>1303</ele>
        <time>2016-07-13T12:02:37.000Z</time>
      </trkpt>
      <trkpt lat="44.52166" lon="6.23163">
        <ele>1303.1999511719</ele>
        <time>2016-07-13T12:02:39.000Z</time>
      </trkpt>
      <trkpt lat="44.52168" lon="6.23156">
        <ele>1303.1999511719</ele>
        <time>2016-07-13T12:02:43.000Z</time>
      </trkpt>
      <trkpt lat="44.52171" lon="6.23149">
        <ele>1303.1999511719</ele>
        <time>2016-07-13T12:02:50.000Z</time>
      </trkpt>
      <trkpt lat="44.52174" lon="6.23144">
        <ele>1303.4000244141</ele>
        <time>2016-07-13T12:02:57.000Z</time>
      </trkpt>
      <trkpt lat="44.52178" lon="6.23128">
        <ele>1303.1999511719</ele>
        <time>2016-07-13T12:03:06.000Z</time>
      </trkpt>
      <trkpt lat="44.52179" lon="6.23124">
        <ele>1303</ele>
        <time>2016-07-13T12:03:08.000Z</time>
      </trkpt>
      <trkpt lat="44.52178" lon="6.23122">
        <ele>1302.8000488281</ele>
        <time>2016-07-13T12:03:10.000Z</time>
      </trkpt>
      <trkpt lat="44.52181" lon="6.23115">
        <ele>1302.4000244141</ele>
        <time>2016-07-13T12:03:15.000Z</time>
      </trkpt>
      <trkpt lat="44.52185" lon="6.23099">
        <ele>1301.5999755859</ele>
        <time>2016-07-13T12:03:24.000Z</time>
      </trkpt>
      <trkpt lat="44.52189" lon="6.23078">
        <ele>1300.5999755859</ele>
        <time>2016-07-13T12:03:35.000Z</time>
      </trkpt>
      <trkpt lat="44.52196" lon="6.23046">
        <ele>1299</ele>
        <time>2016-07-13T12:03:52.000Z</time>
      </trkpt>
      <trkpt lat="44.52199" lon="6.23028">
        <ele>1298.4000244141</ele>
        <time>2016-07-13T12:04:01.000Z</time>
      </trkpt>
      <trkpt lat="44.522" lon="6.23025">
        <ele>1298.1999511719</ele>
        <time>2016-07-13T12:04:03.000Z</time>
      </trkpt>
      <trkpt lat="44.52202" lon="6.23012">
        <ele>1297.8000488281</ele>
        <time>2016-07-13T12:04:10.000Z</time>
      </trkpt>
      <trkpt lat="44.52203" lon="6.23008">
        <ele>1297.5999755859</ele>
        <time>2016-07-13T12:04:12.000Z</time>
      </trkpt>
      <trkpt lat="44.52207" lon="6.22994">
        <ele>1297.1999511719</ele>
        <time>2016-07-13T12:04:20.000Z</time>
      </trkpt>
      <trkpt lat="44.52209" lon="6.22977">
        <ele>1295.5999755859</ele>
        <time>2016-07-13T12:04:29.000Z</time>
      </trkpt>
      <trkpt lat="44.52207" lon="6.22972">
        <ele>1295</ele>
        <time>2016-07-13T12:04:32.000Z</time>
      </trkpt>
      <trkpt lat="44.52195" lon="6.22969">
        <ele>1293.4000244141</ele>
        <time>2016-07-13T12:04:41.000Z</time>
      </trkpt>
      <trkpt lat="44.52187" lon="6.22963">
        <ele>1291.8000488281</ele>
        <time>2016-07-13T12:04:47.000Z</time>
      </trkpt>
      <trkpt lat="44.52181" lon="6.22958">
        <ele>1290.8000488281</ele>
        <time>2016-07-13T12:04:53.000Z</time>
      </trkpt>
      <trkpt lat="44.52177" lon="6.22951">
        <ele>1289.5999755859</ele>
        <time>2016-07-13T12:05:07.000Z</time>
      </trkpt>
      <trkpt lat="44.5217" lon="6.22943">
        <ele>1287.8000488281</ele>
        <time>2016-07-13T12:05:14.000Z</time>
      </trkpt>
      <trkpt lat="44.52159" lon="6.22931">
        <ele>1285.4000244141</ele>
        <time>2016-07-13T12:05:24.000Z</time>
      </trkpt>
      <trkpt lat="44.52157" lon="6.2293">
        <ele>1285.1999511719</ele>
        <time>2016-07-13T12:05:30.000Z</time>
      </trkpt>
      <trkpt lat="44.52158" lon="6.2293">
        <ele>1285.1999511719</ele>
        <time>2016-07-13T12:05:39.000Z</time>
      </trkpt>
      <trkpt lat="44.52156" lon="6.2293">
        <ele>1285</ele>
        <time>2016-07-13T12:05:49.000Z</time>
      </trkpt>
      <trkpt lat="44.52152" lon="6.22925">
        <ele>1284</ele>
        <time>2016-07-13T12:05:54.000Z</time>
      </trkpt>
      <trkpt lat="44.52141" lon="6.22917">
        <ele>1282</ele>
        <time>2016-07-13T12:06:03.000Z</time>
      </trkpt>
      <trkpt lat="44.5213" lon="6.22911">
        <ele>1279.8000488281</ele>
        <time>2016-07-13T12:06:11.000Z</time>
      </trkpt>
      <trkpt lat="44.52127" lon="6.22909">
        <ele>1279.1999511719</ele>
        <time>2016-07-13T12:06:13.000Z</time>
      </trkpt>
      <trkpt lat="44.52118" lon="6.22905">
        <ele>1277.1999511719</ele>
        <time>2016-07-13T12:06:20.000Z</time>
      </trkpt>
      <trkpt lat="44.5211" lon="6.22897">
        <ele>1275.4000244141</ele>
        <time>2016-07-13T12:06:27.000Z</time>
      </trkpt>
      <trkpt lat="44.52101" lon="6.22884">
        <ele>1272.5999755859</ele>
        <time>2016-07-13T12:06:37.000Z</time>
      </trkpt>
      <trkpt lat="44.52096" lon="6.22877">
        <ele>1271</ele>
        <time>2016-07-13T12:06:43.000Z</time>
      </trkpt>
      <trkpt lat="44.52087" lon="6.22867">
        <ele>1268.5999755859</ele>
        <time>2016-07-13T12:06:51.000Z</time>
      </trkpt>
      <trkpt lat="44.5208" lon="6.22858">
        <ele>1266.1999511719</ele>
        <time>2016-07-13T12:06:59.000Z</time>
      </trkpt>
      <trkpt lat="44.5208" lon="6.22856">
        <ele>1266</ele>
        <time>2016-07-13T12:07:00.000Z</time>
      </trkpt>
      <trkpt lat="44.52081" lon="6.22852">
        <ele>1266</ele>
        <time>2016-07-13T12:07:03.000Z</time>
      </trkpt>
      <trkpt lat="44.52077" lon="6.22851">
        <ele>1265.1999511719</ele>
        <time>2016-07-13T12:07:07.000Z</time>
      </trkpt>
      <trkpt lat="44.52069" lon="6.22846">
        <ele>1263</ele>
        <time>2016-07-13T12:07:14.000Z</time>
      </trkpt>
      <trkpt lat="44.52065" lon="6.22834">
        <ele>1261.4000244141</ele>
        <time>2016-07-13T12:07:21.000Z</time>
      </trkpt>
      <trkpt lat="44.52065" lon="6.22832">
        <ele>1261.4000244141</ele>
        <time>2016-07-13T12:07:22.000Z</time>
      </trkpt>
      <trkpt lat="44.52073" lon="6.22824">
        <ele>1262.8000488281</ele>
        <time>2016-07-13T12:07:30.000Z</time>
      </trkpt>
      <trkpt lat="44.52083" lon="6.2282">
        <ele>1264.8000488281</ele>
        <time>2016-07-13T12:07:38.000Z</time>
      </trkpt>
      <trkpt lat="44.52094" lon="6.22815">
        <ele>1267</ele>
        <time>2016-07-13T12:07:47.000Z</time>
      </trkpt>
      <trkpt lat="44.52105" lon="6.2281">
        <ele>1269</ele>
        <time>2016-07-13T12:07:56.000Z</time>
      </trkpt>
      <trkpt lat="44.52116" lon="6.22808">
        <ele>1271</ele>
        <time>2016-07-13T12:08:04.000Z</time>
      </trkpt>
      <trkpt lat="44.52126" lon="6.22805">
        <ele>1270.4000244141</ele>
        <time>2016-07-13T12:08:12.000Z</time>
      </trkpt>
      <trkpt lat="44.52135" lon="6.228">
        <ele>1269.4000244141</ele>
        <time>2016-07-13T12:08:19.000Z</time>
      </trkpt>
      <trkpt lat="44.52157" lon="6.22784">
        <ele>1266</ele>
        <time>2016-07-13T12:08:41.000Z</time>
      </trkpt>
      <trkpt lat="44.52157" lon="6.22785">
        <ele>1266</ele>
        <time>2016-07-13T12:08:50.000Z</time>
      </trkpt>
      <trkpt lat="44.52162" lon="6.22783">
        <ele>1265.5999755859</ele>
        <time>2016-07-13T12:08:59.000Z</time>
      </trkpt>
      <trkpt lat="44.52169" lon="6.22781">
        <ele>1265.1999511719</ele>
        <time>2016-07-13T12:09:04.000Z</time>
      </trkpt>
      <trkpt lat="44.52176" lon="6.2278">
        <ele>1264.5999755859</ele>
        <time>2016-07-13T12:09:10.000Z</time>
      </trkpt>
      <trkpt lat="44.52187" lon="6.2278">
        <ele>1264</ele>
        <time>2016-07-13T12:09:18.000Z</time>
      </trkpt>
      <trkpt lat="44.52194" lon="6.22783">
        <ele>1264.4000244141</ele>
        <time>2016-07-13T12:09:24.000Z</time>
      </trkpt>
      <trkpt lat="44.52207" lon="6.22788">
        <ele>1264</ele>
        <time>2016-07-13T12:09:36.000Z</time>
      </trkpt>
      <trkpt lat="44.52217" lon="6.22794">
        <ele>1263.5999755859</ele>
        <time>2016-07-13T12:09:44.000Z</time>
      </trkpt>
      <trkpt lat="44.52227" lon="6.22799">
        <ele>1263</ele>
        <time>2016-07-13T12:09:52.000Z</time>
      </trkpt>
      <trkpt lat="44.52235" lon="6.22804">
        <ele>1262.4000244141</ele>
        <time>2016-07-13T12:09:59.000Z</time>
      </trkpt>
      <trkpt lat="44.52246" lon="6.22808">
        <ele>1261.5999755859</ele>
        <time>2016-07-13T12:10:07.000Z</time>
      </trkpt>
      <trkpt lat="44.52256" lon="6.22811">
        <ele>1260.4000244141</ele>
        <time>2016-07-13T12:10:15.000Z</time>
      </trkpt>
      <trkpt lat="44.52269" lon="6.22811">
        <ele>1258.1999511719</ele>
        <time>2016-07-13T12:10:24.000Z</time>
      </trkpt>
      <trkpt lat="44.52279" lon="6.22808">
        <ele>1256</ele>
        <time>2016-07-13T12:10:31.000Z</time>
      </trkpt>
      <trkpt lat="44.52288" lon="6.22803">
        <ele>1253.5999755859</ele>
        <time>2016-07-13T12:10:38.000Z</time>
      </trkpt>
      <trkpt lat="44.52297" lon="6.22799">
        <ele>1251.8000488281</ele>
        <time>2016-07-13T12:10:45.000Z</time>
      </trkpt>
      <trkpt lat="44.52308" lon="6.22794">
        <ele>1249.8000488281</ele>
        <time>2016-07-13T12:10:53.000Z</time>
      </trkpt>
      <trkpt lat="44.52316" lon="6.22789">
        <ele>1248.1999511719</ele>
        <time>2016-07-13T12:10:59.000Z</time>
      </trkpt>
      <trkpt lat="44.52321" lon="6.22787">
        <ele>1247.1999511719</ele>
        <time>2016-07-13T12:11:05.000Z</time>
      </trkpt>
      <trkpt lat="44.52322" lon="6.22786">
        <ele>1247</ele>
        <time>2016-07-13T12:11:07.000Z</time>
      </trkpt>
      <trkpt lat="44.52331" lon="6.2278">
        <ele>1245</ele>
        <time>2016-07-13T12:11:15.000Z</time>
      </trkpt>
      <trkpt lat="44.52334" lon="6.22776">
        <ele>1244</ele>
        <time>2016-07-13T12:11:19.000Z</time>
      </trkpt>
      <trkpt lat="44.52341" lon="6.22768">
        <ele>1242.8000488281</ele>
        <time>2016-07-13T12:11:26.000Z</time>
      </trkpt>
      <trkpt lat="44.52342" lon="6.22768">
        <ele>1242.8000488281</ele>
        <time>2016-07-13T12:11:27.000Z</time>
      </trkpt>
      <trkpt lat="44.52346" lon="6.2276">
        <ele>1241.5999755859</ele>
        <time>2016-07-13T12:11:32.000Z</time>
      </trkpt>
      <trkpt lat="44.52352" lon="6.22748">
        <ele>1239.8000488281</ele>
        <time>2016-07-13T12:11:40.000Z</time>
      </trkpt>
      <trkpt lat="44.52353" lon="6.22736">
        <ele>1237.8000488281</ele>
        <time>2016-07-13T12:11:47.000Z</time>
      </trkpt>
      <trkpt lat="44.52354" lon="6.2273">
        <ele>1237</ele>
        <time>2016-07-13T12:11:50.000Z</time>
      </trkpt>
      <trkpt lat="44.52356" lon="6.22728">
        <ele>1236.8000488281</ele>
        <time>2016-07-13T12:11:52.000Z</time>
      </trkpt>
      <trkpt lat="44.52357" lon="6.22725">
        <ele>1236.4000244141</ele>
        <time>2016-07-13T12:12:02.000Z</time>
      </trkpt>
      <trkpt lat="44.52356" lon="6.2272">
        <ele>1235.5999755859</ele>
        <time>2016-07-13T12:12:07.000Z</time>
      </trkpt>
      <trkpt lat="44.52357" lon="6.22721">
        <ele>1235.8000488281</ele>
        <time>2016-07-13T12:12:14.000Z</time>
      </trkpt>
      <trkpt lat="44.52356" lon="6.22718">
        <ele>1235.4000244141</ele>
        <time>2016-07-13T12:12:20.000Z</time>
      </trkpt>
      <trkpt lat="44.5236" lon="6.22711">
        <ele>1234.5999755859</ele>
        <time>2016-07-13T12:12:25.000Z</time>
      </trkpt>
      <trkpt lat="44.52361" lon="6.22711">
        <ele>1234.5999755859</ele>
        <time>2016-07-13T12:12:26.000Z</time>
      </trkpt>
      <trkpt lat="44.52362" lon="6.22711">
        <ele>1234.5999755859</ele>
        <time>2016-07-13T12:12:28.000Z</time>
      </trkpt>
      <trkpt lat="44.52364" lon="6.22708">
        <ele>1234.4000244141</ele>
        <time>2016-07-13T12:12:36.000Z</time>
      </trkpt>
      <trkpt lat="44.5236" lon="6.22703">
        <ele>1233.5999755859</ele>
        <time>2016-07-13T12:12:51.000Z</time>
      </trkpt>
      <trkpt lat="44.52356" lon="6.22694">
        <ele>1232.4000244141</ele>
        <time>2016-07-13T12:12:58.000Z</time>
      </trkpt>
      <trkpt lat="44.52354" lon="6.22682">
        <ele>1230.8000488281</ele>
        <time>2016-07-13T12:13:05.000Z</time>
      </trkpt>
      <trkpt lat="44.52353" lon="6.2267">
        <ele>1229.4000244141</ele>
        <time>2016-07-13T12:13:12.000Z</time>
      </trkpt>
      <trkpt lat="44.5235" lon="6.22661">
        <ele>1228.1999511719</ele>
        <time>2016-07-13T12:13:19.000Z</time>
      </trkpt>
      <trkpt lat="44.5235" lon="6.2266">
        <ele>1228.1999511719</ele>
        <time>2016-07-13T12:13:20.000Z</time>
      </trkpt>
      <trkpt lat="44.52348" lon="6.22654">
        <ele>1227.4000244141</ele>
        <time>2016-07-13T12:13:26.000Z</time>
      </trkpt>
      <trkpt lat="44.5235" lon="6.22661">
        <ele>1228.1999511719</ele>
        <time>2016-07-13T12:13:34.000Z</time>
      </trkpt>
      <trkpt lat="44.52352" lon="6.2267">
        <ele>1229.4000244141</ele>
        <time>2016-07-13T12:13:40.000Z</time>
      </trkpt>
      <trkpt lat="44.52352" lon="6.22683">
        <ele>1231</ele>
        <time>2016-07-13T12:13:48.000Z</time>
      </trkpt>
      <trkpt lat="44.52354" lon="6.22695">
        <ele>1232.4000244141</ele>
        <time>2016-07-13T12:13:55.000Z</time>
      </trkpt>
      <trkpt lat="44.52354" lon="6.22696">
        <ele>1232.5999755859</ele>
        <time>2016-07-13T12:13:56.000Z</time>
      </trkpt>
      <trkpt lat="44.52357" lon="6.227">
        <ele>1233.1999511719</ele>
        <time>2016-07-13T12:14:00.000Z</time>
      </trkpt>
      <trkpt lat="44.52361" lon="6.22703">
        <ele>1233.5999755859</ele>
        <time>2016-07-13T12:14:07.000Z</time>
      </trkpt>
      <trkpt lat="44.52363" lon="6.227">
        <ele>1233.4000244141</ele>
        <time>2016-07-13T12:14:14.000Z</time>
      </trkpt>
      <trkpt lat="44.52359" lon="6.22698">
        <ele>1233</ele>
        <time>2016-07-13T12:14:22.000Z</time>
      </trkpt>
      <trkpt lat="44.52358" lon="6.22697">
        <ele>1233</ele>
        <time>2016-07-13T12:14:23.000Z</time>
      </trkpt>
      <trkpt lat="44.52357" lon="6.22696">
        <ele>1232.5999755859</ele>
        <time>2016-07-13T12:14:28.000Z</time>
      </trkpt>
      <trkpt lat="44.52355" lon="6.22697">
        <ele>1232.8000488281</ele>
        <time>2016-07-13T12:14:40.000Z</time>
      </trkpt>
      <trkpt lat="44.52355" lon="6.22692">
        <ele>1232.1999511719</ele>
        <time>2016-07-13T12:15:27.000Z</time>
      </trkpt>
      <trkpt lat="44.52355" lon="6.22693">
        <ele>1232.4000244141</ele>
        <time>2016-07-13T12:15:33.000Z</time>
      </trkpt>
      <trkpt lat="44.52358" lon="6.22701">
        <ele>1233.4000244141</ele>
        <time>2016-07-13T12:16:34.000Z</time>
      </trkpt>
      <trkpt lat="44.52359" lon="6.22702">
        <ele>1233.4000244141</ele>
        <time>2016-07-13T12:16:41.000Z</time>
      </trkpt>
      <trkpt lat="44.52357" lon="6.22699">
        <ele>1233</ele>
        <time>2016-07-13T12:17:09.000Z</time>
      </trkpt>
      <trkpt lat="44.52354" lon="6.22692">
        <ele>1232.1999511719</ele>
        <time>2016-07-13T12:17:17.000Z</time>
      </trkpt>
      <trkpt lat="44.52353" lon="6.22693">
        <ele>1232.1999511719</ele>
        <time>2016-07-13T12:17:31.000Z</time>
      </trkpt>
      <trkpt lat="44.52353" lon="6.22689">
        <ele>1231.5999755859</ele>
        <time>2016-07-13T12:19:37.000Z</time>
      </trkpt>
      <trkpt lat="44.52353" lon="6.22688">
        <ele>1231.5999755859</ele>
        <time>2016-07-13T12:19:56.000Z</time>
      </trkpt>
      <trkpt lat="44.52352" lon="6.22692">
        <ele>1232</ele>
        <time>2016-07-13T12:20:02.000Z</time>
      </trkpt>
      <trkpt lat="44.52352" lon="6.22696">
        <ele>1232.5999755859</ele>
        <time>2016-07-13T12:20:05.000Z</time>
      </trkpt>
      <trkpt lat="44.52352" lon="6.22707">
        <ele>1233.8000488281</ele>
        <time>2016-07-13T12:20:12.000Z</time>
      </trkpt>
      <trkpt lat="44.52353" lon="6.22716">
        <ele>1235</ele>
        <time>2016-07-13T12:20:18.000Z</time>
      </trkpt>
      <trkpt lat="44.52354" lon="6.22717">
        <ele>1235.1999511719</ele>
        <time>2016-07-13T12:20:26.000Z</time>
      </trkpt>
      <trkpt lat="44.52354" lon="6.22714">
        <ele>1234.8000488281</ele>
        <time>2016-07-13T12:20:46.000Z</time>
      </trkpt>
      <trkpt lat="44.52352" lon="6.22705">
        <ele>1233.5999755859</ele>
        <time>2016-07-13T12:20:52.000Z</time>
      </trkpt>
      <trkpt lat="44.52353" lon="6.22698">
        <ele>1232.8000488281</ele>
        <time>2016-07-13T12:20:56.000Z</time>
      </trkpt>
      <trkpt lat="44.52353" lon="6.22688">
        <ele>1231.5999755859</ele>
        <time>2016-07-13T12:21:02.000Z</time>
      </trkpt>
      <trkpt lat="44.52348" lon="6.22682">
        <ele>1230.8000488281</ele>
        <time>2016-07-13T12:21:08.000Z</time>
      </trkpt>
      <trkpt lat="44.52343" lon="6.22679">
        <ele>1230.1999511719</ele>
        <time>2016-07-13T12:21:13.000Z</time>
      </trkpt>
      <trkpt lat="44.5234" lon="6.22678">
        <ele>1230</ele>
        <time>2016-07-13T12:21:19.000Z</time>
      </trkpt>
      <trkpt lat="44.52342" lon="6.22678">
        <ele>1230</ele>
        <time>2016-07-13T12:21:44.000Z</time>
      </trkpt>
      <trkpt lat="44.52344" lon="6.22672">
        <ele>1229.4000244141</ele>
        <time>2016-07-13T12:21:48.000Z</time>
      </trkpt>
      <trkpt lat="44.52344" lon="6.2267">
        <ele>1229</ele>
        <time>2016-07-13T12:21:50.000Z</time>
      </trkpt>
      <trkpt lat="44.52344" lon="6.22667">
        <ele>1228.8000488281</ele>
        <time>2016-07-13T12:21:54.000Z</time>
      </trkpt>
      <trkpt lat="44.52342" lon="6.22671">
        <ele>1229.1999511719</ele>
        <time>2016-07-13T12:22:03.000Z</time>
      </trkpt>
      <trkpt lat="44.52347" lon="6.22673">
        <ele>1229.5999755859</ele>
        <time>2016-07-13T12:22:07.000Z</time>
      </trkpt>
      <trkpt lat="44.5235" lon="6.22682">
        <ele>1230.8000488281</ele>
        <time>2016-07-13T12:22:13.000Z</time>
      </trkpt>
      <trkpt lat="44.52354" lon="6.22687">
        <ele>1231.5999755859</ele>
        <time>2016-07-13T12:22:20.000Z</time>
      </trkpt>
      <trkpt lat="44.52353" lon="6.22686">
        <ele>1231.4000244141</ele>
        <time>2016-07-13T12:22:26.000Z</time>
      </trkpt>
      <trkpt lat="44.52353" lon="6.22684">
        <ele>1231.1999511719</ele>
        <time>2016-07-13T12:22:28.000Z</time>
      </trkpt>
      <trkpt lat="44.52348" lon="6.22672">
        <ele>1229.4000244141</ele>
        <time>2016-07-13T12:22:36.000Z</time>
      </trkpt>
      <trkpt lat="44.52347" lon="6.22661">
        <ele>1228.1999511719</ele>
        <time>2016-07-13T12:22:42.000Z</time>
      </trkpt>
      <trkpt lat="44.52346" lon="6.22659">
        <ele>1228</ele>
        <time>2016-07-13T12:22:43.000Z</time>
      </trkpt>
      <trkpt lat="44.52343" lon="6.2265">
        <ele>1226.8000488281</ele>
        <time>2016-07-13T12:22:51.000Z</time>
      </trkpt>
      <trkpt lat="44.52341" lon="6.22648">
        <ele>1226.4000244141</ele>
        <time>2016-07-13T12:23:06.000Z</time>
      </trkpt>
      <trkpt lat="44.52334" lon="6.22635">
        <ele>1224.5999755859</ele>
        <time>2016-07-13T12:23:16.000Z</time>
      </trkpt>
      <trkpt lat="44.52325" lon="6.22623">
        <ele>1223.1999511719</ele>
        <time>2016-07-13T12:23:26.000Z</time>
      </trkpt>
      <trkpt lat="44.52317" lon="6.22615">
        <ele>1222</ele>
        <time>2016-07-13T12:23:34.000Z</time>
      </trkpt>
      <trkpt lat="44.52309" lon="6.22603">
        <ele>1220.4000244141</ele>
        <time>2016-07-13T12:23:43.000Z</time>
      </trkpt>
      <trkpt lat="44.52302" lon="6.2259">
        <ele>1218.5999755859</ele>
        <time>2016-07-13T12:23:52.000Z</time>
      </trkpt>
      <trkpt lat="44.52301" lon="6.22589">
        <ele>1218.4000244141</ele>
        <time>2016-07-13T12:23:53.000Z</time>
      </trkpt>
      <trkpt lat="44.523" lon="6.22587">
        <ele>1218.1999511719</ele>
        <time>2016-07-13T12:23:58.000Z</time>
      </trkpt>
      <trkpt lat="44.52301" lon="6.22587">
        <ele>1218.4000244141</ele>
        <time>2016-07-13T12:24:03.000Z</time>
      </trkpt>
      <trkpt lat="44.52299" lon="6.22575">
        <ele>1217</ele>
        <time>2016-07-13T12:24:54.000Z</time>
      </trkpt>
      <trkpt lat="44.52296" lon="6.22558">
        <ele>1214.8000488281</ele>
        <time>2016-07-13T12:25:04.000Z</time>
      </trkpt>
      <trkpt lat="44.5229" lon="6.22539">
        <ele>1212</ele>
        <time>2016-07-13T12:25:15.000Z</time>
      </trkpt>
      <trkpt lat="44.52285" lon="6.22524">
        <ele>1209.5999755859</ele>
        <time>2016-07-13T12:25:24.000Z</time>
      </trkpt>
      <trkpt lat="44.52281" lon="6.22511">
        <ele>1207.1999511719</ele>
        <time>2016-07-13T12:25:32.000Z</time>
      </trkpt>
      <trkpt lat="44.52277" lon="6.22492">
        <ele>1204</ele>
        <time>2016-07-13T12:25:43.000Z</time>
      </trkpt>
      <trkpt lat="44.52276" lon="6.22483">
        <ele>1202.5999755859</ele>
        <time>2016-07-13T12:25:48.000Z</time>
      </trkpt>
      <trkpt lat="44.52278" lon="6.22472">
        <ele>1200</ele>
        <time>2016-07-13T12:25:54.000Z</time>
      </trkpt>
      <trkpt lat="44.52285" lon="6.22458">
        <ele>1198.4000244141</ele>
        <time>2016-07-13T12:26:03.000Z</time>
      </trkpt>
      <trkpt lat="44.52292" lon="6.22447">
        <ele>1196.4000244141</ele>
        <time>2016-07-13T12:26:11.000Z</time>
      </trkpt>
      <trkpt lat="44.52296" lon="6.22442">
        <ele>1195.5999755859</ele>
        <time>2016-07-13T12:26:16.000Z</time>
      </trkpt>
      <trkpt lat="44.52302" lon="6.22436">
        <ele>1194.5999755859</ele>
        <time>2016-07-13T12:26:22.000Z</time>
      </trkpt>
      <trkpt lat="44.52304" lon="6.22435">
        <ele>1194.4000244141</ele>
        <time>2016-07-13T12:26:23.000Z</time>
      </trkpt>
      <trkpt lat="44.52317" lon="6.22424">
        <ele>1193.4000244141</ele>
        <time>2016-07-13T12:26:34.000Z</time>
      </trkpt>
      <trkpt lat="44.52324" lon="6.22415">
        <ele>1194</ele>
        <time>2016-07-13T12:26:41.000Z</time>
      </trkpt>
      <trkpt lat="44.52325" lon="6.22414">
        <ele>1194.1999511719</ele>
        <time>2016-07-13T12:26:42.000Z</time>
      </trkpt>
      <trkpt lat="44.52332" lon="6.22403">
        <ele>1194.4000244141</ele>
        <time>2016-07-13T12:26:49.000Z</time>
      </trkpt>
      <trkpt lat="44.52337" lon="6.22392">
        <ele>1193.5999755859</ele>
        <time>2016-07-13T12:26:56.000Z</time>
      </trkpt>
      <trkpt lat="44.52339" lon="6.22378">
        <ele>1189.5999755859</ele>
        <time>2016-07-13T12:27:04.000Z</time>
      </trkpt>
      <trkpt lat="44.52343" lon="6.22366">
        <ele>1187.1999511719</ele>
        <time>2016-07-13T12:27:12.000Z</time>
      </trkpt>
      <trkpt lat="44.52353" lon="6.22356">
        <ele>1188.5999755859</ele>
        <time>2016-07-13T12:27:22.000Z</time>
      </trkpt>
      <trkpt lat="44.52363" lon="6.22353">
        <ele>1191.4000244141</ele>
        <time>2016-07-13T12:27:30.000Z</time>
      </trkpt>
      <trkpt lat="44.52364" lon="6.22353">
        <ele>1191.8000488281</ele>
        <time>2016-07-13T12:27:31.000Z</time>
      </trkpt>
      <trkpt lat="44.52374" lon="6.2235">
        <ele>1191.1999511719</ele>
        <time>2016-07-13T12:27:39.000Z</time>
      </trkpt>
      <trkpt lat="44.52384" lon="6.22349">
        <ele>1189.8000488281</ele>
        <time>2016-07-13T12:27:47.000Z</time>
      </trkpt>
      <trkpt lat="44.52391" lon="6.22346">
        <ele>1188.1999511719</ele>
        <time>2016-07-13T12:27:53.000Z</time>
      </trkpt>
      <trkpt lat="44.52395" lon="6.22343">
        <ele>1187.1999511719</ele>
        <time>2016-07-13T12:27:57.000Z</time>
      </trkpt>
      <trkpt lat="44.52401" lon="6.22338">
        <ele>1186.4000244141</ele>
        <time>2016-07-13T12:28:03.000Z</time>
      </trkpt>
      <trkpt lat="44.52405" lon="6.22336">
        <ele>1186.1999511719</ele>
        <time>2016-07-13T12:28:08.000Z</time>
      </trkpt>
      <trkpt lat="44.52408" lon="6.22334">
        <ele>1185.8000488281</ele>
        <time>2016-07-13T12:28:14.000Z</time>
      </trkpt>
      <trkpt lat="44.52409" lon="6.22334">
        <ele>1185.8000488281</ele>
        <time>2016-07-13T12:28:15.000Z</time>
      </trkpt>
      <trkpt lat="44.52414" lon="6.22331">
        <ele>1185.4000244141</ele>
        <time>2016-07-13T12:28:21.000Z</time>
      </trkpt>
      <trkpt lat="44.52422" lon="6.22326">
        <ele>1184.8000488281</ele>
        <time>2016-07-13T12:28:29.000Z</time>
      </trkpt>
      <trkpt lat="44.52425" lon="6.22321">
        <ele>1184.4000244141</ele>
        <time>2016-07-13T12:28:34.000Z</time>
      </trkpt>
      <trkpt lat="44.52427" lon="6.22319">
        <ele>1184.1999511719</ele>
        <time>2016-07-13T12:28:38.000Z</time>
      </trkpt>
      <trkpt lat="44.52434" lon="6.22314">
        <ele>1183.5999755859</ele>
        <time>2016-07-13T12:28:45.000Z</time>
      </trkpt>
      <trkpt lat="44.52439" lon="6.22311">
        <ele>1183</ele>
        <time>2016-07-13T12:28:50.000Z</time>
      </trkpt>
      <trkpt lat="44.52442" lon="6.22309">
        <ele>1182.4000244141</ele>
        <time>2016-07-13T12:28:54.000Z</time>
      </trkpt>
      <trkpt lat="44.52447" lon="6.22306">
        <ele>1182</ele>
        <time>2016-07-13T12:28:58.000Z</time>
      </trkpt>
      <trkpt lat="44.52453" lon="6.22302">
        <ele>1181.4000244141</ele>
        <time>2016-07-13T12:29:04.000Z</time>
      </trkpt>
      <trkpt lat="44.52456" lon="6.223">
        <ele>1180.5999755859</ele>
        <time>2016-07-13T12:29:07.000Z</time>
      </trkpt>
      <trkpt lat="44.52459" lon="6.22297">
        <ele>1179.8000488281</ele>
        <time>2016-07-13T12:29:10.000Z</time>
      </trkpt>
      <trkpt lat="44.52466" lon="6.22293">
        <ele>1178</ele>
        <time>2016-07-13T12:29:17.000Z</time>
      </trkpt>
      <trkpt lat="44.5247" lon="6.22291">
        <ele>1177.1999511719</ele>
        <time>2016-07-13T12:29:21.000Z</time>
      </trkpt>
      <trkpt lat="44.52479" lon="6.2229">
        <ele>1175.5999755859</ele>
        <time>2016-07-13T12:29:27.000Z</time>
      </trkpt>
      <trkpt lat="44.52479" lon="6.22289">
        <ele>1175.4000244141</ele>
        <time>2016-07-13T12:29:28.000Z</time>
      </trkpt>
      <trkpt lat="44.52485" lon="6.22287">
        <ele>1174.1999511719</ele>
        <time>2016-07-13T12:29:33.000Z</time>
      </trkpt>
      <trkpt lat="44.52486" lon="6.22288">
        <ele>1174.1999511719</ele>
        <time>2016-07-13T12:29:34.000Z</time>
      </trkpt>
      <trkpt lat="44.52493" lon="6.22291">
        <ele>1173.4000244141</ele>
        <time>2016-07-13T12:29:38.000Z</time>
      </trkpt>
      <trkpt lat="44.52494" lon="6.22291">
        <ele>1173</ele>
        <time>2016-07-13T12:29:40.000Z</time>
      </trkpt>
      <trkpt lat="44.52499" lon="6.22293">
        <ele>1172.5999755859</ele>
        <time>2016-07-13T12:29:44.000Z</time>
      </trkpt>
      <trkpt lat="44.52505" lon="6.22295">
        <ele>1171.8000488281</ele>
        <time>2016-07-13T12:29:50.000Z</time>
      </trkpt>
      <trkpt lat="44.52506" lon="6.22296">
        <ele>1171.5999755859</ele>
        <time>2016-07-13T12:29:51.000Z</time>
      </trkpt>
      <trkpt lat="44.5251" lon="6.22296">
        <ele>1171</ele>
        <time>2016-07-13T12:29:55.000Z</time>
      </trkpt>
      <trkpt lat="44.52512" lon="6.22296">
        <ele>1170.8000488281</ele>
        <time>2016-07-13T12:29:57.000Z</time>
      </trkpt>
      <trkpt lat="44.52519" lon="6.22299">
        <ele>1169.8000488281</ele>
        <time>2016-07-13T12:30:04.000Z</time>
      </trkpt>
      <trkpt lat="44.5252" lon="6.22299">
        <ele>1169.8000488281</ele>
        <time>2016-07-13T12:30:05.000Z</time>
      </trkpt>
      <trkpt lat="44.52521" lon="6.223">
        <ele>1169.5999755859</ele>
        <time>2016-07-13T12:30:06.000Z</time>
      </trkpt>
      <trkpt lat="44.52526" lon="6.22301">
        <ele>1168.8000488281</ele>
        <time>2016-07-13T12:30:10.000Z</time>
      </trkpt>
      <trkpt lat="44.52537" lon="6.22306">
        <ele>1167</ele>
        <time>2016-07-13T12:30:21.000Z</time>
      </trkpt>
      <trkpt lat="44.52539" lon="6.22307">
        <ele>1166.5999755859</ele>
        <time>2016-07-13T12:30:23.000Z</time>
      </trkpt>
      <trkpt lat="44.52545" lon="6.22309">
        <ele>1165</ele>
        <time>2016-07-13T12:30:28.000Z</time>
      </trkpt>
      <trkpt lat="44.5255" lon="6.22309">
        <ele>1163.4000244141</ele>
        <time>2016-07-13T12:30:34.000Z</time>
      </trkpt>
      <trkpt lat="44.52556" lon="6.22314">
        <ele>1162.1999511719</ele>
        <time>2016-07-13T12:30:40.000Z</time>
      </trkpt>
      <trkpt lat="44.52562" lon="6.22317">
        <ele>1161</ele>
        <time>2016-07-13T12:30:44.000Z</time>
      </trkpt>
      <trkpt lat="44.52563" lon="6.22318">
        <ele>1160.8000488281</ele>
        <time>2016-07-13T12:30:45.000Z</time>
      </trkpt>
      <trkpt lat="44.52566" lon="6.22318">
        <ele>1160</ele>
        <time>2016-07-13T12:30:47.000Z</time>
      </trkpt>
      <trkpt lat="44.52571" lon="6.22317">
        <ele>1158.1999511719</ele>
        <time>2016-07-13T12:30:53.000Z</time>
      </trkpt>
      <trkpt lat="44.52577" lon="6.22313">
        <ele>1155.5999755859</ele>
        <time>2016-07-13T12:30:59.000Z</time>
      </trkpt>
      <trkpt lat="44.52581" lon="6.22311">
        <ele>1154</ele>
        <time>2016-07-13T12:31:03.000Z</time>
      </trkpt>
      <trkpt lat="44.52585" lon="6.22311">
        <ele>1152.8000488281</ele>
        <time>2016-07-13T12:31:07.000Z</time>
      </trkpt>
      <trkpt lat="44.5259" lon="6.22309">
        <ele>1150.8000488281</ele>
        <time>2016-07-13T12:31:12.000Z</time>
      </trkpt>
      <trkpt lat="44.52592" lon="6.22308">
        <ele>1150</ele>
        <time>2016-07-13T12:31:14.000Z</time>
      </trkpt>
      <trkpt lat="44.52598" lon="6.22307">
        <ele>1147.8000488281</ele>
        <time>2016-07-13T12:31:19.000Z</time>
      </trkpt>
      <trkpt lat="44.52602" lon="6.22307">
        <ele>1146.8000488281</ele>
        <time>2016-07-13T12:31:22.000Z</time>
      </trkpt>
      <trkpt lat="44.52605" lon="6.22307">
        <ele>1145.8000488281</ele>
        <time>2016-07-13T12:31:25.000Z</time>
      </trkpt>
      <trkpt lat="44.52612" lon="6.22305">
        <ele>1143.4000244141</ele>
        <time>2016-07-13T12:31:36.000Z</time>
      </trkpt>
      <trkpt lat="44.52613" lon="6.22305">
        <ele>1143</ele>
        <time>2016-07-13T12:31:37.000Z</time>
      </trkpt>
      <trkpt lat="44.52623" lon="6.22305">
        <ele>1140</ele>
        <time>2016-07-13T12:31:44.000Z</time>
      </trkpt>
      <trkpt lat="44.52627" lon="6.22303">
        <ele>1138.5999755859</ele>
        <time>2016-07-13T12:31:47.000Z</time>
      </trkpt>
      <trkpt lat="44.52629" lon="6.22302">
        <ele>1137.8000488281</ele>
        <time>2016-07-13T12:31:49.000Z</time>
      </trkpt>
      <trkpt lat="44.52636" lon="6.22304">
        <ele>1135.8000488281</ele>
        <time>2016-07-13T12:31:55.000Z</time>
      </trkpt>
      <trkpt lat="44.5264" lon="6.22306">
        <ele>1134.8000488281</ele>
        <time>2016-07-13T12:31:58.000Z</time>
      </trkpt>
      <trkpt lat="44.52642" lon="6.22306">
        <ele>1134.4000244141</ele>
        <time>2016-07-13T12:32:00.000Z</time>
      </trkpt>
      <trkpt lat="44.52646" lon="6.22306">
        <ele>1133</ele>
        <time>2016-07-13T12:32:03.000Z</time>
      </trkpt>
      <trkpt lat="44.52655" lon="6.22307">
        <ele>1130.1999511719</ele>
        <time>2016-07-13T12:32:09.000Z</time>
      </trkpt>
      <trkpt lat="44.52657" lon="6.22307">
        <ele>1129.8000488281</ele>
        <time>2016-07-13T12:32:10.000Z</time>
      </trkpt>
      <trkpt lat="44.52662" lon="6.22309">
        <ele>1128.4000244141</ele>
        <time>2016-07-13T12:32:14.000Z</time>
      </trkpt>
      <trkpt lat="44.52671" lon="6.22307">
        <ele>1125.4000244141</ele>
        <time>2016-07-13T12:32:21.000Z</time>
      </trkpt>
      <trkpt lat="44.52675" lon="6.22307">
        <ele>1124.1999511719</ele>
        <time>2016-07-13T12:32:24.000Z</time>
      </trkpt>
      <trkpt lat="44.52683" lon="6.22305">
        <ele>1121.4000244141</ele>
        <time>2016-07-13T12:32:31.000Z</time>
      </trkpt>
      <trkpt lat="44.5269" lon="6.22302">
        <ele>1118.8000488281</ele>
        <time>2016-07-13T12:32:37.000Z</time>
      </trkpt>
      <trkpt lat="44.52694" lon="6.22301">
        <ele>1117.4000244141</ele>
        <time>2016-07-13T12:32:43.000Z</time>
      </trkpt>
      <trkpt lat="44.52693" lon="6.22301">
        <ele>1117.8000488281</ele>
        <time>2016-07-13T12:33:10.000Z</time>
      </trkpt>
      <trkpt lat="44.52693" lon="6.223">
        <ele>1117.8000488281</ele>
        <time>2016-07-13T12:33:15.000Z</time>
      </trkpt>
      <trkpt lat="44.52692" lon="6.22296">
        <ele>1117.1999511719</ele>
        <time>2016-07-13T12:35:23.000Z</time>
      </trkpt>
      <trkpt lat="44.52695" lon="6.22297">
        <ele>1116.5999755859</ele>
        <time>2016-07-13T12:35:51.000Z</time>
      </trkpt>
      <trkpt lat="44.52696" lon="6.22298">
        <ele>1116.4000244141</ele>
        <time>2016-07-13T12:35:55.000Z</time>
      </trkpt>
      <trkpt lat="44.52704" lon="6.22298">
        <ele>1114</ele>
        <time>2016-07-13T12:36:02.000Z</time>
      </trkpt>
      <trkpt lat="44.52714" lon="6.22296">
        <ele>1111.4000244141</ele>
        <time>2016-07-13T12:36:10.000Z</time>
      </trkpt>
      <trkpt lat="44.52724" lon="6.22296">
        <ele>1108.5999755859</ele>
        <time>2016-07-13T12:36:19.000Z</time>
      </trkpt>
      <trkpt lat="44.52735" lon="6.22297">
        <ele>1105.8000488281</ele>
        <time>2016-07-13T12:36:28.000Z</time>
      </trkpt>
      <trkpt lat="44.52747" lon="6.22296">
        <ele>1102.8000488281</ele>
        <time>2016-07-13T12:36:37.000Z</time>
      </trkpt>
      <trkpt lat="44.52748" lon="6.22296">
        <ele>1102.4000244141</ele>
        <time>2016-07-13T12:36:38.000Z</time>
      </trkpt>
      <trkpt lat="44.52753" lon="6.22294">
        <ele>1100.8000488281</ele>
        <time>2016-07-13T12:36:43.000Z</time>
      </trkpt>
      <trkpt lat="44.52761" lon="6.22288">
        <ele>1098</ele>
        <time>2016-07-13T12:36:50.000Z</time>
      </trkpt>
      <trkpt lat="44.52768" lon="6.22285">
        <ele>1096.4000244141</ele>
        <time>2016-07-13T12:36:57.000Z</time>
      </trkpt>
      <trkpt lat="44.52779" lon="6.22286">
        <ele>1094.4000244141</ele>
        <time>2016-07-13T12:37:05.000Z</time>
      </trkpt>
      <trkpt lat="44.52787" lon="6.22282">
        <ele>1092.4000244141</ele>
        <time>2016-07-13T12:37:12.000Z</time>
      </trkpt>
      <trkpt lat="44.52797" lon="6.22275">
        <ele>1089.8000488281</ele>
        <time>2016-07-13T12:37:21.000Z</time>
      </trkpt>
      <trkpt lat="44.5281" lon="6.22263">
        <ele>1086.4000244141</ele>
        <time>2016-07-13T12:37:33.000Z</time>
      </trkpt>
      <trkpt lat="44.5282" lon="6.22253">
        <ele>1083.5999755859</ele>
        <time>2016-07-13T12:37:43.000Z</time>
      </trkpt>
      <trkpt lat="44.52828" lon="6.22244">
        <ele>1081.1999511719</ele>
        <time>2016-07-13T12:37:51.000Z</time>
      </trkpt>
      <trkpt lat="44.52833" lon="6.2224">
        <ele>1080</ele>
        <time>2016-07-13T12:37:55.000Z</time>
      </trkpt>
      <trkpt lat="44.52836" lon="6.22238">
        <ele>1079.4000244141</ele>
        <time>2016-07-13T12:38:01.000Z</time>
      </trkpt>
      <trkpt lat="44.52845" lon="6.22232">
        <ele>1077</ele>
        <time>2016-07-13T12:38:09.000Z</time>
      </trkpt>
      <trkpt lat="44.52851" lon="6.22227">
        <ele>1075.1999511719</ele>
        <time>2016-07-13T12:38:15.000Z</time>
      </trkpt>
      <trkpt lat="44.52859" lon="6.22223">
        <ele>1073.1999511719</ele>
        <time>2016-07-13T12:38:21.000Z</time>
      </trkpt>
      <trkpt lat="44.52871" lon="6.22218">
        <ele>1070.4000244141</ele>
        <time>2016-07-13T12:38:31.000Z</time>
      </trkpt>
      <trkpt lat="44.52883" lon="6.2222">
        <ele>1067.8000488281</ele>
        <time>2016-07-13T12:38:41.000Z</time>
      </trkpt>
      <trkpt lat="44.52884" lon="6.22221">
        <ele>1067.5999755859</ele>
        <time>2016-07-13T12:38:42.000Z</time>
      </trkpt>
      <trkpt lat="44.52889" lon="6.22216">
        <ele>1066</ele>
        <time>2016-07-13T12:38:47.000Z</time>
      </trkpt>
      <trkpt lat="44.52893" lon="6.22204">
        <ele>1064.1999511719</ele>
        <time>2016-07-13T12:38:55.000Z</time>
      </trkpt>
      <trkpt lat="44.52898" lon="6.22194">
        <ele>1062.5999755859</ele>
        <time>2016-07-13T12:39:02.000Z</time>
      </trkpt>
      <trkpt lat="44.529" lon="6.22187">
        <ele>1061.5999755859</ele>
        <time>2016-07-13T12:39:09.000Z</time>
      </trkpt>
      <trkpt lat="44.52903" lon="6.22183">
        <ele>1060.5999755859</ele>
        <time>2016-07-13T12:39:14.000Z</time>
      </trkpt>
      <trkpt lat="44.52908" lon="6.22186">
        <ele>1059.8000488281</ele>
        <time>2016-07-13T12:39:18.000Z</time>
      </trkpt>
      <trkpt lat="44.52907" lon="6.22189">
        <ele>1060</ele>
        <time>2016-07-13T12:39:52.000Z</time>
      </trkpt>
      <trkpt lat="44.52908" lon="6.22193">
        <ele>1060</ele>
        <time>2016-07-13T12:39:58.000Z</time>
      </trkpt>
      <trkpt lat="44.5291" lon="6.222">
        <ele>1060</ele>
        <time>2016-07-13T12:40:30.000Z</time>
      </trkpt>
      <trkpt lat="44.5291" lon="6.22203">
        <ele>1060.1999511719</ele>
        <time>2016-07-13T12:40:36.000Z</time>
      </trkpt>
      <trkpt lat="44.5291" lon="6.222">
        <ele>1060</ele>
        <time>2016-07-13T12:40:50.000Z</time>
      </trkpt>
      <trkpt lat="44.5291" lon="6.22192">
        <ele>1059.5999755859</ele>
        <time>2016-07-13T12:40:55.000Z</time>
      </trkpt>
      <trkpt lat="44.52909" lon="6.22189">
        <ele>1059.4000244141</ele>
        <time>2016-07-13T12:41:00.000Z</time>
      </trkpt>
      <trkpt lat="44.52909" lon="6.22188">
        <ele>1059.5999755859</ele>
        <time>2016-07-13T12:41:01.000Z</time>
      </trkpt>
      <trkpt lat="44.52909" lon="6.22176">
        <ele>1059.4000244141</ele>
        <time>2016-07-13T12:41:07.000Z</time>
      </trkpt>
      <trkpt lat="44.52908" lon="6.22161">
        <ele>1059.1999511719</ele>
        <time>2016-07-13T12:41:15.000Z</time>
      </trkpt>
      <trkpt lat="44.52905" lon="6.22142">
        <ele>1059</ele>
        <time>2016-07-13T12:41:25.000Z</time>
      </trkpt>
      <trkpt lat="44.529" lon="6.22119">
        <ele>1055.5999755859</ele>
        <time>2016-07-13T12:41:37.000Z</time>
      </trkpt>
      <trkpt lat="44.52897" lon="6.22104">
        <ele>1053.4000244141</ele>
        <time>2016-07-13T12:41:45.000Z</time>
      </trkpt>
      <trkpt lat="44.52893" lon="6.2209">
        <ele>1051.4000244141</ele>
        <time>2016-07-13T12:41:53.000Z</time>
      </trkpt>
      <trkpt lat="44.52892" lon="6.22083">
        <ele>1050.4000244141</ele>
        <time>2016-07-13T12:41:59.000Z</time>
      </trkpt>
      <trkpt lat="44.52894" lon="6.2208">
        <ele>1049.5999755859</ele>
        <time>2016-07-13T12:42:04.000Z</time>
      </trkpt>
      <trkpt lat="44.52899" lon="6.22085">
        <ele>1049.5999755859</ele>
        <time>2016-07-13T12:42:10.000Z</time>
      </trkpt>
      <trkpt lat="44.529" lon="6.22086">
        <ele>1049.8000488281</ele>
        <time>2016-07-13T12:42:11.000Z</time>
      </trkpt>
      <trkpt lat="44.52909" lon="6.22098">
        <ele>1050.1999511719</ele>
        <time>2016-07-13T12:42:20.000Z</time>
      </trkpt>
      <trkpt lat="44.52919" lon="6.22112">
        <ele>1050.5999755859</ele>
        <time>2016-07-13T12:42:30.000Z</time>
      </trkpt>
      <trkpt lat="44.5293" lon="6.22127">
        <ele>1051.5999755859</ele>
        <time>2016-07-13T12:42:41.000Z</time>
      </trkpt>
      <trkpt lat="44.52934" lon="6.22134">
        <ele>1052</ele>
        <time>2016-07-13T12:42:46.000Z</time>
      </trkpt>
      <trkpt lat="44.5294" lon="6.22145">
        <ele>1052.8000488281</ele>
        <time>2016-07-13T12:42:53.000Z</time>
      </trkpt>
      <trkpt lat="44.52944" lon="6.22158">
        <ele>1052.4000244141</ele>
        <time>2016-07-13T12:43:01.000Z</time>
      </trkpt>
      <trkpt lat="44.52945" lon="6.22165">
        <ele>1052.4000244141</ele>
        <time>2016-07-13T12:43:05.000Z</time>
      </trkpt>
      <trkpt lat="44.52945" lon="6.22173">
        <ele>1052.4000244141</ele>
        <time>2016-07-13T12:43:10.000Z</time>
      </trkpt>
      <trkpt lat="44.52948" lon="6.22183">
        <ele>1052</ele>
        <time>2016-07-13T12:43:17.000Z</time>
      </trkpt>
      <trkpt lat="44.52954" lon="6.22194">
        <ele>1050.1999511719</ele>
        <time>2016-07-13T12:43:25.000Z</time>
      </trkpt>
      <trkpt lat="44.52965" lon="6.22202">
        <ele>1046.4000244141</ele>
        <time>2016-07-13T12:43:37.000Z</time>
      </trkpt>
      <trkpt lat="44.5297" lon="6.22201">
        <ele>1044.8000488281</ele>
        <time>2016-07-13T12:43:46.000Z</time>
      </trkpt>
      <trkpt lat="44.52973" lon="6.22203">
        <ele>1043.5999755859</ele>
        <time>2016-07-13T12:43:49.000Z</time>
      </trkpt>
      <trkpt lat="44.52974" lon="6.22208">
        <ele>1043.4000244141</ele>
        <time>2016-07-13T12:43:53.000Z</time>
      </trkpt>
      <trkpt lat="44.52973" lon="6.2221">
        <ele>1043.5999755859</ele>
        <time>2016-07-13T12:43:55.000Z</time>
      </trkpt>
      <trkpt lat="44.5297" lon="6.22219">
        <ele>1044.8000488281</ele>
        <time>2016-07-13T12:44:02.000Z</time>
      </trkpt>
      <trkpt lat="44.52965" lon="6.22228">
        <ele>1046.5999755859</ele>
        <time>2016-07-13T12:44:09.000Z</time>
      </trkpt>
      <trkpt lat="44.52963" lon="6.22232">
        <ele>1048</ele>
        <time>2016-07-13T12:44:12.000Z</time>
      </trkpt>
      <trkpt lat="44.52961" lon="6.22244">
        <ele>1049.1999511719</ele>
        <time>2016-07-13T12:44:19.000Z</time>
      </trkpt>
      <trkpt lat="44.5296" lon="6.2225">
        <ele>1048.4000244141</ele>
        <time>2016-07-13T12:44:23.000Z</time>
      </trkpt>
      <trkpt lat="44.5296" lon="6.22253">
        <ele>1048.1999511719</ele>
        <time>2016-07-13T12:44:25.000Z</time>
      </trkpt>
      <trkpt lat="44.52959" lon="6.22263">
        <ele>1047.4000244141</ele>
        <time>2016-07-13T12:44:31.000Z</time>
      </trkpt>
      <trkpt lat="44.52958" lon="6.22267">
        <ele>1047</ele>
        <time>2016-07-13T12:44:34.000Z</time>
      </trkpt>
      <trkpt lat="44.52957" lon="6.22272">
        <ele>1046.5999755859</ele>
        <time>2016-07-13T12:44:38.000Z</time>
      </trkpt>
      <trkpt lat="44.52955" lon="6.22279">
        <ele>1046</ele>
        <time>2016-07-13T12:44:42.000Z</time>
      </trkpt>
      <trkpt lat="44.52954" lon="6.22281">
        <ele>1046</ele>
        <time>2016-07-13T12:44:44.000Z</time>
      </trkpt>
      <trkpt lat="44.52953" lon="6.22289">
        <ele>1045.1999511719</ele>
        <time>2016-07-13T12:44:50.000Z</time>
      </trkpt>
      <trkpt lat="44.52953" lon="6.22291">
        <ele>1045</ele>
        <time>2016-07-13T12:44:51.000Z</time>
      </trkpt>
      <trkpt lat="44.52955" lon="6.22301">
        <ele>1043.5999755859</ele>
        <time>2016-07-13T12:44:57.000Z</time>
      </trkpt>
      <trkpt lat="44.52954" lon="6.22313">
        <ele>1043</ele>
        <time>2016-07-13T12:45:05.000Z</time>
      </trkpt>
      <trkpt lat="44.52954" lon="6.22315">
        <ele>1043.4000244141</ele>
        <time>2016-07-13T12:45:06.000Z</time>
      </trkpt>
      <trkpt lat="44.52954" lon="6.22319">
        <ele>1043.4000244141</ele>
        <time>2016-07-13T12:45:08.000Z</time>
      </trkpt>
      <trkpt lat="44.52953" lon="6.22326">
        <ele>1043.4000244141</ele>
        <time>2016-07-13T12:45:12.000Z</time>
      </trkpt>
      <trkpt lat="44.52952" lon="6.22332">
        <ele>1043.1999511719</ele>
        <time>2016-07-13T12:45:16.000Z</time>
      </trkpt>
      <trkpt lat="44.52952" lon="6.22338">
        <ele>1043.1999511719</ele>
        <time>2016-07-13T12:45:19.000Z</time>
      </trkpt>
      <trkpt lat="44.52955" lon="6.22345">
        <ele>1043.5999755859</ele>
        <time>2016-07-13T12:45:25.000Z</time>
      </trkpt>
      <trkpt lat="44.52956" lon="6.22346">
        <ele>1043.5999755859</ele>
        <time>2016-07-13T12:45:26.000Z</time>
      </trkpt>
      <trkpt lat="44.5296" lon="6.2235">
        <ele>1044.1999511719</ele>
        <time>2016-07-13T12:45:31.000Z</time>
      </trkpt>
      <trkpt lat="44.5296" lon="6.22354">
        <ele>1044</ele>
        <time>2016-07-13T12:45:42.000Z</time>
      </trkpt>
      <trkpt lat="44.5296" lon="6.22353">
        <ele>1044.1999511719</ele>
        <time>2016-07-13T12:45:50.000Z</time>
      </trkpt>
      <trkpt lat="44.5296" lon="6.22355">
        <ele>1044</ele>
        <time>2016-07-13T12:45:55.000Z</time>
      </trkpt>
      <trkpt lat="44.52958" lon="6.22361">
        <ele>1043.8000488281</ele>
        <time>2016-07-13T12:46:01.000Z</time>
      </trkpt>
      <trkpt lat="44.52956" lon="6.2236">
        <ele>1043.5999755859</ele>
        <time>2016-07-13T12:46:07.000Z</time>
      </trkpt>
      <trkpt lat="44.52957" lon="6.22357">
        <ele>1043.8000488281</ele>
        <time>2016-07-13T12:46:10.000Z</time>
      </trkpt>
      <trkpt lat="44.52958" lon="6.22354">
        <ele>1043.8000488281</ele>
        <time>2016-07-13T12:46:17.000Z</time>
      </trkpt>
      <trkpt lat="44.52954" lon="6.22355">
        <ele>1043.4000244141</ele>
        <time>2016-07-13T12:46:27.000Z</time>
      </trkpt>
      <trkpt lat="44.52947" lon="6.22349">
        <ele>1044.4000244141</ele>
        <time>2016-07-13T12:47:01.000Z</time>
      </trkpt>
      <trkpt lat="44.52948" lon="6.22349">
        <ele>1044</ele>
        <time>2016-07-13T12:47:08.000Z</time>
      </trkpt>
      <trkpt lat="44.52953" lon="6.22345">
        <ele>1043.4000244141</ele>
        <time>2016-07-13T12:47:13.000Z</time>
      </trkpt>
      <trkpt lat="44.52961" lon="6.22338">
        <ele>1044.1999511719</ele>
        <time>2016-07-13T12:47:20.000Z</time>
      </trkpt>
      <trkpt lat="44.52965" lon="6.22335">
        <ele>1044.8000488281</ele>
        <time>2016-07-13T12:47:23.000Z</time>
      </trkpt>
      <trkpt lat="44.5297" lon="6.22331">
        <ele>1045.1999511719</ele>
        <time>2016-07-13T12:47:28.000Z</time>
      </trkpt>
      <trkpt lat="44.52978" lon="6.22325">
        <ele>1042.8000488281</ele>
        <time>2016-07-13T12:47:35.000Z</time>
      </trkpt>
      <trkpt lat="44.52987" lon="6.22319">
        <ele>1040.1999511719</ele>
        <time>2016-07-13T12:47:43.000Z</time>
      </trkpt>
      <trkpt lat="44.52994" lon="6.22313">
        <ele>1038</ele>
        <time>2016-07-13T12:47:50.000Z</time>
      </trkpt>
      <trkpt lat="44.53" lon="6.22303">
        <ele>1038</ele>
        <time>2016-07-13T12:47:57.000Z</time>
      </trkpt>
      <trkpt lat="44.53001" lon="6.22303">
        <ele>1038</ele>
        <time>2016-07-13T12:47:58.000Z</time>
      </trkpt>
      <trkpt lat="44.53004" lon="6.22304">
        <ele>1037.4000244141</ele>
        <time>2016-07-13T12:48:16.000Z</time>
      </trkpt>
      <trkpt lat="44.53013" lon="6.223">
        <ele>1036.8000488281</ele>
        <time>2016-07-13T12:48:23.000Z</time>
      </trkpt>
      <trkpt lat="44.5302" lon="6.22298">
        <ele>1036.1999511719</ele>
        <time>2016-07-13T12:48:28.000Z</time>
      </trkpt>
      <trkpt lat="44.5303" lon="6.2229">
        <ele>1031.4000244141</ele>
        <time>2016-07-13T12:48:36.000Z</time>
      </trkpt>
      <trkpt lat="44.53043" lon="6.2228">
        <ele>1029</ele>
        <time>2016-07-13T12:48:45.000Z</time>
      </trkpt>
      <trkpt lat="44.53052" lon="6.22271">
        <ele>1028</ele>
        <time>2016-07-13T12:48:53.000Z</time>
      </trkpt>
      <trkpt lat="44.53059" lon="6.22265">
        <ele>1027.4000244141</ele>
        <time>2016-07-13T12:48:58.000Z</time>
      </trkpt>
      <trkpt lat="44.53065" lon="6.2226">
        <ele>1026.8000488281</ele>
        <time>2016-07-13T12:49:03.000Z</time>
      </trkpt>
      <trkpt lat="44.53073" lon="6.2226">
        <ele>1026.5999755859</ele>
        <time>2016-07-13T12:49:10.000Z</time>
      </trkpt>
      <trkpt lat="44.53075" lon="6.22261">
        <ele>1026.5999755859</ele>
        <time>2016-07-13T12:49:11.000Z</time>
      </trkpt>
      <trkpt lat="44.53079" lon="6.22262">
        <ele>1026.8000488281</ele>
        <time>2016-07-13T12:49:16.000Z</time>
      </trkpt>
      <trkpt lat="44.5309" lon="6.22267">
        <ele>1027.1999511719</ele>
        <time>2016-07-13T12:49:23.000Z</time>
      </trkpt>
      <trkpt lat="44.53096" lon="6.2227">
        <ele>1027.4000244141</ele>
        <time>2016-07-13T12:49:29.000Z</time>
      </trkpt>
      <trkpt lat="44.53101" lon="6.22274">
        <ele>1028</ele>
        <time>2016-07-13T12:49:42.000Z</time>
      </trkpt>
      <trkpt lat="44.53116" lon="6.22277">
        <ele>1027.8000488281</ele>
        <time>2016-07-13T12:49:52.000Z</time>
      </trkpt>
      <trkpt lat="44.53128" lon="6.22274">
        <ele>1027</ele>
        <time>2016-07-13T12:50:01.000Z</time>
      </trkpt>
      <trkpt lat="44.53138" lon="6.22268">
        <ele>1025.4000244141</ele>
        <time>2016-07-13T12:50:08.000Z</time>
      </trkpt>
      <trkpt lat="44.53148" lon="6.22261">
        <ele>1023.799987793</ele>
        <time>2016-07-13T12:50:16.000Z</time>
      </trkpt>
      <trkpt lat="44.53191" lon="6.22246">
        <ele>1022.4000244141</ele>
        <time>2016-07-13T12:50:46.000Z</time>
      </trkpt>
      <trkpt lat="44.53203" lon="6.22244">
        <ele>1022.4000244141</ele>
        <time>2016-07-13T12:50:55.000Z</time>
      </trkpt>
      <trkpt lat="44.53214" lon="6.22248">
        <ele>1022.799987793</ele>
        <time>2016-07-13T12:51:03.000Z</time>
      </trkpt>
      <trkpt lat="44.53223" lon="6.22247">
        <ele>1022.5999755859</ele>
        <time>2016-07-13T12:51:10.000Z</time>
      </trkpt>
      <trkpt lat="44.53233" lon="6.22243">
        <ele>1022</ele>
        <time>2016-07-13T12:51:17.000Z</time>
      </trkpt>
      <trkpt lat="44.53243" lon="6.22238">
        <ele>1021.4000244141</ele>
        <time>2016-07-13T12:51:24.000Z</time>
      </trkpt>
      <trkpt lat="44.5326" lon="6.22234">
        <ele>1020.799987793</ele>
        <time>2016-07-13T12:51:36.000Z</time>
      </trkpt>
      <trkpt lat="44.53276" lon="6.22238">
        <ele>1021.4000244141</ele>
        <time>2016-07-13T12:51:47.000Z</time>
      </trkpt>
      <trkpt lat="44.53292" lon="6.22248">
        <ele>1022</ele>
        <time>2016-07-13T12:51:59.000Z</time>
      </trkpt>
      <trkpt lat="44.53307" lon="6.22259">
        <ele>1021.799987793</ele>
        <time>2016-07-13T12:52:11.000Z</time>
      </trkpt>
      <trkpt lat="44.53318" lon="6.22267">
        <ele>1021.799987793</ele>
        <time>2016-07-13T12:52:20.000Z</time>
      </trkpt>
      <trkpt lat="44.53332" lon="6.2228">
        <ele>1022.200012207</ele>
        <time>2016-07-13T12:52:32.000Z</time>
      </trkpt>
      <trkpt lat="44.53342" lon="6.22295">
        <ele>1023.200012207</ele>
        <time>2016-07-13T12:52:43.000Z</time>
      </trkpt>
      <trkpt lat="44.53348" lon="6.22309">
        <ele>1024.5999755859</ele>
        <time>2016-07-13T12:52:52.000Z</time>
      </trkpt>
      <trkpt lat="44.53358" lon="6.22322">
        <ele>1023.799987793</ele>
        <time>2016-07-13T12:53:01.000Z</time>
      </trkpt>
      <trkpt lat="44.53363" lon="6.22325">
        <ele>1023.4000244141</ele>
        <time>2016-07-13T12:53:04.000Z</time>
      </trkpt>
      <trkpt lat="44.53368" lon="6.22325">
        <ele>1022.799987793</ele>
        <time>2016-07-13T12:53:10.000Z</time>
      </trkpt>
      <trkpt lat="44.53382" lon="6.22325">
        <ele>1020.5999755859</ele>
        <time>2016-07-13T12:53:20.000Z</time>
      </trkpt>
      <trkpt lat="44.5342" lon="6.22312">
        <ele>1014.799987793</ele>
        <time>2016-07-13T12:53:49.000Z</time>
      </trkpt>
      <trkpt lat="44.53435" lon="6.2231">
        <ele>1012.4000244141</ele>
        <time>2016-07-13T12:54:00.000Z</time>
      </trkpt>
      <trkpt lat="44.53446" lon="6.2231">
        <ele>1010.5999755859</ele>
        <time>2016-07-13T12:54:08.000Z</time>
      </trkpt>
      <trkpt lat="44.53458" lon="6.22307">
        <ele>1009</ele>
        <time>2016-07-13T12:54:18.000Z</time>
      </trkpt>
      <trkpt lat="44.53467" lon="6.22294">
        <ele>1008.4000244141</ele>
        <time>2016-07-13T12:54:28.000Z</time>
      </trkpt>
      <trkpt lat="44.53469" lon="6.22281">
        <ele>1008.5999755859</ele>
        <time>2016-07-13T12:54:36.000Z</time>
      </trkpt>
      <trkpt lat="44.5347" lon="6.2228">
        <ele>1008.5999755859</ele>
        <time>2016-07-13T12:54:37.000Z</time>
      </trkpt>
      <trkpt lat="44.53472" lon="6.22269">
        <ele>1008.799987793</ele>
        <time>2016-07-13T12:54:44.000Z</time>
      </trkpt>
      <trkpt lat="44.53473" lon="6.22265">
        <ele>1008.799987793</ele>
        <time>2016-07-13T12:54:46.000Z</time>
      </trkpt>
      <trkpt lat="44.53473" lon="6.2226">
        <ele>1009</ele>
        <time>2016-07-13T12:54:49.000Z</time>
      </trkpt>
      <trkpt lat="44.53473" lon="6.22245">
        <ele>1009.799987793</ele>
        <time>2016-07-13T12:54:57.000Z</time>
      </trkpt>
      <trkpt lat="44.53472" lon="6.22234">
        <ele>1010.200012207</ele>
        <time>2016-07-13T12:55:03.000Z</time>
      </trkpt>
      <trkpt lat="44.53473" lon="6.2223">
        <ele>1010.200012207</ele>
        <time>2016-07-13T12:55:05.000Z</time>
      </trkpt>
      <trkpt lat="44.53472" lon="6.2222">
        <ele>1011.200012207</ele>
        <time>2016-07-13T12:55:10.000Z</time>
      </trkpt>
      <trkpt lat="44.53469" lon="6.222">
        <ele>1013.5999755859</ele>
        <time>2016-07-13T12:55:20.000Z</time>
      </trkpt>
      <trkpt lat="44.53468" lon="6.22194">
        <ele>1014.4000244141</ele>
        <time>2016-07-13T12:55:23.000Z</time>
      </trkpt>
      <trkpt lat="44.53472" lon="6.2218">
        <ele>1015</ele>
        <time>2016-07-13T12:55:31.000Z</time>
      </trkpt>
      <trkpt lat="44.53476" lon="6.22162">
        <ele>1015</ele>
        <time>2016-07-13T12:55:41.000Z</time>
      </trkpt>
      <trkpt lat="44.53478" lon="6.22147">
        <ele>1014</ele>
        <time>2016-07-13T12:55:49.000Z</time>
      </trkpt>
      <trkpt lat="44.53486" lon="6.22131">
        <ele>1011.5999755859</ele>
        <time>2016-07-13T12:55:59.000Z</time>
      </trkpt>
      <trkpt lat="44.53495" lon="6.22117">
        <ele>1009.4000244141</ele>
        <time>2016-07-13T12:56:08.000Z</time>
      </trkpt>
      <trkpt lat="44.53502" lon="6.22103">
        <ele>1007.799987793</ele>
        <time>2016-07-13T12:56:17.000Z</time>
      </trkpt>
      <trkpt lat="44.535" lon="6.22087">
        <ele>1008.799987793</ele>
        <time>2016-07-13T12:56:25.000Z</time>
      </trkpt>
      <trkpt lat="44.53498" lon="6.2207">
        <ele>1009.5999755859</ele>
        <time>2016-07-13T12:56:33.000Z</time>
      </trkpt>
      <trkpt lat="44.535" lon="6.22061">
        <ele>1009.200012207</ele>
        <time>2016-07-13T12:56:38.000Z</time>
      </trkpt>
      <trkpt lat="44.53504" lon="6.22051">
        <ele>1006.799987793</ele>
        <time>2016-07-13T12:56:44.000Z</time>
      </trkpt>
      <trkpt lat="44.53507" lon="6.22044">
        <ele>1005.4000244141</ele>
        <time>2016-07-13T12:56:48.000Z</time>
      </trkpt>
      <trkpt lat="44.53509" lon="6.22025">
        <ele>1004.200012207</ele>
        <time>2016-07-13T12:56:58.000Z</time>
      </trkpt>
      <trkpt lat="44.5351" lon="6.22021">
        <ele>1004.200012207</ele>
        <time>2016-07-13T12:57:01.000Z</time>
      </trkpt>
      <trkpt lat="44.53515" lon="6.2201">
        <ele>1003.4000244141</ele>
        <time>2016-07-13T12:57:08.000Z</time>
      </trkpt>
      <trkpt lat="44.53515" lon="6.22008">
        <ele>1003.200012207</ele>
        <time>2016-07-13T12:57:09.000Z</time>
      </trkpt>
      <trkpt lat="44.53519" lon="6.21994">
        <ele>1002.5999755859</ele>
        <time>2016-07-13T12:57:17.000Z</time>
      </trkpt>
      <trkpt lat="44.5352" lon="6.21983">
        <ele>1002.5999755859</ele>
        <time>2016-07-13T12:57:23.000Z</time>
      </trkpt>
      <trkpt lat="44.53521" lon="6.21975">
        <ele>1001.4000244141</ele>
        <time>2016-07-13T12:57:27.000Z</time>
      </trkpt>
      <trkpt lat="44.53523" lon="6.21956">
        <ele>997.59997558594</ele>
        <time>2016-07-13T12:57:36.000Z</time>
      </trkpt>
      <trkpt lat="44.53522" lon="6.21942">
        <ele>995.40002441406</ele>
        <time>2016-07-13T12:57:42.000Z</time>
      </trkpt>
      <trkpt lat="44.53522" lon="6.21941">
        <ele>995</ele>
        <time>2016-07-13T12:57:43.000Z</time>
      </trkpt>
      <trkpt lat="44.5352" lon="6.21934">
        <ele>994.20001220703</ele>
        <time>2016-07-13T12:57:47.000Z</time>
      </trkpt>
      <trkpt lat="44.53514" lon="6.21921">
        <ele>992.59997558594</ele>
        <time>2016-07-13T12:57:55.000Z</time>
      </trkpt>
      <trkpt lat="44.53503" lon="6.21907">
        <ele>991.79998779297</ele>
        <time>2016-07-13T12:58:05.000Z</time>
      </trkpt>
      <trkpt lat="44.53492" lon="6.219">
        <ele>991.79998779297</ele>
        <time>2016-07-13T12:58:14.000Z</time>
      </trkpt>
      <trkpt lat="44.53484" lon="6.21892">
        <ele>991</ele>
        <time>2016-07-13T12:58:21.000Z</time>
      </trkpt>
      <trkpt lat="44.53483" lon="6.2189">
        <ele>990.40002441406</ele>
        <time>2016-07-13T12:58:22.000Z</time>
      </trkpt>
      <trkpt lat="44.53487" lon="6.21881">
        <ele>987</ele>
        <time>2016-07-13T12:58:28.000Z</time>
      </trkpt>
      <trkpt lat="44.53496" lon="6.21883">
        <ele>986.40002441406</ele>
        <time>2016-07-13T12:58:34.000Z</time>
      </trkpt>
      <trkpt lat="44.535" lon="6.21886">
        <ele>987</ele>
        <time>2016-07-13T12:58:41.000Z</time>
      </trkpt>
      <trkpt lat="44.53502" lon="6.21889">
        <ele>987.79998779297</ele>
        <time>2016-07-13T12:59:37.000Z</time>
      </trkpt>
      <trkpt lat="44.53511" lon="6.21895">
        <ele>988.59997558594</ele>
        <time>2016-07-13T12:59:44.000Z</time>
      </trkpt>
      <trkpt lat="44.53525" lon="6.21901">
        <ele>988</ele>
        <time>2016-07-13T12:59:55.000Z</time>
      </trkpt>
      <trkpt lat="44.53536" lon="6.21907">
        <ele>987.20001220703</ele>
        <time>2016-07-13T13:00:04.000Z</time>
      </trkpt>
      <trkpt lat="44.53544" lon="6.21915">
        <ele>986</ele>
        <time>2016-07-13T13:00:11.000Z</time>
      </trkpt>
      <trkpt lat="44.53552" lon="6.21926">
        <ele>985.20001220703</ele>
        <time>2016-07-13T13:00:19.000Z</time>
      </trkpt>
      <trkpt lat="44.53563" lon="6.21939">
        <ele>983.79998779297</ele>
        <time>2016-07-13T13:00:29.000Z</time>
      </trkpt>
      <trkpt lat="44.5357" lon="6.2195">
        <ele>983.59997558594</ele>
        <time>2016-07-13T13:00:36.000Z</time>
      </trkpt>
      <trkpt lat="44.53578" lon="6.21966">
        <ele>983.79998779297</ele>
        <time>2016-07-13T13:00:46.000Z</time>
      </trkpt>
      <trkpt lat="44.53585" lon="6.21976">
        <ele>983</ele>
        <time>2016-07-13T13:00:54.000Z</time>
      </trkpt>
      <trkpt lat="44.53592" lon="6.21981">
        <ele>981.20001220703</ele>
        <time>2016-07-13T13:01:00.000Z</time>
      </trkpt>
      <trkpt lat="44.53601" lon="6.21984">
        <ele>978.20001220703</ele>
        <time>2016-07-13T13:01:07.000Z</time>
      </trkpt>
      <trkpt lat="44.5361" lon="6.21985">
        <ele>975.20001220703</ele>
        <time>2016-07-13T13:01:14.000Z</time>
      </trkpt>
      <trkpt lat="44.53622" lon="6.21983">
        <ele>971.79998779297</ele>
        <time>2016-07-13T13:01:23.000Z</time>
      </trkpt>
      <trkpt lat="44.53636" lon="6.21983">
        <ele>969</ele>
        <time>2016-07-13T13:01:33.000Z</time>
      </trkpt>
      <trkpt lat="44.53652" lon="6.21983">
        <ele>965.40002441406</ele>
        <time>2016-07-13T13:01:45.000Z</time>
      </trkpt>
      <trkpt lat="44.53663" lon="6.2198">
        <ele>963.40002441406</ele>
        <time>2016-07-13T13:01:53.000Z</time>
      </trkpt>
      <trkpt lat="44.5367" lon="6.21972">
        <ele>961.79998779297</ele>
        <time>2016-07-13T13:02:00.000Z</time>
      </trkpt>
      <trkpt lat="44.53677" lon="6.2196">
        <ele>959.59997558594</ele>
        <time>2016-07-13T13:02:08.000Z</time>
      </trkpt>
      <trkpt lat="44.53681" lon="6.21945">
        <ele>959.59997558594</ele>
        <time>2016-07-13T13:02:16.000Z</time>
      </trkpt>
      <trkpt lat="44.53683" lon="6.21933">
        <ele>959.79998779297</ele>
        <time>2016-07-13T13:02:23.000Z</time>
      </trkpt>
      <trkpt lat="44.53686" lon="6.21931">
        <ele>959.59997558594</ele>
        <time>2016-07-13T13:02:26.000Z</time>
      </trkpt>
      <trkpt lat="44.53691" lon="6.21945">
        <ele>958.59997558594</ele>
        <time>2016-07-13T13:02:34.000Z</time>
      </trkpt>
      <trkpt lat="44.53694" lon="6.2196">
        <ele>957.59997558594</ele>
        <time>2016-07-13T13:02:42.000Z</time>
      </trkpt>
      <trkpt lat="44.53695" lon="6.21963">
        <ele>957.20001220703</ele>
        <time>2016-07-13T13:02:44.000Z</time>
      </trkpt>
      <trkpt lat="44.53693" lon="6.2198">
        <ele>957.40002441406</ele>
        <time>2016-07-13T13:02:53.000Z</time>
      </trkpt>
      <trkpt lat="44.53688" lon="6.21996">
        <ele>957.20001220703</ele>
        <time>2016-07-13T13:03:02.000Z</time>
      </trkpt>
      <trkpt lat="44.53681" lon="6.2201">
        <ele>957.40002441406</ele>
        <time>2016-07-13T13:03:11.000Z</time>
      </trkpt>
      <trkpt lat="44.53673" lon="6.22019">
        <ele>958.20001220703</ele>
        <time>2016-07-13T13:03:19.000Z</time>
      </trkpt>
      <trkpt lat="44.53663" lon="6.22024">
        <ele>960</ele>
        <time>2016-07-13T13:03:28.000Z</time>
      </trkpt>
      <trkpt lat="44.53656" lon="6.22025">
        <ele>961.59997558594</ele>
        <time>2016-07-13T13:03:32.000Z</time>
      </trkpt>
      <trkpt lat="44.53655" lon="6.22028">
        <ele>961.79998779297</ele>
        <time>2016-07-13T13:03:34.000Z</time>
      </trkpt>
      <trkpt lat="44.53661" lon="6.22051">
        <ele>959.79998779297</ele>
        <time>2016-07-13T13:03:48.000Z</time>
      </trkpt>
      <trkpt lat="44.53661" lon="6.22064">
        <ele>959.59997558594</ele>
        <time>2016-07-13T13:03:55.000Z</time>
      </trkpt>
      <trkpt lat="44.53659" lon="6.22077">
        <ele>961.20001220703</ele>
        <time>2016-07-13T13:04:02.000Z</time>
      </trkpt>
      <trkpt lat="44.53659" lon="6.22086">
        <ele>961.59997558594</ele>
        <time>2016-07-13T13:04:07.000Z</time>
      </trkpt>
      <trkpt lat="44.53661" lon="6.22089">
        <ele>961.40002441406</ele>
        <time>2016-07-13T13:04:10.000Z</time>
      </trkpt>
      <trkpt lat="44.53665" lon="6.22086">
        <ele>960.20001220703</ele>
        <time>2016-07-13T13:04:14.000Z</time>
      </trkpt>
      <trkpt lat="44.53666" lon="6.2208">
        <ele>959.40002441406</ele>
        <time>2016-07-13T13:04:19.000Z</time>
      </trkpt>
      <trkpt lat="44.53674" lon="6.2207">
        <ele>956.59997558594</ele>
        <time>2016-07-13T13:04:37.000Z</time>
      </trkpt>
      <trkpt lat="44.53685" lon="6.22061">
        <ele>953.20001220703</ele>
        <time>2016-07-13T13:04:47.000Z</time>
      </trkpt>
      <trkpt lat="44.53692" lon="6.22054">
        <ele>951.59997558594</ele>
        <time>2016-07-13T13:04:54.000Z</time>
      </trkpt>
      <trkpt lat="44.53697" lon="6.22047">
        <ele>951</ele>
        <time>2016-07-13T13:04:59.000Z</time>
      </trkpt>
      <trkpt lat="44.53701" lon="6.22043">
        <ele>950.59997558594</ele>
        <time>2016-07-13T13:05:03.000Z</time>
      </trkpt>
      <trkpt lat="44.53712" lon="6.22045">
        <ele>950</ele>
        <time>2016-07-13T13:05:11.000Z</time>
      </trkpt>
      <trkpt lat="44.53714" lon="6.22045">
        <ele>950</ele>
        <time>2016-07-13T13:05:12.000Z</time>
      </trkpt>
      <trkpt lat="44.53716" lon="6.22045">
        <ele>949.79998779297</ele>
        <time>2016-07-13T13:05:15.000Z</time>
      </trkpt>
      <trkpt lat="44.53718" lon="6.22047">
        <ele>949.59997558594</ele>
        <time>2016-07-13T13:05:20.000Z</time>
      </trkpt>
      <trkpt lat="44.53721" lon="6.22046">
        <ele>949.59997558594</ele>
        <time>2016-07-13T13:05:24.000Z</time>
      </trkpt>
      <trkpt lat="44.53722" lon="6.22045">
        <ele>949.59997558594</ele>
        <time>2016-07-13T13:05:34.000Z</time>
      </trkpt>
      <trkpt lat="44.53726" lon="6.22045">
        <ele>949.59997558594</ele>
        <time>2016-07-13T13:05:52.000Z</time>
      </trkpt>
      <trkpt lat="44.53727" lon="6.22045">
        <ele>949.40002441406</ele>
        <time>2016-07-13T13:05:53.000Z</time>
      </trkpt>
      <trkpt lat="44.53732" lon="6.22044">
        <ele>949.40002441406</ele>
        <time>2016-07-13T13:05:56.000Z</time>
      </trkpt>
      <trkpt lat="44.53747" lon="6.2204">
        <ele>949.20001220703</ele>
        <time>2016-07-13T13:06:07.000Z</time>
      </trkpt>
      <trkpt lat="44.53759" lon="6.22035">
        <ele>949</ele>
        <time>2016-07-13T13:06:16.000Z</time>
      </trkpt>
      <trkpt lat="44.53772" lon="6.2203">
        <ele>946.79998779297</ele>
        <time>2016-07-13T13:06:26.000Z</time>
      </trkpt>
      <trkpt lat="44.53781" lon="6.22037">
        <ele>945.59997558594</ele>
        <time>2016-07-13T13:06:41.000Z</time>
      </trkpt>
      <trkpt lat="44.53786" lon="6.22039">
        <ele>945.20001220703</ele>
        <time>2016-07-13T13:06:47.000Z</time>
      </trkpt>
      <trkpt lat="44.53796" lon="6.22031">
        <ele>944.79998779297</ele>
        <time>2016-07-13T13:06:55.000Z</time>
      </trkpt>
      <trkpt lat="44.53808" lon="6.22018">
        <ele>944.20001220703</ele>
        <time>2016-07-13T13:07:05.000Z</time>
      </trkpt>
      <trkpt lat="44.53816" lon="6.22004">
        <ele>943.59997558594</ele>
        <time>2016-07-13T13:07:14.000Z</time>
      </trkpt>
      <trkpt lat="44.53819" lon="6.22">
        <ele>943.40002441406</ele>
        <time>2016-07-13T13:07:19.000Z</time>
      </trkpt>
      <trkpt lat="44.53829" lon="6.21988">
        <ele>942.79998779297</ele>
        <time>2016-07-13T13:07:28.000Z</time>
      </trkpt>
      <trkpt lat="44.53834" lon="6.21978">
        <ele>942.40002441406</ele>
        <time>2016-07-13T13:07:35.000Z</time>
      </trkpt>
      <trkpt lat="44.53841" lon="6.21961">
        <ele>942</ele>
        <time>2016-07-13T13:07:45.000Z</time>
      </trkpt>
      <trkpt lat="44.5385" lon="6.21949">
        <ele>941.40002441406</ele>
        <time>2016-07-13T13:07:54.000Z</time>
      </trkpt>
      <trkpt lat="44.53858" lon="6.21944">
        <ele>940.79998779297</ele>
        <time>2016-07-13T13:08:01.000Z</time>
      </trkpt>
      <trkpt lat="44.53862" lon="6.21944">
        <ele>940.59997558594</ele>
        <time>2016-07-13T13:08:04.000Z</time>
      </trkpt>
      <trkpt lat="44.53867" lon="6.21943">
        <ele>940.20001220703</ele>
        <time>2016-07-13T13:08:08.000Z</time>
      </trkpt>
      <trkpt lat="44.53871" lon="6.21941">
        <ele>939.40002441406</ele>
        <time>2016-07-13T13:08:16.000Z</time>
      </trkpt>
      <trkpt lat="44.5388" lon="6.21941">
        <ele>937.59997558594</ele>
        <time>2016-07-13T13:08:23.000Z</time>
      </trkpt>
      <trkpt lat="44.5389" lon="6.21946">
        <ele>935.79998779297</ele>
        <time>2016-07-13T13:08:31.000Z</time>
      </trkpt>
      <trkpt lat="44.53898" lon="6.21951">
        <ele>934.40002441406</ele>
        <time>2016-07-13T13:08:38.000Z</time>
      </trkpt>
      <trkpt lat="44.53914" lon="6.21964">
        <ele>931.79998779297</ele>
        <time>2016-07-13T13:08:52.000Z</time>
      </trkpt>
      <trkpt lat="44.53921" lon="6.21975">
        <ele>930.79998779297</ele>
        <time>2016-07-13T13:09:01.000Z</time>
      </trkpt>
      <trkpt lat="44.53924" lon="6.21988">
        <ele>930.20001220703</ele>
        <time>2016-07-13T13:09:09.000Z</time>
      </trkpt>
      <trkpt lat="44.53924" lon="6.22003">
        <ele>930</ele>
        <time>2016-07-13T13:09:17.000Z</time>
      </trkpt>
      <trkpt lat="44.53926" lon="6.22029">
        <ele>928.79998779297</ele>
        <time>2016-07-13T13:09:32.000Z</time>
      </trkpt>
      <trkpt lat="44.53927" lon="6.22031">
        <ele>928.59997558594</ele>
        <time>2016-07-13T13:09:33.000Z</time>
      </trkpt>
      <trkpt lat="44.53929" lon="6.22045">
        <ele>928</ele>
        <time>2016-07-13T13:09:41.000Z</time>
      </trkpt>
      <trkpt lat="44.53931" lon="6.22058">
        <ele>928</ele>
        <time>2016-07-13T13:09:48.000Z</time>
      </trkpt>
      <trkpt lat="44.53931" lon="6.22071">
        <ele>929.40002441406</ele>
        <time>2016-07-13T13:09:55.000Z</time>
      </trkpt>
      <trkpt lat="44.53936" lon="6.22084">
        <ele>929.79998779297</ele>
        <time>2016-07-13T13:10:03.000Z</time>
      </trkpt>
      <trkpt lat="44.53942" lon="6.22095">
        <ele>930.20001220703</ele>
        <time>2016-07-13T13:10:11.000Z</time>
      </trkpt>
      <trkpt lat="44.53947" lon="6.22108">
        <ele>930.40002441406</ele>
        <time>2016-07-13T13:10:19.000Z</time>
      </trkpt>
      <trkpt lat="44.53954" lon="6.22119">
        <ele>930.20001220703</ele>
        <time>2016-07-13T13:10:28.000Z</time>
      </trkpt>
      <trkpt lat="44.53976" lon="6.22151">
        <ele>927.20001220703</ele>
        <time>2016-07-13T13:10:54.000Z</time>
      </trkpt>
      <trkpt lat="44.53981" lon="6.2216">
        <ele>926.40002441406</ele>
        <time>2016-07-13T13:11:01.000Z</time>
      </trkpt>
      <trkpt lat="44.53989" lon="6.2217">
        <ele>924.40002441406</ele>
        <time>2016-07-13T13:11:09.000Z</time>
      </trkpt>
      <trkpt lat="44.53999" lon="6.22173">
        <ele>921.40002441406</ele>
        <time>2016-07-13T13:11:17.000Z</time>
      </trkpt>
      <trkpt lat="44.54011" lon="6.22175">
        <ele>917.59997558594</ele>
        <time>2016-07-13T13:11:27.000Z</time>
      </trkpt>
      <trkpt lat="44.54019" lon="6.22182">
        <ele>915.40002441406</ele>
        <time>2016-07-13T13:11:35.000Z</time>
      </trkpt>
      <trkpt lat="44.5403" lon="6.22189">
        <ele>912.40002441406</ele>
        <time>2016-07-13T13:11:44.000Z</time>
      </trkpt>
      <trkpt lat="44.54039" lon="6.22199">
        <ele>911</ele>
        <time>2016-07-13T13:11:53.000Z</time>
      </trkpt>
      <trkpt lat="44.5404" lon="6.2221">
        <ele>912</ele>
        <time>2016-07-13T13:11:59.000Z</time>
      </trkpt>
      <trkpt lat="44.54038" lon="6.22218">
        <ele>913.20001220703</ele>
        <time>2016-07-13T13:12:04.000Z</time>
      </trkpt>
      <trkpt lat="44.54043" lon="6.22227">
        <ele>913</ele>
        <time>2016-07-13T13:12:11.000Z</time>
      </trkpt>
      <trkpt lat="44.54054" lon="6.22226">
        <ele>910.79998779297</ele>
        <time>2016-07-13T13:12:19.000Z</time>
      </trkpt>
      <trkpt lat="44.54055" lon="6.22225">
        <ele>910.40002441406</ele>
        <time>2016-07-13T13:12:20.000Z</time>
      </trkpt>
      <trkpt lat="44.54063" lon="6.22225">
        <ele>908.59997558594</ele>
        <time>2016-07-13T13:12:27.000Z</time>
      </trkpt>
      <trkpt lat="44.5407" lon="6.22221">
        <ele>906.79998779297</ele>
        <time>2016-07-13T13:12:34.000Z</time>
      </trkpt>
      <trkpt lat="44.54077" lon="6.22226">
        <ele>906</ele>
        <time>2016-07-13T13:12:42.000Z</time>
      </trkpt>
      <trkpt lat="44.54078" lon="6.22237">
        <ele>906.79998779297</ele>
        <time>2016-07-13T13:12:48.000Z</time>
      </trkpt>
      <trkpt lat="44.54078" lon="6.2224">
        <ele>907</ele>
        <time>2016-07-13T13:12:50.000Z</time>
      </trkpt>
      <trkpt lat="44.54079" lon="6.22245">
        <ele>907.20001220703</ele>
        <time>2016-07-13T13:12:57.000Z</time>
      </trkpt>
      <trkpt lat="44.54079" lon="6.22242">
        <ele>907</ele>
        <time>2016-07-13T13:13:29.000Z</time>
      </trkpt>
      <trkpt lat="44.54078" lon="6.22243">
        <ele>907.20001220703</ele>
        <time>2016-07-13T13:13:35.000Z</time>
      </trkpt>
      <trkpt lat="44.5408" lon="6.22247">
        <ele>907.20001220703</ele>
        <time>2016-07-13T13:13:42.000Z</time>
      </trkpt>
      <trkpt lat="44.54084" lon="6.22248">
        <ele>906.40002441406</ele>
        <time>2016-07-13T13:13:46.000Z</time>
      </trkpt>
      <trkpt lat="44.54086" lon="6.22246">
        <ele>905.79998779297</ele>
        <time>2016-07-13T13:13:49.000Z</time>
      </trkpt>
      <trkpt lat="44.54091" lon="6.22241">
        <ele>904.40002441406</ele>
        <time>2016-07-13T13:14:11.000Z</time>
      </trkpt>
      <trkpt lat="44.54101" lon="6.22236">
        <ele>901.79998779297</ele>
        <time>2016-07-13T13:14:19.000Z</time>
      </trkpt>
      <trkpt lat="44.5412" lon="6.22232">
        <ele>898.40002441406</ele>
        <time>2016-07-13T13:14:32.000Z</time>
      </trkpt>
      <trkpt lat="44.54138" lon="6.22229">
        <ele>898</ele>
        <time>2016-07-13T13:14:45.000Z</time>
      </trkpt>
      <trkpt lat="44.54152" lon="6.22233">
        <ele>898.40002441406</ele>
        <time>2016-07-13T13:14:55.000Z</time>
      </trkpt>
      <trkpt lat="44.54162" lon="6.22241">
        <ele>899.20001220703</ele>
        <time>2016-07-13T13:15:03.000Z</time>
      </trkpt>
      <trkpt lat="44.54169" lon="6.22252">
        <ele>900.40002441406</ele>
        <time>2016-07-13T13:15:11.000Z</time>
      </trkpt>
      <trkpt lat="44.54179" lon="6.22269">
        <ele>902.40002441406</ele>
        <time>2016-07-13T13:15:23.000Z</time>
      </trkpt>
      <trkpt lat="44.54189" lon="6.22281">
        <ele>903.59997558594</ele>
        <time>2016-07-13T13:15:33.000Z</time>
      </trkpt>
      <trkpt lat="44.54196" lon="6.22287">
        <ele>904.40002441406</ele>
        <time>2016-07-13T13:15:41.000Z</time>
      </trkpt>
      <trkpt lat="44.54206" lon="6.22292">
        <ele>905</ele>
        <time>2016-07-13T13:15:49.000Z</time>
      </trkpt>
      <trkpt lat="44.54222" lon="6.22292">
        <ele>905</ele>
        <time>2016-07-13T13:16:00.000Z</time>
      </trkpt>
      <trkpt lat="44.54229" lon="6.2229">
        <ele>905</ele>
        <time>2016-07-13T13:16:05.000Z</time>
      </trkpt>
      <trkpt lat="44.54231" lon="6.22297">
        <ele>905.79998779297</ele>
        <time>2016-07-13T13:16:10.000Z</time>
      </trkpt>
      <trkpt lat="44.54228" lon="6.22301">
        <ele>906.20001220703</ele>
        <time>2016-07-13T13:16:13.000Z</time>
      </trkpt>
      <trkpt lat="44.54222" lon="6.22305">
        <ele>906.59997558594</ele>
        <time>2016-07-13T13:16:19.000Z</time>
      </trkpt>
      <trkpt lat="44.54213" lon="6.22311">
        <ele>907</ele>
        <time>2016-07-13T13:16:26.000Z</time>
      </trkpt>
      <trkpt lat="44.54199" lon="6.22313">
        <ele>907</ele>
        <time>2016-07-13T13:16:37.000Z</time>
      </trkpt>
      <trkpt lat="44.54185" lon="6.22312">
        <ele>906.59997558594</ele>
        <time>2016-07-13T13:16:47.000Z</time>
      </trkpt>
      <trkpt lat="44.54173" lon="6.2231">
        <ele>906.20001220703</ele>
        <time>2016-07-13T13:16:57.000Z</time>
      </trkpt>
      <trkpt lat="44.54163" lon="6.22317">
        <ele>906.20001220703</ele>
        <time>2016-07-13T13:17:06.000Z</time>
      </trkpt>
      <trkpt lat="44.54162" lon="6.22328">
        <ele>906.40002441406</ele>
        <time>2016-07-13T13:17:13.000Z</time>
      </trkpt>
      <trkpt lat="44.54163" lon="6.22329">
        <ele>906.59997558594</ele>
        <time>2016-07-13T13:17:14.000Z</time>
      </trkpt>
      <trkpt lat="44.54169" lon="6.2233">
        <ele>906.59997558594</ele>
        <time>2016-07-13T13:17:20.000Z</time>
      </trkpt>
      <trkpt lat="44.54173" lon="6.2233">
        <ele>906.79998779297</ele>
        <time>2016-07-13T13:17:25.000Z</time>
      </trkpt>
      <trkpt lat="44.54184" lon="6.22332">
        <ele>907</ele>
        <time>2016-07-13T13:17:33.000Z</time>
      </trkpt>
      <trkpt lat="44.54197" lon="6.22338">
        <ele>907.59997558594</ele>
        <time>2016-07-13T13:17:43.000Z</time>
      </trkpt>
      <trkpt lat="44.54202" lon="6.22341">
        <ele>907.79998779297</ele>
        <time>2016-07-13T13:17:49.000Z</time>
      </trkpt>
      <trkpt lat="44.54209" lon="6.22345">
        <ele>908.40002441406</ele>
        <time>2016-07-13T13:17:55.000Z</time>
      </trkpt>
      <trkpt lat="44.54214" lon="6.2234">
        <ele>908.79998779297</ele>
        <time>2016-07-13T13:18:01.000Z</time>
      </trkpt>
      <trkpt lat="44.54222" lon="6.22327">
        <ele>908.59997558594</ele>
        <time>2016-07-13T13:18:09.000Z</time>
      </trkpt>
      <trkpt lat="44.54232" lon="6.22321">
        <ele>908.20001220703</ele>
        <time>2016-07-13T13:18:17.000Z</time>
      </trkpt>
      <trkpt lat="44.54243" lon="6.22323">
        <ele>908.59997558594</ele>
        <time>2016-07-13T13:18:25.000Z</time>
      </trkpt>
      <trkpt lat="44.54252" lon="6.22325">
        <ele>908.79998779297</ele>
        <time>2016-07-13T13:18:32.000Z</time>
      </trkpt>
      <trkpt lat="44.54251" lon="6.22315">
        <ele>907.79998779297</ele>
        <time>2016-07-13T13:18:38.000Z</time>
      </trkpt>
      <trkpt lat="44.54248" lon="6.223">
        <ele>906.20001220703</ele>
        <time>2016-07-13T13:18:46.000Z</time>
      </trkpt>
      <trkpt lat="44.54247" lon="6.22298">
        <ele>906</ele>
        <time>2016-07-13T13:18:47.000Z</time>
      </trkpt>
      <trkpt lat="44.54245" lon="6.22294">
        <ele>905.59997558594</ele>
        <time>2016-07-13T13:18:50.000Z</time>
      </trkpt>
      <trkpt lat="44.5425" lon="6.22289">
        <ele>905.20001220703</ele>
        <time>2016-07-13T13:18:56.000Z</time>
      </trkpt>
      <trkpt lat="44.54258" lon="6.22292">
        <ele>905.40002441406</ele>
        <time>2016-07-13T13:19:00.000Z</time>
      </trkpt>
      <trkpt lat="44.54269" lon="6.22288">
        <ele>905</ele>
        <time>2016-07-13T13:19:09.000Z</time>
      </trkpt>
      <trkpt lat="44.54282" lon="6.22281">
        <ele>904</ele>
        <time>2016-07-13T13:19:16.000Z</time>
      </trkpt>
      <trkpt lat="44.54299" lon="6.22273">
        <ele>902.59997558594</ele>
        <time>2016-07-13T13:19:23.000Z</time>
      </trkpt>
      <trkpt lat="44.54318" lon="6.22272">
        <ele>902.40002441406</ele>
        <time>2016-07-13T13:19:29.000Z</time>
      </trkpt>
      <trkpt lat="44.54335" lon="6.22277">
        <ele>902.79998779297</ele>
        <time>2016-07-13T13:19:35.000Z</time>
      </trkpt>
      <trkpt lat="44.54344" lon="6.22282">
        <ele>903.20001220703</ele>
        <time>2016-07-13T13:19:40.000Z</time>
      </trkpt>
      <trkpt lat="44.54352" lon="6.22292">
        <ele>904.59997558594</ele>
        <time>2016-07-13T13:19:48.000Z</time>
      </trkpt>
      <trkpt lat="44.54363" lon="6.22295">
        <ele>904.59997558594</ele>
        <time>2016-07-13T13:19:56.000Z</time>
      </trkpt>
      <trkpt lat="44.54369" lon="6.22284">
        <ele>903</ele>
        <time>2016-07-13T13:20:02.000Z</time>
      </trkpt>
      <trkpt lat="44.54378" lon="6.22266">
        <ele>901</ele>
        <time>2016-07-13T13:20:12.000Z</time>
      </trkpt>
      <trkpt lat="44.54387" lon="6.22253">
        <ele>899.40002441406</ele>
        <time>2016-07-13T13:20:21.000Z</time>
      </trkpt>
      <trkpt lat="44.54392" lon="6.22243">
        <ele>898.59997558594</ele>
        <time>2016-07-13T13:20:27.000Z</time>
      </trkpt>
      <trkpt lat="44.54401" lon="6.22238">
        <ele>898.79998779297</ele>
        <time>2016-07-13T13:20:34.000Z</time>
      </trkpt>
      <trkpt lat="44.54411" lon="6.22244">
        <ele>900.20001220703</ele>
        <time>2016-07-13T13:20:41.000Z</time>
      </trkpt>
      <trkpt lat="44.54419" lon="6.22243">
        <ele>901</ele>
        <time>2016-07-13T13:20:48.000Z</time>
      </trkpt>
      <trkpt lat="44.54431" lon="6.22237">
        <ele>901.40002441406</ele>
        <time>2016-07-13T13:20:58.000Z</time>
      </trkpt>
      <trkpt lat="44.54441" lon="6.22236">
        <ele>902</ele>
        <time>2016-07-13T13:21:06.000Z</time>
      </trkpt>
      <trkpt lat="44.5445" lon="6.22236">
        <ele>902.59997558594</ele>
        <time>2016-07-13T13:21:12.000Z</time>
      </trkpt>
      <trkpt lat="44.5446" lon="6.22234">
        <ele>902.40002441406</ele>
        <time>2016-07-13T13:21:20.000Z</time>
      </trkpt>
      <trkpt lat="44.54481" lon="6.22227">
        <ele>902.20001220703</ele>
        <time>2016-07-13T13:21:36.000Z</time>
      </trkpt>
      <trkpt lat="44.54492" lon="6.22219">
        <ele>901.59997558594</ele>
        <time>2016-07-13T13:21:42.000Z</time>
      </trkpt>
      <trkpt lat="44.54499" lon="6.22212">
        <ele>901</ele>
        <time>2016-07-13T13:21:47.000Z</time>
      </trkpt>
      <trkpt lat="44.545" lon="6.22211">
        <ele>900.79998779297</ele>
        <time>2016-07-13T13:21:48.000Z</time>
      </trkpt>
      <trkpt lat="44.54504" lon="6.22203">
        <ele>900.20001220703</ele>
        <time>2016-07-13T13:21:54.000Z</time>
      </trkpt>
      <trkpt lat="44.54505" lon="6.22202">
        <ele>900</ele>
        <time>2016-07-13T13:21:55.000Z</time>
      </trkpt>
      <trkpt lat="44.54507" lon="6.22194">
        <ele>898.79998779297</ele>
        <time>2016-07-13T13:22:02.000Z</time>
      </trkpt>
      <trkpt lat="44.5451" lon="6.22187">
        <ele>897.59997558594</ele>
        <time>2016-07-13T13:22:13.000Z</time>
      </trkpt>
      <trkpt lat="44.54516" lon="6.22172">
        <ele>895</ele>
        <time>2016-07-13T13:22:21.000Z</time>
      </trkpt>
      <trkpt lat="44.54545" lon="6.22141">
        <ele>889</ele>
        <time>2016-07-13T13:22:48.000Z</time>
      </trkpt>
      <trkpt lat="44.54557" lon="6.22129">
        <ele>887</ele>
        <time>2016-07-13T13:22:58.000Z</time>
      </trkpt>
      <trkpt lat="44.54566" lon="6.22116">
        <ele>885</ele>
        <time>2016-07-13T13:23:07.000Z</time>
      </trkpt>
      <trkpt lat="44.54577" lon="6.221">
        <ele>883</ele>
        <time>2016-07-13T13:23:18.000Z</time>
      </trkpt>
      <trkpt lat="44.54586" lon="6.22089">
        <ele>883.40002441406</ele>
        <time>2016-07-13T13:23:26.000Z</time>
      </trkpt>
      <trkpt lat="44.54594" lon="6.22078">
        <ele>883.59997558594</ele>
        <time>2016-07-13T13:23:33.000Z</time>
      </trkpt>
      <trkpt lat="44.54598" lon="6.22076">
        <ele>884</ele>
        <time>2016-07-13T13:23:36.000Z</time>
      </trkpt>
      <trkpt lat="44.54606" lon="6.22075">
        <ele>884.40002441406</ele>
        <time>2016-07-13T13:23:41.000Z</time>
      </trkpt>
      <trkpt lat="44.5462" lon="6.22071">
        <ele>884.79998779297</ele>
        <time>2016-07-13T13:23:51.000Z</time>
      </trkpt>
      <trkpt lat="44.54633" lon="6.22072">
        <ele>884.20001220703</ele>
        <time>2016-07-13T13:23:59.000Z</time>
      </trkpt>
      <trkpt lat="44.54643" lon="6.22065">
        <ele>885.20001220703</ele>
        <time>2016-07-13T13:24:06.000Z</time>
      </trkpt>
      <trkpt lat="44.54652" lon="6.2205">
        <ele>885.40002441406</ele>
        <time>2016-07-13T13:24:15.000Z</time>
      </trkpt>
      <trkpt lat="44.54661" lon="6.22033">
        <ele>885</ele>
        <time>2016-07-13T13:24:25.000Z</time>
      </trkpt>
      <trkpt lat="44.54675" lon="6.22011">
        <ele>885.40002441406</ele>
        <time>2016-07-13T13:24:40.000Z</time>
      </trkpt>
      <trkpt lat="44.54682" lon="6.22004">
        <ele>885.79998779297</ele>
        <time>2016-07-13T13:24:47.000Z</time>
      </trkpt>
      <trkpt lat="44.54689" lon="6.21994">
        <ele>886.20001220703</ele>
        <time>2016-07-13T13:24:55.000Z</time>
      </trkpt>
      <trkpt lat="44.54692" lon="6.21987">
        <ele>886.40002441406</ele>
        <time>2016-07-13T13:24:59.000Z</time>
      </trkpt>
      <trkpt lat="44.54695" lon="6.21983">
        <ele>886.59997558594</ele>
        <time>2016-07-13T13:25:02.000Z</time>
      </trkpt>
      <trkpt lat="44.54699" lon="6.21975">
        <ele>886.79998779297</ele>
        <time>2016-07-13T13:25:07.000Z</time>
      </trkpt>
      <trkpt lat="44.547" lon="6.21971">
        <ele>886.59997558594</ele>
        <time>2016-07-13T13:25:09.000Z</time>
      </trkpt>
      <trkpt lat="44.54703" lon="6.21956">
        <ele>885.20001220703</ele>
        <time>2016-07-13T13:25:17.000Z</time>
      </trkpt>
      <trkpt lat="44.54703" lon="6.21933">
        <ele>884.20001220703</ele>
        <time>2016-07-13T13:25:26.000Z</time>
      </trkpt>
      <trkpt lat="44.54705" lon="6.21921">
        <ele>883.20001220703</ele>
        <time>2016-07-13T13:25:32.000Z</time>
      </trkpt>
      <trkpt lat="44.54702" lon="6.21891">
        <ele>882</ele>
        <time>2016-07-13T13:25:47.000Z</time>
      </trkpt>
      <trkpt lat="44.54698" lon="6.21875">
        <ele>880.20001220703</ele>
        <time>2016-07-13T13:25:56.000Z</time>
      </trkpt>
      <trkpt lat="44.54691" lon="6.21858">
        <ele>878.59997558594</ele>
        <time>2016-07-13T13:26:06.000Z</time>
      </trkpt>
      <trkpt lat="44.54686" lon="6.21846">
        <ele>877.79998779297</ele>
        <time>2016-07-13T13:26:13.000Z</time>
      </trkpt>
      <trkpt lat="44.54679" lon="6.21832">
        <ele>876.79998779297</ele>
        <time>2016-07-13T13:26:22.000Z</time>
      </trkpt>
      <trkpt lat="44.54674" lon="6.21821">
        <ele>876</ele>
        <time>2016-07-13T13:26:29.000Z</time>
      </trkpt>
      <trkpt lat="44.54671" lon="6.21814">
        <ele>875.40002441406</ele>
        <time>2016-07-13T13:26:33.000Z</time>
      </trkpt>
      <trkpt lat="44.54664" lon="6.21798">
        <ele>875</ele>
        <time>2016-07-13T13:26:42.000Z</time>
      </trkpt>
      <trkpt lat="44.54661" lon="6.21784">
        <ele>874.20001220703</ele>
        <time>2016-07-13T13:26:49.000Z</time>
      </trkpt>
      <trkpt lat="44.54657" lon="6.21775">
        <ele>874.20001220703</ele>
        <time>2016-07-13T13:26:55.000Z</time>
      </trkpt>
      <trkpt lat="44.54653" lon="6.21766">
        <ele>874.20001220703</ele>
        <time>2016-07-13T13:27:01.000Z</time>
      </trkpt>
      <trkpt lat="44.54648" lon="6.21749">
        <ele>872.59997558594</ele>
        <time>2016-07-13T13:27:09.000Z</time>
      </trkpt>
      <trkpt lat="44.5465" lon="6.21735">
        <ele>869.59997558594</ele>
        <time>2016-07-13T13:27:16.000Z</time>
      </trkpt>
      <trkpt lat="44.54647" lon="6.2172">
        <ele>868</ele>
        <time>2016-07-13T13:27:24.000Z</time>
      </trkpt>
      <trkpt lat="44.54641" lon="6.21704">
        <ele>868</ele>
        <time>2016-07-13T13:27:34.000Z</time>
      </trkpt>
      <trkpt lat="44.54637" lon="6.21694">
        <ele>867.79998779297</ele>
        <time>2016-07-13T13:27:39.000Z</time>
      </trkpt>
      <trkpt lat="44.54633" lon="6.21681">
        <ele>867.20001220703</ele>
        <time>2016-07-13T13:27:46.000Z</time>
      </trkpt>
      <trkpt lat="44.54631" lon="6.21665">
        <ele>865.79998779297</ele>
        <time>2016-07-13T13:27:54.000Z</time>
      </trkpt>
      <trkpt lat="44.54628" lon="6.2165">
        <ele>864.40002441406</ele>
        <time>2016-07-13T13:28:03.000Z</time>
      </trkpt>
      <trkpt lat="44.54623" lon="6.21633">
        <ele>863.59997558594</ele>
        <time>2016-07-13T13:28:12.000Z</time>
      </trkpt>
      <trkpt lat="44.54623" lon="6.21617">
        <ele>861.59997558594</ele>
        <time>2016-07-13T13:28:20.000Z</time>
      </trkpt>
      <trkpt lat="44.54623" lon="6.21599">
        <ele>859</ele>
        <time>2016-07-13T13:28:29.000Z</time>
      </trkpt>
      <trkpt lat="44.54621" lon="6.2158">
        <ele>857.20001220703</ele>
        <time>2016-07-13T13:28:39.000Z</time>
      </trkpt>
      <trkpt lat="44.5462" lon="6.21566">
        <ele>855.79998779297</ele>
        <time>2016-07-13T13:28:46.000Z</time>
      </trkpt>
      <trkpt lat="44.54619" lon="6.21551">
        <ele>854.20001220703</ele>
        <time>2016-07-13T13:28:54.000Z</time>
      </trkpt>
      <trkpt lat="44.54615" lon="6.21537">
        <ele>853.59997558594</ele>
        <time>2016-07-13T13:29:02.000Z</time>
      </trkpt>
      <trkpt lat="44.54615" lon="6.21525">
        <ele>852.40002441406</ele>
        <time>2016-07-13T13:29:07.000Z</time>
      </trkpt>
      <trkpt lat="44.54615" lon="6.21521">
        <ele>851.79998779297</ele>
        <time>2016-07-13T13:29:10.000Z</time>
      </trkpt>
      <trkpt lat="44.54615" lon="6.21512">
        <ele>850.79998779297</ele>
        <time>2016-07-13T13:29:15.000Z</time>
      </trkpt>
      <trkpt lat="44.54614" lon="6.21497">
        <ele>849.40002441406</ele>
        <time>2016-07-13T13:29:22.000Z</time>
      </trkpt>
      <trkpt lat="44.54611" lon="6.21486">
        <ele>849.20001220703</ele>
        <time>2016-07-13T13:29:27.000Z</time>
      </trkpt>
      <trkpt lat="44.54611" lon="6.21481">
        <ele>848.79998779297</ele>
        <time>2016-07-13T13:29:30.000Z</time>
      </trkpt>
      <trkpt lat="44.54602" lon="6.21458">
        <ele>849.59997558594</ele>
        <time>2016-07-13T13:29:43.000Z</time>
      </trkpt>
      <trkpt lat="44.54597" lon="6.21444">
        <ele>850</ele>
        <time>2016-07-13T13:29:50.000Z</time>
      </trkpt>
      <trkpt lat="44.54598" lon="6.21428">
        <ele>848.20001220703</ele>
        <time>2016-07-13T13:29:57.000Z</time>
      </trkpt>
      <trkpt lat="44.54596" lon="6.21414">
        <ele>847</ele>
        <time>2016-07-13T13:30:04.000Z</time>
      </trkpt>
      <trkpt lat="44.54596" lon="6.21413">
        <ele>847.20001220703</ele>
        <time>2016-07-13T13:30:06.000Z</time>
      </trkpt>
      <trkpt lat="44.54595" lon="6.21409">
        <ele>847.20001220703</ele>
        <time>2016-07-13T13:30:08.000Z</time>
      </trkpt>
      <trkpt lat="44.54593" lon="6.21397">
        <ele>846.59997558594</ele>
        <time>2016-07-13T13:30:14.000Z</time>
      </trkpt>
      <trkpt lat="44.54593" lon="6.21386">
        <ele>844.79998779297</ele>
        <time>2016-07-13T13:30:19.000Z</time>
      </trkpt>
      <trkpt lat="44.54593" lon="6.21379">
        <ele>843.59997558594</ele>
        <time>2016-07-13T13:30:23.000Z</time>
      </trkpt>
      <trkpt lat="44.54591" lon="6.2137">
        <ele>842.59997558594</ele>
        <time>2016-07-13T13:30:29.000Z</time>
      </trkpt>
      <trkpt lat="44.54591" lon="6.21368">
        <ele>842.59997558594</ele>
        <time>2016-07-13T13:30:30.000Z</time>
      </trkpt>
      <trkpt lat="44.54588" lon="6.21362">
        <ele>842.79998779297</ele>
        <time>2016-07-13T13:30:34.000Z</time>
      </trkpt>
      <trkpt lat="44.54588" lon="6.21359">
        <ele>842.20001220703</ele>
        <time>2016-07-13T13:30:36.000Z</time>
      </trkpt>
      <trkpt lat="44.54588" lon="6.21352">
        <ele>841.20001220703</ele>
        <time>2016-07-13T13:30:40.000Z</time>
      </trkpt>
      <trkpt lat="44.54587" lon="6.21345">
        <ele>840.79998779297</ele>
        <time>2016-07-13T13:30:43.000Z</time>
      </trkpt>
      <trkpt lat="44.54583" lon="6.21325">
        <ele>839.20001220703</ele>
        <time>2016-07-13T13:30:54.000Z</time>
      </trkpt>
      <trkpt lat="44.54581" lon="6.2132">
        <ele>839.40002441406</ele>
        <time>2016-07-13T13:30:58.000Z</time>
      </trkpt>
      <trkpt lat="44.5458" lon="6.21317">
        <ele>839.40002441406</ele>
        <time>2016-07-13T13:31:01.000Z</time>
      </trkpt>
      <trkpt lat="44.54577" lon="6.21309">
        <ele>839.20001220703</ele>
        <time>2016-07-13T13:31:05.000Z</time>
      </trkpt>
      <trkpt lat="44.54573" lon="6.21294">
        <ele>837.20001220703</ele>
        <time>2016-07-13T13:31:12.000Z</time>
      </trkpt>
      <trkpt lat="44.54571" lon="6.21279">
        <ele>835</ele>
        <time>2016-07-13T13:31:20.000Z</time>
      </trkpt>
      <trkpt lat="44.54571" lon="6.21277">
        <ele>834.79998779297</ele>
        <time>2016-07-13T13:31:21.000Z</time>
      </trkpt>
      <trkpt lat="44.54563" lon="6.21266">
        <ele>835</ele>
        <time>2016-07-13T13:31:28.000Z</time>
      </trkpt>
      <trkpt lat="44.5456" lon="6.21262">
        <ele>835.59997558594</ele>
        <time>2016-07-13T13:31:31.000Z</time>
      </trkpt>
      <trkpt lat="44.54556" lon="6.21249">
        <ele>834.40002441406</ele>
        <time>2016-07-13T13:31:39.000Z</time>
      </trkpt>
      <trkpt lat="44.54553" lon="6.21235">
        <ele>832.79998779297</ele>
        <time>2016-07-13T13:31:45.000Z</time>
      </trkpt>
      <trkpt lat="44.54551" lon="6.21222">
        <ele>831.40002441406</ele>
        <time>2016-07-13T13:31:51.000Z</time>
      </trkpt>
      <trkpt lat="44.54549" lon="6.21214">
        <ele>831</ele>
        <time>2016-07-13T13:31:56.000Z</time>
      </trkpt>
      <trkpt lat="44.54548" lon="6.21212">
        <ele>830.79998779297</ele>
        <time>2016-07-13T13:31:57.000Z</time>
      </trkpt>
      <trkpt lat="44.54547" lon="6.21205">
        <ele>830.40002441406</ele>
        <time>2016-07-13T13:32:00.000Z</time>
      </trkpt>
      <trkpt lat="44.54546" lon="6.21198">
        <ele>829.79998779297</ele>
        <time>2016-07-13T13:32:03.000Z</time>
      </trkpt>
      <trkpt lat="44.54546" lon="6.21186">
        <ele>828</ele>
        <time>2016-07-13T13:32:08.000Z</time>
      </trkpt>
      <trkpt lat="44.54546" lon="6.21183">
        <ele>827.59997558594</ele>
        <time>2016-07-13T13:32:09.000Z</time>
      </trkpt>
      <trkpt lat="44.54546" lon="6.21169">
        <ele>825.59997558594</ele>
        <time>2016-07-13T13:32:16.000Z</time>
      </trkpt>
      <trkpt lat="44.54541" lon="6.21156">
        <ele>825.20001220703</ele>
        <time>2016-07-13T13:32:23.000Z</time>
      </trkpt>
      <trkpt lat="44.54538" lon="6.21142">
        <ele>824.20001220703</ele>
        <time>2016-07-13T13:32:30.000Z</time>
      </trkpt>
      <trkpt lat="44.54535" lon="6.21135">
        <ele>824</ele>
        <time>2016-07-13T13:32:34.000Z</time>
      </trkpt>
      <trkpt lat="44.54532" lon="6.21126">
        <ele>823</ele>
        <time>2016-07-13T13:32:39.000Z</time>
      </trkpt>
      <trkpt lat="44.54527" lon="6.21118">
        <ele>821.79998779297</ele>
        <time>2016-07-13T13:32:44.000Z</time>
      </trkpt>
      <trkpt lat="44.54523" lon="6.21107">
        <ele>820</ele>
        <time>2016-07-13T13:32:49.000Z</time>
      </trkpt>
      <trkpt lat="44.54521" lon="6.21093">
        <ele>817.79998779297</ele>
        <time>2016-07-13T13:32:55.000Z</time>
      </trkpt>
      <trkpt lat="44.54522" lon="6.21078">
        <ele>815.40002441406</ele>
        <time>2016-07-13T13:33:02.000Z</time>
      </trkpt>
      <trkpt lat="44.54521" lon="6.21061">
        <ele>812.79998779297</ele>
        <time>2016-07-13T13:33:10.000Z</time>
      </trkpt>
      <trkpt lat="44.5452" lon="6.21041">
        <ele>812.20001220703</ele>
        <time>2016-07-13T13:33:18.000Z</time>
      </trkpt>
      <trkpt lat="44.54519" lon="6.21031">
        <ele>810.59997558594</ele>
        <time>2016-07-13T13:33:23.000Z</time>
      </trkpt>
      <trkpt lat="44.54515" lon="6.21011">
        <ele>807.79998779297</ele>
        <time>2016-07-13T13:33:32.000Z</time>
      </trkpt>
      <trkpt lat="44.54513" lon="6.20996">
        <ele>805.59997558594</ele>
        <time>2016-07-13T13:33:40.000Z</time>
      </trkpt>
      <trkpt lat="44.54512" lon="6.20983">
        <ele>803.79998779297</ele>
        <time>2016-07-13T13:33:46.000Z</time>
      </trkpt>
      <trkpt lat="44.54509" lon="6.20967">
        <ele>801.79998779297</ele>
        <time>2016-07-13T13:33:54.000Z</time>
      </trkpt>
      <trkpt lat="44.54509" lon="6.20966">
        <ele>801.59997558594</ele>
        <time>2016-07-13T13:33:55.000Z</time>
      </trkpt>
      <trkpt lat="44.54511" lon="6.2096">
        <ele>800.20001220703</ele>
        <time>2016-07-13T13:33:58.000Z</time>
      </trkpt>
      <trkpt lat="44.54513" lon="6.20955">
        <ele>799</ele>
        <time>2016-07-13T13:34:01.000Z</time>
      </trkpt>
      <trkpt lat="44.54523" lon="6.20956">
        <ele>797.40002441406</ele>
        <time>2016-07-13T13:34:08.000Z</time>
      </trkpt>
      <trkpt lat="44.54526" lon="6.20957">
        <ele>797</ele>
        <time>2016-07-13T13:34:10.000Z</time>
      </trkpt>
      <trkpt lat="44.54539" lon="6.20957">
        <ele>794.20001220703</ele>
        <time>2016-07-13T13:34:18.000Z</time>
      </trkpt>
      <trkpt lat="44.54541" lon="6.20955">
        <ele>793.40002441406</ele>
        <time>2016-07-13T13:34:20.000Z</time>
      </trkpt>
      <trkpt lat="44.54542" lon="6.20944">
        <ele>791.20001220703</ele>
        <time>2016-07-13T13:34:27.000Z</time>
      </trkpt>
      <trkpt lat="44.54541" lon="6.20943">
        <ele>791.20001220703</ele>
        <time>2016-07-13T13:34:28.000Z</time>
      </trkpt>
      <trkpt lat="44.54534" lon="6.2093">
        <ele>790.79998779297</ele>
        <time>2016-07-13T13:34:36.000Z</time>
      </trkpt>
      <trkpt lat="44.54523" lon="6.20915">
        <ele>790.59997558594</ele>
        <time>2016-07-13T13:34:46.000Z</time>
      </trkpt>
      <trkpt lat="44.54518" lon="6.20911">
        <ele>790.79998779297</ele>
        <time>2016-07-13T13:34:50.000Z</time>
      </trkpt>
      <trkpt lat="44.54523" lon="6.20906">
        <ele>788.79998779297</ele>
        <time>2016-07-13T13:34:55.000Z</time>
      </trkpt>
      <trkpt lat="44.54525" lon="6.20906">
        <ele>788.59997558594</ele>
        <time>2016-07-13T13:34:56.000Z</time>
      </trkpt>
      <trkpt lat="44.54536" lon="6.20905">
        <ele>786.40002441406</ele>
        <time>2016-07-13T13:35:03.000Z</time>
      </trkpt>
      <trkpt lat="44.54545" lon="6.20901">
        <ele>783.79998779297</ele>
        <time>2016-07-13T13:35:09.000Z</time>
      </trkpt>
      <trkpt lat="44.54557" lon="6.20896">
        <ele>782.20001220703</ele>
        <time>2016-07-13T13:35:16.000Z</time>
      </trkpt>
      <trkpt lat="44.5457" lon="6.20893">
        <ele>780.40002441406</ele>
        <time>2016-07-13T13:35:24.000Z</time>
      </trkpt>
      <trkpt lat="44.54597" lon="6.20891">
        <ele>777</ele>
        <time>2016-07-13T13:35:41.000Z</time>
      </trkpt>
      <trkpt lat="44.54611" lon="6.20889">
        <ele>775</ele>
        <time>2016-07-13T13:35:50.000Z</time>
      </trkpt>
      <trkpt lat="44.54619" lon="6.2089">
        <ele>775</ele>
        <time>2016-07-13T13:35:56.000Z</time>
      </trkpt>
      <trkpt lat="44.54629" lon="6.2089">
        <ele>775</ele>
        <time>2016-07-13T13:36:04.000Z</time>
      </trkpt>
      <trkpt lat="44.54638" lon="6.20894">
        <ele>775.20001220703</ele>
        <time>2016-07-13T13:36:10.000Z</time>
      </trkpt>
      <trkpt lat="44.54644" lon="6.20901">
        <ele>775.40002441406</ele>
        <time>2016-07-13T13:36:16.000Z</time>
      </trkpt>
      <trkpt lat="44.54645" lon="6.20902">
        <ele>775.40002441406</ele>
        <time>2016-07-13T13:36:17.000Z</time>
      </trkpt>
      <trkpt lat="44.54649" lon="6.20907">
        <ele>775.40002441406</ele>
        <time>2016-07-13T13:36:21.000Z</time>
      </trkpt>
      <trkpt lat="44.5465" lon="6.20908">
        <ele>775.40002441406</ele>
        <time>2016-07-13T13:36:30.000Z</time>
      </trkpt>
      <trkpt lat="44.54649" lon="6.20903">
        <ele>775.40002441406</ele>
        <time>2016-07-13T13:36:39.000Z</time>
      </trkpt>
      <trkpt lat="44.54647" lon="6.20898">
        <ele>775.40002441406</ele>
        <time>2016-07-13T13:36:43.000Z</time>
      </trkpt>
      <trkpt lat="44.5465" lon="6.20895">
        <ele>775.40002441406</ele>
        <time>2016-07-13T13:37:05.000Z</time>
      </trkpt>
      <trkpt lat="44.54649" lon="6.20895">
        <ele>775.40002441406</ele>
        <time>2016-07-13T13:37:20.000Z</time>
      </trkpt>
      <trkpt lat="44.54648" lon="6.20896">
        <ele>775.40002441406</ele>
        <time>2016-07-13T13:38:00.000Z</time>
      </trkpt>
      <trkpt lat="44.54653" lon="6.20891">
        <ele>775.40002441406</ele>
        <time>2016-07-13T13:38:09.000Z</time>
      </trkpt>
      <trkpt lat="44.54663" lon="6.20888">
        <ele>775.40002441406</ele>
        <time>2016-07-13T13:38:15.000Z</time>
      </trkpt>
      <trkpt lat="44.54675" lon="6.20883">
        <ele>775.59997558594</ele>
        <time>2016-07-13T13:38:21.000Z</time>
      </trkpt>
      <trkpt lat="44.54686" lon="6.20881">
        <ele>775.59997558594</ele>
        <time>2016-07-13T13:38:28.000Z</time>
      </trkpt>
      <trkpt lat="44.54696" lon="6.20884">
        <ele>775.79998779297</ele>
        <time>2016-07-13T13:38:34.000Z</time>
      </trkpt>
      <trkpt lat="44.54711" lon="6.2089">
        <ele>776</ele>
        <time>2016-07-13T13:38:44.000Z</time>
      </trkpt>
      <trkpt lat="44.54721" lon="6.20895">
        <ele>776.20001220703</ele>
        <time>2016-07-13T13:38:51.000Z</time>
      </trkpt>
      <trkpt lat="44.54731" lon="6.20895">
        <ele>776.40002441406</ele>
        <time>2016-07-13T13:38:57.000Z</time>
      </trkpt>
      <trkpt lat="44.54739" lon="6.20894">
        <ele>776.40002441406</ele>
        <time>2016-07-13T13:39:03.000Z</time>
      </trkpt>
      <trkpt lat="44.54749" lon="6.20886">
        <ele>776.40002441406</ele>
        <time>2016-07-13T13:39:10.000Z</time>
      </trkpt>
      <trkpt lat="44.54763" lon="6.20882">
        <ele>776.40002441406</ele>
        <time>2016-07-13T13:39:16.000Z</time>
      </trkpt>
      <trkpt lat="44.54782" lon="6.2087">
        <ele>776.40002441406</ele>
        <time>2016-07-13T13:39:21.000Z</time>
      </trkpt>
      <trkpt lat="44.54801" lon="6.20862">
        <ele>776.40002441406</ele>
        <time>2016-07-13T13:39:26.000Z</time>
      </trkpt>
      <trkpt lat="44.54821" lon="6.20859">
        <ele>776.59997558594</ele>
        <time>2016-07-13T13:39:30.000Z</time>
      </trkpt>
      <trkpt lat="44.54868" lon="6.20864">
        <ele>777.59997558594</ele>
        <time>2016-07-13T13:39:40.000Z</time>
      </trkpt>
      <trkpt lat="44.54881" lon="6.20863">
        <ele>778.20001220703</ele>
        <time>2016-07-13T13:39:43.000Z</time>
      </trkpt>
      <trkpt lat="44.54904" lon="6.20852">
        <ele>778.79998779297</ele>
        <time>2016-07-13T13:39:48.000Z</time>
      </trkpt>
      <trkpt lat="44.54924" lon="6.20845">
        <ele>779.59997558594</ele>
        <time>2016-07-13T13:39:52.000Z</time>
      </trkpt>
      <trkpt lat="44.54929" lon="6.20845">
        <ele>780</ele>
        <time>2016-07-13T13:39:53.000Z</time>
      </trkpt>
      <trkpt lat="44.54947" lon="6.20844">
        <ele>780.79998779297</ele>
        <time>2016-07-13T13:39:57.000Z</time>
      </trkpt>
      <trkpt lat="44.54965" lon="6.20842">
        <ele>781.20001220703</ele>
        <time>2016-07-13T13:40:01.000Z</time>
      </trkpt>
      <trkpt lat="44.5497" lon="6.20842">
        <ele>781.20001220703</ele>
        <time>2016-07-13T13:40:02.000Z</time>
      </trkpt>
      <trkpt lat="44.54983" lon="6.20837">
        <ele>781.40002441406</ele>
        <time>2016-07-13T13:40:05.000Z</time>
      </trkpt>
      <trkpt lat="44.55004" lon="6.20821">
        <ele>782.20001220703</ele>
        <time>2016-07-13T13:40:10.000Z</time>
      </trkpt>
      <trkpt lat="44.55021" lon="6.20807">
        <ele>782.59997558594</ele>
        <time>2016-07-13T13:40:14.000Z</time>
      </trkpt>
      <trkpt lat="44.55038" lon="6.20795">
        <ele>783</ele>
        <time>2016-07-13T13:40:18.000Z</time>
      </trkpt>
      <trkpt lat="44.55056" lon="6.20787">
        <ele>783.40002441406</ele>
        <time>2016-07-13T13:40:22.000Z</time>
      </trkpt>
      <trkpt lat="44.55073" lon="6.20777">
        <ele>784</ele>
        <time>2016-07-13T13:40:26.000Z</time>
      </trkpt>
      <trkpt lat="44.55106" lon="6.20756">
        <ele>785.40002441406</ele>
        <time>2016-07-13T13:40:33.000Z</time>
      </trkpt>
      <trkpt lat="44.5511" lon="6.20753">
        <ele>785.59997558594</ele>
        <time>2016-07-13T13:40:34.000Z</time>
      </trkpt>
      <trkpt lat="44.55131" lon="6.20744">
        <ele>786.59997558594</ele>
        <time>2016-07-13T13:40:39.000Z</time>
      </trkpt>
      <trkpt lat="44.55151" lon="6.20737">
        <ele>787.40002441406</ele>
        <time>2016-07-13T13:40:43.000Z</time>
      </trkpt>
      <trkpt lat="44.55172" lon="6.20732">
        <ele>788</ele>
        <time>2016-07-13T13:40:49.000Z</time>
      </trkpt>
      <trkpt lat="44.55189" lon="6.20724">
        <ele>788.59997558594</ele>
        <time>2016-07-13T13:40:55.000Z</time>
      </trkpt>
      <trkpt lat="44.55207" lon="6.20713">
        <ele>789</ele>
        <time>2016-07-13T13:41:02.000Z</time>
      </trkpt>
      <trkpt lat="44.55223" lon="6.20701">
        <ele>789.40002441406</ele>
        <time>2016-07-13T13:41:11.000Z</time>
      </trkpt>
      <trkpt lat="44.55234" lon="6.20693">
        <ele>789.79998779297</ele>
        <time>2016-07-13T13:41:19.000Z</time>
      </trkpt>
      <trkpt lat="44.55248" lon="6.20683">
        <ele>790.20001220703</ele>
        <time>2016-07-13T13:41:30.000Z</time>
      </trkpt>
      <trkpt lat="44.5527" lon="6.20666">
        <ele>790.79998779297</ele>
        <time>2016-07-13T13:41:48.000Z</time>
      </trkpt>
      <trkpt lat="44.55282" lon="6.20659">
        <ele>791</ele>
        <time>2016-07-13T13:41:57.000Z</time>
      </trkpt>
      <trkpt lat="44.55292" lon="6.20653">
        <ele>791.40002441406</ele>
        <time>2016-07-13T13:42:04.000Z</time>
      </trkpt>
      <trkpt lat="44.55305" lon="6.20652">
        <ele>791.40002441406</ele>
        <time>2016-07-13T13:42:14.000Z</time>
      </trkpt>
      <trkpt lat="44.55318" lon="6.2065">
        <ele>791.59997558594</ele>
        <time>2016-07-13T13:42:21.000Z</time>
      </trkpt>
      <trkpt lat="44.5533" lon="6.20649">
        <ele>791.59997558594</ele>
        <time>2016-07-13T13:42:30.000Z</time>
      </trkpt>
      <trkpt lat="44.55346" lon="6.20651">
        <ele>792</ele>
        <time>2016-07-13T13:42:40.000Z</time>
      </trkpt>
      <trkpt lat="44.5536" lon="6.20654">
        <ele>792.20001220703</ele>
        <time>2016-07-13T13:42:50.000Z</time>
      </trkpt>
      <trkpt lat="44.5537" lon="6.20656">
        <ele>792.40002441406</ele>
        <time>2016-07-13T13:42:58.000Z</time>
      </trkpt>
      <trkpt lat="44.55382" lon="6.2066">
        <ele>793</ele>
        <time>2016-07-13T13:43:05.000Z</time>
      </trkpt>
      <trkpt lat="44.55398" lon="6.20663">
        <ele>793.79998779297</ele>
        <time>2016-07-13T13:43:14.000Z</time>
      </trkpt>
      <trkpt lat="44.55413" lon="6.20665">
        <ele>794.79998779297</ele>
        <time>2016-07-13T13:43:23.000Z</time>
      </trkpt>
      <trkpt lat="44.55434" lon="6.20668">
        <ele>796</ele>
        <time>2016-07-13T13:43:37.000Z</time>
      </trkpt>
      <trkpt lat="44.55452" lon="6.20667">
        <ele>797</ele>
        <time>2016-07-13T13:43:49.000Z</time>
      </trkpt>
      <trkpt lat="44.55464" lon="6.20669">
        <ele>797.79998779297</ele>
        <time>2016-07-13T13:43:56.000Z</time>
      </trkpt>
      <trkpt lat="44.55475" lon="6.20674">
        <ele>798.40002441406</ele>
        <time>2016-07-13T13:44:05.000Z</time>
      </trkpt>
      <trkpt lat="44.55484" lon="6.20682">
        <ele>799</ele>
        <time>2016-07-13T13:44:13.000Z</time>
      </trkpt>
      <trkpt lat="44.55491" lon="6.20691">
        <ele>799.40002441406</ele>
        <time>2016-07-13T13:44:20.000Z</time>
      </trkpt>
      <trkpt lat="44.55503" lon="6.207">
        <ele>800.20001220703</ele>
        <time>2016-07-13T13:44:28.000Z</time>
      </trkpt>
      <trkpt lat="44.55522" lon="6.20711">
        <ele>801.20001220703</ele>
        <time>2016-07-13T13:44:40.000Z</time>
      </trkpt>
      <trkpt lat="44.55535" lon="6.2072">
        <ele>802</ele>
        <time>2016-07-13T13:44:49.000Z</time>
      </trkpt>
      <trkpt lat="44.55551" lon="6.2073">
        <ele>802.59997558594</ele>
        <time>2016-07-13T13:45:00.000Z</time>
      </trkpt>
      <trkpt lat="44.5556" lon="6.2074">
        <ele>803.40002441406</ele>
        <time>2016-07-13T13:45:07.000Z</time>
      </trkpt>
      <trkpt lat="44.55576" lon="6.20767">
        <ele>805.40002441406</ele>
        <time>2016-07-13T13:45:23.000Z</time>
      </trkpt>
      <trkpt lat="44.55587" lon="6.20778">
        <ele>806.20001220703</ele>
        <time>2016-07-13T13:45:31.000Z</time>
      </trkpt>
      <trkpt lat="44.55596" lon="6.20784">
        <ele>806.79998779297</ele>
        <time>2016-07-13T13:45:38.000Z</time>
      </trkpt>
      <trkpt lat="44.55602" lon="6.20794">
        <ele>807.59997558594</ele>
        <time>2016-07-13T13:45:44.000Z</time>
      </trkpt>
      <trkpt lat="44.5561" lon="6.20803">
        <ele>808.20001220703</ele>
        <time>2016-07-13T13:45:50.000Z</time>
      </trkpt>
      <trkpt lat="44.55624" lon="6.20818">
        <ele>809.20001220703</ele>
        <time>2016-07-13T13:46:02.000Z</time>
      </trkpt>
      <trkpt lat="44.55636" lon="6.20832">
        <ele>809.40002441406</ele>
        <time>2016-07-13T13:46:14.000Z</time>
      </trkpt>
      <trkpt lat="44.55643" lon="6.2084">
        <ele>809.59997558594</ele>
        <time>2016-07-13T13:46:20.000Z</time>
      </trkpt>
      <trkpt lat="44.55648" lon="6.20842">
        <ele>809.79998779297</ele>
        <time>2016-07-13T13:46:25.000Z</time>
      </trkpt>
      <trkpt lat="44.55668" lon="6.2087">
        <ele>810.20001220703</ele>
        <time>2016-07-13T13:46:45.000Z</time>
      </trkpt>
      <trkpt lat="44.55671" lon="6.20872">
        <ele>810.20001220703</ele>
        <time>2016-07-13T13:46:48.000Z</time>
      </trkpt>
      <trkpt lat="44.55678" lon="6.20879">
        <ele>810.40002441406</ele>
        <time>2016-07-13T13:46:55.000Z</time>
      </trkpt>
      <trkpt lat="44.55681" lon="6.2088">
        <ele>810.59997558594</ele>
        <time>2016-07-13T13:47:04.000Z</time>
      </trkpt>
      <trkpt lat="44.55684" lon="6.20887">
        <ele>810.59997558594</ele>
        <time>2016-07-13T13:47:13.000Z</time>
      </trkpt>
      <trkpt lat="44.55688" lon="6.209">
        <ele>810.59997558594</ele>
        <time>2016-07-13T13:47:20.000Z</time>
      </trkpt>
      <trkpt lat="44.5569" lon="6.20918">
        <ele>810.20001220703</ele>
        <time>2016-07-13T13:47:28.000Z</time>
      </trkpt>
      <trkpt lat="44.55693" lon="6.20933">
        <ele>809.79998779297</ele>
        <time>2016-07-13T13:47:35.000Z</time>
      </trkpt>
      <trkpt lat="44.55695" lon="6.20946">
        <ele>809.59997558594</ele>
        <time>2016-07-13T13:47:41.000Z</time>
      </trkpt>
      <trkpt lat="44.55698" lon="6.20961">
        <ele>809.40002441406</ele>
        <time>2016-07-13T13:47:47.000Z</time>
      </trkpt>
      <trkpt lat="44.55706" lon="6.20981">
        <ele>809.40002441406</ele>
        <time>2016-07-13T13:47:56.000Z</time>
      </trkpt>
      <trkpt lat="44.55714" lon="6.20992">
        <ele>810.20001220703</ele>
        <time>2016-07-13T13:48:05.000Z</time>
      </trkpt>
      <trkpt lat="44.55723" lon="6.21006">
        <ele>811</ele>
        <time>2016-07-13T13:48:13.000Z</time>
      </trkpt>
      <trkpt lat="44.5573" lon="6.21016">
        <ele>811.59997558594</ele>
        <time>2016-07-13T13:48:20.000Z</time>
      </trkpt>
      <trkpt lat="44.55741" lon="6.21027">
        <ele>812.59997558594</ele>
        <time>2016-07-13T13:48:30.000Z</time>
      </trkpt>
      <trkpt lat="44.55748" lon="6.21038">
        <ele>813.20001220703</ele>
        <time>2016-07-13T13:48:37.000Z</time>
      </trkpt>
      <trkpt lat="44.55758" lon="6.21047">
        <ele>814</ele>
        <time>2016-07-13T13:48:44.000Z</time>
      </trkpt>
      <trkpt lat="44.55771" lon="6.21054">
        <ele>815</ele>
        <time>2016-07-13T13:48:55.000Z</time>
      </trkpt>
      <trkpt lat="44.55777" lon="6.21064">
        <ele>815.59997558594</ele>
        <time>2016-07-13T13:49:02.000Z</time>
      </trkpt>
      <trkpt lat="44.55787" lon="6.21068">
        <ele>816.40002441406</ele>
        <time>2016-07-13T13:49:09.000Z</time>
      </trkpt>
      <trkpt lat="44.55799" lon="6.21069">
        <ele>816.79998779297</ele>
        <time>2016-07-13T13:49:18.000Z</time>
      </trkpt>
      <trkpt lat="44.55814" lon="6.21074">
        <ele>817.40002441406</ele>
        <time>2016-07-13T13:49:28.000Z</time>
      </trkpt>
      <trkpt lat="44.55824" lon="6.21082">
        <ele>818</ele>
        <time>2016-07-13T13:49:37.000Z</time>
      </trkpt>
      <trkpt lat="44.55832" lon="6.21085">
        <ele>818.20001220703</ele>
        <time>2016-07-13T13:49:43.000Z</time>
      </trkpt>
      <trkpt lat="44.5585" lon="6.21085">
        <ele>819</ele>
        <time>2016-07-13T13:49:55.000Z</time>
      </trkpt>
      <trkpt lat="44.55854" lon="6.21085">
        <ele>819</ele>
        <time>2016-07-13T13:49:59.000Z</time>
      </trkpt>
      <trkpt lat="44.55858" lon="6.21084">
        <ele>819.20001220703</ele>
        <time>2016-07-13T13:50:02.000Z</time>
      </trkpt>
      <trkpt lat="44.55871" lon="6.21091">
        <ele>819.79998779297</ele>
        <time>2016-07-13T13:50:12.000Z</time>
      </trkpt>
      <trkpt lat="44.5588" lon="6.21093">
        <ele>820.40002441406</ele>
        <time>2016-07-13T13:50:19.000Z</time>
      </trkpt>
      <trkpt lat="44.5589" lon="6.21095">
        <ele>820.79998779297</ele>
        <time>2016-07-13T13:50:26.000Z</time>
      </trkpt>
      <trkpt lat="44.55917" lon="6.21099">
        <ele>822.40002441406</ele>
        <time>2016-07-13T13:50:47.000Z</time>
      </trkpt>
      <trkpt lat="44.55927" lon="6.21103">
        <ele>823</ele>
        <time>2016-07-13T13:50:54.000Z</time>
      </trkpt>
      <trkpt lat="44.55937" lon="6.21108">
        <ele>823.79998779297</ele>
        <time>2016-07-13T13:51:02.000Z</time>
      </trkpt>
      <trkpt lat="44.55946" lon="6.21112">
        <ele>824.40002441406</ele>
        <time>2016-07-13T13:51:10.000Z</time>
      </trkpt>
      <trkpt lat="44.5596" lon="6.21115">
        <ele>825</ele>
        <time>2016-07-13T13:51:20.000Z</time>
      </trkpt>
      <trkpt lat="44.55972" lon="6.21111">
        <ele>825.59997558594</ele>
        <time>2016-07-13T13:51:28.000Z</time>
      </trkpt>
      <trkpt lat="44.55983" lon="6.21104">
        <ele>826</ele>
        <time>2016-07-13T13:51:37.000Z</time>
      </trkpt>
      <trkpt lat="44.55994" lon="6.21102">
        <ele>826.59997558594</ele>
        <time>2016-07-13T13:51:44.000Z</time>
      </trkpt>
      <trkpt lat="44.56003" lon="6.21104">
        <ele>827.20001220703</ele>
        <time>2016-07-13T13:51:50.000Z</time>
      </trkpt>
      <trkpt lat="44.56012" lon="6.21106">
        <ele>827.59997558594</ele>
        <time>2016-07-13T13:51:58.000Z</time>
      </trkpt>
      <trkpt lat="44.56025" lon="6.21111">
        <ele>828.40002441406</ele>
        <time>2016-07-13T13:52:07.000Z</time>
      </trkpt>
      <trkpt lat="44.5604" lon="6.2111">
        <ele>829.20001220703</ele>
        <time>2016-07-13T13:52:17.000Z</time>
      </trkpt>
      <trkpt lat="44.56052" lon="6.21107">
        <ele>829.79998779297</ele>
        <time>2016-07-13T13:52:25.000Z</time>
      </trkpt>
      <trkpt lat="44.56065" lon="6.21107">
        <ele>830.40002441406</ele>
        <time>2016-07-13T13:52:34.000Z</time>
      </trkpt>
      <trkpt lat="44.56079" lon="6.21105">
        <ele>831.20001220703</ele>
        <time>2016-07-13T13:52:44.000Z</time>
      </trkpt>
      <trkpt lat="44.56097" lon="6.21102">
        <ele>832</ele>
        <time>2016-07-13T13:52:56.000Z</time>
      </trkpt>
      <trkpt lat="44.56099" lon="6.21102">
        <ele>832</ele>
        <time>2016-07-13T13:52:57.000Z</time>
      </trkpt>
      <trkpt lat="44.56119" lon="6.21116">
        <ele>833</ele>
        <time>2016-07-13T13:53:14.000Z</time>
      </trkpt>
      <trkpt lat="44.56132" lon="6.2112">
        <ele>833.79998779297</ele>
        <time>2016-07-13T13:53:20.000Z</time>
      </trkpt>
      <trkpt lat="44.56147" lon="6.21122">
        <ele>834.79998779297</ele>
        <time>2016-07-13T13:53:26.000Z</time>
      </trkpt>
      <trkpt lat="44.56149" lon="6.21137">
        <ele>834.79998779297</ele>
        <time>2016-07-13T13:53:35.000Z</time>
      </trkpt>
      <trkpt lat="44.56141" lon="6.21151">
        <ele>834.40002441406</ele>
        <time>2016-07-13T13:53:43.000Z</time>
      </trkpt>
      <trkpt lat="44.56134" lon="6.21167">
        <ele>834.20001220703</ele>
        <time>2016-07-13T13:53:53.000Z</time>
      </trkpt>
      <trkpt lat="44.56134" lon="6.21181">
        <ele>834</ele>
        <time>2016-07-13T13:54:00.000Z</time>
      </trkpt>
      <trkpt lat="44.56143" lon="6.21195">
        <ele>834.40002441406</ele>
        <time>2016-07-13T13:54:08.000Z</time>
      </trkpt>
      <trkpt lat="44.56149" lon="6.21214">
        <ele>834.79998779297</ele>
        <time>2016-07-13T13:54:18.000Z</time>
      </trkpt>
      <trkpt lat="44.56155" lon="6.2123">
        <ele>835.20001220703</ele>
        <time>2016-07-13T13:54:26.000Z</time>
      </trkpt>
      <trkpt lat="44.5616" lon="6.21248">
        <ele>835.59997558594</ele>
        <time>2016-07-13T13:54:35.000Z</time>
      </trkpt>
      <trkpt lat="44.56163" lon="6.21262">
        <ele>835.79998779297</ele>
        <time>2016-07-13T13:54:42.000Z</time>
      </trkpt>
      <trkpt lat="44.56162" lon="6.21281">
        <ele>835.59997558594</ele>
        <time>2016-07-13T13:54:50.000Z</time>
      </trkpt>
      <trkpt lat="44.56158" lon="6.213">
        <ele>835</ele>
        <time>2016-07-13T13:55:00.000Z</time>
      </trkpt>
      <trkpt lat="44.56153" lon="6.21325">
        <ele>834.59997558594</ele>
        <time>2016-07-13T13:55:12.000Z</time>
      </trkpt>
      <trkpt lat="44.5615" lon="6.21347">
        <ele>834.40002441406</ele>
        <time>2016-07-13T13:55:23.000Z</time>
      </trkpt>
      <trkpt lat="44.56152" lon="6.21354">
        <ele>834.79998779297</ele>
        <time>2016-07-13T13:55:26.000Z</time>
      </trkpt>
      <trkpt lat="44.56179" lon="6.21371">
        <ele>837.59997558594</ele>
        <time>2016-07-13T13:55:47.000Z</time>
      </trkpt>
      <trkpt lat="44.56188" lon="6.21379">
        <ele>838.59997558594</ele>
        <time>2016-07-13T13:55:54.000Z</time>
      </trkpt>
      <trkpt lat="44.56194" lon="6.21393">
        <ele>839.20001220703</ele>
        <time>2016-07-13T13:56:02.000Z</time>
      </trkpt>
      <trkpt lat="44.56194" lon="6.21401">
        <ele>839.40002441406</ele>
        <time>2016-07-13T13:56:06.000Z</time>
      </trkpt>
      <trkpt lat="44.562" lon="6.21412">
        <ele>840.20001220703</ele>
        <time>2016-07-13T13:56:13.000Z</time>
      </trkpt>
      <trkpt lat="44.56208" lon="6.21424">
        <ele>841.40002441406</ele>
        <time>2016-07-13T13:56:22.000Z</time>
      </trkpt>
      <trkpt lat="44.56215" lon="6.21433">
        <ele>842.40002441406</ele>
        <time>2016-07-13T13:56:28.000Z</time>
      </trkpt>
      <trkpt lat="44.56221" lon="6.21446">
        <ele>843.40002441406</ele>
        <time>2016-07-13T13:56:36.000Z</time>
      </trkpt>
      <trkpt lat="44.56227" lon="6.21463">
        <ele>844.40002441406</ele>
        <time>2016-07-13T13:56:46.000Z</time>
      </trkpt>
      <trkpt lat="44.56231" lon="6.21472">
        <ele>845.20001220703</ele>
        <time>2016-07-13T13:56:52.000Z</time>
      </trkpt>
      <trkpt lat="44.5624" lon="6.21487">
        <ele>846.59997558594</ele>
        <time>2016-07-13T13:57:01.000Z</time>
      </trkpt>
      <trkpt lat="44.56247" lon="6.21505">
        <ele>847.59997558594</ele>
        <time>2016-07-13T13:57:11.000Z</time>
      </trkpt>
      <trkpt lat="44.56252" lon="6.21518">
        <ele>848.40002441406</ele>
        <time>2016-07-13T13:57:18.000Z</time>
      </trkpt>
      <trkpt lat="44.56259" lon="6.21528">
        <ele>849.40002441406</ele>
        <time>2016-07-13T13:57:26.000Z</time>
      </trkpt>
      <trkpt lat="44.5628" lon="6.21556">
        <ele>852.40002441406</ele>
        <time>2016-07-13T13:57:47.000Z</time>
      </trkpt>
      <trkpt lat="44.56289" lon="6.21577">
        <ele>853.79998779297</ele>
        <time>2016-07-13T13:57:59.000Z</time>
      </trkpt>
      <trkpt lat="44.56297" lon="6.21596">
        <ele>854.59997558594</ele>
        <time>2016-07-13T13:58:10.000Z</time>
      </trkpt>
      <trkpt lat="44.56302" lon="6.21611">
        <ele>855.40002441406</ele>
        <time>2016-07-13T13:58:19.000Z</time>
      </trkpt>
      <trkpt lat="44.56308" lon="6.21643">
        <ele>856.79998779297</ele>
        <time>2016-07-13T13:58:35.000Z</time>
      </trkpt>
      <trkpt lat="44.56309" lon="6.2165">
        <ele>857</ele>
        <time>2016-07-13T13:58:38.000Z</time>
      </trkpt>
      <trkpt lat="44.56308" lon="6.21665">
        <ele>857.79998779297</ele>
        <time>2016-07-13T13:58:55.000Z</time>
      </trkpt>
      <trkpt lat="44.56308" lon="6.21676">
        <ele>858.40002441406</ele>
        <time>2016-07-13T13:59:01.000Z</time>
      </trkpt>
      <trkpt lat="44.56308" lon="6.21681">
        <ele>858.59997558594</ele>
        <time>2016-07-13T13:59:04.000Z</time>
      </trkpt>
      <trkpt lat="44.56308" lon="6.21689">
        <ele>859</ele>
        <time>2016-07-13T13:59:08.000Z</time>
      </trkpt>
      <trkpt lat="44.56307" lon="6.21692">
        <ele>859</ele>
        <time>2016-07-13T13:59:10.000Z</time>
      </trkpt>
      <trkpt lat="44.56308" lon="6.21703">
        <ele>859.59997558594</ele>
        <time>2016-07-13T13:59:16.000Z</time>
      </trkpt>
      <trkpt lat="44.56308" lon="6.21709">
        <ele>859.79998779297</ele>
        <time>2016-07-13T13:59:19.000Z</time>
      </trkpt>
      <trkpt lat="44.56308" lon="6.21724">
        <ele>860.59997558594</ele>
        <time>2016-07-13T13:59:26.000Z</time>
      </trkpt>
      <trkpt lat="44.56309" lon="6.21738">
        <ele>861.40002441406</ele>
        <time>2016-07-13T13:59:33.000Z</time>
      </trkpt>
      <trkpt lat="44.56314" lon="6.21771">
        <ele>863.20001220703</ele>
        <time>2016-07-13T13:59:48.000Z</time>
      </trkpt>
      <trkpt lat="44.56314" lon="6.21772">
        <ele>863.20001220703</ele>
        <time>2016-07-13T13:59:49.000Z</time>
      </trkpt>
      <trkpt lat="44.56316" lon="6.21787">
        <ele>864</ele>
        <time>2016-07-13T13:59:56.000Z</time>
      </trkpt>
      <trkpt lat="44.56315" lon="6.21791">
        <ele>864.20001220703</ele>
        <time>2016-07-13T14:00:08.000Z</time>
      </trkpt>
      <trkpt lat="44.56316" lon="6.21802">
        <ele>864.59997558594</ele>
        <time>2016-07-13T14:00:14.000Z</time>
      </trkpt>
      <trkpt lat="44.5632" lon="6.21816">
        <ele>865.40002441406</ele>
        <time>2016-07-13T14:00:20.000Z</time>
      </trkpt>
      <trkpt lat="44.56323" lon="6.21827">
        <ele>866</ele>
        <time>2016-07-13T14:00:25.000Z</time>
      </trkpt>
      <trkpt lat="44.56324" lon="6.2184">
        <ele>866.79998779297</ele>
        <time>2016-07-13T14:00:29.000Z</time>
      </trkpt>
      <trkpt lat="44.56325" lon="6.21846">
        <ele>867.20001220703</ele>
        <time>2016-07-13T14:00:31.000Z</time>
      </trkpt>
      <trkpt lat="44.5633" lon="6.21869">
        <ele>867.79998779297</ele>
        <time>2016-07-13T14:00:39.000Z</time>
      </trkpt>
      <trkpt lat="44.56333" lon="6.21888">
        <ele>867.79998779297</ele>
        <time>2016-07-13T14:00:47.000Z</time>
      </trkpt>
      <trkpt lat="44.56338" lon="6.21907">
        <ele>868.20001220703</ele>
        <time>2016-07-13T14:00:56.000Z</time>
      </trkpt>
      <trkpt lat="44.56349" lon="6.21922">
        <ele>869.20001220703</ele>
        <time>2016-07-13T14:01:06.000Z</time>
      </trkpt>
      <trkpt lat="44.56359" lon="6.21931">
        <ele>870.20001220703</ele>
        <time>2016-07-13T14:01:14.000Z</time>
      </trkpt>
      <trkpt lat="44.56362" lon="6.21935">
        <ele>870.40002441406</ele>
        <time>2016-07-13T14:01:17.000Z</time>
      </trkpt>
      <trkpt lat="44.56363" lon="6.21941">
        <ele>870.59997558594</ele>
        <time>2016-07-13T14:01:20.000Z</time>
      </trkpt>
      <trkpt lat="44.56366" lon="6.21956">
        <ele>870.79998779297</ele>
        <time>2016-07-13T14:01:28.000Z</time>
      </trkpt>
      <trkpt lat="44.56371" lon="6.21983">
        <ele>871.20001220703</ele>
        <time>2016-07-13T14:01:40.000Z</time>
      </trkpt>
      <trkpt lat="44.56374" lon="6.22">
        <ele>871.20001220703</ele>
        <time>2016-07-13T14:01:48.000Z</time>
      </trkpt>
      <trkpt lat="44.56376" lon="6.22021">
        <ele>871.40002441406</ele>
        <time>2016-07-13T14:01:58.000Z</time>
      </trkpt>
      <trkpt lat="44.56376" lon="6.22037">
        <ele>871.40002441406</ele>
        <time>2016-07-13T14:02:05.000Z</time>
      </trkpt>
      <trkpt lat="44.56378" lon="6.22056">
        <ele>871.40002441406</ele>
        <time>2016-07-13T14:02:13.000Z</time>
      </trkpt>
      <trkpt lat="44.56377" lon="6.22072">
        <ele>871.79998779297</ele>
        <time>2016-07-13T14:02:21.000Z</time>
      </trkpt>
      <trkpt lat="44.56378" lon="6.22074">
        <ele>871.79998779297</ele>
        <time>2016-07-13T14:02:22.000Z</time>
      </trkpt>
      <trkpt lat="44.56383" lon="6.22085">
        <ele>872.59997558594</ele>
        <time>2016-07-13T14:02:28.000Z</time>
      </trkpt>
      <trkpt lat="44.56391" lon="6.22104">
        <ele>873.59997558594</ele>
        <time>2016-07-13T14:02:39.000Z</time>
      </trkpt>
      <trkpt lat="44.56396" lon="6.2211">
        <ele>874</ele>
        <time>2016-07-13T14:02:44.000Z</time>
      </trkpt>
      <trkpt lat="44.56398" lon="6.22104">
        <ele>874</ele>
        <time>2016-07-13T14:02:48.000Z</time>
      </trkpt>
      <trkpt lat="44.564" lon="6.22093">
        <ele>873.59997558594</ele>
        <time>2016-07-13T14:02:54.000Z</time>
      </trkpt>
      <trkpt lat="44.56403" lon="6.22081">
        <ele>873.20001220703</ele>
        <time>2016-07-13T14:03:00.000Z</time>
      </trkpt>
      <trkpt lat="44.56403" lon="6.22079">
        <ele>873</ele>
        <time>2016-07-13T14:03:01.000Z</time>
      </trkpt>
      <trkpt lat="44.56407" lon="6.22064">
        <ele>872.59997558594</ele>
        <time>2016-07-13T14:03:08.000Z</time>
      </trkpt>
      <trkpt lat="44.56416" lon="6.22044">
        <ele>872.79998779297</ele>
        <time>2016-07-13T14:03:19.000Z</time>
      </trkpt>
      <trkpt lat="44.56428" lon="6.22028">
        <ele>873</ele>
        <time>2016-07-13T14:03:29.000Z</time>
      </trkpt>
      <trkpt lat="44.56436" lon="6.2202">
        <ele>872.79998779297</ele>
        <time>2016-07-13T14:03:37.000Z</time>
      </trkpt>
      <trkpt lat="44.56441" lon="6.22017">
        <ele>872.79998779297</ele>
        <time>2016-07-13T14:03:43.000Z</time>
      </trkpt>
      <trkpt lat="44.56452" lon="6.22011">
        <ele>872.79998779297</ele>
        <time>2016-07-13T14:03:50.000Z</time>
      </trkpt>
      <trkpt lat="44.56464" lon="6.2201">
        <ele>873.79998779297</ele>
        <time>2016-07-13T14:03:59.000Z</time>
      </trkpt>
      <trkpt lat="44.56475" lon="6.22012">
        <ele>874.59997558594</ele>
        <time>2016-07-13T14:04:08.000Z</time>
      </trkpt>
      <trkpt lat="44.5648" lon="6.22014">
        <ele>875</ele>
        <time>2016-07-13T14:04:21.000Z</time>
      </trkpt>
      <trkpt lat="44.56491" lon="6.2201">
        <ele>875.59997558594</ele>
        <time>2016-07-13T14:04:29.000Z</time>
      </trkpt>
      <trkpt lat="44.56504" lon="6.22002">
        <ele>876.40002441406</ele>
        <time>2016-07-13T14:04:39.000Z</time>
      </trkpt>
      <trkpt lat="44.56516" lon="6.21993">
        <ele>877</ele>
        <time>2016-07-13T14:04:48.000Z</time>
      </trkpt>
      <trkpt lat="44.56527" lon="6.21994">
        <ele>877.79998779297</ele>
        <time>2016-07-13T14:04:56.000Z</time>
      </trkpt>
      <trkpt lat="44.56537" lon="6.21996">
        <ele>878.59997558594</ele>
        <time>2016-07-13T14:05:03.000Z</time>
      </trkpt>
      <trkpt lat="44.56553" lon="6.21999">
        <ele>879.79998779297</ele>
        <time>2016-07-13T14:05:15.000Z</time>
      </trkpt>
      <trkpt lat="44.56569" lon="6.22">
        <ele>881</ele>
        <time>2016-07-13T14:05:26.000Z</time>
      </trkpt>
      <trkpt lat="44.56583" lon="6.22005">
        <ele>882.20001220703</ele>
        <time>2016-07-13T14:05:36.000Z</time>
      </trkpt>
      <trkpt lat="44.56592" lon="6.22006">
        <ele>882.79998779297</ele>
        <time>2016-07-13T14:05:43.000Z</time>
      </trkpt>
      <trkpt lat="44.56604" lon="6.22007">
        <ele>883.59997558594</ele>
        <time>2016-07-13T14:05:52.000Z</time>
      </trkpt>
      <trkpt lat="44.56618" lon="6.22013">
        <ele>884.79998779297</ele>
        <time>2016-07-13T14:06:02.000Z</time>
      </trkpt>
      <trkpt lat="44.56636" lon="6.2202">
        <ele>886.40002441406</ele>
        <time>2016-07-13T14:06:14.000Z</time>
      </trkpt>
      <trkpt lat="44.56652" lon="6.22028">
        <ele>887.59997558594</ele>
        <time>2016-07-13T14:06:24.000Z</time>
      </trkpt>
      <trkpt lat="44.56674" lon="6.22044">
        <ele>889.59997558594</ele>
        <time>2016-07-13T14:06:43.000Z</time>
      </trkpt>
      <trkpt lat="44.56675" lon="6.22045">
        <ele>889.79998779297</ele>
        <time>2016-07-13T14:06:50.000Z</time>
      </trkpt>
      <trkpt lat="44.56684" lon="6.22048">
        <ele>890.40002441406</ele>
        <time>2016-07-13T14:06:56.000Z</time>
      </trkpt>
      <trkpt lat="44.56688" lon="6.22052">
        <ele>890.79998779297</ele>
        <time>2016-07-13T14:07:00.000Z</time>
      </trkpt>
      <trkpt lat="44.56699" lon="6.22058">
        <ele>891.79998779297</ele>
        <time>2016-07-13T14:07:07.000Z</time>
      </trkpt>
      <trkpt lat="44.56714" lon="6.22069">
        <ele>893.59997558594</ele>
        <time>2016-07-13T14:07:18.000Z</time>
      </trkpt>
      <trkpt lat="44.56736" lon="6.22089">
        <ele>896.40002441406</ele>
        <time>2016-07-13T14:07:34.000Z</time>
      </trkpt>
      <trkpt lat="44.56743" lon="6.22093">
        <ele>897.20001220703</ele>
        <time>2016-07-13T14:07:40.000Z</time>
      </trkpt>
      <trkpt lat="44.56755" lon="6.22091">
        <ele>898.59997558594</ele>
        <time>2016-07-13T14:07:47.000Z</time>
      </trkpt>
      <trkpt lat="44.56764" lon="6.22085">
        <ele>899.40002441406</ele>
        <time>2016-07-13T14:07:53.000Z</time>
      </trkpt>
      <trkpt lat="44.56777" lon="6.22073">
        <ele>900.40002441406</ele>
        <time>2016-07-13T14:08:04.000Z</time>
      </trkpt>
      <trkpt lat="44.56778" lon="6.22073">
        <ele>900.59997558594</ele>
        <time>2016-07-13T14:08:05.000Z</time>
      </trkpt>
      <trkpt lat="44.56782" lon="6.2207">
        <ele>900.79998779297</ele>
        <time>2016-07-13T14:08:09.000Z</time>
      </trkpt>
      <trkpt lat="44.56796" lon="6.22056">
        <ele>901.79998779297</ele>
        <time>2016-07-13T14:08:21.000Z</time>
      </trkpt>
      <trkpt lat="44.5681" lon="6.22046">
        <ele>902.59997558594</ele>
        <time>2016-07-13T14:08:32.000Z</time>
      </trkpt>
      <trkpt lat="44.5682" lon="6.22037">
        <ele>903.20001220703</ele>
        <time>2016-07-13T14:08:40.000Z</time>
      </trkpt>
      <trkpt lat="44.56834" lon="6.22021">
        <ele>904</ele>
        <time>2016-07-13T14:08:52.000Z</time>
      </trkpt>
      <trkpt lat="44.56844" lon="6.22008">
        <ele>904.40002441406</ele>
        <time>2016-07-13T14:09:01.000Z</time>
      </trkpt>
      <trkpt lat="44.56854" lon="6.21988">
        <ele>904.79998779297</ele>
        <time>2016-07-13T14:09:13.000Z</time>
      </trkpt>
      <trkpt lat="44.56864" lon="6.21968">
        <ele>905.40002441406</ele>
        <time>2016-07-13T14:09:25.000Z</time>
      </trkpt>
      <trkpt lat="44.56877" lon="6.21949">
        <ele>905.79998779297</ele>
        <time>2016-07-13T14:09:39.000Z</time>
      </trkpt>
      <trkpt lat="44.56897" lon="6.21928">
        <ele>906.59997558594</ele>
        <time>2016-07-13T14:09:55.000Z</time>
      </trkpt>
      <trkpt lat="44.56908" lon="6.2191">
        <ele>906.59997558594</ele>
        <time>2016-07-13T14:10:06.000Z</time>
      </trkpt>
      <trkpt lat="44.56912" lon="6.21894">
        <ele>906.20001220703</ele>
        <time>2016-07-13T14:10:14.000Z</time>
      </trkpt>
      <trkpt lat="44.5692" lon="6.21877">
        <ele>906</ele>
        <time>2016-07-13T14:10:23.000Z</time>
      </trkpt>
      <trkpt lat="44.56922" lon="6.21872">
        <ele>905.79998779297</ele>
        <time>2016-07-13T14:10:29.000Z</time>
      </trkpt>
      <trkpt lat="44.56933" lon="6.21848">
        <ele>906.20001220703</ele>
        <time>2016-07-13T14:10:43.000Z</time>
      </trkpt>
      <trkpt lat="44.56936" lon="6.21843">
        <ele>906.20001220703</ele>
        <time>2016-07-13T14:10:46.000Z</time>
      </trkpt>
      <trkpt lat="44.56937" lon="6.21839">
        <ele>906.20001220703</ele>
        <time>2016-07-13T14:10:48.000Z</time>
      </trkpt>
      <trkpt lat="44.56943" lon="6.21823">
        <ele>906.59997558594</ele>
        <time>2016-07-13T14:10:57.000Z</time>
      </trkpt>
      <trkpt lat="44.56947" lon="6.21814">
        <ele>906.59997558594</ele>
        <time>2016-07-13T14:11:02.000Z</time>
      </trkpt>
      <trkpt lat="44.56956" lon="6.21805">
        <ele>907</ele>
        <time>2016-07-13T14:11:11.000Z</time>
      </trkpt>
      <trkpt lat="44.56958" lon="6.21802">
        <ele>907</ele>
        <time>2016-07-13T14:11:13.000Z</time>
      </trkpt>
      <trkpt lat="44.56961" lon="6.21802">
        <ele>907.20001220703</ele>
        <time>2016-07-13T14:11:15.000Z</time>
      </trkpt>
      <trkpt lat="44.56965" lon="6.21804">
        <ele>907.59997558594</ele>
        <time>2016-07-13T14:11:18.000Z</time>
      </trkpt>
      <trkpt lat="44.56991" lon="6.21823">
        <ele>910.40002441406</ele>
        <time>2016-07-13T14:11:36.000Z</time>
      </trkpt>
      <trkpt lat="44.57012" lon="6.21834">
        <ele>912.40002441406</ele>
        <time>2016-07-13T14:11:51.000Z</time>
      </trkpt>
      <trkpt lat="44.57017" lon="6.21839">
        <ele>913</ele>
        <time>2016-07-13T14:11:56.000Z</time>
      </trkpt>
      <trkpt lat="44.57024" lon="6.21844">
        <ele>913.79998779297</ele>
        <time>2016-07-13T14:12:01.000Z</time>
      </trkpt>
      <trkpt lat="44.57032" lon="6.21852">
        <ele>914.79998779297</ele>
        <time>2016-07-13T14:12:08.000Z</time>
      </trkpt>
      <trkpt lat="44.57033" lon="6.21853">
        <ele>914.79998779297</ele>
        <time>2016-07-13T14:12:11.000Z</time>
      </trkpt>
      <trkpt lat="44.57036" lon="6.21853">
        <ele>915.20001220703</ele>
        <time>2016-07-13T14:12:14.000Z</time>
      </trkpt>
      <trkpt lat="44.57042" lon="6.21861">
        <ele>916.20001220703</ele>
        <time>2016-07-13T14:12:19.000Z</time>
      </trkpt>
      <trkpt lat="44.57049" lon="6.21875">
        <ele>917.59997558594</ele>
        <time>2016-07-13T14:12:27.000Z</time>
      </trkpt>
      <trkpt lat="44.57059" lon="6.21888">
        <ele>919.20001220703</ele>
        <time>2016-07-13T14:12:34.000Z</time>
      </trkpt>
      <trkpt lat="44.57072" lon="6.21907">
        <ele>921.20001220703</ele>
        <time>2016-07-13T14:12:45.000Z</time>
      </trkpt>
      <trkpt lat="44.57083" lon="6.21923">
        <ele>922.59997558594</ele>
        <time>2016-07-13T14:12:55.000Z</time>
      </trkpt>
      <trkpt lat="44.57095" lon="6.2194">
        <ele>924</ele>
        <time>2016-07-13T14:13:06.000Z</time>
      </trkpt>
      <trkpt lat="44.57106" lon="6.2195">
        <ele>925.40002441406</ele>
        <time>2016-07-13T14:13:15.000Z</time>
      </trkpt>
      <trkpt lat="44.57138" lon="6.2193">
        <ele>929.20001220703</ele>
        <time>2016-07-13T14:13:53.000Z</time>
      </trkpt>
      <trkpt lat="44.5715" lon="6.21914">
        <ele>930</ele>
        <time>2016-07-13T14:14:04.000Z</time>
      </trkpt>
      <trkpt lat="44.57157" lon="6.21893">
        <ele>929.59997558594</ele>
        <time>2016-07-13T14:14:15.000Z</time>
      </trkpt>
      <trkpt lat="44.57164" lon="6.21871">
        <ele>929</ele>
        <time>2016-07-13T14:14:26.000Z</time>
      </trkpt>
      <trkpt lat="44.5717" lon="6.21856">
        <ele>928.79998779297</ele>
        <time>2016-07-13T14:14:34.000Z</time>
      </trkpt>
      <trkpt lat="44.57176" lon="6.21832">
        <ele>928.79998779297</ele>
        <time>2016-07-13T14:14:46.000Z</time>
      </trkpt>
      <trkpt lat="44.57179" lon="6.21817">
        <ele>928.59997558594</ele>
        <time>2016-07-13T14:14:53.000Z</time>
      </trkpt>
      <trkpt lat="44.57183" lon="6.21803">
        <ele>928.20001220703</ele>
        <time>2016-07-13T14:15:00.000Z</time>
      </trkpt>
      <trkpt lat="44.57188" lon="6.21786">
        <ele>928.40002441406</ele>
        <time>2016-07-13T14:15:08.000Z</time>
      </trkpt>
      <trkpt lat="44.57193" lon="6.21773">
        <ele>929.20001220703</ele>
        <time>2016-07-13T14:15:15.000Z</time>
      </trkpt>
      <trkpt lat="44.57201" lon="6.21755">
        <ele>930.40002441406</ele>
        <time>2016-07-13T14:15:25.000Z</time>
      </trkpt>
      <trkpt lat="44.57212" lon="6.21734">
        <ele>932.20001220703</ele>
        <time>2016-07-13T14:15:37.000Z</time>
      </trkpt>
      <trkpt lat="44.57223" lon="6.21718">
        <ele>934.59997558594</ele>
        <time>2016-07-13T14:15:47.000Z</time>
      </trkpt>
      <trkpt lat="44.57229" lon="6.21708">
        <ele>935.79998779297</ele>
        <time>2016-07-13T14:15:54.000Z</time>
      </trkpt>
      <trkpt lat="44.57237" lon="6.21694">
        <ele>937.20001220703</ele>
        <time>2016-07-13T14:16:03.000Z</time>
      </trkpt>
      <trkpt lat="44.57242" lon="6.21679">
        <ele>938</ele>
        <time>2016-07-13T14:16:11.000Z</time>
      </trkpt>
      <trkpt lat="44.5725" lon="6.21657">
        <ele>938.79998779297</ele>
        <time>2016-07-13T14:16:23.000Z</time>
      </trkpt>
      <trkpt lat="44.57257" lon="6.2164">
        <ele>939.40002441406</ele>
        <time>2016-07-13T14:16:33.000Z</time>
      </trkpt>
      <trkpt lat="44.57265" lon="6.21624">
        <ele>939.40002441406</ele>
        <time>2016-07-13T14:16:42.000Z</time>
      </trkpt>
      <trkpt lat="44.57266" lon="6.21622">
        <ele>939.59997558594</ele>
        <time>2016-07-13T14:16:44.000Z</time>
      </trkpt>
      <trkpt lat="44.57274" lon="6.21612">
        <ele>940.79998779297</ele>
        <time>2016-07-13T14:16:52.000Z</time>
      </trkpt>
      <trkpt lat="44.57281" lon="6.21596">
        <ele>941.40002441406</ele>
        <time>2016-07-13T14:17:01.000Z</time>
      </trkpt>
      <trkpt lat="44.57286" lon="6.21584">
        <ele>941.59997558594</ele>
        <time>2016-07-13T14:17:08.000Z</time>
      </trkpt>
      <trkpt lat="44.57289" lon="6.21571">
        <ele>941.59997558594</ele>
        <time>2016-07-13T14:17:15.000Z</time>
      </trkpt>
      <trkpt lat="44.57294" lon="6.21554">
        <ele>942.40002441406</ele>
        <time>2016-07-13T14:17:24.000Z</time>
      </trkpt>
      <trkpt lat="44.57301" lon="6.21533">
        <ele>943.79998779297</ele>
        <time>2016-07-13T14:17:35.000Z</time>
      </trkpt>
      <trkpt lat="44.57307" lon="6.21507">
        <ele>944.79998779297</ele>
        <time>2016-07-13T14:17:48.000Z</time>
      </trkpt>
      <trkpt lat="44.57314" lon="6.21482">
        <ele>946.79998779297</ele>
        <time>2016-07-13T14:18:01.000Z</time>
      </trkpt>
      <trkpt lat="44.57321" lon="6.21457">
        <ele>948.40002441406</ele>
        <time>2016-07-13T14:18:14.000Z</time>
      </trkpt>
      <trkpt lat="44.57325" lon="6.2144">
        <ele>949.20001220703</ele>
        <time>2016-07-13T14:18:23.000Z</time>
      </trkpt>
      <trkpt lat="44.57332" lon="6.21416">
        <ele>950.20001220703</ele>
        <time>2016-07-13T14:18:36.000Z</time>
      </trkpt>
      <trkpt lat="44.57336" lon="6.21397">
        <ele>950.79998779297</ele>
        <time>2016-07-13T14:18:46.000Z</time>
      </trkpt>
      <trkpt lat="44.57342" lon="6.2138">
        <ele>952.79998779297</ele>
        <time>2016-07-13T14:18:55.000Z</time>
      </trkpt>
      <trkpt lat="44.5735" lon="6.2136">
        <ele>955.40002441406</ele>
        <time>2016-07-13T14:19:06.000Z</time>
      </trkpt>
      <trkpt lat="44.57356" lon="6.21344">
        <ele>957.59997558594</ele>
        <time>2016-07-13T14:19:15.000Z</time>
      </trkpt>
      <trkpt lat="44.57363" lon="6.21327">
        <ele>960.20001220703</ele>
        <time>2016-07-13T14:19:25.000Z</time>
      </trkpt>
      <trkpt lat="44.57369" lon="6.21315">
        <ele>962.20001220703</ele>
        <time>2016-07-13T14:19:32.000Z</time>
      </trkpt>
      <trkpt lat="44.57375" lon="6.2129">
        <ele>963.20001220703</ele>
        <time>2016-07-13T14:19:45.000Z</time>
      </trkpt>
      <trkpt lat="44.57381" lon="6.21275">
        <ele>964.40002441406</ele>
        <time>2016-07-13T14:19:54.000Z</time>
      </trkpt>
      <trkpt lat="44.57385" lon="6.21264">
        <ele>964.79998779297</ele>
        <time>2016-07-13T14:20:02.000Z</time>
      </trkpt>
      <trkpt lat="44.57385" lon="6.21263">
        <ele>964.79998779297</ele>
        <time>2016-07-13T14:20:03.000Z</time>
      </trkpt>
      <trkpt lat="44.57388" lon="6.21259">
        <ele>965.40002441406</ele>
        <time>2016-07-13T14:20:06.000Z</time>
      </trkpt>
      <trkpt lat="44.57394" lon="6.21246">
        <ele>967</ele>
        <time>2016-07-13T14:20:14.000Z</time>
      </trkpt>
      <trkpt lat="44.57408" lon="6.21211">
        <ele>969.20001220703</ele>
        <time>2016-07-13T14:20:34.000Z</time>
      </trkpt>
      <trkpt lat="44.5741" lon="6.21202">
        <ele>969.20001220703</ele>
        <time>2016-07-13T14:20:40.000Z</time>
      </trkpt>
      <trkpt lat="44.57415" lon="6.21186">
        <ele>969.59997558594</ele>
        <time>2016-07-13T14:20:48.000Z</time>
      </trkpt>
      <trkpt lat="44.57416" lon="6.21174">
        <ele>970.40002441406</ele>
        <time>2016-07-13T14:20:54.000Z</time>
      </trkpt>
      <trkpt lat="44.57416" lon="6.21161">
        <ele>970.40002441406</ele>
        <time>2016-07-13T14:21:01.000Z</time>
      </trkpt>
      <trkpt lat="44.57415" lon="6.21149">
        <ele>970.40002441406</ele>
        <time>2016-07-13T14:21:08.000Z</time>
      </trkpt>
      <trkpt lat="44.57414" lon="6.21134">
        <ele>969.79998779297</ele>
        <time>2016-07-13T14:21:16.000Z</time>
      </trkpt>
      <trkpt lat="44.57416" lon="6.21126">
        <ele>970.40002441406</ele>
        <time>2016-07-13T14:21:20.000Z</time>
      </trkpt>
      <trkpt lat="44.57421" lon="6.21128">
        <ele>972.20001220703</ele>
        <time>2016-07-13T14:21:24.000Z</time>
      </trkpt>
      <trkpt lat="44.57429" lon="6.21148">
        <ele>974.79998779297</ele>
        <time>2016-07-13T14:21:35.000Z</time>
      </trkpt>
      <trkpt lat="44.57432" lon="6.21166">
        <ele>975.59997558594</ele>
        <time>2016-07-13T14:21:45.000Z</time>
      </trkpt>
      <trkpt lat="44.57433" lon="6.21167">
        <ele>975.79998779297</ele>
        <time>2016-07-13T14:21:53.000Z</time>
      </trkpt>
      <trkpt lat="44.57435" lon="6.21173">
        <ele>976.40002441406</ele>
        <time>2016-07-13T14:22:02.000Z</time>
      </trkpt>
      <trkpt lat="44.57438" lon="6.21183">
        <ele>977.20001220703</ele>
        <time>2016-07-13T14:22:08.000Z</time>
      </trkpt>
      <trkpt lat="44.57441" lon="6.21196">
        <ele>978</ele>
        <time>2016-07-13T14:22:15.000Z</time>
      </trkpt>
      <trkpt lat="44.57443" lon="6.21213">
        <ele>978.59997558594</ele>
        <time>2016-07-13T14:22:24.000Z</time>
      </trkpt>
      <trkpt lat="44.57449" lon="6.21255">
        <ele>980.59997558594</ele>
        <time>2016-07-13T14:22:45.000Z</time>
      </trkpt>
      <trkpt lat="44.57455" lon="6.21274">
        <ele>982.79998779297</ele>
        <time>2016-07-13T14:22:56.000Z</time>
      </trkpt>
      <trkpt lat="44.57459" lon="6.2129">
        <ele>984.59997558594</ele>
        <time>2016-07-13T14:23:04.000Z</time>
      </trkpt>
      <trkpt lat="44.57462" lon="6.21299">
        <ele>985.79998779297</ele>
        <time>2016-07-13T14:23:10.000Z</time>
      </trkpt>
      <trkpt lat="44.57462" lon="6.21301">
        <ele>986</ele>
        <time>2016-07-13T14:23:11.000Z</time>
      </trkpt>
      <trkpt lat="44.57462" lon="6.21306">
        <ele>985.79998779297</ele>
        <time>2016-07-13T14:23:13.000Z</time>
      </trkpt>
      <trkpt lat="44.57467" lon="6.21321">
        <ele>988.20001220703</ele>
        <time>2016-07-13T14:23:21.000Z</time>
      </trkpt>
      <trkpt lat="44.57468" lon="6.21323">
        <ele>988.59997558594</ele>
        <time>2016-07-13T14:23:22.000Z</time>
      </trkpt>
      <trkpt lat="44.57475" lon="6.21339">
        <ele>992</ele>
        <time>2016-07-13T14:23:30.000Z</time>
      </trkpt>
      <trkpt lat="44.57481" lon="6.21359">
        <ele>994.79998779297</ele>
        <time>2016-07-13T14:23:41.000Z</time>
      </trkpt>
      <trkpt lat="44.57482" lon="6.2136">
        <ele>995</ele>
        <time>2016-07-13T14:23:42.000Z</time>
      </trkpt>
      <trkpt lat="44.5748" lon="6.21383">
        <ele>994.79998779297</ele>
        <time>2016-07-13T14:23:53.000Z</time>
      </trkpt>
      <trkpt lat="44.5748" lon="6.21388">
        <ele>994.79998779297</ele>
        <time>2016-07-13T14:23:58.000Z</time>
      </trkpt>
      <trkpt lat="44.57481" lon="6.21395">
        <ele>995</ele>
        <time>2016-07-13T14:24:15.000Z</time>
      </trkpt>
      <trkpt lat="44.57479" lon="6.21405">
        <ele>994.40002441406</ele>
        <time>2016-07-13T14:24:21.000Z</time>
      </trkpt>
      <trkpt lat="44.57476" lon="6.21416">
        <ele>993</ele>
        <time>2016-07-13T14:24:28.000Z</time>
      </trkpt>
      <trkpt lat="44.57474" lon="6.21429">
        <ele>992.79998779297</ele>
        <time>2016-07-13T14:24:36.000Z</time>
      </trkpt>
      <trkpt lat="44.57474" lon="6.21445">
        <ele>993.40002441406</ele>
        <time>2016-07-13T14:24:45.000Z</time>
      </trkpt>
      <trkpt lat="44.57474" lon="6.21454">
        <ele>994</ele>
        <time>2016-07-13T14:24:51.000Z</time>
      </trkpt>
      <trkpt lat="44.57475" lon="6.21466">
        <ele>995.20001220703</ele>
        <time>2016-07-13T14:24:58.000Z</time>
      </trkpt>
      <trkpt lat="44.57476" lon="6.21469">
        <ele>995.40002441406</ele>
        <time>2016-07-13T14:25:00.000Z</time>
      </trkpt>
      <trkpt lat="44.57478" lon="6.21472">
        <ele>996.20001220703</ele>
        <time>2016-07-13T14:25:03.000Z</time>
      </trkpt>
      <trkpt lat="44.57479" lon="6.21474">
        <ele>996.79998779297</ele>
        <time>2016-07-13T14:25:12.000Z</time>
      </trkpt>
      <trkpt lat="44.57478" lon="6.21473">
        <ele>996.59997558594</ele>
        <time>2016-07-13T14:25:27.000Z</time>
      </trkpt>
      <trkpt lat="44.57479" lon="6.21474">
        <ele>996.59997558594</ele>
        <time>2016-07-13T14:25:34.000Z</time>
      </trkpt>
      <trkpt lat="44.5748" lon="6.21474">
        <ele>997</ele>
        <time>2016-07-13T14:25:47.000Z</time>
      </trkpt>
    </trkseg>
  </trk>
</gpx>